<?xml version="1.0" encoding="UTF-8" standalone="no" ?>
<gpx xmlns="http://www.topografix.com/GPX/1/1" xmlns:xsi="http://www.w3.org/2001/XMLSchema-instance" xsi:schemaLocation="http://www.topografix.com/GPX/1/1 http://www.topografix.com/GPX/1/1/gpx.xsd" version="1.1" creator="VisuGPX - https://www.visugpx.com">
  <metadata>
    <name>Balade à Auvers sur Oise et Valmoois</name>
    <desc><![CDATA[Rando oise mery]]></desc>
  </metadata>
  <trk>
    <name><![CDATA[1/11/2015 10:50]]></name>
    <desc><![CDATA[Rando oise mery]]></desc>
    <trkseg>
      <trkpt lat="49.05767" lon="2.19038">
        <ele>124</ele>
        <time>2015-11-01T09:50:25.618Z</time>
      </trkpt>
      <trkpt lat="49.0576" lon="2.19046">
        <ele>110</ele>
        <time>2015-11-01T09:50:31.115Z</time>
      </trkpt>
      <trkpt lat="49.05759" lon="2.19048">
        <ele>121</ele>
        <time>2015-11-01T09:50:32.048Z</time>
      </trkpt>
      <trkpt lat="49.05755" lon="2.19036">
        <ele>121</ele>
        <time>2015-11-01T09:50:37.471Z</time>
      </trkpt>
      <trkpt lat="49.05754" lon="2.19035">
        <ele>119</ele>
        <time>2015-11-01T09:50:38.423Z</time>
      </trkpt>
      <trkpt lat="49.05754" lon="2.19022">
        <ele>115</ele>
        <time>2015-11-01T09:50:50.484Z</time>
      </trkpt>
      <trkpt lat="49.05754" lon="2.19021">
        <ele>116</ele>
        <time>2015-11-01T09:50:51.423Z</time>
      </trkpt>
      <trkpt lat="49.05759" lon="2.19011">
        <ele>115</ele>
        <time>2015-11-01T09:51:00.480Z</time>
      </trkpt>
      <trkpt lat="49.0576" lon="2.1901">
        <ele>116</ele>
        <time>2015-11-01T09:51:01.432Z</time>
      </trkpt>
      <trkpt lat="49.05768" lon="2.19004">
        <ele>116</ele>
        <time>2015-11-01T09:51:09.520Z</time>
      </trkpt>
      <trkpt lat="49.05769" lon="2.19003">
        <ele>116</ele>
        <time>2015-11-01T09:51:10.428Z</time>
      </trkpt>
      <trkpt lat="49.05776" lon="2.18998">
        <ele>113</ele>
        <time>2015-11-01T09:51:18.476Z</time>
      </trkpt>
      <trkpt lat="49.05777" lon="2.18997">
        <ele>112</ele>
        <time>2015-11-01T09:51:19.434Z</time>
      </trkpt>
      <trkpt lat="49.05785" lon="2.18991">
        <ele>112</ele>
        <time>2015-11-01T09:51:27.483Z</time>
      </trkpt>
      <trkpt lat="49.05786" lon="2.1899">
        <ele>112</ele>
        <time>2015-11-01T09:51:28.423Z</time>
      </trkpt>
      <trkpt lat="49.05794" lon="2.18985">
        <ele>111</ele>
        <time>2015-11-01T09:51:35.557Z</time>
      </trkpt>
      <trkpt lat="49.05795" lon="2.18984">
        <ele>110</ele>
        <time>2015-11-01T09:51:36.423Z</time>
      </trkpt>
      <trkpt lat="49.05802" lon="2.18976">
        <ele>111</ele>
        <time>2015-11-01T09:51:43.507Z</time>
      </trkpt>
      <trkpt lat="49.05803" lon="2.18975">
        <ele>111</ele>
        <time>2015-11-01T09:51:44.425Z</time>
      </trkpt>
      <trkpt lat="49.05809" lon="2.18967">
        <ele>110</ele>
        <time>2015-11-01T09:51:50.476Z</time>
      </trkpt>
      <trkpt lat="49.0581" lon="2.18966">
        <ele>110</ele>
        <time>2015-11-01T09:51:51.431Z</time>
      </trkpt>
      <trkpt lat="49.05817" lon="2.18959">
        <ele>109</ele>
        <time>2015-11-01T09:51:58.592Z</time>
      </trkpt>
      <trkpt lat="49.05818" lon="2.18957">
        <ele>109</ele>
        <time>2015-11-01T09:51:59.446Z</time>
      </trkpt>
      <trkpt lat="49.05824" lon="2.18951">
        <ele>108</ele>
        <time>2015-11-01T09:52:05.664Z</time>
      </trkpt>
      <trkpt lat="49.05825" lon="2.18949">
        <ele>108</ele>
        <time>2015-11-01T09:52:06.424Z</time>
      </trkpt>
      <trkpt lat="49.05832" lon="2.18941">
        <ele>109</ele>
        <time>2015-11-01T09:52:13.596Z</time>
      </trkpt>
      <trkpt lat="49.05832" lon="2.1894">
        <ele>108</ele>
        <time>2015-11-01T09:52:14.434Z</time>
      </trkpt>
      <trkpt lat="49.05839" lon="2.18932">
        <ele>109</ele>
        <time>2015-11-01T09:52:21.535Z</time>
      </trkpt>
      <trkpt lat="49.05839" lon="2.18931">
        <ele>109</ele>
        <time>2015-11-01T09:52:22.443Z</time>
      </trkpt>
      <trkpt lat="49.05846" lon="2.18924">
        <ele>110</ele>
        <time>2015-11-01T09:52:28.537Z</time>
      </trkpt>
      <trkpt lat="49.05847" lon="2.18923">
        <ele>110</ele>
        <time>2015-11-01T09:52:29.424Z</time>
      </trkpt>
      <trkpt lat="49.05854" lon="2.18916">
        <ele>110</ele>
        <time>2015-11-01T09:52:35.515Z</time>
      </trkpt>
      <trkpt lat="49.05855" lon="2.18915">
        <ele>111</ele>
        <time>2015-11-01T09:52:36.423Z</time>
      </trkpt>
      <trkpt lat="49.05862" lon="2.18907">
        <ele>111</ele>
        <time>2015-11-01T09:52:42.519Z</time>
      </trkpt>
      <trkpt lat="49.05863" lon="2.18906">
        <ele>110</ele>
        <time>2015-11-01T09:52:43.433Z</time>
      </trkpt>
      <trkpt lat="49.0587" lon="2.18898">
        <ele>109</ele>
        <time>2015-11-01T09:52:51.545Z</time>
      </trkpt>
      <trkpt lat="49.05871" lon="2.18897">
        <ele>108</ele>
        <time>2015-11-01T09:52:52.438Z</time>
      </trkpt>
      <trkpt lat="49.05876" lon="2.18889">
        <ele>107</ele>
        <time>2015-11-01T09:52:58.593Z</time>
      </trkpt>
      <trkpt lat="49.05878" lon="2.18887">
        <ele>109</ele>
        <time>2015-11-01T09:52:59.444Z</time>
      </trkpt>
      <trkpt lat="49.05885" lon="2.1888">
        <ele>110</ele>
        <time>2015-11-01T09:53:05.745Z</time>
      </trkpt>
      <trkpt lat="49.05886" lon="2.18879">
        <ele>110</ele>
        <time>2015-11-01T09:53:06.435Z</time>
      </trkpt>
      <trkpt lat="49.05893" lon="2.18871">
        <ele>107</ele>
        <time>2015-11-01T09:53:14.587Z</time>
      </trkpt>
      <trkpt lat="49.05893" lon="2.1887">
        <ele>107</ele>
        <time>2015-11-01T09:53:15.447Z</time>
      </trkpt>
      <trkpt lat="49.059" lon="2.18862">
        <ele>106</ele>
        <time>2015-11-01T09:53:22.605Z</time>
      </trkpt>
      <trkpt lat="49.05902" lon="2.1886">
        <ele>107</ele>
        <time>2015-11-01T09:53:23.468Z</time>
      </trkpt>
      <trkpt lat="49.05909" lon="2.18854">
        <ele>105</ele>
        <time>2015-11-01T09:53:29.522Z</time>
      </trkpt>
      <trkpt lat="49.05911" lon="2.18853">
        <ele>106</ele>
        <time>2015-11-01T09:53:30.557Z</time>
      </trkpt>
      <trkpt lat="49.05918" lon="2.18848">
        <ele>107</ele>
        <time>2015-11-01T09:53:41.541Z</time>
      </trkpt>
      <trkpt lat="49.05919" lon="2.18848">
        <ele>107</ele>
        <time>2015-11-01T09:53:42.454Z</time>
      </trkpt>
      <trkpt lat="49.05927" lon="2.18847">
        <ele>107</ele>
        <time>2015-11-01T09:53:48.594Z</time>
      </trkpt>
      <trkpt lat="49.05928" lon="2.18848">
        <ele>106</ele>
        <time>2015-11-01T09:53:49.445Z</time>
      </trkpt>
      <trkpt lat="49.05936" lon="2.18852">
        <ele>106</ele>
        <time>2015-11-01T09:53:54.649Z</time>
      </trkpt>
      <trkpt lat="49.05938" lon="2.18853">
        <ele>105</ele>
        <time>2015-11-01T09:53:55.448Z</time>
      </trkpt>
      <trkpt lat="49.05945" lon="2.18859">
        <ele>106</ele>
        <time>2015-11-01T09:54:00.523Z</time>
      </trkpt>
      <trkpt lat="49.05947" lon="2.1886">
        <ele>106</ele>
        <time>2015-11-01T09:54:01.508Z</time>
      </trkpt>
      <trkpt lat="49.05955" lon="2.18865">
        <ele>107</ele>
        <time>2015-11-01T09:54:07.623Z</time>
      </trkpt>
      <trkpt lat="49.05957" lon="2.18866">
        <ele>107</ele>
        <time>2015-11-01T09:54:08.453Z</time>
      </trkpt>
      <trkpt lat="49.05964" lon="2.18872">
        <ele>105</ele>
        <time>2015-11-01T09:54:13.604Z</time>
      </trkpt>
      <trkpt lat="49.05965" lon="2.18874">
        <ele>105</ele>
        <time>2015-11-01T09:54:14.443Z</time>
      </trkpt>
      <trkpt lat="49.05972" lon="2.18879">
        <ele>105</ele>
        <time>2015-11-01T09:54:20.741Z</time>
      </trkpt>
      <trkpt lat="49.05973" lon="2.18881">
        <ele>105</ele>
        <time>2015-11-01T09:54:21.434Z</time>
      </trkpt>
      <trkpt lat="49.05981" lon="2.18887">
        <ele>104</ele>
        <time>2015-11-01T09:54:27.659Z</time>
      </trkpt>
      <trkpt lat="49.05982" lon="2.18888">
        <ele>105</ele>
        <time>2015-11-01T09:54:28.424Z</time>
      </trkpt>
      <trkpt lat="49.05989" lon="2.18894">
        <ele>103</ele>
        <time>2015-11-01T09:54:35.556Z</time>
      </trkpt>
      <trkpt lat="49.0599" lon="2.18896">
        <ele>103</ele>
        <time>2015-11-01T09:54:36.423Z</time>
      </trkpt>
      <trkpt lat="49.05997" lon="2.18902">
        <ele>97</ele>
        <time>2015-11-01T09:54:45.505Z</time>
      </trkpt>
      <trkpt lat="49.05998" lon="2.18903">
        <ele>97</ele>
        <time>2015-11-01T09:54:46.448Z</time>
      </trkpt>
      <trkpt lat="49.06006" lon="2.18907">
        <ele>96</ele>
        <time>2015-11-01T09:54:53.614Z</time>
      </trkpt>
      <trkpt lat="49.06007" lon="2.18908">
        <ele>96</ele>
        <time>2015-11-01T09:54:54.449Z</time>
      </trkpt>
      <trkpt lat="49.06015" lon="2.1891">
        <ele>96</ele>
        <time>2015-11-01T09:55:04.563Z</time>
      </trkpt>
      <trkpt lat="49.06016" lon="2.18911">
        <ele>95</ele>
        <time>2015-11-01T09:55:05.446Z</time>
      </trkpt>
      <trkpt lat="49.06025" lon="2.18914">
        <ele>97</ele>
        <time>2015-11-01T09:55:11.612Z</time>
      </trkpt>
      <trkpt lat="49.06026" lon="2.18914">
        <ele>97</ele>
        <time>2015-11-01T09:55:12.451Z</time>
      </trkpt>
      <trkpt lat="49.06034" lon="2.18919">
        <ele>98</ele>
        <time>2015-11-01T09:55:21.629Z</time>
      </trkpt>
      <trkpt lat="49.06035" lon="2.18919">
        <ele>95</ele>
        <time>2015-11-01T09:55:22.432Z</time>
      </trkpt>
      <trkpt lat="49.06043" lon="2.18921">
        <ele>90</ele>
        <time>2015-11-01T09:55:28.593Z</time>
      </trkpt>
      <trkpt lat="49.06044" lon="2.18922">
        <ele>92</ele>
        <time>2015-11-01T09:55:29.424Z</time>
      </trkpt>
      <trkpt lat="49.06051" lon="2.18925">
        <ele>91</ele>
        <time>2015-11-01T09:55:34.512Z</time>
      </trkpt>
      <trkpt lat="49.06053" lon="2.18926">
        <ele>92</ele>
        <time>2015-11-01T09:55:35.519Z</time>
      </trkpt>
      <trkpt lat="49.06061" lon="2.18929">
        <ele>89</ele>
        <time>2015-11-01T09:55:42.571Z</time>
      </trkpt>
      <trkpt lat="49.06062" lon="2.18929">
        <ele>87</ele>
        <time>2015-11-01T09:55:43.444Z</time>
      </trkpt>
      <trkpt lat="49.06071" lon="2.18932">
        <ele>85</ele>
        <time>2015-11-01T09:55:52.477Z</time>
      </trkpt>
      <trkpt lat="49.06072" lon="2.18931">
        <ele>84</ele>
        <time>2015-11-01T09:55:53.444Z</time>
      </trkpt>
      <trkpt lat="49.06079" lon="2.18927">
        <ele>92</ele>
        <time>2015-11-01T09:56:01.632Z</time>
      </trkpt>
      <trkpt lat="49.0608" lon="2.18925">
        <ele>92</ele>
        <time>2015-11-01T09:56:02.423Z</time>
      </trkpt>
      <trkpt lat="49.06089" lon="2.18924">
        <ele>91</ele>
        <time>2015-11-01T09:56:07.551Z</time>
      </trkpt>
      <trkpt lat="49.06091" lon="2.18924">
        <ele>92</ele>
        <time>2015-11-01T09:56:08.447Z</time>
      </trkpt>
      <trkpt lat="49.06099" lon="2.18924">
        <ele>91</ele>
        <time>2015-11-01T09:56:13.508Z</time>
      </trkpt>
      <trkpt lat="49.061" lon="2.18924">
        <ele>92</ele>
        <time>2015-11-01T09:56:14.442Z</time>
      </trkpt>
      <trkpt lat="49.06108" lon="2.18919">
        <ele>94</ele>
        <time>2015-11-01T09:56:22.656Z</time>
      </trkpt>
      <trkpt lat="49.06109" lon="2.18918">
        <ele>94</ele>
        <time>2015-11-01T09:56:23.426Z</time>
      </trkpt>
      <trkpt lat="49.06117" lon="2.18917">
        <ele>88</ele>
        <time>2015-11-01T09:56:30.503Z</time>
      </trkpt>
      <trkpt lat="49.06118" lon="2.18917">
        <ele>88</ele>
        <time>2015-11-01T09:56:31.425Z</time>
      </trkpt>
      <trkpt lat="49.06125" lon="2.18912">
        <ele>90</ele>
        <time>2015-11-01T09:56:35.844Z</time>
      </trkpt>
      <trkpt lat="49.06126" lon="2.1891">
        <ele>90</ele>
        <time>2015-11-01T09:56:36.423Z</time>
      </trkpt>
      <trkpt lat="49.06134" lon="2.18905">
        <ele>88</ele>
        <time>2015-11-01T09:56:44.696Z</time>
      </trkpt>
      <trkpt lat="49.06136" lon="2.18903">
        <ele>88</ele>
        <time>2015-11-01T09:56:45.423Z</time>
      </trkpt>
      <trkpt lat="49.06141" lon="2.18896">
        <ele>90</ele>
        <time>2015-11-01T09:56:49.959Z</time>
      </trkpt>
      <trkpt lat="49.06143" lon="2.18894">
        <ele>90</ele>
        <time>2015-11-01T09:56:50.424Z</time>
      </trkpt>
      <trkpt lat="49.06149" lon="2.18886">
        <ele>90</ele>
        <time>2015-11-01T09:56:55.611Z</time>
      </trkpt>
      <trkpt lat="49.06151" lon="2.18885">
        <ele>90</ele>
        <time>2015-11-01T09:56:56.432Z</time>
      </trkpt>
      <trkpt lat="49.06158" lon="2.1888">
        <ele>90</ele>
        <time>2015-11-01T09:57:03.597Z</time>
      </trkpt>
      <trkpt lat="49.06159" lon="2.18879">
        <ele>89</ele>
        <time>2015-11-01T09:57:04.427Z</time>
      </trkpt>
      <trkpt lat="49.06165" lon="2.18871">
        <ele>88</ele>
        <time>2015-11-01T09:57:11.520Z</time>
      </trkpt>
      <trkpt lat="49.06166" lon="2.1887">
        <ele>88</ele>
        <time>2015-11-01T09:57:12.447Z</time>
      </trkpt>
      <trkpt lat="49.06173" lon="2.18862">
        <ele>90</ele>
        <time>2015-11-01T09:57:18.603Z</time>
      </trkpt>
      <trkpt lat="49.06174" lon="2.1886">
        <ele>90</ele>
        <time>2015-11-01T09:57:19.423Z</time>
      </trkpt>
      <trkpt lat="49.0618" lon="2.18852">
        <ele>89</ele>
        <time>2015-11-01T09:57:25.557Z</time>
      </trkpt>
      <trkpt lat="49.06181" lon="2.18851">
        <ele>89</ele>
        <time>2015-11-01T09:57:26.479Z</time>
      </trkpt>
      <trkpt lat="49.06187" lon="2.18844">
        <ele>90</ele>
        <time>2015-11-01T09:57:32.494Z</time>
      </trkpt>
      <trkpt lat="49.06188" lon="2.18842">
        <ele>91</ele>
        <time>2015-11-01T09:57:33.425Z</time>
      </trkpt>
      <trkpt lat="49.06194" lon="2.18834">
        <ele>90</ele>
        <time>2015-11-01T09:57:40.588Z</time>
      </trkpt>
      <trkpt lat="49.06195" lon="2.18832">
        <ele>91</ele>
        <time>2015-11-01T09:57:41.468Z</time>
      </trkpt>
      <trkpt lat="49.06201" lon="2.18825">
        <ele>92</ele>
        <time>2015-11-01T09:57:46.614Z</time>
      </trkpt>
      <trkpt lat="49.06203" lon="2.18824">
        <ele>91</ele>
        <time>2015-11-01T09:57:47.424Z</time>
      </trkpt>
      <trkpt lat="49.0621" lon="2.18819">
        <ele>88</ele>
        <time>2015-11-01T09:57:54.626Z</time>
      </trkpt>
      <trkpt lat="49.06211" lon="2.18817">
        <ele>89</ele>
        <time>2015-11-01T09:57:55.446Z</time>
      </trkpt>
      <trkpt lat="49.06217" lon="2.18809">
        <ele>88</ele>
        <time>2015-11-01T09:58:01.586Z</time>
      </trkpt>
      <trkpt lat="49.06218" lon="2.18808">
        <ele>87</ele>
        <time>2015-11-01T09:58:02.445Z</time>
      </trkpt>
      <trkpt lat="49.06225" lon="2.18802">
        <ele>85</ele>
        <time>2015-11-01T09:58:10.722Z</time>
      </trkpt>
      <trkpt lat="49.06226" lon="2.18801">
        <ele>85</ele>
        <time>2015-11-01T09:58:11.452Z</time>
      </trkpt>
      <trkpt lat="49.06232" lon="2.18793">
        <ele>83</ele>
        <time>2015-11-01T09:58:18.593Z</time>
      </trkpt>
      <trkpt lat="49.06233" lon="2.18792">
        <ele>85</ele>
        <time>2015-11-01T09:58:19.450Z</time>
      </trkpt>
      <trkpt lat="49.06239" lon="2.18784">
        <ele>83</ele>
        <time>2015-11-01T09:58:25.555Z</time>
      </trkpt>
      <trkpt lat="49.0624" lon="2.18783">
        <ele>83</ele>
        <time>2015-11-01T09:58:26.458Z</time>
      </trkpt>
      <trkpt lat="49.06246" lon="2.18775">
        <ele>85</ele>
        <time>2015-11-01T09:58:32.514Z</time>
      </trkpt>
      <trkpt lat="49.06248" lon="2.18773">
        <ele>85</ele>
        <time>2015-11-01T09:58:33.424Z</time>
      </trkpt>
      <trkpt lat="49.06254" lon="2.18764">
        <ele>87</ele>
        <time>2015-11-01T09:58:39.600Z</time>
      </trkpt>
      <trkpt lat="49.06254" lon="2.18763">
        <ele>84</ele>
        <time>2015-11-01T09:58:40.672Z</time>
      </trkpt>
      <trkpt lat="49.06261" lon="2.18755">
        <ele>84</ele>
        <time>2015-11-01T09:58:47.664Z</time>
      </trkpt>
      <trkpt lat="49.06262" lon="2.18753">
        <ele>84</ele>
        <time>2015-11-01T09:58:48.443Z</time>
      </trkpt>
      <trkpt lat="49.06267" lon="2.18745">
        <ele>84</ele>
        <time>2015-11-01T09:58:54.604Z</time>
      </trkpt>
      <trkpt lat="49.06268" lon="2.18743">
        <ele>85</ele>
        <time>2015-11-01T09:58:55.445Z</time>
      </trkpt>
      <trkpt lat="49.06276" lon="2.18736">
        <ele>83</ele>
        <time>2015-11-01T09:59:02.528Z</time>
      </trkpt>
      <trkpt lat="49.06277" lon="2.18736">
        <ele>83</ele>
        <time>2015-11-01T09:59:03.445Z</time>
      </trkpt>
      <trkpt lat="49.06283" lon="2.18728">
        <ele>84</ele>
        <time>2015-11-01T09:59:10.616Z</time>
      </trkpt>
      <trkpt lat="49.06284" lon="2.18727">
        <ele>83</ele>
        <time>2015-11-01T09:59:11.444Z</time>
      </trkpt>
      <trkpt lat="49.06291" lon="2.18718">
        <ele>80</ele>
        <time>2015-11-01T09:59:18.508Z</time>
      </trkpt>
      <trkpt lat="49.06292" lon="2.18718">
        <ele>80</ele>
        <time>2015-11-01T09:59:19.443Z</time>
      </trkpt>
      <trkpt lat="49.06299" lon="2.18709">
        <ele>81</ele>
        <time>2015-11-01T09:59:26.598Z</time>
      </trkpt>
      <trkpt lat="49.063" lon="2.18707">
        <ele>81</ele>
        <time>2015-11-01T09:59:27.461Z</time>
      </trkpt>
      <trkpt lat="49.06307" lon="2.18699">
        <ele>82</ele>
        <time>2015-11-01T09:59:33.538Z</time>
      </trkpt>
      <trkpt lat="49.06308" lon="2.18698">
        <ele>82</ele>
        <time>2015-11-01T09:59:34.424Z</time>
      </trkpt>
      <trkpt lat="49.06315" lon="2.18691">
        <ele>82</ele>
        <time>2015-11-01T09:59:40.892Z</time>
      </trkpt>
      <trkpt lat="49.06316" lon="2.1869">
        <ele>82</ele>
        <time>2015-11-01T09:59:41.424Z</time>
      </trkpt>
      <trkpt lat="49.06322" lon="2.18681">
        <ele>82</ele>
        <time>2015-11-01T09:59:47.499Z</time>
      </trkpt>
      <trkpt lat="49.06323" lon="2.1868">
        <ele>81</ele>
        <time>2015-11-01T09:59:48.437Z</time>
      </trkpt>
      <trkpt lat="49.0633" lon="2.18674">
        <ele>82</ele>
        <time>2015-11-01T09:59:54.606Z</time>
      </trkpt>
      <trkpt lat="49.06331" lon="2.18673">
        <ele>83</ele>
        <time>2015-11-01T09:59:55.444Z</time>
      </trkpt>
      <trkpt lat="49.06338" lon="2.18665">
        <ele>82</ele>
        <time>2015-11-01T10:00:02.599Z</time>
      </trkpt>
      <trkpt lat="49.06339" lon="2.18664">
        <ele>81</ele>
        <time>2015-11-01T10:00:03.445Z</time>
      </trkpt>
      <trkpt lat="49.06346" lon="2.18655">
        <ele>80</ele>
        <time>2015-11-01T10:00:11.583Z</time>
      </trkpt>
      <trkpt lat="49.06347" lon="2.18654">
        <ele>80</ele>
        <time>2015-11-01T10:00:12.445Z</time>
      </trkpt>
      <trkpt lat="49.06352" lon="2.18646">
        <ele>79</ele>
        <time>2015-11-01T10:00:19.594Z</time>
      </trkpt>
      <trkpt lat="49.06353" lon="2.18644">
        <ele>79</ele>
        <time>2015-11-01T10:00:20.436Z</time>
      </trkpt>
      <trkpt lat="49.06358" lon="2.18635">
        <ele>80</ele>
        <time>2015-11-01T10:00:26.595Z</time>
      </trkpt>
      <trkpt lat="49.06359" lon="2.18633">
        <ele>81</ele>
        <time>2015-11-01T10:00:27.424Z</time>
      </trkpt>
      <trkpt lat="49.06367" lon="2.18628">
        <ele>79</ele>
        <time>2015-11-01T10:00:35.531Z</time>
      </trkpt>
      <trkpt lat="49.06368" lon="2.18627">
        <ele>79</ele>
        <time>2015-11-01T10:00:36.496Z</time>
      </trkpt>
      <trkpt lat="49.06374" lon="2.1862">
        <ele>79</ele>
        <time>2015-11-01T10:00:43.640Z</time>
      </trkpt>
      <trkpt lat="49.06376" lon="2.18619">
        <ele>79</ele>
        <time>2015-11-01T10:00:44.424Z</time>
      </trkpt>
      <trkpt lat="49.06384" lon="2.18613">
        <ele>78</ele>
        <time>2015-11-01T10:00:51.643Z</time>
      </trkpt>
      <trkpt lat="49.06385" lon="2.18613">
        <ele>78</ele>
        <time>2015-11-01T10:00:52.436Z</time>
      </trkpt>
      <trkpt lat="49.0639" lon="2.18602">
        <ele>78</ele>
        <time>2015-11-01T10:00:59.619Z</time>
      </trkpt>
      <trkpt lat="49.06391" lon="2.18601">
        <ele>79</ele>
        <time>2015-11-01T10:01:00.513Z</time>
      </trkpt>
      <trkpt lat="49.06398" lon="2.18593">
        <ele>78</ele>
        <time>2015-11-01T10:01:06.608Z</time>
      </trkpt>
      <trkpt lat="49.06399" lon="2.18592">
        <ele>78</ele>
        <time>2015-11-01T10:01:07.434Z</time>
      </trkpt>
      <trkpt lat="49.06406" lon="2.18584">
        <ele>78</ele>
        <time>2015-11-01T10:01:14.476Z</time>
      </trkpt>
      <trkpt lat="49.06407" lon="2.18583">
        <ele>77</ele>
        <time>2015-11-01T10:01:15.445Z</time>
      </trkpt>
      <trkpt lat="49.06413" lon="2.18575">
        <ele>79</ele>
        <time>2015-11-01T10:01:21.594Z</time>
      </trkpt>
      <trkpt lat="49.06415" lon="2.18572">
        <ele>80</ele>
        <time>2015-11-01T10:01:22.500Z</time>
      </trkpt>
      <trkpt lat="49.06421" lon="2.18563">
        <ele>78</ele>
        <time>2015-11-01T10:01:28.515Z</time>
      </trkpt>
      <trkpt lat="49.06421" lon="2.18561">
        <ele>79</ele>
        <time>2015-11-01T10:01:29.434Z</time>
      </trkpt>
      <trkpt lat="49.06427" lon="2.18553">
        <ele>78</ele>
        <time>2015-11-01T10:01:36.560Z</time>
      </trkpt>
      <trkpt lat="49.06428" lon="2.18552">
        <ele>78</ele>
        <time>2015-11-01T10:01:37.453Z</time>
      </trkpt>
      <trkpt lat="49.06436" lon="2.18546">
        <ele>75</ele>
        <time>2015-11-01T10:01:43.629Z</time>
      </trkpt>
      <trkpt lat="49.06437" lon="2.18546">
        <ele>75</ele>
        <time>2015-11-01T10:01:44.466Z</time>
      </trkpt>
      <trkpt lat="49.06443" lon="2.18539">
        <ele>76</ele>
        <time>2015-11-01T10:01:50.676Z</time>
      </trkpt>
      <trkpt lat="49.06444" lon="2.18537">
        <ele>76</ele>
        <time>2015-11-01T10:01:51.501Z</time>
      </trkpt>
      <trkpt lat="49.06451" lon="2.1853">
        <ele>76</ele>
        <time>2015-11-01T10:01:57.508Z</time>
      </trkpt>
      <trkpt lat="49.06452" lon="2.18528">
        <ele>77</ele>
        <time>2015-11-01T10:01:58.500Z</time>
      </trkpt>
      <trkpt lat="49.06459" lon="2.18521">
        <ele>79</ele>
        <time>2015-11-01T10:02:04.644Z</time>
      </trkpt>
      <trkpt lat="49.0646" lon="2.1852">
        <ele>78</ele>
        <time>2015-11-01T10:02:05.440Z</time>
      </trkpt>
      <trkpt lat="49.06467" lon="2.18512">
        <ele>77</ele>
        <time>2015-11-01T10:02:12.563Z</time>
      </trkpt>
      <trkpt lat="49.06468" lon="2.18511">
        <ele>76</ele>
        <time>2015-11-01T10:02:13.467Z</time>
      </trkpt>
      <trkpt lat="49.06474" lon="2.18503">
        <ele>76</ele>
        <time>2015-11-01T10:02:19.602Z</time>
      </trkpt>
      <trkpt lat="49.06475" lon="2.18503">
        <ele>76</ele>
        <time>2015-11-01T10:02:20.456Z</time>
      </trkpt>
      <trkpt lat="49.06482" lon="2.18495">
        <ele>77</ele>
        <time>2015-11-01T10:02:27.585Z</time>
      </trkpt>
      <trkpt lat="49.06483" lon="2.18493">
        <ele>78</ele>
        <time>2015-11-01T10:02:28.435Z</time>
      </trkpt>
      <trkpt lat="49.06487" lon="2.18485">
        <ele>77</ele>
        <time>2015-11-01T10:02:36.577Z</time>
      </trkpt>
      <trkpt lat="49.06489" lon="2.18481">
        <ele>79</ele>
        <time>2015-11-01T10:02:36.734Z</time>
      </trkpt>
      <trkpt lat="49.06496" lon="2.18472">
        <ele>79</ele>
        <time>2015-11-01T10:02:43.484Z</time>
      </trkpt>
      <trkpt lat="49.06497" lon="2.18471">
        <ele>78</ele>
        <time>2015-11-01T10:02:44.440Z</time>
      </trkpt>
      <trkpt lat="49.06503" lon="2.18462">
        <ele>77</ele>
        <time>2015-11-01T10:02:52.488Z</time>
      </trkpt>
      <trkpt lat="49.06504" lon="2.18461">
        <ele>76</ele>
        <time>2015-11-01T10:02:53.436Z</time>
      </trkpt>
      <trkpt lat="49.0651" lon="2.18454">
        <ele>75</ele>
        <time>2015-11-01T10:03:00.478Z</time>
      </trkpt>
      <trkpt lat="49.06511" lon="2.18453">
        <ele>75</ele>
        <time>2015-11-01T10:03:01.432Z</time>
      </trkpt>
      <trkpt lat="49.06517" lon="2.18444">
        <ele>76</ele>
        <time>2015-11-01T10:03:08.532Z</time>
      </trkpt>
      <trkpt lat="49.06518" lon="2.18442">
        <ele>76</ele>
        <time>2015-11-01T10:03:09.432Z</time>
      </trkpt>
      <trkpt lat="49.06525" lon="2.18435">
        <ele>76</ele>
        <time>2015-11-01T10:03:16.490Z</time>
      </trkpt>
      <trkpt lat="49.06526" lon="2.18434">
        <ele>76</ele>
        <time>2015-11-01T10:03:17.432Z</time>
      </trkpt>
      <trkpt lat="49.06533" lon="2.18427">
        <ele>76</ele>
        <time>2015-11-01T10:03:24.493Z</time>
      </trkpt>
      <trkpt lat="49.06534" lon="2.18426">
        <ele>76</ele>
        <time>2015-11-01T10:03:25.439Z</time>
      </trkpt>
      <trkpt lat="49.0654" lon="2.18418">
        <ele>76</ele>
        <time>2015-11-01T10:03:31.509Z</time>
      </trkpt>
      <trkpt lat="49.06541" lon="2.18416">
        <ele>76</ele>
        <time>2015-11-01T10:03:32.441Z</time>
      </trkpt>
      <trkpt lat="49.06549" lon="2.18412">
        <ele>76</ele>
        <time>2015-11-01T10:03:39.600Z</time>
      </trkpt>
      <trkpt lat="49.0655" lon="2.1841">
        <ele>76</ele>
        <time>2015-11-01T10:03:40.432Z</time>
      </trkpt>
      <trkpt lat="49.06557" lon="2.18402">
        <ele>77</ele>
        <time>2015-11-01T10:03:48.002Z</time>
      </trkpt>
      <trkpt lat="49.06557" lon="2.18401">
        <ele>77</ele>
        <time>2015-11-01T10:03:48.466Z</time>
      </trkpt>
      <trkpt lat="49.06564" lon="2.18395">
        <ele>77</ele>
        <time>2015-11-01T10:03:55.837Z</time>
      </trkpt>
      <trkpt lat="49.06566" lon="2.18395">
        <ele>76</ele>
        <time>2015-11-01T10:03:56.442Z</time>
      </trkpt>
      <trkpt lat="49.06572" lon="2.18387">
        <ele>78</ele>
        <time>2015-11-01T10:04:07.585Z</time>
      </trkpt>
      <trkpt lat="49.06573" lon="2.18386">
        <ele>78</ele>
        <time>2015-11-01T10:04:08.444Z</time>
      </trkpt>
      <trkpt lat="49.06578" lon="2.18377">
        <ele>80</ele>
        <time>2015-11-01T10:04:12.499Z</time>
      </trkpt>
      <trkpt lat="49.0658" lon="2.18374">
        <ele>79</ele>
        <time>2015-11-01T10:04:13.432Z</time>
      </trkpt>
      <trkpt lat="49.06586" lon="2.18366">
        <ele>76</ele>
        <time>2015-11-01T10:04:17.479Z</time>
      </trkpt>
      <trkpt lat="49.06588" lon="2.18365">
        <ele>76</ele>
        <time>2015-11-01T10:04:18.471Z</time>
      </trkpt>
      <trkpt lat="49.06593" lon="2.18356">
        <ele>78</ele>
        <time>2015-11-01T10:04:24.489Z</time>
      </trkpt>
      <trkpt lat="49.06595" lon="2.18354">
        <ele>78</ele>
        <time>2015-11-01T10:04:25.449Z</time>
      </trkpt>
      <trkpt lat="49.06602" lon="2.18349">
        <ele>74</ele>
        <time>2015-11-01T10:04:31.954Z</time>
      </trkpt>
      <trkpt lat="49.06603" lon="2.18349">
        <ele>73</ele>
        <time>2015-11-01T10:04:32.433Z</time>
      </trkpt>
      <trkpt lat="49.0661" lon="2.18341">
        <ele>74</ele>
        <time>2015-11-01T10:04:39.634Z</time>
      </trkpt>
      <trkpt lat="49.06611" lon="2.1834">
        <ele>74</ele>
        <time>2015-11-01T10:04:40.531Z</time>
      </trkpt>
      <trkpt lat="49.06618" lon="2.18335">
        <ele>76</ele>
        <time>2015-11-01T10:04:47.527Z</time>
      </trkpt>
      <trkpt lat="49.06619" lon="2.18333">
        <ele>76</ele>
        <time>2015-11-01T10:04:48.467Z</time>
      </trkpt>
      <trkpt lat="49.06624" lon="2.18323">
        <ele>73</ele>
        <time>2015-11-01T10:04:54.658Z</time>
      </trkpt>
      <trkpt lat="49.06625" lon="2.18321">
        <ele>74</ele>
        <time>2015-11-01T10:04:55.432Z</time>
      </trkpt>
      <trkpt lat="49.0663" lon="2.18312">
        <ele>75</ele>
        <time>2015-11-01T10:05:00.550Z</time>
      </trkpt>
      <trkpt lat="49.06631" lon="2.18311">
        <ele>75</ele>
        <time>2015-11-01T10:05:01.448Z</time>
      </trkpt>
      <trkpt lat="49.06638" lon="2.18304">
        <ele>75</ele>
        <time>2015-11-01T10:05:07.514Z</time>
      </trkpt>
      <trkpt lat="49.06639" lon="2.18302">
        <ele>76</ele>
        <time>2015-11-01T10:05:08.433Z</time>
      </trkpt>
      <trkpt lat="49.06647" lon="2.18295">
        <ele>75</ele>
        <time>2015-11-01T10:05:14.549Z</time>
      </trkpt>
      <trkpt lat="49.06648" lon="2.18295">
        <ele>75</ele>
        <time>2015-11-01T10:05:15.432Z</time>
      </trkpt>
      <trkpt lat="49.06654" lon="2.18288">
        <ele>75</ele>
        <time>2015-11-01T10:05:24.484Z</time>
      </trkpt>
      <trkpt lat="49.06655" lon="2.18287">
        <ele>75</ele>
        <time>2015-11-01T10:05:25.444Z</time>
      </trkpt>
      <trkpt lat="49.06662" lon="2.18277">
        <ele>73</ele>
        <time>2015-11-01T10:05:31.608Z</time>
      </trkpt>
      <trkpt lat="49.06663" lon="2.18276">
        <ele>73</ele>
        <time>2015-11-01T10:05:32.452Z</time>
      </trkpt>
      <trkpt lat="49.06669" lon="2.18268">
        <ele>73</ele>
        <time>2015-11-01T10:05:38.611Z</time>
      </trkpt>
      <trkpt lat="49.0667" lon="2.18267">
        <ele>73</ele>
        <time>2015-11-01T10:05:39.582Z</time>
      </trkpt>
      <trkpt lat="49.06678" lon="2.18262">
        <ele>73</ele>
        <time>2015-11-01T10:05:45.619Z</time>
      </trkpt>
      <trkpt lat="49.06679" lon="2.18261">
        <ele>73</ele>
        <time>2015-11-01T10:05:46.871Z</time>
      </trkpt>
      <trkpt lat="49.06685" lon="2.18253">
        <ele>75</ele>
        <time>2015-11-01T10:05:52.662Z</time>
      </trkpt>
      <trkpt lat="49.06686" lon="2.18251">
        <ele>75</ele>
        <time>2015-11-01T10:05:53.432Z</time>
      </trkpt>
      <trkpt lat="49.06694" lon="2.18247">
        <ele>76</ele>
        <time>2015-11-01T10:05:59.504Z</time>
      </trkpt>
      <trkpt lat="49.06695" lon="2.18246">
        <ele>74</ele>
        <time>2015-11-01T10:06:00.456Z</time>
      </trkpt>
      <trkpt lat="49.06702" lon="2.18239">
        <ele>75</ele>
        <time>2015-11-01T10:06:07.505Z</time>
      </trkpt>
      <trkpt lat="49.06703" lon="2.18237">
        <ele>75</ele>
        <time>2015-11-01T10:06:08.432Z</time>
      </trkpt>
      <trkpt lat="49.0671" lon="2.18228">
        <ele>76</ele>
        <time>2015-11-01T10:06:14.489Z</time>
      </trkpt>
      <trkpt lat="49.06711" lon="2.18227">
        <ele>76</ele>
        <time>2015-11-01T10:06:15.468Z</time>
      </trkpt>
      <trkpt lat="49.06718" lon="2.1822">
        <ele>77</ele>
        <time>2015-11-01T10:06:22.489Z</time>
      </trkpt>
      <trkpt lat="49.06718" lon="2.18219">
        <ele>76</ele>
        <time>2015-11-01T10:06:23.454Z</time>
      </trkpt>
      <trkpt lat="49.06724" lon="2.18211">
        <ele>77</ele>
        <time>2015-11-01T10:06:36.576Z</time>
      </trkpt>
      <trkpt lat="49.06726" lon="2.18209">
        <ele>76</ele>
        <time>2015-11-01T10:06:37.498Z</time>
      </trkpt>
      <trkpt lat="49.06733" lon="2.18203">
        <ele>75</ele>
        <time>2015-11-01T10:06:42.612Z</time>
      </trkpt>
      <trkpt lat="49.06734" lon="2.18201">
        <ele>75</ele>
        <time>2015-11-01T10:06:43.471Z</time>
      </trkpt>
      <trkpt lat="49.0674" lon="2.18192">
        <ele>76</ele>
        <time>2015-11-01T10:06:48.627Z</time>
      </trkpt>
      <trkpt lat="49.06741" lon="2.1819">
        <ele>75</ele>
        <time>2015-11-01T10:06:49.453Z</time>
      </trkpt>
      <trkpt lat="49.06747" lon="2.18182">
        <ele>78</ele>
        <time>2015-11-01T10:06:54.597Z</time>
      </trkpt>
      <trkpt lat="49.06748" lon="2.1818">
        <ele>78</ele>
        <time>2015-11-01T10:06:55.461Z</time>
      </trkpt>
      <trkpt lat="49.06754" lon="2.18171">
        <ele>76</ele>
        <time>2015-11-01T10:07:01.662Z</time>
      </trkpt>
      <trkpt lat="49.06755" lon="2.1817">
        <ele>76</ele>
        <time>2015-11-01T10:07:02.433Z</time>
      </trkpt>
      <trkpt lat="49.06762" lon="2.18162">
        <ele>75</ele>
        <time>2015-11-01T10:07:09.540Z</time>
      </trkpt>
      <trkpt lat="49.06763" lon="2.18161">
        <ele>74</ele>
        <time>2015-11-01T10:07:10.433Z</time>
      </trkpt>
      <trkpt lat="49.06769" lon="2.18151">
        <ele>75</ele>
        <time>2015-11-01T10:07:16.837Z</time>
      </trkpt>
      <trkpt lat="49.0677" lon="2.1815">
        <ele>75</ele>
        <time>2015-11-01T10:07:17.433Z</time>
      </trkpt>
      <trkpt lat="49.06777" lon="2.18143">
        <ele>71</ele>
        <time>2015-11-01T10:07:24.611Z</time>
      </trkpt>
      <trkpt lat="49.06779" lon="2.18142">
        <ele>71</ele>
        <time>2015-11-01T10:07:25.443Z</time>
      </trkpt>
      <trkpt lat="49.06785" lon="2.18134">
        <ele>72</ele>
        <time>2015-11-01T10:07:31.612Z</time>
      </trkpt>
      <trkpt lat="49.06786" lon="2.18133">
        <ele>72</ele>
        <time>2015-11-01T10:07:32.435Z</time>
      </trkpt>
      <trkpt lat="49.06793" lon="2.18125">
        <ele>72</ele>
        <time>2015-11-01T10:07:39.621Z</time>
      </trkpt>
      <trkpt lat="49.06794" lon="2.18124">
        <ele>72</ele>
        <time>2015-11-01T10:07:40.465Z</time>
      </trkpt>
      <trkpt lat="49.06801" lon="2.18116">
        <ele>71</ele>
        <time>2015-11-01T10:07:48.764Z</time>
      </trkpt>
      <trkpt lat="49.06801" lon="2.18115">
        <ele>71</ele>
        <time>2015-11-01T10:07:49.435Z</time>
      </trkpt>
      <trkpt lat="49.06806" lon="2.18105">
        <ele>71</ele>
        <time>2015-11-01T10:07:57.688Z</time>
      </trkpt>
      <trkpt lat="49.06807" lon="2.18103">
        <ele>71</ele>
        <time>2015-11-01T10:07:58.460Z</time>
      </trkpt>
      <trkpt lat="49.06814" lon="2.18095">
        <ele>74</ele>
        <time>2015-11-01T10:08:04.895Z</time>
      </trkpt>
      <trkpt lat="49.06815" lon="2.18094">
        <ele>74</ele>
        <time>2015-11-01T10:08:05.438Z</time>
      </trkpt>
      <trkpt lat="49.06822" lon="2.18086">
        <ele>75</ele>
        <time>2015-11-01T10:08:10.482Z</time>
      </trkpt>
      <trkpt lat="49.06823" lon="2.18085">
        <ele>74</ele>
        <time>2015-11-01T10:08:11.432Z</time>
      </trkpt>
      <trkpt lat="49.06831" lon="2.18084">
        <ele>73</ele>
        <time>2015-11-01T10:08:19.603Z</time>
      </trkpt>
      <trkpt lat="49.06832" lon="2.18083">
        <ele>73</ele>
        <time>2015-11-01T10:08:20.453Z</time>
      </trkpt>
      <trkpt lat="49.06838" lon="2.18074">
        <ele>74</ele>
        <time>2015-11-01T10:08:29.640Z</time>
      </trkpt>
      <trkpt lat="49.06839" lon="2.18072">
        <ele>73</ele>
        <time>2015-11-01T10:08:30.473Z</time>
      </trkpt>
      <trkpt lat="49.06846" lon="2.18064">
        <ele>75</ele>
        <time>2015-11-01T10:08:37.546Z</time>
      </trkpt>
      <trkpt lat="49.06847" lon="2.18062">
        <ele>74</ele>
        <time>2015-11-01T10:08:38.466Z</time>
      </trkpt>
      <trkpt lat="49.06853" lon="2.18053">
        <ele>74</ele>
        <time>2015-11-01T10:08:44.619Z</time>
      </trkpt>
      <trkpt lat="49.06854" lon="2.18051">
        <ele>75</ele>
        <time>2015-11-01T10:08:45.452Z</time>
      </trkpt>
      <trkpt lat="49.06859" lon="2.1804">
        <ele>77</ele>
        <time>2015-11-01T10:08:51.563Z</time>
      </trkpt>
      <trkpt lat="49.0686" lon="2.18039">
        <ele>78</ele>
        <time>2015-11-01T10:08:52.452Z</time>
      </trkpt>
      <trkpt lat="49.06867" lon="2.18033">
        <ele>77</ele>
        <time>2015-11-01T10:08:58.606Z</time>
      </trkpt>
      <trkpt lat="49.06868" lon="2.18031">
        <ele>78</ele>
        <time>2015-11-01T10:08:59.453Z</time>
      </trkpt>
      <trkpt lat="49.06874" lon="2.18022">
        <ele>80</ele>
        <time>2015-11-01T10:09:05.493Z</time>
      </trkpt>
      <trkpt lat="49.06875" lon="2.18021">
        <ele>79</ele>
        <time>2015-11-01T10:09:06.432Z</time>
      </trkpt>
      <trkpt lat="49.06882" lon="2.18014">
        <ele>78</ele>
        <time>2015-11-01T10:09:14.489Z</time>
      </trkpt>
      <trkpt lat="49.06883" lon="2.18014">
        <ele>78</ele>
        <time>2015-11-01T10:09:15.450Z</time>
      </trkpt>
      <trkpt lat="49.0689" lon="2.18006">
        <ele>77</ele>
        <time>2015-11-01T10:09:25.036Z</time>
      </trkpt>
      <trkpt lat="49.06891" lon="2.18005">
        <ele>77</ele>
        <time>2015-11-01T10:09:25.489Z</time>
      </trkpt>
      <trkpt lat="49.06897" lon="2.17996">
        <ele>77</ele>
        <time>2015-11-01T10:09:32.632Z</time>
      </trkpt>
      <trkpt lat="49.06898" lon="2.17994">
        <ele>78</ele>
        <time>2015-11-01T10:09:33.477Z</time>
      </trkpt>
      <trkpt lat="49.06905" lon="2.17987">
        <ele>78</ele>
        <time>2015-11-01T10:09:41.618Z</time>
      </trkpt>
      <trkpt lat="49.06906" lon="2.17985">
        <ele>79</ele>
        <time>2015-11-01T10:09:42.451Z</time>
      </trkpt>
      <trkpt lat="49.06911" lon="2.17975">
        <ele>82</ele>
        <time>2015-11-01T10:09:47.620Z</time>
      </trkpt>
      <trkpt lat="49.06912" lon="2.17973">
        <ele>81</ele>
        <time>2015-11-01T10:09:48.448Z</time>
      </trkpt>
      <trkpt lat="49.0692" lon="2.17967">
        <ele>77</ele>
        <time>2015-11-01T10:09:55.556Z</time>
      </trkpt>
      <trkpt lat="49.0692" lon="2.17965">
        <ele>78</ele>
        <time>2015-11-01T10:09:56.445Z</time>
      </trkpt>
      <trkpt lat="49.06926" lon="2.17957">
        <ele>77</ele>
        <time>2015-11-01T10:10:02.751Z</time>
      </trkpt>
      <trkpt lat="49.06927" lon="2.17956">
        <ele>78</ele>
        <time>2015-11-01T10:10:03.436Z</time>
      </trkpt>
      <trkpt lat="49.06934" lon="2.17947">
        <ele>79</ele>
        <time>2015-11-01T10:10:09.482Z</time>
      </trkpt>
      <trkpt lat="49.06935" lon="2.17946">
        <ele>78</ele>
        <time>2015-11-01T10:10:10.432Z</time>
      </trkpt>
      <trkpt lat="49.06943" lon="2.1794">
        <ele>74</ele>
        <time>2015-11-01T10:10:17.605Z</time>
      </trkpt>
      <trkpt lat="49.06944" lon="2.17939">
        <ele>74</ele>
        <time>2015-11-01T10:10:18.460Z</time>
      </trkpt>
      <trkpt lat="49.06951" lon="2.17931">
        <ele>75</ele>
        <time>2015-11-01T10:10:24.593Z</time>
      </trkpt>
      <trkpt lat="49.06952" lon="2.1793">
        <ele>75</ele>
        <time>2015-11-01T10:10:25.439Z</time>
      </trkpt>
      <trkpt lat="49.06958" lon="2.17921">
        <ele>77</ele>
        <time>2015-11-01T10:10:33.612Z</time>
      </trkpt>
      <trkpt lat="49.06959" lon="2.1792">
        <ele>76</ele>
        <time>2015-11-01T10:10:34.440Z</time>
      </trkpt>
      <trkpt lat="49.06964" lon="2.17911">
        <ele>77</ele>
        <time>2015-11-01T10:10:41.508Z</time>
      </trkpt>
      <trkpt lat="49.06965" lon="2.1791">
        <ele>76</ele>
        <time>2015-11-01T10:10:42.434Z</time>
      </trkpt>
      <trkpt lat="49.0697" lon="2.17901">
        <ele>76</ele>
        <time>2015-11-01T10:10:49.530Z</time>
      </trkpt>
      <trkpt lat="49.06971" lon="2.17899">
        <ele>76</ele>
        <time>2015-11-01T10:10:50.473Z</time>
      </trkpt>
      <trkpt lat="49.06976" lon="2.1789">
        <ele>77</ele>
        <time>2015-11-01T10:10:57.596Z</time>
      </trkpt>
      <trkpt lat="49.06977" lon="2.17889">
        <ele>77</ele>
        <time>2015-11-01T10:10:58.433Z</time>
      </trkpt>
      <trkpt lat="49.06984" lon="2.17881">
        <ele>78</ele>
        <time>2015-11-01T10:11:06.557Z</time>
      </trkpt>
      <trkpt lat="49.06984" lon="2.1788">
        <ele>78</ele>
        <time>2015-11-01T10:11:07.433Z</time>
      </trkpt>
      <trkpt lat="49.06991" lon="2.17871">
        <ele>79</ele>
        <time>2015-11-01T10:11:15.633Z</time>
      </trkpt>
      <trkpt lat="49.06991" lon="2.17869">
        <ele>78</ele>
        <time>2015-11-01T10:11:16.459Z</time>
      </trkpt>
      <trkpt lat="49.06998" lon="2.17861">
        <ele>78</ele>
        <time>2015-11-01T10:11:23.498Z</time>
      </trkpt>
      <trkpt lat="49.06999" lon="2.1786">
        <ele>78</ele>
        <time>2015-11-01T10:11:24.437Z</time>
      </trkpt>
      <trkpt lat="49.07006" lon="2.17852">
        <ele>78</ele>
        <time>2015-11-01T10:11:31.522Z</time>
      </trkpt>
      <trkpt lat="49.07007" lon="2.1785">
        <ele>77</ele>
        <time>2015-11-01T10:11:32.475Z</time>
      </trkpt>
      <trkpt lat="49.07014" lon="2.17843">
        <ele>77</ele>
        <time>2015-11-01T10:11:40.552Z</time>
      </trkpt>
      <trkpt lat="49.07015" lon="2.17842">
        <ele>77</ele>
        <time>2015-11-01T10:11:41.444Z</time>
      </trkpt>
      <trkpt lat="49.07021" lon="2.17834">
        <ele>77</ele>
        <time>2015-11-01T10:11:48.524Z</time>
      </trkpt>
      <trkpt lat="49.07022" lon="2.17833">
        <ele>77</ele>
        <time>2015-11-01T10:11:49.441Z</time>
      </trkpt>
      <trkpt lat="49.07029" lon="2.17826">
        <ele>77</ele>
        <time>2015-11-01T10:11:56.511Z</time>
      </trkpt>
      <trkpt lat="49.0703" lon="2.17825">
        <ele>77</ele>
        <time>2015-11-01T10:11:57.441Z</time>
      </trkpt>
      <trkpt lat="49.07037" lon="2.17818">
        <ele>78</ele>
        <time>2015-11-01T10:12:04.692Z</time>
      </trkpt>
      <trkpt lat="49.07038" lon="2.17817">
        <ele>77</ele>
        <time>2015-11-01T10:12:05.441Z</time>
      </trkpt>
      <trkpt lat="49.07045" lon="2.17809">
        <ele>77</ele>
        <time>2015-11-01T10:12:12.508Z</time>
      </trkpt>
      <trkpt lat="49.07047" lon="2.17808">
        <ele>77</ele>
        <time>2015-11-01T10:12:13.441Z</time>
      </trkpt>
      <trkpt lat="49.07053" lon="2.178">
        <ele>77</ele>
        <time>2015-11-01T10:12:20.493Z</time>
      </trkpt>
      <trkpt lat="49.07054" lon="2.17798">
        <ele>77</ele>
        <time>2015-11-01T10:12:21.449Z</time>
      </trkpt>
      <trkpt lat="49.07061" lon="2.1779">
        <ele>77</ele>
        <time>2015-11-01T10:12:28.529Z</time>
      </trkpt>
      <trkpt lat="49.07062" lon="2.1779">
        <ele>78</ele>
        <time>2015-11-01T10:12:29.442Z</time>
      </trkpt>
      <trkpt lat="49.07069" lon="2.17782">
        <ele>75</ele>
        <time>2015-11-01T10:12:38.681Z</time>
      </trkpt>
      <trkpt lat="49.0707" lon="2.17782">
        <ele>75</ele>
        <time>2015-11-01T10:12:39.469Z</time>
      </trkpt>
      <trkpt lat="49.07076" lon="2.17774">
        <ele>76</ele>
        <time>2015-11-01T10:12:45.720Z</time>
      </trkpt>
      <trkpt lat="49.07078" lon="2.17772">
        <ele>76</ele>
        <time>2015-11-01T10:12:46.453Z</time>
      </trkpt>
      <trkpt lat="49.07084" lon="2.17764">
        <ele>77</ele>
        <time>2015-11-01T10:12:52.734Z</time>
      </trkpt>
      <trkpt lat="49.07085" lon="2.17762">
        <ele>76</ele>
        <time>2015-11-01T10:12:53.470Z</time>
      </trkpt>
      <trkpt lat="49.07091" lon="2.17754">
        <ele>74</ele>
        <time>2015-11-01T10:13:00.642Z</time>
      </trkpt>
      <trkpt lat="49.07092" lon="2.17753">
        <ele>74</ele>
        <time>2015-11-01T10:13:01.474Z</time>
      </trkpt>
      <trkpt lat="49.07099" lon="2.17745">
        <ele>75</ele>
        <time>2015-11-01T10:13:09.524Z</time>
      </trkpt>
      <trkpt lat="49.071" lon="2.17744">
        <ele>74</ele>
        <time>2015-11-01T10:13:10.441Z</time>
      </trkpt>
      <trkpt lat="49.07106" lon="2.17736">
        <ele>74</ele>
        <time>2015-11-01T10:13:17.488Z</time>
      </trkpt>
      <trkpt lat="49.07108" lon="2.17735">
        <ele>75</ele>
        <time>2015-11-01T10:13:18.444Z</time>
      </trkpt>
      <trkpt lat="49.07115" lon="2.17731">
        <ele>75</ele>
        <time>2015-11-01T10:13:24.638Z</time>
      </trkpt>
      <trkpt lat="49.07117" lon="2.17731">
        <ele>76</ele>
        <time>2015-11-01T10:13:25.458Z</time>
      </trkpt>
      <trkpt lat="49.07121" lon="2.17719">
        <ele>78</ele>
        <time>2015-11-01T10:13:47.836Z</time>
      </trkpt>
      <trkpt lat="49.07122" lon="2.17718">
        <ele>78</ele>
        <time>2015-11-01T10:13:48.463Z</time>
      </trkpt>
      <trkpt lat="49.07129" lon="2.17711">
        <ele>76</ele>
        <time>2015-11-01T10:14:05.938Z</time>
      </trkpt>
      <trkpt lat="49.07131" lon="2.17709">
        <ele>75</ele>
        <time>2015-11-01T10:14:06.441Z</time>
      </trkpt>
      <trkpt lat="49.07138" lon="2.17702">
        <ele>74</ele>
        <time>2015-11-01T10:14:11.759Z</time>
      </trkpt>
      <trkpt lat="49.0714" lon="2.17701">
        <ele>73</ele>
        <time>2015-11-01T10:14:12.449Z</time>
      </trkpt>
      <trkpt lat="49.07146" lon="2.17692">
        <ele>76</ele>
        <time>2015-11-01T10:14:18.595Z</time>
      </trkpt>
      <trkpt lat="49.07146" lon="2.17691">
        <ele>77</ele>
        <time>2015-11-01T10:14:19.515Z</time>
      </trkpt>
      <trkpt lat="49.07151" lon="2.17682">
        <ele>81</ele>
        <time>2015-11-01T10:14:26.750Z</time>
      </trkpt>
      <trkpt lat="49.07152" lon="2.1768">
        <ele>83</ele>
        <time>2015-11-01T10:14:27.449Z</time>
      </trkpt>
      <trkpt lat="49.07156" lon="2.17669">
        <ele>86</ele>
        <time>2015-11-01T10:14:34.631Z</time>
      </trkpt>
      <trkpt lat="49.07157" lon="2.17668">
        <ele>86</ele>
        <time>2015-11-01T10:14:35.443Z</time>
      </trkpt>
      <trkpt lat="49.07161" lon="2.17658">
        <ele>82</ele>
        <time>2015-11-01T10:14:56.555Z</time>
      </trkpt>
      <trkpt lat="49.07162" lon="2.17656">
        <ele>82</ele>
        <time>2015-11-01T10:14:57.451Z</time>
      </trkpt>
      <trkpt lat="49.07166" lon="2.17646">
        <ele>82</ele>
        <time>2015-11-01T10:15:05.529Z</time>
      </trkpt>
      <trkpt lat="49.07167" lon="2.17645">
        <ele>82</ele>
        <time>2015-11-01T10:15:06.449Z</time>
      </trkpt>
      <trkpt lat="49.07169" lon="2.17632">
        <ele>80</ele>
        <time>2015-11-01T10:15:15.584Z</time>
      </trkpt>
      <trkpt lat="49.07169" lon="2.1763">
        <ele>79</ele>
        <time>2015-11-01T10:15:16.441Z</time>
      </trkpt>
      <trkpt lat="49.07172" lon="2.17619">
        <ele>82</ele>
        <time>2015-11-01T10:15:21.608Z</time>
      </trkpt>
      <trkpt lat="49.07173" lon="2.17616">
        <ele>82</ele>
        <time>2015-11-01T10:15:22.441Z</time>
      </trkpt>
      <trkpt lat="49.07172" lon="2.17605">
        <ele>85</ele>
        <time>2015-11-01T10:15:28.668Z</time>
      </trkpt>
      <trkpt lat="49.07171" lon="2.17603">
        <ele>85</ele>
        <time>2015-11-01T10:15:29.475Z</time>
      </trkpt>
      <trkpt lat="49.07165" lon="2.17594">
        <ele>86</ele>
        <time>2015-11-01T10:15:35.647Z</time>
      </trkpt>
      <trkpt lat="49.07164" lon="2.17593">
        <ele>85</ele>
        <time>2015-11-01T10:15:36.457Z</time>
      </trkpt>
      <trkpt lat="49.07164" lon="2.17579">
        <ele>83</ele>
        <time>2015-11-01T10:15:45.548Z</time>
      </trkpt>
      <trkpt lat="49.07164" lon="2.17578">
        <ele>83</ele>
        <time>2015-11-01T10:15:46.441Z</time>
      </trkpt>
      <trkpt lat="49.07162" lon="2.17565">
        <ele>82</ele>
        <time>2015-11-01T10:17:12.686Z</time>
      </trkpt>
      <trkpt lat="49.07162" lon="2.17563">
        <ele>82</ele>
        <time>2015-11-01T10:17:13.459Z</time>
      </trkpt>
      <trkpt lat="49.07159" lon="2.17551">
        <ele>80</ele>
        <time>2015-11-01T10:17:18.693Z</time>
      </trkpt>
      <trkpt lat="49.07158" lon="2.17549">
        <ele>79</ele>
        <time>2015-11-01T10:17:19.449Z</time>
      </trkpt>
      <trkpt lat="49.07158" lon="2.17537">
        <ele>79</ele>
        <time>2015-11-01T10:17:25.636Z</time>
      </trkpt>
      <trkpt lat="49.07157" lon="2.17535">
        <ele>80</ele>
        <time>2015-11-01T10:17:26.470Z</time>
      </trkpt>
      <trkpt lat="49.07156" lon="2.17522">
        <ele>83</ele>
        <time>2015-11-01T10:17:33.665Z</time>
      </trkpt>
      <trkpt lat="49.07155" lon="2.1752">
        <ele>83</ele>
        <time>2015-11-01T10:17:34.509Z</time>
      </trkpt>
      <trkpt lat="49.07151" lon="2.17509">
        <ele>81</ele>
        <time>2015-11-01T10:18:08.658Z</time>
      </trkpt>
      <trkpt lat="49.07151" lon="2.17508">
        <ele>82</ele>
        <time>2015-11-01T10:18:09.449Z</time>
      </trkpt>
      <trkpt lat="49.07149" lon="2.17495">
        <ele>84</ele>
        <time>2015-11-01T10:18:27.690Z</time>
      </trkpt>
      <trkpt lat="49.07149" lon="2.17493">
        <ele>85</ele>
        <time>2015-11-01T10:18:28.506Z</time>
      </trkpt>
      <trkpt lat="49.07146" lon="2.1748">
        <ele>86</ele>
        <time>2015-11-01T10:18:36.649Z</time>
      </trkpt>
      <trkpt lat="49.07145" lon="2.17479">
        <ele>86</ele>
        <time>2015-11-01T10:18:37.469Z</time>
      </trkpt>
      <trkpt lat="49.07143" lon="2.17465">
        <ele>85</ele>
        <time>2015-11-01T10:18:45.631Z</time>
      </trkpt>
      <trkpt lat="49.07143" lon="2.17464">
        <ele>85</ele>
        <time>2015-11-01T10:18:46.475Z</time>
      </trkpt>
      <trkpt lat="49.07143" lon="2.1745">
        <ele>80</ele>
        <time>2015-11-01T10:18:56.553Z</time>
      </trkpt>
      <trkpt lat="49.07143" lon="2.17449">
        <ele>80</ele>
        <time>2015-11-01T10:18:57.450Z</time>
      </trkpt>
      <trkpt lat="49.07142" lon="2.17437">
        <ele>81</ele>
        <time>2015-11-01T10:19:04.558Z</time>
      </trkpt>
      <trkpt lat="49.07143" lon="2.17435">
        <ele>81</ele>
        <time>2015-11-01T10:19:05.453Z</time>
      </trkpt>
      <trkpt lat="49.07145" lon="2.17422">
        <ele>83</ele>
        <time>2015-11-01T10:19:11.517Z</time>
      </trkpt>
      <trkpt lat="49.07146" lon="2.1742">
        <ele>83</ele>
        <time>2015-11-01T10:19:12.442Z</time>
      </trkpt>
      <trkpt lat="49.07144" lon="2.17407">
        <ele>86</ele>
        <time>2015-11-01T10:19:18.689Z</time>
      </trkpt>
      <trkpt lat="49.07144" lon="2.17405">
        <ele>86</ele>
        <time>2015-11-01T10:19:19.451Z</time>
      </trkpt>
      <trkpt lat="49.07141" lon="2.17395">
        <ele>86</ele>
        <time>2015-11-01T10:19:24.650Z</time>
      </trkpt>
      <trkpt lat="49.0714" lon="2.17392">
        <ele>86</ele>
        <time>2015-11-01T10:19:25.480Z</time>
      </trkpt>
      <trkpt lat="49.07138" lon="2.1738">
        <ele>85</ele>
        <time>2015-11-01T10:19:32.648Z</time>
      </trkpt>
      <trkpt lat="49.07138" lon="2.17377">
        <ele>86</ele>
        <time>2015-11-01T10:19:33.460Z</time>
      </trkpt>
      <trkpt lat="49.07137" lon="2.17365">
        <ele>87</ele>
        <time>2015-11-01T10:19:39.632Z</time>
      </trkpt>
      <trkpt lat="49.07137" lon="2.17363">
        <ele>87</ele>
        <time>2015-11-01T10:19:40.452Z</time>
      </trkpt>
      <trkpt lat="49.07138" lon="2.1735">
        <ele>80</ele>
        <time>2015-11-01T10:19:47.740Z</time>
      </trkpt>
      <trkpt lat="49.07138" lon="2.17349">
        <ele>81</ele>
        <time>2015-11-01T10:19:48.455Z</time>
      </trkpt>
      <trkpt lat="49.07138" lon="2.17337">
        <ele>81</ele>
        <time>2015-11-01T10:19:55.652Z</time>
      </trkpt>
      <trkpt lat="49.07138" lon="2.17335">
        <ele>81</ele>
        <time>2015-11-01T10:19:56.458Z</time>
      </trkpt>
      <trkpt lat="49.07138" lon="2.17322">
        <ele>81</ele>
        <time>2015-11-01T10:20:02.640Z</time>
      </trkpt>
      <trkpt lat="49.07138" lon="2.1732">
        <ele>81</ele>
        <time>2015-11-01T10:20:03.535Z</time>
      </trkpt>
      <trkpt lat="49.07136" lon="2.17308">
        <ele>83</ele>
        <time>2015-11-01T10:20:09.541Z</time>
      </trkpt>
      <trkpt lat="49.07137" lon="2.17306">
        <ele>82</ele>
        <time>2015-11-01T10:20:10.442Z</time>
      </trkpt>
      <trkpt lat="49.07136" lon="2.17295">
        <ele>82</ele>
        <time>2015-11-01T10:20:15.537Z</time>
      </trkpt>
      <trkpt lat="49.07136" lon="2.17293">
        <ele>82</ele>
        <time>2015-11-01T10:20:16.441Z</time>
      </trkpt>
      <trkpt lat="49.07136" lon="2.17279">
        <ele>80</ele>
        <time>2015-11-01T10:20:27.553Z</time>
      </trkpt>
      <trkpt lat="49.07136" lon="2.17278">
        <ele>80</ele>
        <time>2015-11-01T10:20:28.452Z</time>
      </trkpt>
      <trkpt lat="49.07136" lon="2.17265">
        <ele>81</ele>
        <time>2015-11-01T10:20:39.581Z</time>
      </trkpt>
      <trkpt lat="49.07137" lon="2.17264">
        <ele>81</ele>
        <time>2015-11-01T10:20:40.459Z</time>
      </trkpt>
      <trkpt lat="49.07138" lon="2.17251">
        <ele>83</ele>
        <time>2015-11-01T10:20:49.809Z</time>
      </trkpt>
      <trkpt lat="49.07138" lon="2.17249">
        <ele>83</ele>
        <time>2015-11-01T10:20:50.441Z</time>
      </trkpt>
      <trkpt lat="49.07139" lon="2.17237">
        <ele>81</ele>
        <time>2015-11-01T10:20:56.578Z</time>
      </trkpt>
      <trkpt lat="49.0714" lon="2.17235">
        <ele>81</ele>
        <time>2015-11-01T10:20:57.451Z</time>
      </trkpt>
      <trkpt lat="49.07141" lon="2.17224">
        <ele>81</ele>
        <time>2015-11-01T10:21:02.571Z</time>
      </trkpt>
      <trkpt lat="49.07141" lon="2.17221">
        <ele>82</ele>
        <time>2015-11-01T10:21:03.458Z</time>
      </trkpt>
      <trkpt lat="49.07142" lon="2.17209">
        <ele>82</ele>
        <time>2015-11-01T10:21:09.582Z</time>
      </trkpt>
      <trkpt lat="49.07142" lon="2.17207">
        <ele>82</ele>
        <time>2015-11-01T10:21:10.476Z</time>
      </trkpt>
      <trkpt lat="49.07144" lon="2.17195">
        <ele>82</ele>
        <time>2015-11-01T10:21:17.634Z</time>
      </trkpt>
      <trkpt lat="49.07144" lon="2.17193">
        <ele>82</ele>
        <time>2015-11-01T10:21:18.458Z</time>
      </trkpt>
      <trkpt lat="49.07146" lon="2.1718">
        <ele>83</ele>
        <time>2015-11-01T10:21:26.630Z</time>
      </trkpt>
      <trkpt lat="49.07146" lon="2.17178">
        <ele>82</ele>
        <time>2015-11-01T10:21:27.450Z</time>
      </trkpt>
      <trkpt lat="49.0715" lon="2.17168">
        <ele>84</ele>
        <time>2015-11-01T10:21:33.597Z</time>
      </trkpt>
      <trkpt lat="49.07151" lon="2.17166">
        <ele>84</ele>
        <time>2015-11-01T10:21:34.477Z</time>
      </trkpt>
      <trkpt lat="49.07156" lon="2.17157">
        <ele>83</ele>
        <time>2015-11-01T10:21:41.690Z</time>
      </trkpt>
      <trkpt lat="49.07157" lon="2.17156">
        <ele>83</ele>
        <time>2015-11-01T10:21:42.461Z</time>
      </trkpt>
      <trkpt lat="49.07163" lon="2.17147">
        <ele>84</ele>
        <time>2015-11-01T10:21:49.646Z</time>
      </trkpt>
      <trkpt lat="49.07164" lon="2.17145">
        <ele>85</ele>
        <time>2015-11-01T10:21:50.461Z</time>
      </trkpt>
      <trkpt lat="49.07169" lon="2.17136">
        <ele>84</ele>
        <time>2015-11-01T10:21:57.534Z</time>
      </trkpt>
      <trkpt lat="49.0717" lon="2.17134">
        <ele>84</ele>
        <time>2015-11-01T10:21:58.442Z</time>
      </trkpt>
      <trkpt lat="49.07173" lon="2.17123">
        <ele>85</ele>
        <time>2015-11-01T10:22:03.537Z</time>
      </trkpt>
      <trkpt lat="49.07174" lon="2.17121">
        <ele>85</ele>
        <time>2015-11-01T10:22:04.443Z</time>
      </trkpt>
      <trkpt lat="49.0718" lon="2.17112">
        <ele>84</ele>
        <time>2015-11-01T10:22:10.588Z</time>
      </trkpt>
      <trkpt lat="49.07181" lon="2.1711">
        <ele>84</ele>
        <time>2015-11-01T10:22:11.441Z</time>
      </trkpt>
      <trkpt lat="49.07187" lon="2.171">
        <ele>85</ele>
        <time>2015-11-01T10:22:18.520Z</time>
      </trkpt>
      <trkpt lat="49.07188" lon="2.17099">
        <ele>84</ele>
        <time>2015-11-01T10:22:19.442Z</time>
      </trkpt>
      <trkpt lat="49.07195" lon="2.17092">
        <ele>84</ele>
        <time>2015-11-01T10:22:26.564Z</time>
      </trkpt>
      <trkpt lat="49.07196" lon="2.17091">
        <ele>84</ele>
        <time>2015-11-01T10:22:27.444Z</time>
      </trkpt>
      <trkpt lat="49.07203" lon="2.17084">
        <ele>84</ele>
        <time>2015-11-01T10:22:34.565Z</time>
      </trkpt>
      <trkpt lat="49.07204" lon="2.17083">
        <ele>84</ele>
        <time>2015-11-01T10:22:35.444Z</time>
      </trkpt>
      <trkpt lat="49.07211" lon="2.17074">
        <ele>84</ele>
        <time>2015-11-01T10:22:41.604Z</time>
      </trkpt>
      <trkpt lat="49.07212" lon="2.17073">
        <ele>84</ele>
        <time>2015-11-01T10:22:42.467Z</time>
      </trkpt>
      <trkpt lat="49.07218" lon="2.17066">
        <ele>84</ele>
        <time>2015-11-01T10:22:49.512Z</time>
      </trkpt>
      <trkpt lat="49.0722" lon="2.17065">
        <ele>84</ele>
        <time>2015-11-01T10:22:50.443Z</time>
      </trkpt>
      <trkpt lat="49.07228" lon="2.17061">
        <ele>80</ele>
        <time>2015-11-01T10:22:58.098Z</time>
      </trkpt>
      <trkpt lat="49.07229" lon="2.1706">
        <ele>80</ele>
        <time>2015-11-01T10:22:58.444Z</time>
      </trkpt>
      <trkpt lat="49.07237" lon="2.17056">
        <ele>82</ele>
        <time>2015-11-01T10:23:04.546Z</time>
      </trkpt>
      <trkpt lat="49.07238" lon="2.17055">
        <ele>82</ele>
        <time>2015-11-01T10:23:05.477Z</time>
      </trkpt>
      <trkpt lat="49.07245" lon="2.17048">
        <ele>80</ele>
        <time>2015-11-01T10:23:12.550Z</time>
      </trkpt>
      <trkpt lat="49.07247" lon="2.17047">
        <ele>80</ele>
        <time>2015-11-01T10:23:13.442Z</time>
      </trkpt>
      <trkpt lat="49.07254" lon="2.17042">
        <ele>81</ele>
        <time>2015-11-01T10:23:19.506Z</time>
      </trkpt>
      <trkpt lat="49.07256" lon="2.17041">
        <ele>81</ele>
        <time>2015-11-01T10:23:20.455Z</time>
      </trkpt>
      <trkpt lat="49.07262" lon="2.17034">
        <ele>82</ele>
        <time>2015-11-01T10:23:26.842Z</time>
      </trkpt>
      <trkpt lat="49.07264" lon="2.17033">
        <ele>82</ele>
        <time>2015-11-01T10:23:27.468Z</time>
      </trkpt>
      <trkpt lat="49.07272" lon="2.17029">
        <ele>83</ele>
        <time>2015-11-01T10:23:33.541Z</time>
      </trkpt>
      <trkpt lat="49.07273" lon="2.17028">
        <ele>83</ele>
        <time>2015-11-01T10:23:34.458Z</time>
      </trkpt>
      <trkpt lat="49.07279" lon="2.17021">
        <ele>80</ele>
        <time>2015-11-01T10:23:42.781Z</time>
      </trkpt>
      <trkpt lat="49.07281" lon="2.17021">
        <ele>80</ele>
        <time>2015-11-01T10:23:43.460Z</time>
      </trkpt>
      <trkpt lat="49.07288" lon="2.17017">
        <ele>79</ele>
        <time>2015-11-01T10:23:50.539Z</time>
      </trkpt>
      <trkpt lat="49.07289" lon="2.17017">
        <ele>79</ele>
        <time>2015-11-01T10:23:51.469Z</time>
      </trkpt>
      <trkpt lat="49.07297" lon="2.17012">
        <ele>85</ele>
        <time>2015-11-01T10:24:01.494Z</time>
      </trkpt>
      <trkpt lat="49.07298" lon="2.17011">
        <ele>85</ele>
        <time>2015-11-01T10:24:02.461Z</time>
      </trkpt>
      <trkpt lat="49.07307" lon="2.17007">
        <ele>87</ele>
        <time>2015-11-01T10:24:13.508Z</time>
      </trkpt>
      <trkpt lat="49.07308" lon="2.17006">
        <ele>87</ele>
        <time>2015-11-01T10:24:14.447Z</time>
      </trkpt>
      <trkpt lat="49.07316" lon="2.17003">
        <ele>88</ele>
        <time>2015-11-01T10:24:19.861Z</time>
      </trkpt>
      <trkpt lat="49.07317" lon="2.17003">
        <ele>88</ele>
        <time>2015-11-01T10:24:20.460Z</time>
      </trkpt>
      <trkpt lat="49.07325" lon="2.16998">
        <ele>86</ele>
        <time>2015-11-01T10:24:43.507Z</time>
      </trkpt>
      <trkpt lat="49.07326" lon="2.16997">
        <ele>86</ele>
        <time>2015-11-01T10:24:44.458Z</time>
      </trkpt>
      <trkpt lat="49.07335" lon="2.16993">
        <ele>87</ele>
        <time>2015-11-01T10:24:50.512Z</time>
      </trkpt>
      <trkpt lat="49.07336" lon="2.16993">
        <ele>86</ele>
        <time>2015-11-01T10:24:51.522Z</time>
      </trkpt>
      <trkpt lat="49.07344" lon="2.16989">
        <ele>86</ele>
        <time>2015-11-01T10:24:57.530Z</time>
      </trkpt>
      <trkpt lat="49.07345" lon="2.16989">
        <ele>86</ele>
        <time>2015-11-01T10:24:58.444Z</time>
      </trkpt>
      <trkpt lat="49.07352" lon="2.16984">
        <ele>88</ele>
        <time>2015-11-01T10:25:05.536Z</time>
      </trkpt>
      <trkpt lat="49.07353" lon="2.16983">
        <ele>87</ele>
        <time>2015-11-01T10:25:06.442Z</time>
      </trkpt>
      <trkpt lat="49.07361" lon="2.16981">
        <ele>86</ele>
        <time>2015-11-01T10:25:13.508Z</time>
      </trkpt>
      <trkpt lat="49.07363" lon="2.16981">
        <ele>86</ele>
        <time>2015-11-01T10:25:14.458Z</time>
      </trkpt>
      <trkpt lat="49.07371" lon="2.16979">
        <ele>86</ele>
        <time>2015-11-01T10:25:22.579Z</time>
      </trkpt>
      <trkpt lat="49.07372" lon="2.16979">
        <ele>83</ele>
        <time>2015-11-01T10:25:23.459Z</time>
      </trkpt>
      <trkpt lat="49.07381" lon="2.16978">
        <ele>84</ele>
        <time>2015-11-01T10:25:29.640Z</time>
      </trkpt>
      <trkpt lat="49.07382" lon="2.16978">
        <ele>84</ele>
        <time>2015-11-01T10:25:30.462Z</time>
      </trkpt>
      <trkpt lat="49.0739" lon="2.16979">
        <ele>84</ele>
        <time>2015-11-01T10:25:42.545Z</time>
      </trkpt>
      <trkpt lat="49.07391" lon="2.16978">
        <ele>85</ele>
        <time>2015-11-01T10:25:43.445Z</time>
      </trkpt>
      <trkpt lat="49.07399" lon="2.1698">
        <ele>81</ele>
        <time>2015-11-01T10:25:53.522Z</time>
      </trkpt>
      <trkpt lat="49.074" lon="2.16981">
        <ele>79</ele>
        <time>2015-11-01T10:25:54.616Z</time>
      </trkpt>
      <trkpt lat="49.07407" lon="2.16985">
        <ele>78</ele>
        <time>2015-11-01T10:25:58.621Z</time>
      </trkpt>
      <trkpt lat="49.07409" lon="2.16986">
        <ele>76</ele>
        <time>2015-11-01T10:25:59.461Z</time>
      </trkpt>
      <trkpt lat="49.07418" lon="2.16987">
        <ele>81</ele>
        <time>2015-11-01T10:26:03.701Z</time>
      </trkpt>
      <trkpt lat="49.07419" lon="2.16986">
        <ele>81</ele>
        <time>2015-11-01T10:26:04.448Z</time>
      </trkpt>
      <trkpt lat="49.07427" lon="2.16989">
        <ele>84</ele>
        <time>2015-11-01T10:26:12.558Z</time>
      </trkpt>
      <trkpt lat="49.07429" lon="2.1699">
        <ele>85</ele>
        <time>2015-11-01T10:26:13.442Z</time>
      </trkpt>
      <trkpt lat="49.07437" lon="2.16995">
        <ele>83</ele>
        <time>2015-11-01T10:26:19.658Z</time>
      </trkpt>
      <trkpt lat="49.07438" lon="2.16996">
        <ele>83</ele>
        <time>2015-11-01T10:26:20.452Z</time>
      </trkpt>
      <trkpt lat="49.07445" lon="2.17002">
        <ele>83</ele>
        <time>2015-11-01T10:26:26.583Z</time>
      </trkpt>
      <trkpt lat="49.07447" lon="2.17002">
        <ele>84</ele>
        <time>2015-11-01T10:26:27.470Z</time>
      </trkpt>
      <trkpt lat="49.07453" lon="2.17008">
        <ele>75</ele>
        <time>2015-11-01T10:26:33.543Z</time>
      </trkpt>
      <trkpt lat="49.07454" lon="2.1701">
        <ele>74</ele>
        <time>2015-11-01T10:26:34.549Z</time>
      </trkpt>
      <trkpt lat="49.07459" lon="2.17021">
        <ele>67</ele>
        <time>2015-11-01T10:26:40.489Z</time>
      </trkpt>
      <trkpt lat="49.0746" lon="2.17023">
        <ele>67</ele>
        <time>2015-11-01T10:26:41.443Z</time>
      </trkpt>
      <trkpt lat="49.07467" lon="2.1703">
        <ele>69</ele>
        <time>2015-11-01T10:26:47.561Z</time>
      </trkpt>
      <trkpt lat="49.07468" lon="2.17031">
        <ele>71</ele>
        <time>2015-11-01T10:26:48.441Z</time>
      </trkpt>
      <trkpt lat="49.07474" lon="2.1704">
        <ele>71</ele>
        <time>2015-11-01T10:26:55.714Z</time>
      </trkpt>
      <trkpt lat="49.07476" lon="2.17041">
        <ele>71</ele>
        <time>2015-11-01T10:26:56.443Z</time>
      </trkpt>
      <trkpt lat="49.07483" lon="2.17048">
        <ele>72</ele>
        <time>2015-11-01T10:27:03.813Z</time>
      </trkpt>
      <trkpt lat="49.07484" lon="2.17049">
        <ele>72</ele>
        <time>2015-11-01T10:27:04.511Z</time>
      </trkpt>
      <trkpt lat="49.07489" lon="2.17059">
        <ele>73</ele>
        <time>2015-11-01T10:27:13.499Z</time>
      </trkpt>
      <trkpt lat="49.0749" lon="2.1706">
        <ele>74</ele>
        <time>2015-11-01T10:27:14.442Z</time>
      </trkpt>
      <trkpt lat="49.07498" lon="2.17061">
        <ele>71</ele>
        <time>2015-11-01T10:27:21.699Z</time>
      </trkpt>
      <trkpt lat="49.07499" lon="2.17061">
        <ele>72</ele>
        <time>2015-11-01T10:27:22.443Z</time>
      </trkpt>
      <trkpt lat="49.07507" lon="2.17065">
        <ele>74</ele>
        <time>2015-11-01T10:27:28.642Z</time>
      </trkpt>
      <trkpt lat="49.07509" lon="2.17065">
        <ele>75</ele>
        <time>2015-11-01T10:27:29.445Z</time>
      </trkpt>
      <trkpt lat="49.07517" lon="2.17068">
        <ele>78</ele>
        <time>2015-11-01T10:27:44.773Z</time>
      </trkpt>
      <trkpt lat="49.07518" lon="2.17068">
        <ele>79</ele>
        <time>2015-11-01T10:27:45.590Z</time>
      </trkpt>
      <trkpt lat="49.07526" lon="2.17071">
        <ele>78</ele>
        <time>2015-11-01T10:27:50.499Z</time>
      </trkpt>
      <trkpt lat="49.07528" lon="2.17072">
        <ele>79</ele>
        <time>2015-11-01T10:27:51.478Z</time>
      </trkpt>
      <trkpt lat="49.07536" lon="2.17077">
        <ele>77</ele>
        <time>2015-11-01T10:27:57.720Z</time>
      </trkpt>
      <trkpt lat="49.07537" lon="2.17077">
        <ele>79</ele>
        <time>2015-11-01T10:27:58.485Z</time>
      </trkpt>
      <trkpt lat="49.07543" lon="2.17079">
        <ele>80</ele>
        <time>2015-11-01T10:28:01.575Z</time>
      </trkpt>
      <trkpt lat="49.07547" lon="2.1708">
        <ele>80</ele>
        <time>2015-11-01T10:28:03.900Z</time>
      </trkpt>
      <trkpt lat="49.07555" lon="2.17081">
        <ele>82</ele>
        <time>2015-11-01T10:28:07.549Z</time>
      </trkpt>
      <trkpt lat="49.07557" lon="2.17081">
        <ele>82</ele>
        <time>2015-11-01T10:28:08.457Z</time>
      </trkpt>
      <trkpt lat="49.07565" lon="2.17083">
        <ele>78</ele>
        <time>2015-11-01T10:28:15.565Z</time>
      </trkpt>
      <trkpt lat="49.07566" lon="2.17083">
        <ele>79</ele>
        <time>2015-11-01T10:28:16.444Z</time>
      </trkpt>
      <trkpt lat="49.07575" lon="2.17086">
        <ele>74</ele>
        <time>2015-11-01T10:28:24.498Z</time>
      </trkpt>
      <trkpt lat="49.07576" lon="2.17087">
        <ele>74</ele>
        <time>2015-11-01T10:28:25.446Z</time>
      </trkpt>
      <trkpt lat="49.07584" lon="2.1709">
        <ele>77</ele>
        <time>2015-11-01T10:28:33.553Z</time>
      </trkpt>
      <trkpt lat="49.07586" lon="2.1709">
        <ele>78</ele>
        <time>2015-11-01T10:28:34.516Z</time>
      </trkpt>
      <trkpt lat="49.07593" lon="2.17091">
        <ele>78</ele>
        <time>2015-11-01T10:28:38.658Z</time>
      </trkpt>
      <trkpt lat="49.07595" lon="2.17091">
        <ele>77</ele>
        <time>2015-11-01T10:28:39.443Z</time>
      </trkpt>
      <trkpt lat="49.07602" lon="2.17092">
        <ele>79</ele>
        <time>2015-11-01T10:28:43.671Z</time>
      </trkpt>
      <trkpt lat="49.07604" lon="2.17092">
        <ele>79</ele>
        <time>2015-11-01T10:28:44.678Z</time>
      </trkpt>
      <trkpt lat="49.07613" lon="2.17092">
        <ele>78</ele>
        <time>2015-11-01T10:28:50.625Z</time>
      </trkpt>
      <trkpt lat="49.07614" lon="2.17092">
        <ele>79</ele>
        <time>2015-11-01T10:28:51.454Z</time>
      </trkpt>
      <trkpt lat="49.07622" lon="2.17092">
        <ele>79</ele>
        <time>2015-11-01T10:28:58.094Z</time>
      </trkpt>
      <trkpt lat="49.07624" lon="2.17092">
        <ele>80</ele>
        <time>2015-11-01T10:28:58.442Z</time>
      </trkpt>
      <trkpt lat="49.07633" lon="2.17092">
        <ele>77</ele>
        <time>2015-11-01T10:29:05.732Z</time>
      </trkpt>
      <trkpt lat="49.07634" lon="2.17093">
        <ele>78</ele>
        <time>2015-11-01T10:29:06.503Z</time>
      </trkpt>
      <trkpt lat="49.07642" lon="2.17095">
        <ele>78</ele>
        <time>2015-11-01T10:29:11.612Z</time>
      </trkpt>
      <trkpt lat="49.07643" lon="2.17095">
        <ele>79</ele>
        <time>2015-11-01T10:29:12.442Z</time>
      </trkpt>
      <trkpt lat="49.07651" lon="2.17095">
        <ele>77</ele>
        <time>2015-11-01T10:29:18.705Z</time>
      </trkpt>
      <trkpt lat="49.07653" lon="2.17096">
        <ele>77</ele>
        <time>2015-11-01T10:29:19.467Z</time>
      </trkpt>
      <trkpt lat="49.07661" lon="2.17098">
        <ele>75</ele>
        <time>2015-11-01T10:29:26.520Z</time>
      </trkpt>
      <trkpt lat="49.07662" lon="2.17098">
        <ele>75</ele>
        <time>2015-11-01T10:29:27.475Z</time>
      </trkpt>
      <trkpt lat="49.0767" lon="2.17098">
        <ele>75</ele>
        <time>2015-11-01T10:29:33.684Z</time>
      </trkpt>
      <trkpt lat="49.07672" lon="2.17099">
        <ele>75</ele>
        <time>2015-11-01T10:29:34.445Z</time>
      </trkpt>
      <trkpt lat="49.0768" lon="2.171">
        <ele>73</ele>
        <time>2015-11-01T10:29:42.606Z</time>
      </trkpt>
      <trkpt lat="49.07682" lon="2.171">
        <ele>74</ele>
        <time>2015-11-01T10:29:43.442Z</time>
      </trkpt>
      <trkpt lat="49.0769" lon="2.17101">
        <ele>75</ele>
        <time>2015-11-01T10:29:51.663Z</time>
      </trkpt>
      <trkpt lat="49.07691" lon="2.17101">
        <ele>75</ele>
        <time>2015-11-01T10:29:52.464Z</time>
      </trkpt>
      <trkpt lat="49.07698" lon="2.17103">
        <ele>76</ele>
        <time>2015-11-01T10:29:57.856Z</time>
      </trkpt>
      <trkpt lat="49.077" lon="2.17103">
        <ele>76</ele>
        <time>2015-11-01T10:29:58.476Z</time>
      </trkpt>
      <trkpt lat="49.07708" lon="2.17103">
        <ele>76</ele>
        <time>2015-11-01T10:30:03.649Z</time>
      </trkpt>
      <trkpt lat="49.0771" lon="2.17103">
        <ele>77</ele>
        <time>2015-11-01T10:30:04.713Z</time>
      </trkpt>
      <trkpt lat="49.07718" lon="2.17104">
        <ele>79</ele>
        <time>2015-11-01T10:30:11.516Z</time>
      </trkpt>
      <trkpt lat="49.07719" lon="2.17104">
        <ele>79</ele>
        <time>2015-11-01T10:30:12.555Z</time>
      </trkpt>
      <trkpt lat="49.07727" lon="2.17104">
        <ele>80</ele>
        <time>2015-11-01T10:30:18.595Z</time>
      </trkpt>
      <trkpt lat="49.07728" lon="2.17104">
        <ele>80</ele>
        <time>2015-11-01T10:30:19.529Z</time>
      </trkpt>
      <trkpt lat="49.07737" lon="2.17104">
        <ele>81</ele>
        <time>2015-11-01T10:30:26.516Z</time>
      </trkpt>
      <trkpt lat="49.07738" lon="2.17104">
        <ele>82</ele>
        <time>2015-11-01T10:30:27.466Z</time>
      </trkpt>
      <trkpt lat="49.07745" lon="2.17106">
        <ele>84</ele>
        <time>2015-11-01T10:30:33.594Z</time>
      </trkpt>
      <trkpt lat="49.07747" lon="2.17106">
        <ele>84</ele>
        <time>2015-11-01T10:30:34.469Z</time>
      </trkpt>
      <trkpt lat="49.07756" lon="2.17108">
        <ele>84</ele>
        <time>2015-11-01T10:30:40.551Z</time>
      </trkpt>
      <trkpt lat="49.07757" lon="2.17108">
        <ele>85</ele>
        <time>2015-11-01T10:30:41.461Z</time>
      </trkpt>
      <trkpt lat="49.07765" lon="2.17112">
        <ele>82</ele>
        <time>2015-11-01T10:30:48.771Z</time>
      </trkpt>
      <trkpt lat="49.07766" lon="2.17113">
        <ele>82</ele>
        <time>2015-11-01T10:30:49.443Z</time>
      </trkpt>
      <trkpt lat="49.07774" lon="2.17117">
        <ele>82</ele>
        <time>2015-11-01T10:30:56.659Z</time>
      </trkpt>
      <trkpt lat="49.07775" lon="2.17118">
        <ele>83</ele>
        <time>2015-11-01T10:30:57.508Z</time>
      </trkpt>
      <trkpt lat="49.07782" lon="2.17123">
        <ele>86</ele>
        <time>2015-11-01T10:31:04.567Z</time>
      </trkpt>
      <trkpt lat="49.07783" lon="2.17123">
        <ele>85</ele>
        <time>2015-11-01T10:31:05.443Z</time>
      </trkpt>
      <trkpt lat="49.07791" lon="2.17131">
        <ele>84</ele>
        <time>2015-11-01T10:31:13.544Z</time>
      </trkpt>
      <trkpt lat="49.07792" lon="2.17131">
        <ele>84</ele>
        <time>2015-11-01T10:31:14.451Z</time>
      </trkpt>
      <trkpt lat="49.078" lon="2.17135">
        <ele>79</ele>
        <time>2015-11-01T10:31:21.586Z</time>
      </trkpt>
      <trkpt lat="49.07801" lon="2.17135">
        <ele>80</ele>
        <time>2015-11-01T10:31:22.459Z</time>
      </trkpt>
      <trkpt lat="49.0781" lon="2.17139">
        <ele>83</ele>
        <time>2015-11-01T10:31:29.684Z</time>
      </trkpt>
      <trkpt lat="49.07811" lon="2.17139">
        <ele>83</ele>
        <time>2015-11-01T10:31:30.581Z</time>
      </trkpt>
      <trkpt lat="49.07818" lon="2.17143">
        <ele>81</ele>
        <time>2015-11-01T10:31:36.642Z</time>
      </trkpt>
      <trkpt lat="49.07819" lon="2.17143">
        <ele>79</ele>
        <time>2015-11-01T10:31:37.515Z</time>
      </trkpt>
      <trkpt lat="49.07826" lon="2.17148">
        <ele>77</ele>
        <time>2015-11-01T10:31:42.537Z</time>
      </trkpt>
      <trkpt lat="49.07828" lon="2.17149">
        <ele>77</ele>
        <time>2015-11-01T10:31:43.452Z</time>
      </trkpt>
      <trkpt lat="49.07835" lon="2.17155">
        <ele>79</ele>
        <time>2015-11-01T10:31:50.699Z</time>
      </trkpt>
      <trkpt lat="49.07836" lon="2.17156">
        <ele>79</ele>
        <time>2015-11-01T10:31:51.461Z</time>
      </trkpt>
      <trkpt lat="49.07844" lon="2.1716">
        <ele>81</ele>
        <time>2015-11-01T10:31:57.950Z</time>
      </trkpt>
      <trkpt lat="49.07845" lon="2.1716">
        <ele>82</ele>
        <time>2015-11-01T10:31:58.486Z</time>
      </trkpt>
      <trkpt lat="49.07853" lon="2.17164">
        <ele>81</ele>
        <time>2015-11-01T10:32:04.799Z</time>
      </trkpt>
      <trkpt lat="49.07854" lon="2.17165">
        <ele>82</ele>
        <time>2015-11-01T10:32:05.442Z</time>
      </trkpt>
      <trkpt lat="49.07862" lon="2.17171">
        <ele>80</ele>
        <time>2015-11-01T10:32:13.529Z</time>
      </trkpt>
      <trkpt lat="49.07864" lon="2.17172">
        <ele>80</ele>
        <time>2015-11-01T10:32:14.442Z</time>
      </trkpt>
      <trkpt lat="49.07871" lon="2.17177">
        <ele>77</ele>
        <time>2015-11-01T10:32:20.508Z</time>
      </trkpt>
      <trkpt lat="49.07872" lon="2.17178">
        <ele>78</ele>
        <time>2015-11-01T10:32:21.468Z</time>
      </trkpt>
      <trkpt lat="49.0788" lon="2.17181">
        <ele>78</ele>
        <time>2015-11-01T10:32:27.718Z</time>
      </trkpt>
      <trkpt lat="49.07882" lon="2.17182">
        <ele>78</ele>
        <time>2015-11-01T10:32:28.519Z</time>
      </trkpt>
      <trkpt lat="49.07889" lon="2.17186">
        <ele>77</ele>
        <time>2015-11-01T10:32:35.569Z</time>
      </trkpt>
      <trkpt lat="49.0789" lon="2.17187">
        <ele>77</ele>
        <time>2015-11-01T10:32:36.459Z</time>
      </trkpt>
      <trkpt lat="49.07898" lon="2.17191">
        <ele>77</ele>
        <time>2015-11-01T10:32:43.530Z</time>
      </trkpt>
      <trkpt lat="49.07899" lon="2.17192">
        <ele>77</ele>
        <time>2015-11-01T10:32:44.443Z</time>
      </trkpt>
      <trkpt lat="49.07908" lon="2.17194">
        <ele>77</ele>
        <time>2015-11-01T10:32:52.661Z</time>
      </trkpt>
      <trkpt lat="49.07909" lon="2.17194">
        <ele>76</ele>
        <time>2015-11-01T10:32:53.476Z</time>
      </trkpt>
      <trkpt lat="49.07917" lon="2.17189">
        <ele>77</ele>
        <time>2015-11-01T10:33:00.644Z</time>
      </trkpt>
      <trkpt lat="49.07918" lon="2.17188">
        <ele>77</ele>
        <time>2015-11-01T10:33:01.463Z</time>
      </trkpt>
      <trkpt lat="49.07925" lon="2.17183">
        <ele>76</ele>
        <time>2015-11-01T10:33:07.858Z</time>
      </trkpt>
      <trkpt lat="49.07926" lon="2.17183">
        <ele>76</ele>
        <time>2015-11-01T10:33:08.443Z</time>
      </trkpt>
      <trkpt lat="49.07934" lon="2.17177">
        <ele>75</ele>
        <time>2015-11-01T10:33:15.660Z</time>
      </trkpt>
      <trkpt lat="49.07936" lon="2.17177">
        <ele>75</ele>
        <time>2015-11-01T10:33:16.450Z</time>
      </trkpt>
      <trkpt lat="49.07944" lon="2.17172">
        <ele>78</ele>
        <time>2015-11-01T10:33:24.583Z</time>
      </trkpt>
      <trkpt lat="49.07945" lon="2.17172">
        <ele>78</ele>
        <time>2015-11-01T10:33:25.443Z</time>
      </trkpt>
      <trkpt lat="49.07952" lon="2.17166">
        <ele>76</ele>
        <time>2015-11-01T10:33:33.065Z</time>
      </trkpt>
      <trkpt lat="49.07953" lon="2.17164">
        <ele>75</ele>
        <time>2015-11-01T10:33:33.707Z</time>
      </trkpt>
      <trkpt lat="49.0796" lon="2.17158">
        <ele>76</ele>
        <time>2015-11-01T10:33:40.682Z</time>
      </trkpt>
      <trkpt lat="49.07961" lon="2.17157">
        <ele>76</ele>
        <time>2015-11-01T10:33:41.463Z</time>
      </trkpt>
      <trkpt lat="49.07967" lon="2.17149">
        <ele>78</ele>
        <time>2015-11-01T10:33:48.507Z</time>
      </trkpt>
      <trkpt lat="49.07968" lon="2.17148">
        <ele>79</ele>
        <time>2015-11-01T10:33:49.478Z</time>
      </trkpt>
      <trkpt lat="49.07975" lon="2.17139">
        <ele>84</ele>
        <time>2015-11-01T10:33:57.627Z</time>
      </trkpt>
      <trkpt lat="49.07976" lon="2.17138">
        <ele>84</ele>
        <time>2015-11-01T10:33:58.472Z</time>
      </trkpt>
      <trkpt lat="49.07983" lon="2.17132">
        <ele>84</ele>
        <time>2015-11-01T10:34:09.564Z</time>
      </trkpt>
      <trkpt lat="49.07984" lon="2.17131">
        <ele>84</ele>
        <time>2015-11-01T10:34:10.443Z</time>
      </trkpt>
      <trkpt lat="49.07991" lon="2.17124">
        <ele>84</ele>
        <time>2015-11-01T10:34:16.512Z</time>
      </trkpt>
      <trkpt lat="49.07992" lon="2.17123">
        <ele>84</ele>
        <time>2015-11-01T10:34:17.450Z</time>
      </trkpt>
      <trkpt lat="49.07999" lon="2.17115">
        <ele>84</ele>
        <time>2015-11-01T10:34:25.851Z</time>
      </trkpt>
      <trkpt lat="49.08" lon="2.17114">
        <ele>85</ele>
        <time>2015-11-01T10:34:26.451Z</time>
      </trkpt>
      <trkpt lat="49.08008" lon="2.17108">
        <ele>84</ele>
        <time>2015-11-01T10:34:34.685Z</time>
      </trkpt>
      <trkpt lat="49.08008" lon="2.17106">
        <ele>83</ele>
        <time>2015-11-01T10:34:35.478Z</time>
      </trkpt>
      <trkpt lat="49.08015" lon="2.17099">
        <ele>84</ele>
        <time>2015-11-01T10:34:43.663Z</time>
      </trkpt>
      <trkpt lat="49.08015" lon="2.17098">
        <ele>85</ele>
        <time>2015-11-01T10:34:44.508Z</time>
      </trkpt>
      <trkpt lat="49.08022" lon="2.1709">
        <ele>83</ele>
        <time>2015-11-01T10:34:54.731Z</time>
      </trkpt>
      <trkpt lat="49.08023" lon="2.1709">
        <ele>83</ele>
        <time>2015-11-01T10:34:56.281Z</time>
      </trkpt>
      <trkpt lat="49.08029" lon="2.17081">
        <ele>86</ele>
        <time>2015-11-01T10:35:03.643Z</time>
      </trkpt>
      <trkpt lat="49.0803" lon="2.17079">
        <ele>85</ele>
        <time>2015-11-01T10:35:04.469Z</time>
      </trkpt>
      <trkpt lat="49.08038" lon="2.17074">
        <ele>84</ele>
        <time>2015-11-01T10:35:10.522Z</time>
      </trkpt>
      <trkpt lat="49.08039" lon="2.17073">
        <ele>85</ele>
        <time>2015-11-01T10:35:11.455Z</time>
      </trkpt>
      <trkpt lat="49.08044" lon="2.17063">
        <ele>85</ele>
        <time>2015-11-01T10:35:20.536Z</time>
      </trkpt>
      <trkpt lat="49.08045" lon="2.17062">
        <ele>85</ele>
        <time>2015-11-01T10:35:21.446Z</time>
      </trkpt>
      <trkpt lat="49.08052" lon="2.17053">
        <ele>88</ele>
        <time>2015-11-01T10:35:29.553Z</time>
      </trkpt>
      <trkpt lat="49.08053" lon="2.17053">
        <ele>89</ele>
        <time>2015-11-01T10:35:30.446Z</time>
      </trkpt>
      <trkpt lat="49.0806" lon="2.17045">
        <ele>90</ele>
        <time>2015-11-01T10:35:53.078Z</time>
      </trkpt>
      <trkpt lat="49.08061" lon="2.17045">
        <ele>89</ele>
        <time>2015-11-01T10:35:53.451Z</time>
      </trkpt>
      <trkpt lat="49.08067" lon="2.17037">
        <ele>81</ele>
        <time>2015-11-01T10:36:01.626Z</time>
      </trkpt>
      <trkpt lat="49.08068" lon="2.17036">
        <ele>81</ele>
        <time>2015-11-01T10:36:02.460Z</time>
      </trkpt>
      <trkpt lat="49.08073" lon="2.17025">
        <ele>86</ele>
        <time>2015-11-01T10:36:10.581Z</time>
      </trkpt>
      <trkpt lat="49.08074" lon="2.17024">
        <ele>86</ele>
        <time>2015-11-01T10:36:11.451Z</time>
      </trkpt>
      <trkpt lat="49.0808" lon="2.17014">
        <ele>91</ele>
        <time>2015-11-01T10:36:22.598Z</time>
      </trkpt>
      <trkpt lat="49.0808" lon="2.17014">
        <ele>91</ele>
        <time>2015-11-01T10:36:23.477Z</time>
      </trkpt>
      <trkpt lat="49.08087" lon="2.17016">
        <ele>83</ele>
        <time>2015-11-01T10:38:31.704Z</time>
      </trkpt>
      <trkpt lat="49.08089" lon="2.17014">
        <ele>82</ele>
        <time>2015-11-01T10:38:32.506Z</time>
      </trkpt>
      <trkpt lat="49.08096" lon="2.17009">
        <ele>82</ele>
        <time>2015-11-01T10:38:36.629Z</time>
      </trkpt>
      <trkpt lat="49.08098" lon="2.17008">
        <ele>84</ele>
        <time>2015-11-01T10:38:37.469Z</time>
      </trkpt>
      <trkpt lat="49.08106" lon="2.17003">
        <ele>91</ele>
        <time>2015-11-01T10:38:42.701Z</time>
      </trkpt>
      <trkpt lat="49.08108" lon="2.17">
        <ele>92</ele>
        <time>2015-11-01T10:38:43.526Z</time>
      </trkpt>
      <trkpt lat="49.08115" lon="2.16993">
        <ele>95</ele>
        <time>2015-11-01T10:38:51.634Z</time>
      </trkpt>
      <trkpt lat="49.08115" lon="2.16992">
        <ele>95</ele>
        <time>2015-11-01T10:38:52.473Z</time>
      </trkpt>
      <trkpt lat="49.08123" lon="2.16986">
        <ele>95</ele>
        <time>2015-11-01T10:38:59.675Z</time>
      </trkpt>
      <trkpt lat="49.08124" lon="2.16984">
        <ele>95</ele>
        <time>2015-11-01T10:39:00.468Z</time>
      </trkpt>
      <trkpt lat="49.08131" lon="2.16976">
        <ele>94</ele>
        <time>2015-11-01T10:39:09.317Z</time>
      </trkpt>
      <trkpt lat="49.08132" lon="2.16975">
        <ele>93</ele>
        <time>2015-11-01T10:39:09.538Z</time>
      </trkpt>
      <trkpt lat="49.08139" lon="2.16968">
        <ele>93</ele>
        <time>2015-11-01T10:39:18.690Z</time>
      </trkpt>
      <trkpt lat="49.08139" lon="2.16966">
        <ele>92</ele>
        <time>2015-11-01T10:39:19.452Z</time>
      </trkpt>
      <trkpt lat="49.08146" lon="2.16958">
        <ele>93</ele>
        <time>2015-11-01T10:39:27.828Z</time>
      </trkpt>
      <trkpt lat="49.08146" lon="2.16957">
        <ele>92</ele>
        <time>2015-11-01T10:39:28.451Z</time>
      </trkpt>
      <trkpt lat="49.08153" lon="2.1695">
        <ele>91</ele>
        <time>2015-11-01T10:39:34.608Z</time>
      </trkpt>
      <trkpt lat="49.08154" lon="2.16948">
        <ele>90</ele>
        <time>2015-11-01T10:39:35.451Z</time>
      </trkpt>
      <trkpt lat="49.0816" lon="2.1694">
        <ele>91</ele>
        <time>2015-11-01T10:39:41.653Z</time>
      </trkpt>
      <trkpt lat="49.08162" lon="2.1694">
        <ele>92</ele>
        <time>2015-11-01T10:39:42.462Z</time>
      </trkpt>
      <trkpt lat="49.08169" lon="2.16933">
        <ele>97</ele>
        <time>2015-11-01T10:39:48.655Z</time>
      </trkpt>
      <trkpt lat="49.0817" lon="2.16932">
        <ele>97</ele>
        <time>2015-11-01T10:39:49.451Z</time>
      </trkpt>
      <trkpt lat="49.08177" lon="2.16924">
        <ele>94</ele>
        <time>2015-11-01T10:39:57.670Z</time>
      </trkpt>
      <trkpt lat="49.08177" lon="2.16924">
        <ele>94</ele>
        <time>2015-11-01T10:39:58.451Z</time>
      </trkpt>
      <trkpt lat="49.08181" lon="2.16912">
        <ele>95</ele>
        <time>2015-11-01T10:40:07.675Z</time>
      </trkpt>
      <trkpt lat="49.08182" lon="2.1691">
        <ele>95</ele>
        <time>2015-11-01T10:40:08.475Z</time>
      </trkpt>
      <trkpt lat="49.08187" lon="2.16902">
        <ele>94</ele>
        <time>2015-11-01T10:40:14.598Z</time>
      </trkpt>
      <trkpt lat="49.08188" lon="2.169">
        <ele>94</ele>
        <time>2015-11-01T10:40:15.450Z</time>
      </trkpt>
      <trkpt lat="49.08196" lon="2.16893">
        <ele>94</ele>
        <time>2015-11-01T10:40:21.570Z</time>
      </trkpt>
      <trkpt lat="49.08197" lon="2.16892">
        <ele>94</ele>
        <time>2015-11-01T10:40:22.450Z</time>
      </trkpt>
      <trkpt lat="49.08203" lon="2.16885">
        <ele>94</ele>
        <time>2015-11-01T10:40:29.620Z</time>
      </trkpt>
      <trkpt lat="49.08204" lon="2.16884">
        <ele>96</ele>
        <time>2015-11-01T10:40:30.462Z</time>
      </trkpt>
      <trkpt lat="49.08207" lon="2.16872">
        <ele>94</ele>
        <time>2015-11-01T10:40:42.012Z</time>
      </trkpt>
      <trkpt lat="49.08208" lon="2.16871">
        <ele>93</ele>
        <time>2015-11-01T10:40:42.451Z</time>
      </trkpt>
      <trkpt lat="49.0821" lon="2.16859">
        <ele>90</ele>
        <time>2015-11-01T10:40:49.620Z</time>
      </trkpt>
      <trkpt lat="49.08211" lon="2.16858">
        <ele>90</ele>
        <time>2015-11-01T10:40:50.451Z</time>
      </trkpt>
      <trkpt lat="49.08216" lon="2.16849">
        <ele>91</ele>
        <time>2015-11-01T10:40:54.686Z</time>
      </trkpt>
      <trkpt lat="49.08217" lon="2.16847">
        <ele>91</ele>
        <time>2015-11-01T10:40:55.450Z</time>
      </trkpt>
      <trkpt lat="49.08222" lon="2.16836">
        <ele>93</ele>
        <time>2015-11-01T10:41:01.593Z</time>
      </trkpt>
      <trkpt lat="49.08222" lon="2.16834">
        <ele>92</ele>
        <time>2015-11-01T10:41:02.452Z</time>
      </trkpt>
      <trkpt lat="49.08226" lon="2.16823">
        <ele>89</ele>
        <time>2015-11-01T10:41:13.574Z</time>
      </trkpt>
      <trkpt lat="49.08228" lon="2.16822">
        <ele>88</ele>
        <time>2015-11-01T10:41:14.451Z</time>
      </trkpt>
      <trkpt lat="49.08236" lon="2.16816">
        <ele>93</ele>
        <time>2015-11-01T10:41:23.911Z</time>
      </trkpt>
      <trkpt lat="49.08237" lon="2.16815">
        <ele>94</ele>
        <time>2015-11-01T10:41:24.459Z</time>
      </trkpt>
      <trkpt lat="49.08246" lon="2.16813">
        <ele>94</ele>
        <time>2015-11-01T10:41:29.763Z</time>
      </trkpt>
      <trkpt lat="49.08247" lon="2.16812">
        <ele>94</ele>
        <time>2015-11-01T10:41:30.488Z</time>
      </trkpt>
      <trkpt lat="49.08255" lon="2.16809">
        <ele>94</ele>
        <time>2015-11-01T10:41:37.622Z</time>
      </trkpt>
      <trkpt lat="49.08257" lon="2.16808">
        <ele>93</ele>
        <time>2015-11-01T10:41:38.461Z</time>
      </trkpt>
      <trkpt lat="49.08265" lon="2.16806">
        <ele>97</ele>
        <time>2015-11-01T10:41:45.650Z</time>
      </trkpt>
      <trkpt lat="49.08266" lon="2.16806">
        <ele>95</ele>
        <time>2015-11-01T10:41:46.486Z</time>
      </trkpt>
      <trkpt lat="49.08275" lon="2.16809">
        <ele>96</ele>
        <time>2015-11-01T10:41:53.602Z</time>
      </trkpt>
      <trkpt lat="49.08276" lon="2.1681">
        <ele>94</ele>
        <time>2015-11-01T10:41:54.468Z</time>
      </trkpt>
      <trkpt lat="49.08284" lon="2.16811">
        <ele>94</ele>
        <time>2015-11-01T10:42:16.623Z</time>
      </trkpt>
      <trkpt lat="49.08285" lon="2.16812">
        <ele>95</ele>
        <time>2015-11-01T10:42:17.458Z</time>
      </trkpt>
      <trkpt lat="49.08293" lon="2.16817">
        <ele>99</ele>
        <time>2015-11-01T10:42:26.817Z</time>
      </trkpt>
      <trkpt lat="49.08294" lon="2.16818">
        <ele>99</ele>
        <time>2015-11-01T10:42:27.492Z</time>
      </trkpt>
      <trkpt lat="49.08301" lon="2.16822">
        <ele>101</ele>
        <time>2015-11-01T10:42:42.670Z</time>
      </trkpt>
      <trkpt lat="49.08303" lon="2.16823">
        <ele>100</ele>
        <time>2015-11-01T10:42:43.457Z</time>
      </trkpt>
      <trkpt lat="49.08311" lon="2.16826">
        <ele>104</ele>
        <time>2015-11-01T10:42:48.661Z</time>
      </trkpt>
      <trkpt lat="49.08313" lon="2.16826">
        <ele>104</ele>
        <time>2015-11-01T10:42:49.527Z</time>
      </trkpt>
      <trkpt lat="49.0832" lon="2.1683">
        <ele>105</ele>
        <time>2015-11-01T10:43:04.615Z</time>
      </trkpt>
      <trkpt lat="49.08322" lon="2.16831">
        <ele>105</ele>
        <time>2015-11-01T10:43:05.470Z</time>
      </trkpt>
      <trkpt lat="49.08329" lon="2.16835">
        <ele>108</ele>
        <time>2015-11-01T10:43:09.608Z</time>
      </trkpt>
      <trkpt lat="49.08331" lon="2.16836">
        <ele>108</ele>
        <time>2015-11-01T10:43:10.494Z</time>
      </trkpt>
      <trkpt lat="49.08337" lon="2.1684">
        <ele>109</ele>
        <time>2015-11-01T10:43:14.574Z</time>
      </trkpt>
      <trkpt lat="49.0834" lon="2.16841">
        <ele>107</ele>
        <time>2015-11-01T10:43:15.451Z</time>
      </trkpt>
      <trkpt lat="49.08345" lon="2.16843">
        <ele>106</ele>
        <time>2015-11-01T10:43:17.587Z</time>
      </trkpt>
      <trkpt lat="49.08349" lon="2.16843">
        <ele>105</ele>
        <time>2015-11-01T10:43:18.450Z</time>
      </trkpt>
      <trkpt lat="49.08357" lon="2.16847">
        <ele>106</ele>
        <time>2015-11-01T10:43:25.689Z</time>
      </trkpt>
      <trkpt lat="49.08358" lon="2.16847">
        <ele>106</ele>
        <time>2015-11-01T10:43:26.459Z</time>
      </trkpt>
      <trkpt lat="49.08364" lon="2.16849">
        <ele>106</ele>
        <time>2015-11-01T10:43:41.680Z</time>
      </trkpt>
      <trkpt lat="49.08367" lon="2.16849">
        <ele>105</ele>
        <time>2015-11-01T10:43:42.450Z</time>
      </trkpt>
      <trkpt lat="49.08375" lon="2.16851">
        <ele>103</ele>
        <time>2015-11-01T10:43:46.670Z</time>
      </trkpt>
      <trkpt lat="49.08377" lon="2.16852">
        <ele>103</ele>
        <time>2015-11-01T10:43:47.519Z</time>
      </trkpt>
      <trkpt lat="49.08384" lon="2.16853">
        <ele>102</ele>
        <time>2015-11-01T10:43:50.726Z</time>
      </trkpt>
      <trkpt lat="49.08386" lon="2.16854">
        <ele>101</ele>
        <time>2015-11-01T10:43:51.474Z</time>
      </trkpt>
      <trkpt lat="49.08394" lon="2.16856">
        <ele>100</ele>
        <time>2015-11-01T10:43:55.595Z</time>
      </trkpt>
      <trkpt lat="49.08395" lon="2.16856">
        <ele>98</ele>
        <time>2015-11-01T10:43:56.459Z</time>
      </trkpt>
      <trkpt lat="49.08403" lon="2.16858">
        <ele>97</ele>
        <time>2015-11-01T10:44:02.680Z</time>
      </trkpt>
      <trkpt lat="49.08404" lon="2.16858">
        <ele>97</ele>
        <time>2015-11-01T10:44:03.451Z</time>
      </trkpt>
      <trkpt lat="49.08413" lon="2.16862">
        <ele>101</ele>
        <time>2015-11-01T10:44:09.927Z</time>
      </trkpt>
      <trkpt lat="49.08414" lon="2.16863">
        <ele>100</ele>
        <time>2015-11-01T10:44:10.570Z</time>
      </trkpt>
      <trkpt lat="49.08422" lon="2.16867">
        <ele>106</ele>
        <time>2015-11-01T10:44:17.562Z</time>
      </trkpt>
      <trkpt lat="49.08423" lon="2.16868">
        <ele>105</ele>
        <time>2015-11-01T10:44:18.456Z</time>
      </trkpt>
      <trkpt lat="49.08431" lon="2.1687">
        <ele>102</ele>
        <time>2015-11-01T10:44:26.858Z</time>
      </trkpt>
      <trkpt lat="49.08432" lon="2.1687">
        <ele>101</ele>
        <time>2015-11-01T10:44:27.486Z</time>
      </trkpt>
      <trkpt lat="49.0844" lon="2.16873">
        <ele>101</ele>
        <time>2015-11-01T10:44:34.780Z</time>
      </trkpt>
      <trkpt lat="49.08441" lon="2.16873">
        <ele>100</ele>
        <time>2015-11-01T10:44:35.458Z</time>
      </trkpt>
      <trkpt lat="49.08449" lon="2.16875">
        <ele>100</ele>
        <time>2015-11-01T10:44:41.595Z</time>
      </trkpt>
      <trkpt lat="49.0845" lon="2.16875">
        <ele>99</ele>
        <time>2015-11-01T10:44:42.460Z</time>
      </trkpt>
      <trkpt lat="49.08458" lon="2.16875">
        <ele>99</ele>
        <time>2015-11-01T10:44:48.592Z</time>
      </trkpt>
      <trkpt lat="49.08459" lon="2.16874">
        <ele>100</ele>
        <time>2015-11-01T10:44:49.472Z</time>
      </trkpt>
      <trkpt lat="49.08468" lon="2.16872">
        <ele>98</ele>
        <time>2015-11-01T10:44:56.648Z</time>
      </trkpt>
      <trkpt lat="49.08469" lon="2.16872">
        <ele>98</ele>
        <time>2015-11-01T10:44:57.476Z</time>
      </trkpt>
      <trkpt lat="49.08477" lon="2.16868">
        <ele>100</ele>
        <time>2015-11-01T10:45:05.617Z</time>
      </trkpt>
      <trkpt lat="49.08479" lon="2.16868">
        <ele>102</ele>
        <time>2015-11-01T10:45:06.476Z</time>
      </trkpt>
      <trkpt lat="49.08488" lon="2.16866">
        <ele>107</ele>
        <time>2015-11-01T10:45:12.663Z</time>
      </trkpt>
      <trkpt lat="49.08489" lon="2.16866">
        <ele>107</ele>
        <time>2015-11-01T10:45:13.452Z</time>
      </trkpt>
      <trkpt lat="49.08498" lon="2.16866">
        <ele>109</ele>
        <time>2015-11-01T10:45:28.585Z</time>
      </trkpt>
      <trkpt lat="49.08499" lon="2.16866">
        <ele>110</ele>
        <time>2015-11-01T10:45:29.470Z</time>
      </trkpt>
      <trkpt lat="49.08508" lon="2.16865">
        <ele>109</ele>
        <time>2015-11-01T10:45:34.672Z</time>
      </trkpt>
      <trkpt lat="49.08511" lon="2.16864">
        <ele>109</ele>
        <time>2015-11-01T10:45:35.460Z</time>
      </trkpt>
      <trkpt lat="49.08519" lon="2.16862">
        <ele>113</ele>
        <time>2015-11-01T10:45:39.674Z</time>
      </trkpt>
      <trkpt lat="49.08521" lon="2.16861">
        <ele>113</ele>
        <time>2015-11-01T10:45:40.463Z</time>
      </trkpt>
      <trkpt lat="49.08529" lon="2.16859">
        <ele>111</ele>
        <time>2015-11-01T10:45:47.779Z</time>
      </trkpt>
      <trkpt lat="49.0853" lon="2.1686">
        <ele>111</ele>
        <time>2015-11-01T10:45:48.460Z</time>
      </trkpt>
      <trkpt lat="49.08538" lon="2.16858">
        <ele>110</ele>
        <time>2015-11-01T10:45:55.524Z</time>
      </trkpt>
      <trkpt lat="49.08539" lon="2.16858">
        <ele>110</ele>
        <time>2015-11-01T10:45:56.469Z</time>
      </trkpt>
      <trkpt lat="49.08548" lon="2.16857">
        <ele>110</ele>
        <time>2015-11-01T10:46:03.682Z</time>
      </trkpt>
      <trkpt lat="49.08549" lon="2.16857">
        <ele>111</ele>
        <time>2015-11-01T10:46:04.468Z</time>
      </trkpt>
      <trkpt lat="49.08558" lon="2.16854">
        <ele>107</ele>
        <time>2015-11-01T10:46:10.602Z</time>
      </trkpt>
      <trkpt lat="49.08558" lon="2.16853">
        <ele>106</ele>
        <time>2015-11-01T10:46:11.453Z</time>
      </trkpt>
      <trkpt lat="49.08565" lon="2.16845">
        <ele>105</ele>
        <time>2015-11-01T10:46:18.564Z</time>
      </trkpt>
      <trkpt lat="49.08566" lon="2.16844">
        <ele>107</ele>
        <time>2015-11-01T10:46:19.451Z</time>
      </trkpt>
      <trkpt lat="49.08574" lon="2.16839">
        <ele>103</ele>
        <time>2015-11-01T10:46:32.522Z</time>
      </trkpt>
      <trkpt lat="49.08575" lon="2.16839">
        <ele>102</ele>
        <time>2015-11-01T10:46:33.490Z</time>
      </trkpt>
      <trkpt lat="49.08581" lon="2.1683">
        <ele>98</ele>
        <time>2015-11-01T10:46:44.667Z</time>
      </trkpt>
      <trkpt lat="49.08582" lon="2.16829">
        <ele>98</ele>
        <time>2015-11-01T10:46:45.461Z</time>
      </trkpt>
      <trkpt lat="49.08588" lon="2.1682">
        <ele>97</ele>
        <time>2015-11-01T10:47:05.513Z</time>
      </trkpt>
      <trkpt lat="49.08588" lon="2.16819">
        <ele>96</ele>
        <time>2015-11-01T10:47:06.463Z</time>
      </trkpt>
      <trkpt lat="49.08593" lon="2.16809">
        <ele>93</ele>
        <time>2015-11-01T10:47:14.678Z</time>
      </trkpt>
      <trkpt lat="49.08594" lon="2.16807">
        <ele>93</ele>
        <time>2015-11-01T10:47:15.451Z</time>
      </trkpt>
      <trkpt lat="49.08598" lon="2.16796">
        <ele>95</ele>
        <time>2015-11-01T10:47:20.687Z</time>
      </trkpt>
      <trkpt lat="49.08598" lon="2.16794">
        <ele>95</ele>
        <time>2015-11-01T10:47:21.460Z</time>
      </trkpt>
      <trkpt lat="49.08602" lon="2.16784">
        <ele>94</ele>
        <time>2015-11-01T10:47:27.697Z</time>
      </trkpt>
      <trkpt lat="49.08603" lon="2.16782">
        <ele>94</ele>
        <time>2015-11-01T10:47:28.472Z</time>
      </trkpt>
      <trkpt lat="49.08609" lon="2.16773">
        <ele>94</ele>
        <time>2015-11-01T10:47:35.698Z</time>
      </trkpt>
      <trkpt lat="49.08609" lon="2.16771">
        <ele>95</ele>
        <time>2015-11-01T10:47:36.452Z</time>
      </trkpt>
      <trkpt lat="49.08611" lon="2.16759">
        <ele>96</ele>
        <time>2015-11-01T10:47:41.717Z</time>
      </trkpt>
      <trkpt lat="49.08611" lon="2.16757">
        <ele>96</ele>
        <time>2015-11-01T10:47:42.507Z</time>
      </trkpt>
      <trkpt lat="49.08611" lon="2.16744">
        <ele>95</ele>
        <time>2015-11-01T10:47:47.964Z</time>
      </trkpt>
      <trkpt lat="49.08612" lon="2.16742">
        <ele>95</ele>
        <time>2015-11-01T10:47:48.484Z</time>
      </trkpt>
      <trkpt lat="49.08614" lon="2.16729">
        <ele>91</ele>
        <time>2015-11-01T10:47:56.658Z</time>
      </trkpt>
      <trkpt lat="49.08615" lon="2.16728">
        <ele>93</ele>
        <time>2015-11-01T10:47:57.462Z</time>
      </trkpt>
      <trkpt lat="49.08616" lon="2.16716">
        <ele>95</ele>
        <time>2015-11-01T10:48:05.515Z</time>
      </trkpt>
      <trkpt lat="49.08616" lon="2.16714">
        <ele>96</ele>
        <time>2015-11-01T10:48:06.463Z</time>
      </trkpt>
      <trkpt lat="49.08617" lon="2.16701">
        <ele>94</ele>
        <time>2015-11-01T10:48:13.531Z</time>
      </trkpt>
      <trkpt lat="49.08617" lon="2.16698">
        <ele>94</ele>
        <time>2015-11-01T10:48:14.451Z</time>
      </trkpt>
      <trkpt lat="49.08619" lon="2.16686">
        <ele>95</ele>
        <time>2015-11-01T10:48:19.583Z</time>
      </trkpt>
      <trkpt lat="49.08619" lon="2.16684">
        <ele>95</ele>
        <time>2015-11-01T10:48:20.452Z</time>
      </trkpt>
      <trkpt lat="49.08621" lon="2.16672">
        <ele>93</ele>
        <time>2015-11-01T10:48:27.839Z</time>
      </trkpt>
      <trkpt lat="49.08621" lon="2.16671">
        <ele>93</ele>
        <time>2015-11-01T10:48:28.477Z</time>
      </trkpt>
      <trkpt lat="49.08621" lon="2.16658">
        <ele>91</ele>
        <time>2015-11-01T10:48:36.656Z</time>
      </trkpt>
      <trkpt lat="49.08621" lon="2.16656">
        <ele>91</ele>
        <time>2015-11-01T10:48:37.472Z</time>
      </trkpt>
      <trkpt lat="49.08621" lon="2.16643">
        <ele>91</ele>
        <time>2015-11-01T10:48:49.885Z</time>
      </trkpt>
      <trkpt lat="49.08622" lon="2.16642">
        <ele>91</ele>
        <time>2015-11-01T10:48:50.451Z</time>
      </trkpt>
      <trkpt lat="49.08627" lon="2.16633">
        <ele>97</ele>
        <time>2015-11-01T10:48:59.651Z</time>
      </trkpt>
      <trkpt lat="49.08628" lon="2.16631">
        <ele>98</ele>
        <time>2015-11-01T10:49:00.472Z</time>
      </trkpt>
      <trkpt lat="49.08627" lon="2.16618">
        <ele>101</ele>
        <time>2015-11-01T10:49:09.655Z</time>
      </trkpt>
      <trkpt lat="49.08627" lon="2.16616">
        <ele>101</ele>
        <time>2015-11-01T10:49:10.451Z</time>
      </trkpt>
      <trkpt lat="49.0863" lon="2.16605">
        <ele>97</ele>
        <time>2015-11-01T10:49:17.513Z</time>
      </trkpt>
      <trkpt lat="49.08631" lon="2.16603">
        <ele>97</ele>
        <time>2015-11-01T10:49:18.451Z</time>
      </trkpt>
      <trkpt lat="49.08636" lon="2.16593">
        <ele>97</ele>
        <time>2015-11-01T10:49:26.521Z</time>
      </trkpt>
      <trkpt lat="49.08636" lon="2.16591">
        <ele>97</ele>
        <time>2015-11-01T10:49:27.468Z</time>
      </trkpt>
      <trkpt lat="49.08638" lon="2.16579">
        <ele>100</ele>
        <time>2015-11-01T10:49:34.660Z</time>
      </trkpt>
      <trkpt lat="49.08638" lon="2.16577">
        <ele>100</ele>
        <time>2015-11-01T10:49:35.471Z</time>
      </trkpt>
      <trkpt lat="49.08638" lon="2.16563">
        <ele>96</ele>
        <time>2015-11-01T10:49:41.858Z</time>
      </trkpt>
      <trkpt lat="49.08638" lon="2.16561">
        <ele>96</ele>
        <time>2015-11-01T10:49:42.477Z</time>
      </trkpt>
      <trkpt lat="49.08639" lon="2.16549">
        <ele>93</ele>
        <time>2015-11-01T10:49:53.522Z</time>
      </trkpt>
      <trkpt lat="49.0864" lon="2.16548">
        <ele>95</ele>
        <time>2015-11-01T10:49:54.463Z</time>
      </trkpt>
      <trkpt lat="49.08645" lon="2.16538">
        <ele>91</ele>
        <time>2015-11-01T10:50:00.610Z</time>
      </trkpt>
      <trkpt lat="49.08645" lon="2.16537">
        <ele>91</ele>
        <time>2015-11-01T10:50:01.474Z</time>
      </trkpt>
      <trkpt lat="49.0865" lon="2.16526">
        <ele>92</ele>
        <time>2015-11-01T10:50:08.849Z</time>
      </trkpt>
      <trkpt lat="49.08651" lon="2.16525">
        <ele>92</ele>
        <time>2015-11-01T10:50:09.451Z</time>
      </trkpt>
      <trkpt lat="49.08658" lon="2.16517">
        <ele>88</ele>
        <time>2015-11-01T10:50:15.503Z</time>
      </trkpt>
      <trkpt lat="49.08659" lon="2.16515">
        <ele>88</ele>
        <time>2015-11-01T10:50:16.451Z</time>
      </trkpt>
      <trkpt lat="49.08665" lon="2.16504">
        <ele>89</ele>
        <time>2015-11-01T10:50:23.657Z</time>
      </trkpt>
      <trkpt lat="49.08665" lon="2.16503">
        <ele>89</ele>
        <time>2015-11-01T10:50:24.466Z</time>
      </trkpt>
      <trkpt lat="49.0867" lon="2.16491">
        <ele>93</ele>
        <time>2015-11-01T10:50:43.521Z</time>
      </trkpt>
      <trkpt lat="49.0867" lon="2.16489">
        <ele>93</ele>
        <time>2015-11-01T10:50:44.461Z</time>
      </trkpt>
      <trkpt lat="49.08675" lon="2.1648">
        <ele>94</ele>
        <time>2015-11-01T10:50:52.685Z</time>
      </trkpt>
      <trkpt lat="49.08675" lon="2.16478">
        <ele>95</ele>
        <time>2015-11-01T10:50:53.482Z</time>
      </trkpt>
      <trkpt lat="49.08682" lon="2.16471">
        <ele>95</ele>
        <time>2015-11-01T10:51:00.523Z</time>
      </trkpt>
      <trkpt lat="49.08684" lon="2.1647">
        <ele>96</ele>
        <time>2015-11-01T10:51:01.528Z</time>
      </trkpt>
      <trkpt lat="49.0869" lon="2.16461">
        <ele>97</ele>
        <time>2015-11-01T10:51:06.528Z</time>
      </trkpt>
      <trkpt lat="49.08691" lon="2.16459">
        <ele>97</ele>
        <time>2015-11-01T10:51:07.478Z</time>
      </trkpt>
      <trkpt lat="49.08696" lon="2.16451">
        <ele>96</ele>
        <time>2015-11-01T10:51:12.521Z</time>
      </trkpt>
      <trkpt lat="49.08698" lon="2.16449">
        <ele>97</ele>
        <time>2015-11-01T10:51:13.451Z</time>
      </trkpt>
      <trkpt lat="49.08704" lon="2.16441">
        <ele>102</ele>
        <time>2015-11-01T10:51:18.528Z</time>
      </trkpt>
      <trkpt lat="49.08705" lon="2.16439">
        <ele>104</ele>
        <time>2015-11-01T10:51:19.501Z</time>
      </trkpt>
      <trkpt lat="49.08708" lon="2.16427">
        <ele>106</ele>
        <time>2015-11-01T10:51:25.655Z</time>
      </trkpt>
      <trkpt lat="49.08708" lon="2.16425">
        <ele>107</ele>
        <time>2015-11-01T10:51:26.486Z</time>
      </trkpt>
      <trkpt lat="49.08714" lon="2.16416">
        <ele>104</ele>
        <time>2015-11-01T10:51:31.656Z</time>
      </trkpt>
      <trkpt lat="49.08716" lon="2.16415">
        <ele>104</ele>
        <time>2015-11-01T10:51:32.474Z</time>
      </trkpt>
      <trkpt lat="49.08724" lon="2.1641">
        <ele>103</ele>
        <time>2015-11-01T10:51:38.736Z</time>
      </trkpt>
      <trkpt lat="49.08725" lon="2.16408">
        <ele>105</ele>
        <time>2015-11-01T10:51:39.460Z</time>
      </trkpt>
      <trkpt lat="49.08731" lon="2.16399">
        <ele>105</ele>
        <time>2015-11-01T10:51:45.549Z</time>
      </trkpt>
      <trkpt lat="49.08732" lon="2.16398">
        <ele>104</ele>
        <time>2015-11-01T10:51:46.454Z</time>
      </trkpt>
      <trkpt lat="49.08737" lon="2.16387">
        <ele>106</ele>
        <time>2015-11-01T10:51:59.658Z</time>
      </trkpt>
      <trkpt lat="49.08737" lon="2.16387">
        <ele>105</ele>
        <time>2015-11-01T10:52:00.481Z</time>
      </trkpt>
      <trkpt lat="49.08744" lon="2.1638">
        <ele>105</ele>
        <time>2015-11-01T10:52:20.813Z</time>
      </trkpt>
      <trkpt lat="49.08745" lon="2.16378">
        <ele>106</ele>
        <time>2015-11-01T10:52:21.451Z</time>
      </trkpt>
      <trkpt lat="49.08752" lon="2.16374">
        <ele>107</ele>
        <time>2015-11-01T10:52:26.627Z</time>
      </trkpt>
      <trkpt lat="49.08753" lon="2.16374">
        <ele>108</ele>
        <time>2015-11-01T10:52:27.484Z</time>
      </trkpt>
      <trkpt lat="49.08761" lon="2.16366">
        <ele>109</ele>
        <time>2015-11-01T10:52:32.553Z</time>
      </trkpt>
      <trkpt lat="49.08762" lon="2.16365">
        <ele>109</ele>
        <time>2015-11-01T10:52:33.471Z</time>
      </trkpt>
      <trkpt lat="49.08769" lon="2.16358">
        <ele>107</ele>
        <time>2015-11-01T10:52:40.113Z</time>
      </trkpt>
      <trkpt lat="49.08771" lon="2.16357">
        <ele>103</ele>
        <time>2015-11-01T10:52:40.476Z</time>
      </trkpt>
      <trkpt lat="49.08778" lon="2.16352">
        <ele>106</ele>
        <time>2015-11-01T10:52:46.665Z</time>
      </trkpt>
      <trkpt lat="49.08779" lon="2.16351">
        <ele>106</ele>
        <time>2015-11-01T10:52:47.659Z</time>
      </trkpt>
      <trkpt lat="49.08785" lon="2.16341">
        <ele>109</ele>
        <time>2015-11-01T10:52:55.571Z</time>
      </trkpt>
      <trkpt lat="49.08786" lon="2.1634">
        <ele>109</ele>
        <time>2015-11-01T10:52:56.488Z</time>
      </trkpt>
      <trkpt lat="49.08793" lon="2.16334">
        <ele>110</ele>
        <time>2015-11-01T10:53:04.669Z</time>
      </trkpt>
      <trkpt lat="49.08795" lon="2.16334">
        <ele>110</ele>
        <time>2015-11-01T10:53:05.468Z</time>
      </trkpt>
      <trkpt lat="49.08803" lon="2.16331">
        <ele>112</ele>
        <time>2015-11-01T10:53:13.557Z</time>
      </trkpt>
      <trkpt lat="49.08804" lon="2.16331">
        <ele>112</ele>
        <time>2015-11-01T10:53:14.586Z</time>
      </trkpt>
      <trkpt lat="49.08811" lon="2.16323">
        <ele>110</ele>
        <time>2015-11-01T10:53:33.680Z</time>
      </trkpt>
      <trkpt lat="49.08811" lon="2.16322">
        <ele>111</ele>
        <time>2015-11-01T10:53:34.479Z</time>
      </trkpt>
      <trkpt lat="49.08819" lon="2.16315">
        <ele>109</ele>
        <time>2015-11-01T10:53:49.676Z</time>
      </trkpt>
      <trkpt lat="49.0882" lon="2.16313">
        <ele>109</ele>
        <time>2015-11-01T10:53:50.508Z</time>
      </trkpt>
      <trkpt lat="49.08825" lon="2.16304">
        <ele>109</ele>
        <time>2015-11-01T10:53:55.672Z</time>
      </trkpt>
      <trkpt lat="49.08827" lon="2.16302">
        <ele>110</ele>
        <time>2015-11-01T10:53:56.477Z</time>
      </trkpt>
      <trkpt lat="49.08833" lon="2.16294">
        <ele>109</ele>
        <time>2015-11-01T10:54:01.667Z</time>
      </trkpt>
      <trkpt lat="49.08834" lon="2.16293">
        <ele>107</ele>
        <time>2015-11-01T10:54:02.470Z</time>
      </trkpt>
      <trkpt lat="49.08841" lon="2.16288">
        <ele>105</ele>
        <time>2015-11-01T10:54:06.671Z</time>
      </trkpt>
      <trkpt lat="49.08843" lon="2.16287">
        <ele>105</ele>
        <time>2015-11-01T10:54:07.598Z</time>
      </trkpt>
      <trkpt lat="49.0885" lon="2.16282">
        <ele>108</ele>
        <time>2015-11-01T10:54:10.831Z</time>
      </trkpt>
      <trkpt lat="49.08851" lon="2.16281">
        <ele>108</ele>
        <time>2015-11-01T10:54:11.466Z</time>
      </trkpt>
      <trkpt lat="49.08859" lon="2.16274">
        <ele>109</ele>
        <time>2015-11-01T10:54:21.568Z</time>
      </trkpt>
      <trkpt lat="49.0886" lon="2.16273">
        <ele>109</ele>
        <time>2015-11-01T10:54:22.474Z</time>
      </trkpt>
      <trkpt lat="49.08865" lon="2.16263">
        <ele>108</ele>
        <time>2015-11-01T10:54:28.896Z</time>
      </trkpt>
      <trkpt lat="49.08866" lon="2.16262">
        <ele>110</ele>
        <time>2015-11-01T10:54:29.488Z</time>
      </trkpt>
      <trkpt lat="49.08872" lon="2.16254">
        <ele>113</ele>
        <time>2015-11-01T10:54:35.706Z</time>
      </trkpt>
      <trkpt lat="49.08873" lon="2.16254">
        <ele>114</ele>
        <time>2015-11-01T10:54:36.476Z</time>
      </trkpt>
      <trkpt lat="49.08879" lon="2.16244">
        <ele>116</ele>
        <time>2015-11-01T10:54:44.671Z</time>
      </trkpt>
      <trkpt lat="49.0888" lon="2.16243">
        <ele>116</ele>
        <time>2015-11-01T10:54:45.478Z</time>
      </trkpt>
      <trkpt lat="49.08885" lon="2.16233">
        <ele>115</ele>
        <time>2015-11-01T10:54:53.702Z</time>
      </trkpt>
      <trkpt lat="49.08886" lon="2.16232">
        <ele>115</ele>
        <time>2015-11-01T10:54:54.459Z</time>
      </trkpt>
      <trkpt lat="49.08893" lon="2.16223">
        <ele>115</ele>
        <time>2015-11-01T10:55:06.557Z</time>
      </trkpt>
      <trkpt lat="49.08894" lon="2.16221">
        <ele>114</ele>
        <time>2015-11-01T10:55:07.477Z</time>
      </trkpt>
      <trkpt lat="49.089" lon="2.16212">
        <ele>113</ele>
        <time>2015-11-01T10:55:13.712Z</time>
      </trkpt>
      <trkpt lat="49.08901" lon="2.1621">
        <ele>112</ele>
        <time>2015-11-01T10:55:14.462Z</time>
      </trkpt>
      <trkpt lat="49.08908" lon="2.16203">
        <ele>110</ele>
        <time>2015-11-01T10:55:19.563Z</time>
      </trkpt>
      <trkpt lat="49.08909" lon="2.16202">
        <ele>111</ele>
        <time>2015-11-01T10:55:20.460Z</time>
      </trkpt>
      <trkpt lat="49.08915" lon="2.16195">
        <ele>109</ele>
        <time>2015-11-01T10:55:25.764Z</time>
      </trkpt>
      <trkpt lat="49.08917" lon="2.16194">
        <ele>109</ele>
        <time>2015-11-01T10:55:26.800Z</time>
      </trkpt>
      <trkpt lat="49.08924" lon="2.16187">
        <ele>112</ele>
        <time>2015-11-01T10:55:32.682Z</time>
      </trkpt>
      <trkpt lat="49.08925" lon="2.16186">
        <ele>111</ele>
        <time>2015-11-01T10:55:33.593Z</time>
      </trkpt>
      <trkpt lat="49.08932" lon="2.16182">
        <ele>113</ele>
        <time>2015-11-01T10:55:39.576Z</time>
      </trkpt>
      <trkpt lat="49.08933" lon="2.16181">
        <ele>112</ele>
        <time>2015-11-01T10:55:40.490Z</time>
      </trkpt>
      <trkpt lat="49.08942" lon="2.16179">
        <ele>112</ele>
        <time>2015-11-01T10:55:45.705Z</time>
      </trkpt>
      <trkpt lat="49.08943" lon="2.16178">
        <ele>112</ele>
        <time>2015-11-01T10:55:46.462Z</time>
      </trkpt>
      <trkpt lat="49.0895" lon="2.16173">
        <ele>109</ele>
        <time>2015-11-01T10:55:53.673Z</time>
      </trkpt>
      <trkpt lat="49.08951" lon="2.16173">
        <ele>109</ele>
        <time>2015-11-01T10:55:54.607Z</time>
      </trkpt>
      <trkpt lat="49.08959" lon="2.16168">
        <ele>109</ele>
        <time>2015-11-01T10:56:31.748Z</time>
      </trkpt>
      <trkpt lat="49.08961" lon="2.16168">
        <ele>107</ele>
        <time>2015-11-01T10:56:32.487Z</time>
      </trkpt>
      <trkpt lat="49.08969" lon="2.16168">
        <ele>106</ele>
        <time>2015-11-01T10:56:43.539Z</time>
      </trkpt>
      <trkpt lat="49.0897" lon="2.16168">
        <ele>106</ele>
        <time>2015-11-01T10:56:44.520Z</time>
      </trkpt>
      <trkpt lat="49.08978" lon="2.16165">
        <ele>106</ele>
        <time>2015-11-01T10:56:52.678Z</time>
      </trkpt>
      <trkpt lat="49.0898" lon="2.16163">
        <ele>106</ele>
        <time>2015-11-01T10:56:53.472Z</time>
      </trkpt>
      <trkpt lat="49.08986" lon="2.16156">
        <ele>103</ele>
        <time>2015-11-01T10:57:00.520Z</time>
      </trkpt>
      <trkpt lat="49.08987" lon="2.16155">
        <ele>103</ele>
        <time>2015-11-01T10:57:01.490Z</time>
      </trkpt>
      <trkpt lat="49.08994" lon="2.16148">
        <ele>107</ele>
        <time>2015-11-01T10:57:08.540Z</time>
      </trkpt>
      <trkpt lat="49.08995" lon="2.16148">
        <ele>107</ele>
        <time>2015-11-01T10:57:09.470Z</time>
      </trkpt>
      <trkpt lat="49.09003" lon="2.16146">
        <ele>106</ele>
        <time>2015-11-01T10:57:17.569Z</time>
      </trkpt>
      <trkpt lat="49.09004" lon="2.16145">
        <ele>106</ele>
        <time>2015-11-01T10:57:18.459Z</time>
      </trkpt>
      <trkpt lat="49.09012" lon="2.1614">
        <ele>106</ele>
        <time>2015-11-01T10:57:25.620Z</time>
      </trkpt>
      <trkpt lat="49.09013" lon="2.1614">
        <ele>107</ele>
        <time>2015-11-01T10:57:26.461Z</time>
      </trkpt>
      <trkpt lat="49.0902" lon="2.16134">
        <ele>107</ele>
        <time>2015-11-01T10:57:36.531Z</time>
      </trkpt>
      <trkpt lat="49.09021" lon="2.16133">
        <ele>108</ele>
        <time>2015-11-01T10:57:37.460Z</time>
      </trkpt>
      <trkpt lat="49.0903" lon="2.1613">
        <ele>110</ele>
        <time>2015-11-01T10:57:45.760Z</time>
      </trkpt>
      <trkpt lat="49.09031" lon="2.1613">
        <ele>111</ele>
        <time>2015-11-01T10:57:46.566Z</time>
      </trkpt>
      <trkpt lat="49.09039" lon="2.16127">
        <ele>111</ele>
        <time>2015-11-01T10:57:58.718Z</time>
      </trkpt>
      <trkpt lat="49.0904" lon="2.16127">
        <ele>111</ele>
        <time>2015-11-01T10:57:59.468Z</time>
      </trkpt>
      <trkpt lat="49.09049" lon="2.16123">
        <ele>107</ele>
        <time>2015-11-01T10:58:07.645Z</time>
      </trkpt>
      <trkpt lat="49.0905" lon="2.16123">
        <ele>106</ele>
        <time>2015-11-01T10:58:08.462Z</time>
      </trkpt>
      <trkpt lat="49.09058" lon="2.16117">
        <ele>107</ele>
        <time>2015-11-01T10:58:16.541Z</time>
      </trkpt>
      <trkpt lat="49.09058" lon="2.16116">
        <ele>107</ele>
        <time>2015-11-01T10:58:17.451Z</time>
      </trkpt>
      <trkpt lat="49.09065" lon="2.16109">
        <ele>109</ele>
        <time>2015-11-01T10:58:26.534Z</time>
      </trkpt>
      <trkpt lat="49.09066" lon="2.16109">
        <ele>108</ele>
        <time>2015-11-01T10:58:27.478Z</time>
      </trkpt>
      <trkpt lat="49.09072" lon="2.16102">
        <ele>109</ele>
        <time>2015-11-01T10:58:35.846Z</time>
      </trkpt>
      <trkpt lat="49.09074" lon="2.16102">
        <ele>111</ele>
        <time>2015-11-01T10:58:36.464Z</time>
      </trkpt>
      <trkpt lat="49.09082" lon="2.16097">
        <ele>113</ele>
        <time>2015-11-01T10:58:42.660Z</time>
      </trkpt>
      <trkpt lat="49.09082" lon="2.16096">
        <ele>113</ele>
        <time>2015-11-01T10:58:43.470Z</time>
      </trkpt>
      <trkpt lat="49.0909" lon="2.1609">
        <ele>112</ele>
        <time>2015-11-01T10:58:52.686Z</time>
      </trkpt>
      <trkpt lat="49.09091" lon="2.16089">
        <ele>113</ele>
        <time>2015-11-01T10:58:53.476Z</time>
      </trkpt>
      <trkpt lat="49.09099" lon="2.16084">
        <ele>115</ele>
        <time>2015-11-01T10:59:03.656Z</time>
      </trkpt>
      <trkpt lat="49.091" lon="2.16084">
        <ele>113</ele>
        <time>2015-11-01T10:59:04.477Z</time>
      </trkpt>
      <trkpt lat="49.09108" lon="2.16081">
        <ele>111</ele>
        <time>2015-11-01T10:59:10.662Z</time>
      </trkpt>
      <trkpt lat="49.09109" lon="2.1608">
        <ele>111</ele>
        <time>2015-11-01T10:59:11.480Z</time>
      </trkpt>
      <trkpt lat="49.09118" lon="2.16077">
        <ele>107</ele>
        <time>2015-11-01T10:59:18.528Z</time>
      </trkpt>
      <trkpt lat="49.09119" lon="2.16077">
        <ele>106</ele>
        <time>2015-11-01T10:59:19.482Z</time>
      </trkpt>
      <trkpt lat="49.09128" lon="2.16077">
        <ele>108</ele>
        <time>2015-11-01T10:59:30.647Z</time>
      </trkpt>
      <trkpt lat="49.09128" lon="2.16077">
        <ele>109</ele>
        <time>2015-11-01T10:59:31.452Z</time>
      </trkpt>
      <trkpt lat="49.09137" lon="2.16076">
        <ele>108</ele>
        <time>2015-11-01T10:59:43.650Z</time>
      </trkpt>
      <trkpt lat="49.09138" lon="2.16076">
        <ele>107</ele>
        <time>2015-11-01T10:59:44.476Z</time>
      </trkpt>
      <trkpt lat="49.09147" lon="2.16075">
        <ele>110</ele>
        <time>2015-11-01T10:59:49.662Z</time>
      </trkpt>
      <trkpt lat="49.09149" lon="2.16075">
        <ele>112</ele>
        <time>2015-11-01T10:59:50.461Z</time>
      </trkpt>
      <trkpt lat="49.09157" lon="2.16075">
        <ele>116</ele>
        <time>2015-11-01T10:59:54.700Z</time>
      </trkpt>
      <trkpt lat="49.09159" lon="2.16075">
        <ele>117</ele>
        <time>2015-11-01T10:59:55.493Z</time>
      </trkpt>
      <trkpt lat="49.09168" lon="2.16077">
        <ele>119</ele>
        <time>2015-11-01T10:59:59.577Z</time>
      </trkpt>
      <trkpt lat="49.0917" lon="2.16077">
        <ele>119</ele>
        <time>2015-11-01T11:00:00.551Z</time>
      </trkpt>
      <trkpt lat="49.09177" lon="2.16078">
        <ele>119</ele>
        <time>2015-11-01T11:00:04.698Z</time>
      </trkpt>
      <trkpt lat="49.09179" lon="2.16078">
        <ele>119</ele>
        <time>2015-11-01T11:00:05.492Z</time>
      </trkpt>
      <trkpt lat="49.09187" lon="2.16078">
        <ele>121</ele>
        <time>2015-11-01T11:00:10.546Z</time>
      </trkpt>
      <trkpt lat="49.09188" lon="2.16077">
        <ele>123</ele>
        <time>2015-11-01T11:00:11.701Z</time>
      </trkpt>
      <trkpt lat="49.09196" lon="2.16077">
        <ele>124</ele>
        <time>2015-11-01T11:00:17.654Z</time>
      </trkpt>
      <trkpt lat="49.09197" lon="2.16077">
        <ele>124</ele>
        <time>2015-11-01T11:00:18.451Z</time>
      </trkpt>
      <trkpt lat="49.09206" lon="2.16076">
        <ele>125</ele>
        <time>2015-11-01T11:00:33.556Z</time>
      </trkpt>
      <trkpt lat="49.09207" lon="2.16076">
        <ele>125</ele>
        <time>2015-11-01T11:00:34.475Z</time>
      </trkpt>
      <trkpt lat="49.09215" lon="2.16073">
        <ele>118</ele>
        <time>2015-11-01T11:00:59.750Z</time>
      </trkpt>
      <trkpt lat="49.09216" lon="2.16072">
        <ele>117</ele>
        <time>2015-11-01T11:01:00.452Z</time>
      </trkpt>
      <trkpt lat="49.09224" lon="2.16071">
        <ele>114</ele>
        <time>2015-11-01T11:01:06.532Z</time>
      </trkpt>
      <trkpt lat="49.09225" lon="2.16071">
        <ele>115</ele>
        <time>2015-11-01T11:01:07.461Z</time>
      </trkpt>
      <trkpt lat="49.09233" lon="2.16069">
        <ele>113</ele>
        <time>2015-11-01T11:01:12.571Z</time>
      </trkpt>
      <trkpt lat="49.09234" lon="2.16068">
        <ele>113</ele>
        <time>2015-11-01T11:01:13.452Z</time>
      </trkpt>
      <trkpt lat="49.09242" lon="2.16063">
        <ele>116</ele>
        <time>2015-11-01T11:01:18.680Z</time>
      </trkpt>
      <trkpt lat="49.09243" lon="2.16062">
        <ele>116</ele>
        <time>2015-11-01T11:01:19.453Z</time>
      </trkpt>
      <trkpt lat="49.09249" lon="2.16053">
        <ele>117</ele>
        <time>2015-11-01T11:01:31.673Z</time>
      </trkpt>
      <trkpt lat="49.0925" lon="2.16052">
        <ele>118</ele>
        <time>2015-11-01T11:01:32.469Z</time>
      </trkpt>
      <trkpt lat="49.09258" lon="2.16055">
        <ele>115</ele>
        <time>2015-11-01T11:02:15.612Z</time>
      </trkpt>
      <trkpt lat="49.09259" lon="2.16057">
        <ele>116</ele>
        <time>2015-11-01T11:02:16.451Z</time>
      </trkpt>
      <trkpt lat="49.09266" lon="2.1606">
        <ele>122</ele>
        <time>2015-11-01T11:02:22.652Z</time>
      </trkpt>
      <trkpt lat="49.09268" lon="2.16059">
        <ele>123</ele>
        <time>2015-11-01T11:02:23.452Z</time>
      </trkpt>
      <trkpt lat="49.09276" lon="2.16058">
        <ele>122</ele>
        <time>2015-11-01T11:02:28.648Z</time>
      </trkpt>
      <trkpt lat="49.09277" lon="2.16058">
        <ele>122</ele>
        <time>2015-11-01T11:02:29.470Z</time>
      </trkpt>
      <trkpt lat="49.09282" lon="2.16046">
        <ele>122</ele>
        <time>2015-11-01T11:02:36.597Z</time>
      </trkpt>
      <trkpt lat="49.09283" lon="2.16045">
        <ele>122</ele>
        <time>2015-11-01T11:02:37.478Z</time>
      </trkpt>
      <trkpt lat="49.09292" lon="2.16043">
        <ele>121</ele>
        <time>2015-11-01T11:02:47.654Z</time>
      </trkpt>
      <trkpt lat="49.09293" lon="2.16043">
        <ele>121</ele>
        <time>2015-11-01T11:02:48.453Z</time>
      </trkpt>
      <trkpt lat="49.09302" lon="2.16043">
        <ele>118</ele>
        <time>2015-11-01T11:02:54.819Z</time>
      </trkpt>
      <trkpt lat="49.09303" lon="2.16043">
        <ele>119</ele>
        <time>2015-11-01T11:02:55.460Z</time>
      </trkpt>
      <trkpt lat="49.09312" lon="2.16042">
        <ele>113</ele>
        <time>2015-11-01T11:03:01.776Z</time>
      </trkpt>
      <trkpt lat="49.09313" lon="2.16042">
        <ele>112</ele>
        <time>2015-11-01T11:03:02.469Z</time>
      </trkpt>
      <trkpt lat="49.09321" lon="2.16042">
        <ele>113</ele>
        <time>2015-11-01T11:03:08.658Z</time>
      </trkpt>
      <trkpt lat="49.09322" lon="2.16042">
        <ele>112</ele>
        <time>2015-11-01T11:03:09.461Z</time>
      </trkpt>
      <trkpt lat="49.0933" lon="2.1604">
        <ele>111</ele>
        <time>2015-11-01T11:03:16.607Z</time>
      </trkpt>
      <trkpt lat="49.09331" lon="2.16039">
        <ele>110</ele>
        <time>2015-11-01T11:03:17.467Z</time>
      </trkpt>
      <trkpt lat="49.09339" lon="2.16036">
        <ele>108</ele>
        <time>2015-11-01T11:03:24.608Z</time>
      </trkpt>
      <trkpt lat="49.09342" lon="2.16035">
        <ele>110</ele>
        <time>2015-11-01T11:03:26.717Z</time>
      </trkpt>
      <trkpt lat="49.0935" lon="2.16033">
        <ele>109</ele>
        <time>2015-11-01T11:03:31.646Z</time>
      </trkpt>
      <trkpt lat="49.09351" lon="2.16033">
        <ele>110</ele>
        <time>2015-11-01T11:03:32.452Z</time>
      </trkpt>
      <trkpt lat="49.09358" lon="2.16029">
        <ele>110</ele>
        <time>2015-11-01T11:03:38.547Z</time>
      </trkpt>
      <trkpt lat="49.0936" lon="2.16028">
        <ele>110</ele>
        <time>2015-11-01T11:03:39.452Z</time>
      </trkpt>
      <trkpt lat="49.09368" lon="2.16023">
        <ele>111</ele>
        <time>2015-11-01T11:03:46.716Z</time>
      </trkpt>
      <trkpt lat="49.09369" lon="2.16023">
        <ele>111</ele>
        <time>2015-11-01T11:03:47.452Z</time>
      </trkpt>
      <trkpt lat="49.09377" lon="2.16019">
        <ele>114</ele>
        <time>2015-11-01T11:03:54.669Z</time>
      </trkpt>
      <trkpt lat="49.09378" lon="2.16019">
        <ele>114</ele>
        <time>2015-11-01T11:03:55.497Z</time>
      </trkpt>
      <trkpt lat="49.09386" lon="2.16017">
        <ele>114</ele>
        <time>2015-11-01T11:04:02.586Z</time>
      </trkpt>
      <trkpt lat="49.09387" lon="2.16016">
        <ele>115</ele>
        <time>2015-11-01T11:04:03.471Z</time>
      </trkpt>
      <trkpt lat="49.09396" lon="2.16016">
        <ele>114</ele>
        <time>2015-11-01T11:04:10.585Z</time>
      </trkpt>
      <trkpt lat="49.09397" lon="2.16016">
        <ele>114</ele>
        <time>2015-11-01T11:04:11.452Z</time>
      </trkpt>
      <trkpt lat="49.09405" lon="2.16016">
        <ele>110</ele>
        <time>2015-11-01T11:04:18.562Z</time>
      </trkpt>
      <trkpt lat="49.09406" lon="2.16016">
        <ele>110</ele>
        <time>2015-11-01T11:04:19.493Z</time>
      </trkpt>
      <trkpt lat="49.09415" lon="2.16018">
        <ele>108</ele>
        <time>2015-11-01T11:04:28.905Z</time>
      </trkpt>
      <trkpt lat="49.09416" lon="2.16018">
        <ele>108</ele>
        <time>2015-11-01T11:04:29.481Z</time>
      </trkpt>
      <trkpt lat="49.09424" lon="2.16019">
        <ele>107</ele>
        <time>2015-11-01T11:04:36.552Z</time>
      </trkpt>
      <trkpt lat="49.09425" lon="2.16019">
        <ele>107</ele>
        <time>2015-11-01T11:04:37.492Z</time>
      </trkpt>
      <trkpt lat="49.09434" lon="2.16019">
        <ele>106</ele>
        <time>2015-11-01T11:04:45.673Z</time>
      </trkpt>
      <trkpt lat="49.09435" lon="2.16019">
        <ele>106</ele>
        <time>2015-11-01T11:04:46.474Z</time>
      </trkpt>
      <trkpt lat="49.09442" lon="2.16021">
        <ele>110</ele>
        <time>2015-11-01T11:04:52.639Z</time>
      </trkpt>
      <trkpt lat="49.09444" lon="2.16021">
        <ele>111</ele>
        <time>2015-11-01T11:04:53.486Z</time>
      </trkpt>
      <trkpt lat="49.09453" lon="2.16022">
        <ele>112</ele>
        <time>2015-11-01T11:04:59.570Z</time>
      </trkpt>
      <trkpt lat="49.09454" lon="2.16022">
        <ele>112</ele>
        <time>2015-11-01T11:05:00.477Z</time>
      </trkpt>
      <trkpt lat="49.09461" lon="2.16023">
        <ele>113</ele>
        <time>2015-11-01T11:05:06.660Z</time>
      </trkpt>
      <trkpt lat="49.09463" lon="2.16023">
        <ele>114</ele>
        <time>2015-11-01T11:05:07.473Z</time>
      </trkpt>
      <trkpt lat="49.09471" lon="2.16022">
        <ele>115</ele>
        <time>2015-11-01T11:05:14.684Z</time>
      </trkpt>
      <trkpt lat="49.09472" lon="2.16023">
        <ele>115</ele>
        <time>2015-11-01T11:05:15.455Z</time>
      </trkpt>
      <trkpt lat="49.0948" lon="2.16023">
        <ele>114</ele>
        <time>2015-11-01T11:05:22.699Z</time>
      </trkpt>
      <trkpt lat="49.09481" lon="2.16023">
        <ele>114</ele>
        <time>2015-11-01T11:05:23.496Z</time>
      </trkpt>
      <trkpt lat="49.09489" lon="2.16021">
        <ele>115</ele>
        <time>2015-11-01T11:05:29.666Z</time>
      </trkpt>
      <trkpt lat="49.0949" lon="2.16021">
        <ele>115</ele>
        <time>2015-11-01T11:05:30.493Z</time>
      </trkpt>
      <trkpt lat="49.09499" lon="2.1602">
        <ele>112</ele>
        <time>2015-11-01T11:05:38.753Z</time>
      </trkpt>
      <trkpt lat="49.095" lon="2.1602">
        <ele>112</ele>
        <time>2015-11-01T11:05:39.452Z</time>
      </trkpt>
      <trkpt lat="49.09509" lon="2.1602">
        <ele>112</ele>
        <time>2015-11-01T11:05:47.653Z</time>
      </trkpt>
      <trkpt lat="49.0951" lon="2.1602">
        <ele>113</ele>
        <time>2015-11-01T11:05:48.468Z</time>
      </trkpt>
      <trkpt lat="49.09519" lon="2.16021">
        <ele>112</ele>
        <time>2015-11-01T11:05:55.742Z</time>
      </trkpt>
      <trkpt lat="49.0952" lon="2.16021">
        <ele>112</ele>
        <time>2015-11-01T11:05:56.452Z</time>
      </trkpt>
      <trkpt lat="49.09528" lon="2.1602">
        <ele>113</ele>
        <time>2015-11-01T11:06:02.616Z</time>
      </trkpt>
      <trkpt lat="49.09529" lon="2.16019">
        <ele>114</ele>
        <time>2015-11-01T11:06:03.472Z</time>
      </trkpt>
      <trkpt lat="49.09537" lon="2.16019">
        <ele>116</ele>
        <time>2015-11-01T11:06:09.674Z</time>
      </trkpt>
      <trkpt lat="49.09538" lon="2.16019">
        <ele>116</ele>
        <time>2015-11-01T11:06:10.477Z</time>
      </trkpt>
      <trkpt lat="49.09546" lon="2.16017">
        <ele>114</ele>
        <time>2015-11-01T11:06:17.639Z</time>
      </trkpt>
      <trkpt lat="49.09547" lon="2.16016">
        <ele>114</ele>
        <time>2015-11-01T11:06:18.454Z</time>
      </trkpt>
      <trkpt lat="49.09555" lon="2.16015">
        <ele>113</ele>
        <time>2015-11-01T11:06:25.596Z</time>
      </trkpt>
      <trkpt lat="49.09556" lon="2.16014">
        <ele>113</ele>
        <time>2015-11-01T11:06:26.457Z</time>
      </trkpt>
      <trkpt lat="49.09565" lon="2.16012">
        <ele>114</ele>
        <time>2015-11-01T11:06:33.659Z</time>
      </trkpt>
      <trkpt lat="49.09566" lon="2.16012">
        <ele>114</ele>
        <time>2015-11-01T11:06:34.478Z</time>
      </trkpt>
      <trkpt lat="49.09574" lon="2.1601">
        <ele>116</ele>
        <time>2015-11-01T11:06:41.575Z</time>
      </trkpt>
      <trkpt lat="49.09575" lon="2.1601">
        <ele>115</ele>
        <time>2015-11-01T11:06:42.471Z</time>
      </trkpt>
      <trkpt lat="49.09584" lon="2.1601">
        <ele>116</ele>
        <time>2015-11-01T11:06:49.786Z</time>
      </trkpt>
      <trkpt lat="49.09585" lon="2.1601">
        <ele>116</ele>
        <time>2015-11-01T11:06:50.495Z</time>
      </trkpt>
      <trkpt lat="49.09594" lon="2.16008">
        <ele>114</ele>
        <time>2015-11-01T11:06:57.648Z</time>
      </trkpt>
      <trkpt lat="49.09595" lon="2.16008">
        <ele>114</ele>
        <time>2015-11-01T11:06:58.460Z</time>
      </trkpt>
      <trkpt lat="49.09603" lon="2.16005">
        <ele>117</ele>
        <time>2015-11-01T11:07:04.597Z</time>
      </trkpt>
      <trkpt lat="49.09604" lon="2.16004">
        <ele>117</ele>
        <time>2015-11-01T11:07:05.481Z</time>
      </trkpt>
      <trkpt lat="49.09612" lon="2.16002">
        <ele>118</ele>
        <time>2015-11-01T11:07:11.678Z</time>
      </trkpt>
      <trkpt lat="49.09613" lon="2.16002">
        <ele>118</ele>
        <time>2015-11-01T11:07:12.618Z</time>
      </trkpt>
      <trkpt lat="49.09621" lon="2.15999">
        <ele>123</ele>
        <time>2015-11-01T11:07:18.562Z</time>
      </trkpt>
      <trkpt lat="49.09623" lon="2.15999">
        <ele>124</ele>
        <time>2015-11-01T11:07:19.479Z</time>
      </trkpt>
      <trkpt lat="49.09631" lon="2.15997">
        <ele>121</ele>
        <time>2015-11-01T11:07:29.685Z</time>
      </trkpt>
      <trkpt lat="49.09632" lon="2.15997">
        <ele>120</ele>
        <time>2015-11-01T11:07:30.495Z</time>
      </trkpt>
      <trkpt lat="49.0964" lon="2.15993">
        <ele>121</ele>
        <time>2015-11-01T11:07:37.867Z</time>
      </trkpt>
      <trkpt lat="49.09641" lon="2.15993">
        <ele>121</ele>
        <time>2015-11-01T11:07:38.485Z</time>
      </trkpt>
      <trkpt lat="49.09649" lon="2.1599">
        <ele>119</ele>
        <time>2015-11-01T11:07:46.769Z</time>
      </trkpt>
      <trkpt lat="49.09651" lon="2.15989">
        <ele>120</ele>
        <time>2015-11-01T11:07:47.480Z</time>
      </trkpt>
      <trkpt lat="49.09659" lon="2.15991">
        <ele>125</ele>
        <time>2015-11-01T11:07:56.722Z</time>
      </trkpt>
      <trkpt lat="49.0966" lon="2.15992">
        <ele>124</ele>
        <time>2015-11-01T11:07:57.478Z</time>
      </trkpt>
      <trkpt lat="49.09667" lon="2.15996">
        <ele>124</ele>
        <time>2015-11-01T11:08:04.576Z</time>
      </trkpt>
      <trkpt lat="49.09668" lon="2.15997">
        <ele>124</ele>
        <time>2015-11-01T11:08:05.471Z</time>
      </trkpt>
      <trkpt lat="49.09672" lon="2.16008">
        <ele>123</ele>
        <time>2015-11-01T11:08:12.924Z</time>
      </trkpt>
      <trkpt lat="49.09673" lon="2.16009">
        <ele>123</ele>
        <time>2015-11-01T11:08:13.460Z</time>
      </trkpt>
      <trkpt lat="49.09676" lon="2.16022">
        <ele>124</ele>
        <time>2015-11-01T11:08:26.804Z</time>
      </trkpt>
      <trkpt lat="49.09677" lon="2.16023">
        <ele>124</ele>
        <time>2015-11-01T11:08:27.470Z</time>
      </trkpt>
      <trkpt lat="49.09683" lon="2.16033">
        <ele>126</ele>
        <time>2015-11-01T11:08:33.695Z</time>
      </trkpt>
      <trkpt lat="49.09684" lon="2.16034">
        <ele>126</ele>
        <time>2015-11-01T11:08:34.460Z</time>
      </trkpt>
      <trkpt lat="49.09689" lon="2.16044">
        <ele>128</ele>
        <time>2015-11-01T11:08:40.599Z</time>
      </trkpt>
      <trkpt lat="49.0969" lon="2.16045">
        <ele>128</ele>
        <time>2015-11-01T11:08:41.495Z</time>
      </trkpt>
      <trkpt lat="49.09696" lon="2.16054">
        <ele>129</ele>
        <time>2015-11-01T11:08:48.726Z</time>
      </trkpt>
      <trkpt lat="49.09696" lon="2.16056">
        <ele>129</ele>
        <time>2015-11-01T11:08:49.510Z</time>
      </trkpt>
      <trkpt lat="49.09702" lon="2.16065">
        <ele>129</ele>
        <time>2015-11-01T11:08:56.990Z</time>
      </trkpt>
      <trkpt lat="49.09703" lon="2.16067">
        <ele>130</ele>
        <time>2015-11-01T11:08:57.566Z</time>
      </trkpt>
      <trkpt lat="49.09708" lon="2.16077">
        <ele>129</ele>
        <time>2015-11-01T11:09:04.703Z</time>
      </trkpt>
      <trkpt lat="49.09708" lon="2.16078">
        <ele>129</ele>
        <time>2015-11-01T11:09:05.588Z</time>
      </trkpt>
      <trkpt lat="49.09714" lon="2.16088">
        <ele>127</ele>
        <time>2015-11-01T11:09:13.082Z</time>
      </trkpt>
      <trkpt lat="49.09714" lon="2.1609">
        <ele>126</ele>
        <time>2015-11-01T11:09:13.548Z</time>
      </trkpt>
      <trkpt lat="49.09719" lon="2.161">
        <ele>129</ele>
        <time>2015-11-01T11:09:20.677Z</time>
      </trkpt>
      <trkpt lat="49.0972" lon="2.16101">
        <ele>130</ele>
        <time>2015-11-01T11:09:21.469Z</time>
      </trkpt>
      <trkpt lat="49.09724" lon="2.16111">
        <ele>130</ele>
        <time>2015-11-01T11:09:28.560Z</time>
      </trkpt>
      <trkpt lat="49.09725" lon="2.16113">
        <ele>129</ele>
        <time>2015-11-01T11:09:29.580Z</time>
      </trkpt>
      <trkpt lat="49.09729" lon="2.16124">
        <ele>131</ele>
        <time>2015-11-01T11:09:36.583Z</time>
      </trkpt>
      <trkpt lat="49.09729" lon="2.16126">
        <ele>131</ele>
        <time>2015-11-01T11:09:37.519Z</time>
      </trkpt>
      <trkpt lat="49.09734" lon="2.16136">
        <ele>130</ele>
        <time>2015-11-01T11:09:44.671Z</time>
      </trkpt>
      <trkpt lat="49.09735" lon="2.16137">
        <ele>131</ele>
        <time>2015-11-01T11:09:45.604Z</time>
      </trkpt>
      <trkpt lat="49.09741" lon="2.16147">
        <ele>131</ele>
        <time>2015-11-01T11:09:53.804Z</time>
      </trkpt>
      <trkpt lat="49.09741" lon="2.16148">
        <ele>131</ele>
        <time>2015-11-01T11:09:54.506Z</time>
      </trkpt>
      <trkpt lat="49.09747" lon="2.16158">
        <ele>130</ele>
        <time>2015-11-01T11:10:02.803Z</time>
      </trkpt>
      <trkpt lat="49.09748" lon="2.16159">
        <ele>131</ele>
        <time>2015-11-01T11:10:03.493Z</time>
      </trkpt>
      <trkpt lat="49.09753" lon="2.1617">
        <ele>131</ele>
        <time>2015-11-01T11:10:11.759Z</time>
      </trkpt>
      <trkpt lat="49.09754" lon="2.16172">
        <ele>132</ele>
        <time>2015-11-01T11:10:12.565Z</time>
      </trkpt>
      <trkpt lat="49.0976" lon="2.16182">
        <ele>134</ele>
        <time>2015-11-01T11:10:20.561Z</time>
      </trkpt>
      <trkpt lat="49.09761" lon="2.16183">
        <ele>134</ele>
        <time>2015-11-01T11:10:21.469Z</time>
      </trkpt>
      <trkpt lat="49.09766" lon="2.16193">
        <ele>133</ele>
        <time>2015-11-01T11:10:29.573Z</time>
      </trkpt>
      <trkpt lat="49.09766" lon="2.16195">
        <ele>131</ele>
        <time>2015-11-01T11:10:30.542Z</time>
      </trkpt>
      <trkpt lat="49.09772" lon="2.16205">
        <ele>131</ele>
        <time>2015-11-01T11:10:38.755Z</time>
      </trkpt>
      <trkpt lat="49.09773" lon="2.16206">
        <ele>131</ele>
        <time>2015-11-01T11:10:39.531Z</time>
      </trkpt>
      <trkpt lat="49.09779" lon="2.16214">
        <ele>132</ele>
        <time>2015-11-01T11:10:46.632Z</time>
      </trkpt>
      <trkpt lat="49.0978" lon="2.16215">
        <ele>132</ele>
        <time>2015-11-01T11:10:47.558Z</time>
      </trkpt>
      <trkpt lat="49.09787" lon="2.16224">
        <ele>131</ele>
        <time>2015-11-01T11:10:55.712Z</time>
      </trkpt>
      <trkpt lat="49.09788" lon="2.16225">
        <ele>132</ele>
        <time>2015-11-01T11:10:56.552Z</time>
      </trkpt>
      <trkpt lat="49.09793" lon="2.16236">
        <ele>131</ele>
        <time>2015-11-01T11:11:03.729Z</time>
      </trkpt>
      <trkpt lat="49.09793" lon="2.16237">
        <ele>131</ele>
        <time>2015-11-01T11:11:04.468Z</time>
      </trkpt>
      <trkpt lat="49.09799" lon="2.16247">
        <ele>131</ele>
        <time>2015-11-01T11:11:11.681Z</time>
      </trkpt>
      <trkpt lat="49.098" lon="2.16248">
        <ele>131</ele>
        <time>2015-11-01T11:11:12.471Z</time>
      </trkpt>
      <trkpt lat="49.09806" lon="2.16259">
        <ele>130</ele>
        <time>2015-11-01T11:11:19.716Z</time>
      </trkpt>
      <trkpt lat="49.09806" lon="2.1626">
        <ele>131</ele>
        <time>2015-11-01T11:11:20.469Z</time>
      </trkpt>
      <trkpt lat="49.09812" lon="2.16269">
        <ele>133</ele>
        <time>2015-11-01T11:11:27.530Z</time>
      </trkpt>
      <trkpt lat="49.09813" lon="2.1627">
        <ele>133</ele>
        <time>2015-11-01T11:11:28.480Z</time>
      </trkpt>
      <trkpt lat="49.09819" lon="2.16279">
        <ele>134</ele>
        <time>2015-11-01T11:11:35.720Z</time>
      </trkpt>
      <trkpt lat="49.09819" lon="2.16281">
        <ele>134</ele>
        <time>2015-11-01T11:11:36.511Z</time>
      </trkpt>
      <trkpt lat="49.09825" lon="2.16291">
        <ele>134</ele>
        <time>2015-11-01T11:11:43.632Z</time>
      </trkpt>
      <trkpt lat="49.09826" lon="2.16293">
        <ele>134</ele>
        <time>2015-11-01T11:11:44.488Z</time>
      </trkpt>
      <trkpt lat="49.09832" lon="2.16302">
        <ele>135</ele>
        <time>2015-11-01T11:11:51.701Z</time>
      </trkpt>
      <trkpt lat="49.09833" lon="2.16303">
        <ele>135</ele>
        <time>2015-11-01T11:11:52.500Z</time>
      </trkpt>
      <trkpt lat="49.09837" lon="2.16313">
        <ele>134</ele>
        <time>2015-11-01T11:11:59.751Z</time>
      </trkpt>
      <trkpt lat="49.09838" lon="2.16314">
        <ele>134</ele>
        <time>2015-11-01T11:12:00.721Z</time>
      </trkpt>
      <trkpt lat="49.09843" lon="2.16325">
        <ele>134</ele>
        <time>2015-11-01T11:12:11.539Z</time>
      </trkpt>
      <trkpt lat="49.09844" lon="2.16325">
        <ele>134</ele>
        <time>2015-11-01T11:12:12.500Z</time>
      </trkpt>
      <trkpt lat="49.09849" lon="2.16335">
        <ele>133</ele>
        <time>2015-11-01T11:14:26.669Z</time>
      </trkpt>
      <trkpt lat="49.0985" lon="2.16336">
        <ele>133</ele>
        <time>2015-11-01T11:14:27.476Z</time>
      </trkpt>
      <trkpt lat="49.09856" lon="2.16345">
        <ele>131</ele>
        <time>2015-11-01T11:14:36.849Z</time>
      </trkpt>
      <trkpt lat="49.09857" lon="2.16346">
        <ele>131</ele>
        <time>2015-11-01T11:14:37.579Z</time>
      </trkpt>
      <trkpt lat="49.09862" lon="2.16356">
        <ele>131</ele>
        <time>2015-11-01T11:14:46.679Z</time>
      </trkpt>
      <trkpt lat="49.09863" lon="2.16357">
        <ele>131</ele>
        <time>2015-11-01T11:14:47.519Z</time>
      </trkpt>
      <trkpt lat="49.09869" lon="2.16366">
        <ele>133</ele>
        <time>2015-11-01T11:14:55.789Z</time>
      </trkpt>
      <trkpt lat="49.0987" lon="2.16368">
        <ele>133</ele>
        <time>2015-11-01T11:14:56.584Z</time>
      </trkpt>
      <trkpt lat="49.09875" lon="2.16378">
        <ele>134</ele>
        <time>2015-11-01T11:15:04.989Z</time>
      </trkpt>
      <trkpt lat="49.09876" lon="2.16379">
        <ele>134</ele>
        <time>2015-11-01T11:15:05.561Z</time>
      </trkpt>
      <trkpt lat="49.09881" lon="2.16389">
        <ele>134</ele>
        <time>2015-11-01T11:15:12.883Z</time>
      </trkpt>
      <trkpt lat="49.09882" lon="2.1639">
        <ele>135</ele>
        <time>2015-11-01T11:15:13.589Z</time>
      </trkpt>
      <trkpt lat="49.09887" lon="2.164">
        <ele>137</ele>
        <time>2015-11-01T11:15:20.621Z</time>
      </trkpt>
      <trkpt lat="49.09888" lon="2.16401">
        <ele>137</ele>
        <time>2015-11-01T11:15:21.470Z</time>
      </trkpt>
      <trkpt lat="49.09893" lon="2.1641">
        <ele>138</ele>
        <time>2015-11-01T11:15:28.678Z</time>
      </trkpt>
      <trkpt lat="49.09894" lon="2.16412">
        <ele>138</ele>
        <time>2015-11-01T11:15:29.480Z</time>
      </trkpt>
      <trkpt lat="49.09899" lon="2.16422">
        <ele>139</ele>
        <time>2015-11-01T11:15:36.559Z</time>
      </trkpt>
      <trkpt lat="49.09899" lon="2.16424">
        <ele>139</ele>
        <time>2015-11-01T11:15:37.495Z</time>
      </trkpt>
      <trkpt lat="49.09904" lon="2.16434">
        <ele>139</ele>
        <time>2015-11-01T11:15:43.734Z</time>
      </trkpt>
      <trkpt lat="49.09904" lon="2.16436">
        <ele>139</ele>
        <time>2015-11-01T11:15:44.469Z</time>
      </trkpt>
      <trkpt lat="49.09909" lon="2.16446">
        <ele>140</ele>
        <time>2015-11-01T11:15:51.856Z</time>
      </trkpt>
      <trkpt lat="49.09909" lon="2.16448">
        <ele>140</ele>
        <time>2015-11-01T11:15:52.511Z</time>
      </trkpt>
      <trkpt lat="49.09914" lon="2.16459">
        <ele>140</ele>
        <time>2015-11-01T11:16:00.608Z</time>
      </trkpt>
      <trkpt lat="49.09915" lon="2.16461">
        <ele>140</ele>
        <time>2015-11-01T11:16:01.510Z</time>
      </trkpt>
      <trkpt lat="49.09918" lon="2.16471">
        <ele>141</ele>
        <time>2015-11-01T11:16:07.901Z</time>
      </trkpt>
      <trkpt lat="49.09918" lon="2.16473">
        <ele>141</ele>
        <time>2015-11-01T11:16:08.524Z</time>
      </trkpt>
      <trkpt lat="49.09923" lon="2.16483">
        <ele>141</ele>
        <time>2015-11-01T11:16:15.614Z</time>
      </trkpt>
      <trkpt lat="49.09923" lon="2.16485">
        <ele>141</ele>
        <time>2015-11-01T11:16:16.541Z</time>
      </trkpt>
      <trkpt lat="49.09925" lon="2.16497">
        <ele>142</ele>
        <time>2015-11-01T11:16:22.557Z</time>
      </trkpt>
      <trkpt lat="49.09926" lon="2.16499">
        <ele>142</ele>
        <time>2015-11-01T11:16:23.549Z</time>
      </trkpt>
      <trkpt lat="49.09928" lon="2.16511">
        <ele>142</ele>
        <time>2015-11-01T11:16:30.685Z</time>
      </trkpt>
      <trkpt lat="49.09929" lon="2.16513">
        <ele>141</ele>
        <time>2015-11-01T11:16:31.487Z</time>
      </trkpt>
      <trkpt lat="49.09932" lon="2.16524">
        <ele>138</ele>
        <time>2015-11-01T11:16:38.715Z</time>
      </trkpt>
      <trkpt lat="49.09933" lon="2.16525">
        <ele>137</ele>
        <time>2015-11-01T11:16:39.781Z</time>
      </trkpt>
      <trkpt lat="49.09936" lon="2.16538">
        <ele>136</ele>
        <time>2015-11-01T11:16:47.672Z</time>
      </trkpt>
      <trkpt lat="49.09936" lon="2.16539">
        <ele>135</ele>
        <time>2015-11-01T11:16:48.488Z</time>
      </trkpt>
      <trkpt lat="49.09939" lon="2.16551">
        <ele>134</ele>
        <time>2015-11-01T11:16:56.358Z</time>
      </trkpt>
      <trkpt lat="49.09939" lon="2.16552">
        <ele>134</ele>
        <time>2015-11-01T11:16:56.509Z</time>
      </trkpt>
      <trkpt lat="49.09942" lon="2.16564">
        <ele>135</ele>
        <time>2015-11-01T11:17:03.579Z</time>
      </trkpt>
      <trkpt lat="49.09943" lon="2.16566">
        <ele>135</ele>
        <time>2015-11-01T11:17:04.506Z</time>
      </trkpt>
      <trkpt lat="49.09947" lon="2.16577">
        <ele>134</ele>
        <time>2015-11-01T11:17:11.656Z</time>
      </trkpt>
      <trkpt lat="49.09948" lon="2.16579">
        <ele>134</ele>
        <time>2015-11-01T11:17:12.481Z</time>
      </trkpt>
      <trkpt lat="49.09952" lon="2.16591">
        <ele>134</ele>
        <time>2015-11-01T11:17:20.567Z</time>
      </trkpt>
      <trkpt lat="49.09953" lon="2.16592">
        <ele>134</ele>
        <time>2015-11-01T11:17:21.469Z</time>
      </trkpt>
      <trkpt lat="49.09957" lon="2.16603">
        <ele>135</ele>
        <time>2015-11-01T11:17:28.811Z</time>
      </trkpt>
      <trkpt lat="49.09957" lon="2.16604">
        <ele>136</ele>
        <time>2015-11-01T11:17:29.510Z</time>
      </trkpt>
      <trkpt lat="49.09962" lon="2.16615">
        <ele>135</ele>
        <time>2015-11-01T11:17:36.695Z</time>
      </trkpt>
      <trkpt lat="49.09962" lon="2.16617">
        <ele>135</ele>
        <time>2015-11-01T11:17:37.510Z</time>
      </trkpt>
      <trkpt lat="49.09966" lon="2.16629">
        <ele>130</ele>
        <time>2015-11-01T11:17:45.720Z</time>
      </trkpt>
      <trkpt lat="49.09967" lon="2.1663">
        <ele>130</ele>
        <time>2015-11-01T11:17:46.543Z</time>
      </trkpt>
      <trkpt lat="49.09971" lon="2.1664">
        <ele>129</ele>
        <time>2015-11-01T11:17:53.539Z</time>
      </trkpt>
      <trkpt lat="49.09971" lon="2.16642">
        <ele>129</ele>
        <time>2015-11-01T11:17:54.495Z</time>
      </trkpt>
      <trkpt lat="49.09976" lon="2.16652">
        <ele>131</ele>
        <time>2015-11-01T11:18:01.647Z</time>
      </trkpt>
      <trkpt lat="49.09977" lon="2.16654">
        <ele>132</ele>
        <time>2015-11-01T11:18:02.554Z</time>
      </trkpt>
      <trkpt lat="49.09982" lon="2.16665">
        <ele>132</ele>
        <time>2015-11-01T11:18:09.757Z</time>
      </trkpt>
      <trkpt lat="49.09983" lon="2.16666">
        <ele>131</ele>
        <time>2015-11-01T11:18:10.561Z</time>
      </trkpt>
      <trkpt lat="49.09987" lon="2.16677">
        <ele>133</ele>
        <time>2015-11-01T11:18:17.631Z</time>
      </trkpt>
      <trkpt lat="49.09988" lon="2.16678">
        <ele>133</ele>
        <time>2015-11-01T11:18:18.549Z</time>
      </trkpt>
      <trkpt lat="49.09993" lon="2.16688">
        <ele>134</ele>
        <time>2015-11-01T11:18:25.559Z</time>
      </trkpt>
      <trkpt lat="49.09993" lon="2.16689">
        <ele>135</ele>
        <time>2015-11-01T11:18:26.476Z</time>
      </trkpt>
      <trkpt lat="49.09998" lon="2.167">
        <ele>140</ele>
        <time>2015-11-01T11:18:33.761Z</time>
      </trkpt>
      <trkpt lat="49.09998" lon="2.16701">
        <ele>140</ele>
        <time>2015-11-01T11:18:34.598Z</time>
      </trkpt>
      <trkpt lat="49.10004" lon="2.16711">
        <ele>141</ele>
        <time>2015-11-01T11:18:41.746Z</time>
      </trkpt>
      <trkpt lat="49.10005" lon="2.16713">
        <ele>141</ele>
        <time>2015-11-01T11:18:42.622Z</time>
      </trkpt>
      <trkpt lat="49.1001" lon="2.16722">
        <ele>138</ele>
        <time>2015-11-01T11:18:51.098Z</time>
      </trkpt>
      <trkpt lat="49.10011" lon="2.16723">
        <ele>138</ele>
        <time>2015-11-01T11:18:51.469Z</time>
      </trkpt>
      <trkpt lat="49.10016" lon="2.16734">
        <ele>137</ele>
        <time>2015-11-01T11:18:59.757Z</time>
      </trkpt>
      <trkpt lat="49.10016" lon="2.16735">
        <ele>137</ele>
        <time>2015-11-01T11:19:00.576Z</time>
      </trkpt>
      <trkpt lat="49.10021" lon="2.16746">
        <ele>136</ele>
        <time>2015-11-01T11:19:07.784Z</time>
      </trkpt>
      <trkpt lat="49.10022" lon="2.16747">
        <ele>136</ele>
        <time>2015-11-01T11:19:08.518Z</time>
      </trkpt>
      <trkpt lat="49.10027" lon="2.16758">
        <ele>136</ele>
        <time>2015-11-01T11:19:15.653Z</time>
      </trkpt>
      <trkpt lat="49.10028" lon="2.1676">
        <ele>137</ele>
        <time>2015-11-01T11:19:16.541Z</time>
      </trkpt>
      <trkpt lat="49.10034" lon="2.1677">
        <ele>131</ele>
        <time>2015-11-01T11:19:24.543Z</time>
      </trkpt>
      <trkpt lat="49.10035" lon="2.16771">
        <ele>131</ele>
        <time>2015-11-01T11:19:25.989Z</time>
      </trkpt>
      <trkpt lat="49.1004" lon="2.16779">
        <ele>132</ele>
        <time>2015-11-01T11:19:32.723Z</time>
      </trkpt>
      <trkpt lat="49.10041" lon="2.1678">
        <ele>135</ele>
        <time>2015-11-01T11:19:33.557Z</time>
      </trkpt>
      <trkpt lat="49.10046" lon="2.16791">
        <ele>136</ele>
        <time>2015-11-01T11:19:40.717Z</time>
      </trkpt>
      <trkpt lat="49.10046" lon="2.16792">
        <ele>137</ele>
        <time>2015-11-01T11:19:41.519Z</time>
      </trkpt>
      <trkpt lat="49.10052" lon="2.16803">
        <ele>136</ele>
        <time>2015-11-01T11:19:48.820Z</time>
      </trkpt>
      <trkpt lat="49.10053" lon="2.16804">
        <ele>133</ele>
        <time>2015-11-01T11:19:49.493Z</time>
      </trkpt>
      <trkpt lat="49.10059" lon="2.16813">
        <ele>133</ele>
        <time>2015-11-01T11:19:57.900Z</time>
      </trkpt>
      <trkpt lat="49.10059" lon="2.16815">
        <ele>135</ele>
        <time>2015-11-01T11:19:58.485Z</time>
      </trkpt>
      <trkpt lat="49.10065" lon="2.16825">
        <ele>139</ele>
        <time>2015-11-01T11:20:05.715Z</time>
      </trkpt>
      <trkpt lat="49.10065" lon="2.16826">
        <ele>139</ele>
        <time>2015-11-01T11:20:06.549Z</time>
      </trkpt>
      <trkpt lat="49.10071" lon="2.16837">
        <ele>141</ele>
        <time>2015-11-01T11:20:13.540Z</time>
      </trkpt>
      <trkpt lat="49.10071" lon="2.16838">
        <ele>141</ele>
        <time>2015-11-01T11:20:14.554Z</time>
      </trkpt>
      <trkpt lat="49.10076" lon="2.16848">
        <ele>142</ele>
        <time>2015-11-01T11:20:21.540Z</time>
      </trkpt>
      <trkpt lat="49.10077" lon="2.1685">
        <ele>142</ele>
        <time>2015-11-01T11:20:22.471Z</time>
      </trkpt>
      <trkpt lat="49.10082" lon="2.1686">
        <ele>143</ele>
        <time>2015-11-01T11:20:29.548Z</time>
      </trkpt>
      <trkpt lat="49.10083" lon="2.16861">
        <ele>143</ele>
        <time>2015-11-01T11:20:30.481Z</time>
      </trkpt>
      <trkpt lat="49.10088" lon="2.16872">
        <ele>143</ele>
        <time>2015-11-01T11:20:37.550Z</time>
      </trkpt>
      <trkpt lat="49.10089" lon="2.16874">
        <ele>143</ele>
        <time>2015-11-01T11:20:38.470Z</time>
      </trkpt>
      <trkpt lat="49.10094" lon="2.16884">
        <ele>143</ele>
        <time>2015-11-01T11:20:45.637Z</time>
      </trkpt>
      <trkpt lat="49.10095" lon="2.16885">
        <ele>143</ele>
        <time>2015-11-01T11:20:46.558Z</time>
      </trkpt>
      <trkpt lat="49.101" lon="2.16895">
        <ele>143</ele>
        <time>2015-11-01T11:20:53.594Z</time>
      </trkpt>
      <trkpt lat="49.10101" lon="2.16897">
        <ele>143</ele>
        <time>2015-11-01T11:20:54.502Z</time>
      </trkpt>
      <trkpt lat="49.10105" lon="2.16906">
        <ele>144</ele>
        <time>2015-11-01T11:21:00.600Z</time>
      </trkpt>
      <trkpt lat="49.10106" lon="2.16908">
        <ele>143</ele>
        <time>2015-11-01T11:21:01.563Z</time>
      </trkpt>
      <trkpt lat="49.10112" lon="2.16917">
        <ele>144</ele>
        <time>2015-11-01T11:21:08.571Z</time>
      </trkpt>
      <trkpt lat="49.10112" lon="2.16919">
        <ele>145</ele>
        <time>2015-11-01T11:21:09.463Z</time>
      </trkpt>
      <trkpt lat="49.10116" lon="2.16931">
        <ele>147</ele>
        <time>2015-11-01T11:21:17.545Z</time>
      </trkpt>
      <trkpt lat="49.10116" lon="2.16932">
        <ele>146</ele>
        <time>2015-11-01T11:21:18.463Z</time>
      </trkpt>
      <trkpt lat="49.10122" lon="2.16941">
        <ele>144</ele>
        <time>2015-11-01T11:21:34.841Z</time>
      </trkpt>
      <trkpt lat="49.10123" lon="2.16942">
        <ele>143</ele>
        <time>2015-11-01T11:21:35.507Z</time>
      </trkpt>
      <trkpt lat="49.10128" lon="2.16951">
        <ele>144</ele>
        <time>2015-11-01T11:21:41.695Z</time>
      </trkpt>
      <trkpt lat="49.10129" lon="2.16953">
        <ele>145</ele>
        <time>2015-11-01T11:21:42.462Z</time>
      </trkpt>
      <trkpt lat="49.10134" lon="2.16963">
        <ele>143</ele>
        <time>2015-11-01T11:21:48.833Z</time>
      </trkpt>
      <trkpt lat="49.10135" lon="2.16965">
        <ele>142</ele>
        <time>2015-11-01T11:21:49.480Z</time>
      </trkpt>
      <trkpt lat="49.1014" lon="2.16974">
        <ele>139</ele>
        <time>2015-11-01T11:21:55.658Z</time>
      </trkpt>
      <trkpt lat="49.10141" lon="2.16975">
        <ele>140</ele>
        <time>2015-11-01T11:21:56.518Z</time>
      </trkpt>
      <trkpt lat="49.10146" lon="2.16985">
        <ele>139</ele>
        <time>2015-11-01T11:22:02.679Z</time>
      </trkpt>
      <trkpt lat="49.10147" lon="2.16986">
        <ele>139</ele>
        <time>2015-11-01T11:22:03.534Z</time>
      </trkpt>
      <trkpt lat="49.10152" lon="2.16997">
        <ele>139</ele>
        <time>2015-11-01T11:22:10.558Z</time>
      </trkpt>
      <trkpt lat="49.10153" lon="2.16999">
        <ele>138</ele>
        <time>2015-11-01T11:22:11.473Z</time>
      </trkpt>
      <trkpt lat="49.10157" lon="2.1701">
        <ele>139</ele>
        <time>2015-11-01T11:22:17.812Z</time>
      </trkpt>
      <trkpt lat="49.10158" lon="2.17012">
        <ele>139</ele>
        <time>2015-11-01T11:22:18.461Z</time>
      </trkpt>
      <trkpt lat="49.10163" lon="2.17022">
        <ele>136</ele>
        <time>2015-11-01T11:22:27.673Z</time>
      </trkpt>
      <trkpt lat="49.10164" lon="2.17023">
        <ele>137</ele>
        <time>2015-11-01T11:22:28.505Z</time>
      </trkpt>
      <trkpt lat="49.10167" lon="2.17033">
        <ele>137</ele>
        <time>2015-11-01T11:22:32.666Z</time>
      </trkpt>
      <trkpt lat="49.10168" lon="2.17035">
        <ele>137</ele>
        <time>2015-11-01T11:22:33.480Z</time>
      </trkpt>
      <trkpt lat="49.10173" lon="2.17044">
        <ele>138</ele>
        <time>2015-11-01T11:22:39.621Z</time>
      </trkpt>
      <trkpt lat="49.10174" lon="2.17046">
        <ele>138</ele>
        <time>2015-11-01T11:22:40.480Z</time>
      </trkpt>
      <trkpt lat="49.10178" lon="2.17057">
        <ele>138</ele>
        <time>2015-11-01T11:22:46.666Z</time>
      </trkpt>
      <trkpt lat="49.10178" lon="2.17058">
        <ele>137</ele>
        <time>2015-11-01T11:22:47.631Z</time>
      </trkpt>
      <trkpt lat="49.10182" lon="2.17068">
        <ele>140</ele>
        <time>2015-11-01T11:22:54.739Z</time>
      </trkpt>
      <trkpt lat="49.10183" lon="2.1707">
        <ele>140</ele>
        <time>2015-11-01T11:22:55.494Z</time>
      </trkpt>
      <trkpt lat="49.10188" lon="2.17079">
        <ele>142</ele>
        <time>2015-11-01T11:23:02.665Z</time>
      </trkpt>
      <trkpt lat="49.10189" lon="2.1708">
        <ele>142</ele>
        <time>2015-11-01T11:23:03.494Z</time>
      </trkpt>
      <trkpt lat="49.10194" lon="2.1709">
        <ele>142</ele>
        <time>2015-11-01T11:23:09.744Z</time>
      </trkpt>
      <trkpt lat="49.10195" lon="2.17092">
        <ele>143</ele>
        <time>2015-11-01T11:23:10.461Z</time>
      </trkpt>
      <trkpt lat="49.102" lon="2.17103">
        <ele>143</ele>
        <time>2015-11-01T11:23:16.774Z</time>
      </trkpt>
      <trkpt lat="49.102" lon="2.17105">
        <ele>143</ele>
        <time>2015-11-01T11:23:17.462Z</time>
      </trkpt>
      <trkpt lat="49.10206" lon="2.17115">
        <ele>138</ele>
        <time>2015-11-01T11:23:24.528Z</time>
      </trkpt>
      <trkpt lat="49.10207" lon="2.17116">
        <ele>136</ele>
        <time>2015-11-01T11:23:25.480Z</time>
      </trkpt>
      <trkpt lat="49.10212" lon="2.17126">
        <ele>137</ele>
        <time>2015-11-01T11:23:34.915Z</time>
      </trkpt>
      <trkpt lat="49.10213" lon="2.17128">
        <ele>139</ele>
        <time>2015-11-01T11:23:35.512Z</time>
      </trkpt>
      <trkpt lat="49.10212" lon="2.1714">
        <ele>138</ele>
        <time>2015-11-01T11:23:42.756Z</time>
      </trkpt>
      <trkpt lat="49.10212" lon="2.17142">
        <ele>138</ele>
        <time>2015-11-01T11:23:43.493Z</time>
      </trkpt>
      <trkpt lat="49.10212" lon="2.17154">
        <ele>139</ele>
        <time>2015-11-01T11:23:49.770Z</time>
      </trkpt>
      <trkpt lat="49.10212" lon="2.17156">
        <ele>140</ele>
        <time>2015-11-01T11:23:50.461Z</time>
      </trkpt>
      <trkpt lat="49.10209" lon="2.17168">
        <ele>143</ele>
        <time>2015-11-01T11:23:56.642Z</time>
      </trkpt>
      <trkpt lat="49.10209" lon="2.1717">
        <ele>143</ele>
        <time>2015-11-01T11:23:57.558Z</time>
      </trkpt>
      <trkpt lat="49.10206" lon="2.17181">
        <ele>143</ele>
        <time>2015-11-01T11:24:03.672Z</time>
      </trkpt>
      <trkpt lat="49.10205" lon="2.17183">
        <ele>143</ele>
        <time>2015-11-01T11:24:04.480Z</time>
      </trkpt>
      <trkpt lat="49.10203" lon="2.17194">
        <ele>142</ele>
        <time>2015-11-01T11:24:11.148Z</time>
      </trkpt>
      <trkpt lat="49.10202" lon="2.17196">
        <ele>142</ele>
        <time>2015-11-01T11:24:11.461Z</time>
      </trkpt>
      <trkpt lat="49.102" lon="2.17207">
        <ele>142</ele>
        <time>2015-11-01T11:24:17.625Z</time>
      </trkpt>
      <trkpt lat="49.10199" lon="2.17209">
        <ele>142</ele>
        <time>2015-11-01T11:24:18.478Z</time>
      </trkpt>
      <trkpt lat="49.10197" lon="2.17222">
        <ele>142</ele>
        <time>2015-11-01T11:24:24.592Z</time>
      </trkpt>
      <trkpt lat="49.10196" lon="2.17224">
        <ele>142</ele>
        <time>2015-11-01T11:24:25.462Z</time>
      </trkpt>
      <trkpt lat="49.10194" lon="2.17236">
        <ele>142</ele>
        <time>2015-11-01T11:24:31.658Z</time>
      </trkpt>
      <trkpt lat="49.10193" lon="2.17238">
        <ele>141</ele>
        <time>2015-11-01T11:24:32.481Z</time>
      </trkpt>
      <trkpt lat="49.1019" lon="2.1725">
        <ele>139</ele>
        <time>2015-11-01T11:24:38.643Z</time>
      </trkpt>
      <trkpt lat="49.1019" lon="2.17252">
        <ele>138</ele>
        <time>2015-11-01T11:24:39.538Z</time>
      </trkpt>
      <trkpt lat="49.10188" lon="2.17264">
        <ele>137</ele>
        <time>2015-11-01T11:24:45.788Z</time>
      </trkpt>
      <trkpt lat="49.10188" lon="2.17266">
        <ele>137</ele>
        <time>2015-11-01T11:24:46.502Z</time>
      </trkpt>
      <trkpt lat="49.10186" lon="2.17279">
        <ele>135</ele>
        <time>2015-11-01T11:24:53.789Z</time>
      </trkpt>
      <trkpt lat="49.10185" lon="2.17281">
        <ele>135</ele>
        <time>2015-11-01T11:24:54.462Z</time>
      </trkpt>
      <trkpt lat="49.10183" lon="2.17294">
        <ele>133</ele>
        <time>2015-11-01T11:25:01.705Z</time>
      </trkpt>
      <trkpt lat="49.10182" lon="2.17295">
        <ele>132</ele>
        <time>2015-11-01T11:25:02.485Z</time>
      </trkpt>
      <trkpt lat="49.10181" lon="2.17307">
        <ele>135</ele>
        <time>2015-11-01T11:25:10.036Z</time>
      </trkpt>
      <trkpt lat="49.10181" lon="2.17309">
        <ele>134</ele>
        <time>2015-11-01T11:25:10.528Z</time>
      </trkpt>
      <trkpt lat="49.10178" lon="2.17321">
        <ele>135</ele>
        <time>2015-11-01T11:25:16.691Z</time>
      </trkpt>
      <trkpt lat="49.10178" lon="2.17323">
        <ele>135</ele>
        <time>2015-11-01T11:25:17.470Z</time>
      </trkpt>
      <trkpt lat="49.10176" lon="2.17334">
        <ele>134</ele>
        <time>2015-11-01T11:25:23.601Z</time>
      </trkpt>
      <trkpt lat="49.10175" lon="2.17336">
        <ele>134</ele>
        <time>2015-11-01T11:25:24.549Z</time>
      </trkpt>
      <trkpt lat="49.10173" lon="2.17349">
        <ele>133</ele>
        <time>2015-11-01T11:25:31.573Z</time>
      </trkpt>
      <trkpt lat="49.10172" lon="2.17351">
        <ele>133</ele>
        <time>2015-11-01T11:25:32.498Z</time>
      </trkpt>
      <trkpt lat="49.10168" lon="2.17363">
        <ele>131</ele>
        <time>2015-11-01T11:25:39.605Z</time>
      </trkpt>
      <trkpt lat="49.10168" lon="2.17365">
        <ele>131</ele>
        <time>2015-11-01T11:25:40.502Z</time>
      </trkpt>
      <trkpt lat="49.10164" lon="2.17376">
        <ele>130</ele>
        <time>2015-11-01T11:25:46.668Z</time>
      </trkpt>
      <trkpt lat="49.10164" lon="2.17378">
        <ele>130</ele>
        <time>2015-11-01T11:25:47.469Z</time>
      </trkpt>
      <trkpt lat="49.1016" lon="2.17389">
        <ele>127</ele>
        <time>2015-11-01T11:25:53.837Z</time>
      </trkpt>
      <trkpt lat="49.10159" lon="2.17391">
        <ele>127</ele>
        <time>2015-11-01T11:25:54.469Z</time>
      </trkpt>
      <trkpt lat="49.10156" lon="2.17402">
        <ele>125</ele>
        <time>2015-11-01T11:26:00.561Z</time>
      </trkpt>
      <trkpt lat="49.10156" lon="2.17404">
        <ele>125</ele>
        <time>2015-11-01T11:26:01.482Z</time>
      </trkpt>
      <trkpt lat="49.10152" lon="2.17416">
        <ele>125</ele>
        <time>2015-11-01T11:26:08.645Z</time>
      </trkpt>
      <trkpt lat="49.10152" lon="2.17418">
        <ele>126</ele>
        <time>2015-11-01T11:26:09.563Z</time>
      </trkpt>
      <trkpt lat="49.10148" lon="2.17431">
        <ele>125</ele>
        <time>2015-11-01T11:26:16.611Z</time>
      </trkpt>
      <trkpt lat="49.10148" lon="2.17432">
        <ele>125</ele>
        <time>2015-11-01T11:26:17.493Z</time>
      </trkpt>
      <trkpt lat="49.10144" lon="2.17443">
        <ele>125</ele>
        <time>2015-11-01T11:26:23.617Z</time>
      </trkpt>
      <trkpt lat="49.10143" lon="2.17445">
        <ele>124</ele>
        <time>2015-11-01T11:26:24.612Z</time>
      </trkpt>
      <trkpt lat="49.1014" lon="2.17456">
        <ele>123</ele>
        <time>2015-11-01T11:26:30.673Z</time>
      </trkpt>
      <trkpt lat="49.1014" lon="2.17458">
        <ele>124</ele>
        <time>2015-11-01T11:26:31.477Z</time>
      </trkpt>
      <trkpt lat="49.10137" lon="2.17469">
        <ele>123</ele>
        <time>2015-11-01T11:26:37.602Z</time>
      </trkpt>
      <trkpt lat="49.10137" lon="2.17471">
        <ele>123</ele>
        <time>2015-11-01T11:26:38.489Z</time>
      </trkpt>
      <trkpt lat="49.10134" lon="2.17482">
        <ele>123</ele>
        <time>2015-11-01T11:26:44.695Z</time>
      </trkpt>
      <trkpt lat="49.10134" lon="2.17484">
        <ele>123</ele>
        <time>2015-11-01T11:26:45.489Z</time>
      </trkpt>
      <trkpt lat="49.10131" lon="2.17496">
        <ele>124</ele>
        <time>2015-11-01T11:26:51.791Z</time>
      </trkpt>
      <trkpt lat="49.1013" lon="2.17498">
        <ele>123</ele>
        <time>2015-11-01T11:26:52.601Z</time>
      </trkpt>
      <trkpt lat="49.10128" lon="2.17511">
        <ele>122</ele>
        <time>2015-11-01T11:26:59.897Z</time>
      </trkpt>
      <trkpt lat="49.10127" lon="2.17513">
        <ele>121</ele>
        <time>2015-11-01T11:27:00.598Z</time>
      </trkpt>
      <trkpt lat="49.10125" lon="2.17525">
        <ele>121</ele>
        <time>2015-11-01T11:27:07.629Z</time>
      </trkpt>
      <trkpt lat="49.10125" lon="2.17526">
        <ele>119</ele>
        <time>2015-11-01T11:27:08.678Z</time>
      </trkpt>
      <trkpt lat="49.10123" lon="2.17539">
        <ele>121</ele>
        <time>2015-11-01T11:27:15.878Z</time>
      </trkpt>
      <trkpt lat="49.10123" lon="2.1754">
        <ele>121</ele>
        <time>2015-11-01T11:27:16.470Z</time>
      </trkpt>
      <trkpt lat="49.10122" lon="2.17554">
        <ele>120</ele>
        <time>2015-11-01T11:27:23.623Z</time>
      </trkpt>
      <trkpt lat="49.10122" lon="2.17555">
        <ele>119</ele>
        <time>2015-11-01T11:27:24.470Z</time>
      </trkpt>
      <trkpt lat="49.10123" lon="2.17568">
        <ele>121</ele>
        <time>2015-11-01T11:27:31.643Z</time>
      </trkpt>
      <trkpt lat="49.10123" lon="2.1757">
        <ele>120</ele>
        <time>2015-11-01T11:27:32.469Z</time>
      </trkpt>
      <trkpt lat="49.10123" lon="2.17582">
        <ele>116</ele>
        <time>2015-11-01T11:27:38.560Z</time>
      </trkpt>
      <trkpt lat="49.10123" lon="2.17584">
        <ele>115</ele>
        <time>2015-11-01T11:27:39.495Z</time>
      </trkpt>
      <trkpt lat="49.10122" lon="2.17597">
        <ele>114</ele>
        <time>2015-11-01T11:27:48.725Z</time>
      </trkpt>
      <trkpt lat="49.10123" lon="2.17599">
        <ele>113</ele>
        <time>2015-11-01T11:27:49.512Z</time>
      </trkpt>
      <trkpt lat="49.10123" lon="2.17611">
        <ele>114</ele>
        <time>2015-11-01T11:27:56.776Z</time>
      </trkpt>
      <trkpt lat="49.10123" lon="2.17613">
        <ele>114</ele>
        <time>2015-11-01T11:27:57.505Z</time>
      </trkpt>
      <trkpt lat="49.10125" lon="2.17627">
        <ele>116</ele>
        <time>2015-11-01T11:28:03.683Z</time>
      </trkpt>
      <trkpt lat="49.10125" lon="2.17628">
        <ele>116</ele>
        <time>2015-11-01T11:28:04.482Z</time>
      </trkpt>
      <trkpt lat="49.10128" lon="2.1764">
        <ele>118</ele>
        <time>2015-11-01T11:28:10.669Z</time>
      </trkpt>
      <trkpt lat="49.10129" lon="2.17642">
        <ele>119</ele>
        <time>2015-11-01T11:28:11.482Z</time>
      </trkpt>
      <trkpt lat="49.1013" lon="2.17655">
        <ele>118</ele>
        <time>2015-11-01T11:28:17.553Z</time>
      </trkpt>
      <trkpt lat="49.10131" lon="2.17657">
        <ele>119</ele>
        <time>2015-11-01T11:28:18.480Z</time>
      </trkpt>
      <trkpt lat="49.10133" lon="2.1767">
        <ele>114</ele>
        <time>2015-11-01T11:28:25.527Z</time>
      </trkpt>
      <trkpt lat="49.10133" lon="2.17672">
        <ele>113</ele>
        <time>2015-11-01T11:28:26.469Z</time>
      </trkpt>
      <trkpt lat="49.10132" lon="2.17685">
        <ele>116</ele>
        <time>2015-11-01T11:28:32.661Z</time>
      </trkpt>
      <trkpt lat="49.10132" lon="2.17687">
        <ele>116</ele>
        <time>2015-11-01T11:28:33.477Z</time>
      </trkpt>
      <trkpt lat="49.10136" lon="2.17699">
        <ele>113</ele>
        <time>2015-11-01T11:28:40.582Z</time>
      </trkpt>
      <trkpt lat="49.10136" lon="2.177">
        <ele>113</ele>
        <time>2015-11-01T11:28:41.481Z</time>
      </trkpt>
      <trkpt lat="49.10141" lon="2.1771">
        <ele>111</ele>
        <time>2015-11-01T11:28:48.599Z</time>
      </trkpt>
      <trkpt lat="49.10142" lon="2.17712">
        <ele>112</ele>
        <time>2015-11-01T11:28:49.489Z</time>
      </trkpt>
      <trkpt lat="49.10145" lon="2.17724">
        <ele>116</ele>
        <time>2015-11-01T11:28:55.560Z</time>
      </trkpt>
      <trkpt lat="49.10146" lon="2.17726">
        <ele>115</ele>
        <time>2015-11-01T11:28:56.486Z</time>
      </trkpt>
      <trkpt lat="49.10149" lon="2.17738">
        <ele>116</ele>
        <time>2015-11-01T11:29:03.530Z</time>
      </trkpt>
      <trkpt lat="49.10149" lon="2.1774">
        <ele>115</ele>
        <time>2015-11-01T11:29:04.480Z</time>
      </trkpt>
      <trkpt lat="49.10149" lon="2.17752">
        <ele>114</ele>
        <time>2015-11-01T11:29:10.632Z</time>
      </trkpt>
      <trkpt lat="49.10149" lon="2.17754">
        <ele>115</ele>
        <time>2015-11-01T11:29:11.488Z</time>
      </trkpt>
      <trkpt lat="49.10152" lon="2.17766">
        <ele>116</ele>
        <time>2015-11-01T11:29:17.587Z</time>
      </trkpt>
      <trkpt lat="49.10153" lon="2.17768">
        <ele>117</ele>
        <time>2015-11-01T11:29:18.470Z</time>
      </trkpt>
      <trkpt lat="49.10159" lon="2.17777">
        <ele>120</ele>
        <time>2015-11-01T11:29:23.585Z</time>
      </trkpt>
      <trkpt lat="49.1016" lon="2.17779">
        <ele>120</ele>
        <time>2015-11-01T11:29:24.470Z</time>
      </trkpt>
      <trkpt lat="49.10166" lon="2.17788">
        <ele>117</ele>
        <time>2015-11-01T11:29:31.623Z</time>
      </trkpt>
      <trkpt lat="49.10166" lon="2.1779">
        <ele>116</ele>
        <time>2015-11-01T11:29:32.473Z</time>
      </trkpt>
      <trkpt lat="49.1017" lon="2.178">
        <ele>115</ele>
        <time>2015-11-01T11:29:39.604Z</time>
      </trkpt>
      <trkpt lat="49.10171" lon="2.17802">
        <ele>116</ele>
        <time>2015-11-01T11:29:40.481Z</time>
      </trkpt>
      <trkpt lat="49.10177" lon="2.17812">
        <ele>111</ele>
        <time>2015-11-01T11:29:48.559Z</time>
      </trkpt>
      <trkpt lat="49.10178" lon="2.17813">
        <ele>113</ele>
        <time>2015-11-01T11:29:49.608Z</time>
      </trkpt>
      <trkpt lat="49.10186" lon="2.17817">
        <ele>115</ele>
        <time>2015-11-01T11:30:00.562Z</time>
      </trkpt>
      <trkpt lat="49.10187" lon="2.17818">
        <ele>116</ele>
        <time>2015-11-01T11:30:01.470Z</time>
      </trkpt>
      <trkpt lat="49.1019" lon="2.17829">
        <ele>111</ele>
        <time>2015-11-01T11:30:22.578Z</time>
      </trkpt>
      <trkpt lat="49.10191" lon="2.17831">
        <ele>112</ele>
        <time>2015-11-01T11:30:23.469Z</time>
      </trkpt>
      <trkpt lat="49.10195" lon="2.17841">
        <ele>112</ele>
        <time>2015-11-01T11:30:30.590Z</time>
      </trkpt>
      <trkpt lat="49.10196" lon="2.17843">
        <ele>111</ele>
        <time>2015-11-01T11:30:31.472Z</time>
      </trkpt>
      <trkpt lat="49.10198" lon="2.17856">
        <ele>111</ele>
        <time>2015-11-01T11:30:38.754Z</time>
      </trkpt>
      <trkpt lat="49.10198" lon="2.17858">
        <ele>111</ele>
        <time>2015-11-01T11:30:39.496Z</time>
      </trkpt>
      <trkpt lat="49.102" lon="2.17869">
        <ele>110</ele>
        <time>2015-11-01T11:30:46.598Z</time>
      </trkpt>
      <trkpt lat="49.10199" lon="2.17872">
        <ele>111</ele>
        <time>2015-11-01T11:30:47.472Z</time>
      </trkpt>
      <trkpt lat="49.10199" lon="2.17885">
        <ele>106</ele>
        <time>2015-11-01T11:30:53.554Z</time>
      </trkpt>
      <trkpt lat="49.102" lon="2.17887">
        <ele>108</ele>
        <time>2015-11-01T11:30:54.471Z</time>
      </trkpt>
      <trkpt lat="49.10203" lon="2.17898">
        <ele>117</ele>
        <time>2015-11-01T11:30:59.720Z</time>
      </trkpt>
      <trkpt lat="49.10203" lon="2.179">
        <ele>117</ele>
        <time>2015-11-01T11:31:00.532Z</time>
      </trkpt>
      <trkpt lat="49.10206" lon="2.17911">
        <ele>116</ele>
        <time>2015-11-01T11:31:06.532Z</time>
      </trkpt>
      <trkpt lat="49.10207" lon="2.17913">
        <ele>115</ele>
        <time>2015-11-01T11:31:07.470Z</time>
      </trkpt>
      <trkpt lat="49.10208" lon="2.17925">
        <ele>113</ele>
        <time>2015-11-01T11:31:14.837Z</time>
      </trkpt>
      <trkpt lat="49.10209" lon="2.17927">
        <ele>116</ele>
        <time>2015-11-01T11:31:15.472Z</time>
      </trkpt>
      <trkpt lat="49.10211" lon="2.17939">
        <ele>114</ele>
        <time>2015-11-01T11:31:22.540Z</time>
      </trkpt>
      <trkpt lat="49.10211" lon="2.17941">
        <ele>113</ele>
        <time>2015-11-01T11:31:23.471Z</time>
      </trkpt>
      <trkpt lat="49.10212" lon="2.17953">
        <ele>113</ele>
        <time>2015-11-01T11:31:29.525Z</time>
      </trkpt>
      <trkpt lat="49.10212" lon="2.17955">
        <ele>114</ele>
        <time>2015-11-01T11:31:30.558Z</time>
      </trkpt>
      <trkpt lat="49.10214" lon="2.17968">
        <ele>110</ele>
        <time>2015-11-01T11:31:36.630Z</time>
      </trkpt>
      <trkpt lat="49.10214" lon="2.1797">
        <ele>109</ele>
        <time>2015-11-01T11:31:37.513Z</time>
      </trkpt>
      <trkpt lat="49.10214" lon="2.17983">
        <ele>108</ele>
        <time>2015-11-01T11:31:44.935Z</time>
      </trkpt>
      <trkpt lat="49.10214" lon="2.17985">
        <ele>110</ele>
        <time>2015-11-01T11:31:45.471Z</time>
      </trkpt>
      <trkpt lat="49.10216" lon="2.17996">
        <ele>111</ele>
        <time>2015-11-01T11:31:52.642Z</time>
      </trkpt>
      <trkpt lat="49.10216" lon="2.17998">
        <ele>112</ele>
        <time>2015-11-01T11:31:53.682Z</time>
      </trkpt>
      <trkpt lat="49.10218" lon="2.1801">
        <ele>102</ele>
        <time>2015-11-01T11:32:03.640Z</time>
      </trkpt>
      <trkpt lat="49.10219" lon="2.18012">
        <ele>102</ele>
        <time>2015-11-01T11:32:03.706Z</time>
      </trkpt>
      <trkpt lat="49.10223" lon="2.18024">
        <ele>102</ele>
        <time>2015-11-01T11:32:10.835Z</time>
      </trkpt>
      <trkpt lat="49.10223" lon="2.18026">
        <ele>101</ele>
        <time>2015-11-01T11:32:11.496Z</time>
      </trkpt>
      <trkpt lat="49.10226" lon="2.18037">
        <ele>97</ele>
        <time>2015-11-01T11:32:17.555Z</time>
      </trkpt>
      <trkpt lat="49.10226" lon="2.18039">
        <ele>98</ele>
        <time>2015-11-01T11:32:18.502Z</time>
      </trkpt>
      <trkpt lat="49.10228" lon="2.1805">
        <ele>97</ele>
        <time>2015-11-01T11:32:24.596Z</time>
      </trkpt>
      <trkpt lat="49.10229" lon="2.18052">
        <ele>96</ele>
        <time>2015-11-01T11:32:25.470Z</time>
      </trkpt>
      <trkpt lat="49.10232" lon="2.18063">
        <ele>96</ele>
        <time>2015-11-01T11:32:32.552Z</time>
      </trkpt>
      <trkpt lat="49.10233" lon="2.18064">
        <ele>94</ele>
        <time>2015-11-01T11:32:33.470Z</time>
      </trkpt>
      <trkpt lat="49.10237" lon="2.18076">
        <ele>93</ele>
        <time>2015-11-01T11:32:40.538Z</time>
      </trkpt>
      <trkpt lat="49.10238" lon="2.18078">
        <ele>94</ele>
        <time>2015-11-01T11:32:41.477Z</time>
      </trkpt>
      <trkpt lat="49.10241" lon="2.18089">
        <ele>90</ele>
        <time>2015-11-01T11:32:48.500Z</time>
      </trkpt>
      <trkpt lat="49.10242" lon="2.18091">
        <ele>90</ele>
        <time>2015-11-01T11:32:49.470Z</time>
      </trkpt>
      <trkpt lat="49.10245" lon="2.18103">
        <ele>88</ele>
        <time>2015-11-01T11:32:56.342Z</time>
      </trkpt>
      <trkpt lat="49.10245" lon="2.18105">
        <ele>92</ele>
        <time>2015-11-01T11:32:56.470Z</time>
      </trkpt>
      <trkpt lat="49.10249" lon="2.18116">
        <ele>94</ele>
        <time>2015-11-01T11:33:02.715Z</time>
      </trkpt>
      <trkpt lat="49.1025" lon="2.18117">
        <ele>94</ele>
        <time>2015-11-01T11:33:03.735Z</time>
      </trkpt>
      <trkpt lat="49.10253" lon="2.18129">
        <ele>93</ele>
        <time>2015-11-01T11:33:10.708Z</time>
      </trkpt>
      <trkpt lat="49.10254" lon="2.18131">
        <ele>93</ele>
        <time>2015-11-01T11:33:11.470Z</time>
      </trkpt>
      <trkpt lat="49.10256" lon="2.18143">
        <ele>94</ele>
        <time>2015-11-01T11:33:17.536Z</time>
      </trkpt>
      <trkpt lat="49.10256" lon="2.18145">
        <ele>94</ele>
        <time>2015-11-01T11:33:18.470Z</time>
      </trkpt>
      <trkpt lat="49.1026" lon="2.18156">
        <ele>91</ele>
        <time>2015-11-01T11:33:26.645Z</time>
      </trkpt>
      <trkpt lat="49.10261" lon="2.18158">
        <ele>90</ele>
        <time>2015-11-01T11:33:27.561Z</time>
      </trkpt>
      <trkpt lat="49.10263" lon="2.1817">
        <ele>81</ele>
        <time>2015-11-01T11:33:35.573Z</time>
      </trkpt>
      <trkpt lat="49.10263" lon="2.18171">
        <ele>81</ele>
        <time>2015-11-01T11:33:36.487Z</time>
      </trkpt>
      <trkpt lat="49.1026" lon="2.18183">
        <ele>79</ele>
        <time>2015-11-01T11:33:44.553Z</time>
      </trkpt>
      <trkpt lat="49.1026" lon="2.18184">
        <ele>80</ele>
        <time>2015-11-01T11:33:45.480Z</time>
      </trkpt>
      <trkpt lat="49.10255" lon="2.18195">
        <ele>80</ele>
        <time>2015-11-01T11:33:53.511Z</time>
      </trkpt>
      <trkpt lat="49.10254" lon="2.18196">
        <ele>80</ele>
        <time>2015-11-01T11:33:54.478Z</time>
      </trkpt>
      <trkpt lat="49.10248" lon="2.18205">
        <ele>80</ele>
        <time>2015-11-01T11:34:00.533Z</time>
      </trkpt>
      <trkpt lat="49.10247" lon="2.18206">
        <ele>80</ele>
        <time>2015-11-01T11:34:01.577Z</time>
      </trkpt>
      <trkpt lat="49.1024" lon="2.18213">
        <ele>82</ele>
        <time>2015-11-01T11:34:08.536Z</time>
      </trkpt>
      <trkpt lat="49.10239" lon="2.18214">
        <ele>82</ele>
        <time>2015-11-01T11:34:09.478Z</time>
      </trkpt>
      <trkpt lat="49.1023" lon="2.18219">
        <ele>81</ele>
        <time>2015-11-01T11:34:16.543Z</time>
      </trkpt>
      <trkpt lat="49.10229" lon="2.18219">
        <ele>81</ele>
        <time>2015-11-01T11:34:17.568Z</time>
      </trkpt>
      <trkpt lat="49.10225" lon="2.1823">
        <ele>78</ele>
        <time>2015-11-01T11:34:46.643Z</time>
      </trkpt>
      <trkpt lat="49.10225" lon="2.18232">
        <ele>78</ele>
        <time>2015-11-01T11:34:47.513Z</time>
      </trkpt>
      <trkpt lat="49.10226" lon="2.18245">
        <ele>76</ele>
        <time>2015-11-01T11:34:55.559Z</time>
      </trkpt>
      <trkpt lat="49.10226" lon="2.18246">
        <ele>76</ele>
        <time>2015-11-01T11:34:56.496Z</time>
      </trkpt>
      <trkpt lat="49.10229" lon="2.18258">
        <ele>76</ele>
        <time>2015-11-01T11:35:02.601Z</time>
      </trkpt>
      <trkpt lat="49.10229" lon="2.1826">
        <ele>77</ele>
        <time>2015-11-01T11:35:03.482Z</time>
      </trkpt>
      <trkpt lat="49.10235" lon="2.1827">
        <ele>75</ele>
        <time>2015-11-01T11:35:10.674Z</time>
      </trkpt>
      <trkpt lat="49.10235" lon="2.18271">
        <ele>73</ele>
        <time>2015-11-01T11:35:11.546Z</time>
      </trkpt>
      <trkpt lat="49.1024" lon="2.18281">
        <ele>74</ele>
        <time>2015-11-01T11:35:41.569Z</time>
      </trkpt>
      <trkpt lat="49.10241" lon="2.18282">
        <ele>74</ele>
        <time>2015-11-01T11:35:42.579Z</time>
      </trkpt>
      <trkpt lat="49.10245" lon="2.18294">
        <ele>74</ele>
        <time>2015-11-01T11:35:49.695Z</time>
      </trkpt>
      <trkpt lat="49.10245" lon="2.18295">
        <ele>74</ele>
        <time>2015-11-01T11:35:50.492Z</time>
      </trkpt>
      <trkpt lat="49.1025" lon="2.18305">
        <ele>70</ele>
        <time>2015-11-01T11:35:57.616Z</time>
      </trkpt>
      <trkpt lat="49.10251" lon="2.18307">
        <ele>70</ele>
        <time>2015-11-01T11:35:58.481Z</time>
      </trkpt>
      <trkpt lat="49.10253" lon="2.1832">
        <ele>72</ele>
        <time>2015-11-01T11:36:05.554Z</time>
      </trkpt>
      <trkpt lat="49.10253" lon="2.18322">
        <ele>72</ele>
        <time>2015-11-01T11:36:06.494Z</time>
      </trkpt>
      <trkpt lat="49.10256" lon="2.18334">
        <ele>72</ele>
        <time>2015-11-01T11:36:13.714Z</time>
      </trkpt>
      <trkpt lat="49.10257" lon="2.18335">
        <ele>73</ele>
        <time>2015-11-01T11:36:14.738Z</time>
      </trkpt>
      <trkpt lat="49.1026" lon="2.18346">
        <ele>73</ele>
        <time>2015-11-01T11:36:21.775Z</time>
      </trkpt>
      <trkpt lat="49.10261" lon="2.18348">
        <ele>74</ele>
        <time>2015-11-01T11:36:22.479Z</time>
      </trkpt>
      <trkpt lat="49.10265" lon="2.1836">
        <ele>74</ele>
        <time>2015-11-01T11:36:30.549Z</time>
      </trkpt>
      <trkpt lat="49.10266" lon="2.18362">
        <ele>74</ele>
        <time>2015-11-01T11:36:31.497Z</time>
      </trkpt>
      <trkpt lat="49.1027" lon="2.18374">
        <ele>73</ele>
        <time>2015-11-01T11:36:37.738Z</time>
      </trkpt>
      <trkpt lat="49.10271" lon="2.18375">
        <ele>73</ele>
        <time>2015-11-01T11:36:38.611Z</time>
      </trkpt>
      <trkpt lat="49.10275" lon="2.18386">
        <ele>72</ele>
        <time>2015-11-01T11:36:44.625Z</time>
      </trkpt>
      <trkpt lat="49.10276" lon="2.18388">
        <ele>72</ele>
        <time>2015-11-01T11:36:45.519Z</time>
      </trkpt>
      <trkpt lat="49.10279" lon="2.184">
        <ele>71</ele>
        <time>2015-11-01T11:37:03.820Z</time>
      </trkpt>
      <trkpt lat="49.10279" lon="2.18402">
        <ele>70</ele>
        <time>2015-11-01T11:37:04.575Z</time>
      </trkpt>
      <trkpt lat="49.10283" lon="2.18414">
        <ele>70</ele>
        <time>2015-11-01T11:37:10.670Z</time>
      </trkpt>
      <trkpt lat="49.10284" lon="2.18416">
        <ele>70</ele>
        <time>2015-11-01T11:37:11.486Z</time>
      </trkpt>
      <trkpt lat="49.10288" lon="2.18427">
        <ele>67</ele>
        <time>2015-11-01T11:37:18.571Z</time>
      </trkpt>
      <trkpt lat="49.10288" lon="2.18428">
        <ele>67</ele>
        <time>2015-11-01T11:37:19.482Z</time>
      </trkpt>
      <trkpt lat="49.10292" lon="2.1844">
        <ele>69</ele>
        <time>2015-11-01T11:37:26.657Z</time>
      </trkpt>
      <trkpt lat="49.10293" lon="2.18442">
        <ele>71</ele>
        <time>2015-11-01T11:37:27.501Z</time>
      </trkpt>
      <trkpt lat="49.10296" lon="2.18453">
        <ele>70</ele>
        <time>2015-11-01T11:37:33.623Z</time>
      </trkpt>
      <trkpt lat="49.10297" lon="2.18454">
        <ele>69</ele>
        <time>2015-11-01T11:37:34.489Z</time>
      </trkpt>
      <trkpt lat="49.10298" lon="2.18467">
        <ele>68</ele>
        <time>2015-11-01T11:37:41.671Z</time>
      </trkpt>
      <trkpt lat="49.10298" lon="2.18468">
        <ele>68</ele>
        <time>2015-11-01T11:37:42.582Z</time>
      </trkpt>
      <trkpt lat="49.10299" lon="2.18481">
        <ele>68</ele>
        <time>2015-11-01T11:37:49.530Z</time>
      </trkpt>
      <trkpt lat="49.10299" lon="2.18483">
        <ele>67</ele>
        <time>2015-11-01T11:37:50.584Z</time>
      </trkpt>
      <trkpt lat="49.10299" lon="2.18496">
        <ele>70</ele>
        <time>2015-11-01T11:37:57.705Z</time>
      </trkpt>
      <trkpt lat="49.10299" lon="2.18498">
        <ele>70</ele>
        <time>2015-11-01T11:37:58.501Z</time>
      </trkpt>
      <trkpt lat="49.10299" lon="2.18511">
        <ele>70</ele>
        <time>2015-11-01T11:38:05.514Z</time>
      </trkpt>
      <trkpt lat="49.10298" lon="2.18513">
        <ele>70</ele>
        <time>2015-11-01T11:38:06.511Z</time>
      </trkpt>
      <trkpt lat="49.10297" lon="2.18525">
        <ele>73</ele>
        <time>2015-11-01T11:38:13.279Z</time>
      </trkpt>
      <trkpt lat="49.10297" lon="2.18527">
        <ele>73</ele>
        <time>2015-11-01T11:38:13.551Z</time>
      </trkpt>
      <trkpt lat="49.10296" lon="2.1854">
        <ele>74</ele>
        <time>2015-11-01T11:38:20.695Z</time>
      </trkpt>
      <trkpt lat="49.10296" lon="2.18542">
        <ele>74</ele>
        <time>2015-11-01T11:38:21.587Z</time>
      </trkpt>
      <trkpt lat="49.10295" lon="2.18555">
        <ele>74</ele>
        <time>2015-11-01T11:38:30.763Z</time>
      </trkpt>
      <trkpt lat="49.10295" lon="2.18557">
        <ele>75</ele>
        <time>2015-11-01T11:38:31.558Z</time>
      </trkpt>
      <trkpt lat="49.10294" lon="2.1857">
        <ele>75</ele>
        <time>2015-11-01T11:38:41.574Z</time>
      </trkpt>
      <trkpt lat="49.10294" lon="2.18571">
        <ele>75</ele>
        <time>2015-11-01T11:38:42.479Z</time>
      </trkpt>
      <trkpt lat="49.10292" lon="2.18583">
        <ele>72</ele>
        <time>2015-11-01T11:38:52.554Z</time>
      </trkpt>
      <trkpt lat="49.10291" lon="2.18584">
        <ele>71</ele>
        <time>2015-11-01T11:38:53.490Z</time>
      </trkpt>
      <trkpt lat="49.10288" lon="2.18596">
        <ele>77</ele>
        <time>2015-11-01T11:39:02.750Z</time>
      </trkpt>
      <trkpt lat="49.10288" lon="2.18598">
        <ele>76</ele>
        <time>2015-11-01T11:39:03.552Z</time>
      </trkpt>
      <trkpt lat="49.10286" lon="2.18611">
        <ele>77</ele>
        <time>2015-11-01T11:39:11.766Z</time>
      </trkpt>
      <trkpt lat="49.10285" lon="2.18613">
        <ele>78</ele>
        <time>2015-11-01T11:39:12.616Z</time>
      </trkpt>
      <trkpt lat="49.10286" lon="2.18626">
        <ele>81</ele>
        <time>2015-11-01T11:39:19.615Z</time>
      </trkpt>
      <trkpt lat="49.10286" lon="2.18628">
        <ele>81</ele>
        <time>2015-11-01T11:39:20.569Z</time>
      </trkpt>
      <trkpt lat="49.10288" lon="2.1864">
        <ele>82</ele>
        <time>2015-11-01T11:39:27.587Z</time>
      </trkpt>
      <trkpt lat="49.10288" lon="2.18642">
        <ele>83</ele>
        <time>2015-11-01T11:39:28.577Z</time>
      </trkpt>
      <trkpt lat="49.10296" lon="2.18648">
        <ele>90</ele>
        <time>2015-11-01T11:40:30.593Z</time>
      </trkpt>
      <trkpt lat="49.10297" lon="2.1865">
        <ele>90</ele>
        <time>2015-11-01T11:40:31.567Z</time>
      </trkpt>
      <trkpt lat="49.10302" lon="2.1866">
        <ele>95</ele>
        <time>2015-11-01T11:41:04.560Z</time>
      </trkpt>
      <trkpt lat="49.10302" lon="2.18661">
        <ele>95</ele>
        <time>2015-11-01T11:41:05.481Z</time>
      </trkpt>
      <trkpt lat="49.10306" lon="2.18671">
        <ele>90</ele>
        <time>2015-11-01T11:41:14.656Z</time>
      </trkpt>
      <trkpt lat="49.10306" lon="2.18673">
        <ele>87</ele>
        <time>2015-11-01T11:41:15.481Z</time>
      </trkpt>
      <trkpt lat="49.10311" lon="2.18683">
        <ele>83</ele>
        <time>2015-11-01T11:41:21.526Z</time>
      </trkpt>
      <trkpt lat="49.10312" lon="2.18684">
        <ele>82</ele>
        <time>2015-11-01T11:41:22.478Z</time>
      </trkpt>
      <trkpt lat="49.1032" lon="2.1869">
        <ele>87</ele>
        <time>2015-11-01T11:41:32.020Z</time>
      </trkpt>
      <trkpt lat="49.1032" lon="2.1869">
        <ele>88</ele>
        <time>2015-11-01T11:41:32.542Z</time>
      </trkpt>
      <trkpt lat="49.10326" lon="2.187">
        <ele>85</ele>
        <time>2015-11-01T11:42:08.800Z</time>
      </trkpt>
      <trkpt lat="49.10326" lon="2.18701">
        <ele>85</ele>
        <time>2015-11-01T11:42:09.568Z</time>
      </trkpt>
      <trkpt lat="49.1033" lon="2.18712">
        <ele>89</ele>
        <time>2015-11-01T11:42:18.093Z</time>
      </trkpt>
      <trkpt lat="49.10331" lon="2.18714">
        <ele>88</ele>
        <time>2015-11-01T11:42:18.559Z</time>
      </trkpt>
      <trkpt lat="49.10335" lon="2.18725">
        <ele>92</ele>
        <time>2015-11-01T11:42:25.642Z</time>
      </trkpt>
      <trkpt lat="49.10336" lon="2.18727">
        <ele>93</ele>
        <time>2015-11-01T11:42:26.514Z</time>
      </trkpt>
      <trkpt lat="49.1034" lon="2.18736">
        <ele>93</ele>
        <time>2015-11-01T11:42:33.550Z</time>
      </trkpt>
      <trkpt lat="49.10341" lon="2.18738">
        <ele>92</ele>
        <time>2015-11-01T11:42:34.496Z</time>
      </trkpt>
      <trkpt lat="49.10348" lon="2.18744">
        <ele>98</ele>
        <time>2015-11-01T11:44:54.556Z</time>
      </trkpt>
      <trkpt lat="49.10349" lon="2.18744">
        <ele>97</ele>
        <time>2015-11-01T11:44:55.529Z</time>
      </trkpt>
      <trkpt lat="49.10356" lon="2.18752">
        <ele>97</ele>
        <time>2015-11-01T11:45:02.776Z</time>
      </trkpt>
      <trkpt lat="49.10357" lon="2.18753">
        <ele>96</ele>
        <time>2015-11-01T11:45:03.563Z</time>
      </trkpt>
      <trkpt lat="49.10361" lon="2.18763">
        <ele>96</ele>
        <time>2015-11-01T11:45:24.643Z</time>
      </trkpt>
      <trkpt lat="49.10362" lon="2.18765">
        <ele>95</ele>
        <time>2015-11-01T11:45:25.519Z</time>
      </trkpt>
      <trkpt lat="49.10368" lon="2.18773">
        <ele>97</ele>
        <time>2015-11-01T11:45:32.762Z</time>
      </trkpt>
      <trkpt lat="49.10369" lon="2.18774">
        <ele>98</ele>
        <time>2015-11-01T11:45:33.570Z</time>
      </trkpt>
      <trkpt lat="49.10374" lon="2.18784">
        <ele>96</ele>
        <time>2015-11-01T11:45:51.647Z</time>
      </trkpt>
      <trkpt lat="49.10375" lon="2.18785">
        <ele>97</ele>
        <time>2015-11-01T11:45:52.600Z</time>
      </trkpt>
      <trkpt lat="49.10382" lon="2.18792">
        <ele>100</ele>
        <time>2015-11-01T11:45:59.743Z</time>
      </trkpt>
      <trkpt lat="49.10383" lon="2.18793">
        <ele>100</ele>
        <time>2015-11-01T11:46:00.558Z</time>
      </trkpt>
      <trkpt lat="49.10391" lon="2.18799">
        <ele>101</ele>
        <time>2015-11-01T11:46:06.780Z</time>
      </trkpt>
      <trkpt lat="49.10392" lon="2.18801">
        <ele>101</ele>
        <time>2015-11-01T11:46:07.551Z</time>
      </trkpt>
      <trkpt lat="49.10398" lon="2.18809">
        <ele>104</ele>
        <time>2015-11-01T11:46:15.722Z</time>
      </trkpt>
      <trkpt lat="49.10399" lon="2.18811">
        <ele>104</ele>
        <time>2015-11-01T11:46:16.506Z</time>
      </trkpt>
      <trkpt lat="49.10405" lon="2.1882">
        <ele>103</ele>
        <time>2015-11-01T11:46:24.596Z</time>
      </trkpt>
      <trkpt lat="49.10406" lon="2.18821">
        <ele>103</ele>
        <time>2015-11-01T11:46:25.500Z</time>
      </trkpt>
      <trkpt lat="49.10412" lon="2.18829">
        <ele>106</ele>
        <time>2015-11-01T11:46:33.738Z</time>
      </trkpt>
      <trkpt lat="49.10413" lon="2.1883">
        <ele>106</ele>
        <time>2015-11-01T11:46:35.007Z</time>
      </trkpt>
      <trkpt lat="49.10418" lon="2.18839">
        <ele>108</ele>
        <time>2015-11-01T11:46:42.718Z</time>
      </trkpt>
      <trkpt lat="49.10419" lon="2.1884">
        <ele>108</ele>
        <time>2015-11-01T11:46:43.515Z</time>
      </trkpt>
      <trkpt lat="49.10425" lon="2.18849">
        <ele>109</ele>
        <time>2015-11-01T11:46:52.711Z</time>
      </trkpt>
      <trkpt lat="49.10426" lon="2.1885">
        <ele>110</ele>
        <time>2015-11-01T11:46:53.576Z</time>
      </trkpt>
      <trkpt lat="49.10431" lon="2.18859">
        <ele>108</ele>
        <time>2015-11-01T11:47:02.749Z</time>
      </trkpt>
      <trkpt lat="49.10432" lon="2.1886">
        <ele>109</ele>
        <time>2015-11-01T11:47:03.571Z</time>
      </trkpt>
      <trkpt lat="49.10439" lon="2.18869">
        <ele>108</ele>
        <time>2015-11-01T11:47:13.733Z</time>
      </trkpt>
      <trkpt lat="49.10439" lon="2.1887">
        <ele>107</ele>
        <time>2015-11-01T11:47:14.576Z</time>
      </trkpt>
      <trkpt lat="49.10446" lon="2.18878">
        <ele>110</ele>
        <time>2015-11-01T11:47:23.630Z</time>
      </trkpt>
      <trkpt lat="49.10447" lon="2.18878">
        <ele>109</ele>
        <time>2015-11-01T11:47:24.546Z</time>
      </trkpt>
      <trkpt lat="49.1044" lon="2.18888">
        <ele>115</ele>
        <time>2015-11-01T11:49:28.651Z</time>
      </trkpt>
      <trkpt lat="49.10439" lon="2.18889">
        <ele>114</ele>
        <time>2015-11-01T11:49:29.557Z</time>
      </trkpt>
      <trkpt lat="49.1043" lon="2.18892">
        <ele>114</ele>
        <time>2015-11-01T11:49:35.770Z</time>
      </trkpt>
      <trkpt lat="49.1043" lon="2.18892">
        <ele>114</ele>
        <time>2015-11-01T11:49:36.532Z</time>
      </trkpt>
      <trkpt lat="49.10422" lon="2.18892">
        <ele>115</ele>
        <time>2015-11-01T11:49:54.725Z</time>
      </trkpt>
      <trkpt lat="49.1042" lon="2.18892">
        <ele>117</ele>
        <time>2015-11-01T11:49:55.543Z</time>
      </trkpt>
      <trkpt lat="49.10413" lon="2.18892">
        <ele>116</ele>
        <time>2015-11-01T11:50:01.625Z</time>
      </trkpt>
      <trkpt lat="49.10411" lon="2.18891">
        <ele>119</ele>
        <time>2015-11-01T11:50:02.509Z</time>
      </trkpt>
      <trkpt lat="49.10403" lon="2.18888">
        <ele>121</ele>
        <time>2015-11-01T11:50:07.734Z</time>
      </trkpt>
      <trkpt lat="49.10401" lon="2.18888">
        <ele>121</ele>
        <time>2015-11-01T11:50:08.639Z</time>
      </trkpt>
      <trkpt lat="49.10393" lon="2.18887">
        <ele>129</ele>
        <time>2015-11-01T11:50:13.800Z</time>
      </trkpt>
      <trkpt lat="49.10391" lon="2.18888">
        <ele>129</ele>
        <time>2015-11-01T11:50:14.588Z</time>
      </trkpt>
      <trkpt lat="49.10384" lon="2.18888">
        <ele>130</ele>
        <time>2015-11-01T11:50:20.704Z</time>
      </trkpt>
      <trkpt lat="49.10382" lon="2.18888">
        <ele>130</ele>
        <time>2015-11-01T11:50:21.575Z</time>
      </trkpt>
      <trkpt lat="49.10373" lon="2.18887">
        <ele>128</ele>
        <time>2015-11-01T11:50:28.661Z</time>
      </trkpt>
      <trkpt lat="49.10372" lon="2.18887">
        <ele>127</ele>
        <time>2015-11-01T11:50:29.551Z</time>
      </trkpt>
      <trkpt lat="49.10364" lon="2.18887">
        <ele>126</ele>
        <time>2015-11-01T11:51:16.153Z</time>
      </trkpt>
      <trkpt lat="49.10363" lon="2.18887">
        <ele>126</ele>
        <time>2015-11-01T11:51:16.567Z</time>
      </trkpt>
      <trkpt lat="49.10355" lon="2.18881">
        <ele>129</ele>
        <time>2015-11-01T11:51:27.794Z</time>
      </trkpt>
      <trkpt lat="49.10355" lon="2.1888">
        <ele>129</ele>
        <time>2015-11-01T11:51:28.605Z</time>
      </trkpt>
      <trkpt lat="49.10346" lon="2.18876">
        <ele>129</ele>
        <time>2015-11-01T11:51:37.682Z</time>
      </trkpt>
      <trkpt lat="49.10345" lon="2.18876">
        <ele>128</ele>
        <time>2015-11-01T11:51:38.578Z</time>
      </trkpt>
      <trkpt lat="49.10337" lon="2.18875">
        <ele>126</ele>
        <time>2015-11-01T11:51:47.589Z</time>
      </trkpt>
      <trkpt lat="49.10336" lon="2.18874">
        <ele>126</ele>
        <time>2015-11-01T11:51:48.564Z</time>
      </trkpt>
      <trkpt lat="49.10327" lon="2.18874">
        <ele>121</ele>
        <time>2015-11-01T11:52:40.693Z</time>
      </trkpt>
      <trkpt lat="49.10326" lon="2.18874">
        <ele>120</ele>
        <time>2015-11-01T11:52:41.848Z</time>
      </trkpt>
      <trkpt lat="49.10317" lon="2.18873">
        <ele>120</ele>
        <time>2015-11-01T11:52:52.871Z</time>
      </trkpt>
      <trkpt lat="49.10317" lon="2.18873">
        <ele>120</ele>
        <time>2015-11-01T11:52:53.592Z</time>
      </trkpt>
      <trkpt lat="49.10309" lon="2.18871">
        <ele>114</ele>
        <time>2015-11-01T11:53:00.761Z</time>
      </trkpt>
      <trkpt lat="49.10307" lon="2.18871">
        <ele>116</ele>
        <time>2015-11-01T11:53:01.559Z</time>
      </trkpt>
      <trkpt lat="49.10299" lon="2.1887">
        <ele>116</ele>
        <time>2015-11-01T11:53:06.823Z</time>
      </trkpt>
      <trkpt lat="49.10297" lon="2.1887">
        <ele>115</ele>
        <time>2015-11-01T11:53:07.576Z</time>
      </trkpt>
      <trkpt lat="49.10288" lon="2.18868">
        <ele>117</ele>
        <time>2015-11-01T11:53:13.632Z</time>
      </trkpt>
      <trkpt lat="49.10287" lon="2.18868">
        <ele>116</ele>
        <time>2015-11-01T11:53:14.522Z</time>
      </trkpt>
      <trkpt lat="49.10279" lon="2.18868">
        <ele>114</ele>
        <time>2015-11-01T11:53:21.654Z</time>
      </trkpt>
      <trkpt lat="49.10278" lon="2.18868">
        <ele>113</ele>
        <time>2015-11-01T11:53:22.528Z</time>
      </trkpt>
      <trkpt lat="49.10269" lon="2.18867">
        <ele>114</ele>
        <time>2015-11-01T11:53:30.577Z</time>
      </trkpt>
      <trkpt lat="49.10268" lon="2.18867">
        <ele>115</ele>
        <time>2015-11-01T11:53:31.545Z</time>
      </trkpt>
      <trkpt lat="49.10259" lon="2.18863">
        <ele>117</ele>
        <time>2015-11-01T11:53:39.761Z</time>
      </trkpt>
      <trkpt lat="49.10259" lon="2.18862">
        <ele>117</ele>
        <time>2015-11-01T11:53:40.642Z</time>
      </trkpt>
      <trkpt lat="49.1025" lon="2.1886">
        <ele>115</ele>
        <time>2015-11-01T11:53:54.702Z</time>
      </trkpt>
      <trkpt lat="49.10249" lon="2.1886">
        <ele>114</ele>
        <time>2015-11-01T11:53:55.506Z</time>
      </trkpt>
      <trkpt lat="49.1024" lon="2.18858">
        <ele>113</ele>
        <time>2015-11-01T11:54:03.614Z</time>
      </trkpt>
      <trkpt lat="49.10239" lon="2.18858">
        <ele>113</ele>
        <time>2015-11-01T11:54:04.726Z</time>
      </trkpt>
      <trkpt lat="49.10231" lon="2.18855">
        <ele>115</ele>
        <time>2015-11-01T11:54:11.744Z</time>
      </trkpt>
      <trkpt lat="49.1023" lon="2.18855">
        <ele>115</ele>
        <time>2015-11-01T11:54:12.606Z</time>
      </trkpt>
      <trkpt lat="49.10222" lon="2.18852">
        <ele>118</ele>
        <time>2015-11-01T11:54:19.659Z</time>
      </trkpt>
      <trkpt lat="49.10221" lon="2.18852">
        <ele>118</ele>
        <time>2015-11-01T11:54:20.629Z</time>
      </trkpt>
      <trkpt lat="49.10213" lon="2.18849">
        <ele>121</ele>
        <time>2015-11-01T11:54:26.698Z</time>
      </trkpt>
      <trkpt lat="49.10211" lon="2.18848">
        <ele>121</ele>
        <time>2015-11-01T11:54:27.701Z</time>
      </trkpt>
      <trkpt lat="49.10204" lon="2.18847">
        <ele>121</ele>
        <time>2015-11-01T11:54:34.323Z</time>
      </trkpt>
      <trkpt lat="49.10202" lon="2.18846">
        <ele>122</ele>
        <time>2015-11-01T11:54:34.575Z</time>
      </trkpt>
      <trkpt lat="49.10194" lon="2.18847">
        <ele>125</ele>
        <time>2015-11-01T11:54:42.685Z</time>
      </trkpt>
      <trkpt lat="49.10193" lon="2.18847">
        <ele>126</ele>
        <time>2015-11-01T11:54:43.708Z</time>
      </trkpt>
      <trkpt lat="49.10185" lon="2.18848">
        <ele>128</ele>
        <time>2015-11-01T11:54:51.800Z</time>
      </trkpt>
      <trkpt lat="49.10184" lon="2.18848">
        <ele>127</ele>
        <time>2015-11-01T11:54:52.729Z</time>
      </trkpt>
      <trkpt lat="49.10176" lon="2.18849">
        <ele>127</ele>
        <time>2015-11-01T11:55:00.646Z</time>
      </trkpt>
      <trkpt lat="49.10175" lon="2.18849">
        <ele>127</ele>
        <time>2015-11-01T11:55:01.548Z</time>
      </trkpt>
      <trkpt lat="49.10167" lon="2.18847">
        <ele>125</ele>
        <time>2015-11-01T11:55:10.821Z</time>
      </trkpt>
      <trkpt lat="49.10166" lon="2.18847">
        <ele>124</ele>
        <time>2015-11-01T11:55:11.563Z</time>
      </trkpt>
      <trkpt lat="49.10158" lon="2.18848">
        <ele>119</ele>
        <time>2015-11-01T11:55:17.100Z</time>
      </trkpt>
      <trkpt lat="49.10157" lon="2.18848">
        <ele>119</ele>
        <time>2015-11-01T11:55:17.559Z</time>
      </trkpt>
      <trkpt lat="49.10148" lon="2.18852">
        <ele>119</ele>
        <time>2015-11-01T11:55:23.707Z</time>
      </trkpt>
      <trkpt lat="49.10147" lon="2.18852">
        <ele>118</ele>
        <time>2015-11-01T11:55:24.578Z</time>
      </trkpt>
      <trkpt lat="49.1014" lon="2.18859">
        <ele>116</ele>
        <time>2015-11-01T11:55:32.734Z</time>
      </trkpt>
      <trkpt lat="49.10139" lon="2.1886">
        <ele>117</ele>
        <time>2015-11-01T11:55:33.540Z</time>
      </trkpt>
      <trkpt lat="49.10133" lon="2.18867">
        <ele>113</ele>
        <time>2015-11-01T11:55:40.754Z</time>
      </trkpt>
      <trkpt lat="49.10132" lon="2.18869">
        <ele>113</ele>
        <time>2015-11-01T11:55:41.571Z</time>
      </trkpt>
      <trkpt lat="49.10126" lon="2.18877">
        <ele>115</ele>
        <time>2015-11-01T11:55:47.616Z</time>
      </trkpt>
      <trkpt lat="49.10125" lon="2.18879">
        <ele>116</ele>
        <time>2015-11-01T11:55:48.594Z</time>
      </trkpt>
      <trkpt lat="49.1012" lon="2.18888">
        <ele>117</ele>
        <time>2015-11-01T11:55:53.693Z</time>
      </trkpt>
      <trkpt lat="49.10119" lon="2.18889">
        <ele>117</ele>
        <time>2015-11-01T11:55:54.563Z</time>
      </trkpt>
      <trkpt lat="49.10114" lon="2.18898">
        <ele>115</ele>
        <time>2015-11-01T11:56:01.638Z</time>
      </trkpt>
      <trkpt lat="49.10113" lon="2.189">
        <ele>115</ele>
        <time>2015-11-01T11:56:02.586Z</time>
      </trkpt>
      <trkpt lat="49.10109" lon="2.1891">
        <ele>117</ele>
        <time>2015-11-01T11:56:08.750Z</time>
      </trkpt>
      <trkpt lat="49.10108" lon="2.18912">
        <ele>118</ele>
        <time>2015-11-01T11:56:09.594Z</time>
      </trkpt>
      <trkpt lat="49.10104" lon="2.18922">
        <ele>119</ele>
        <time>2015-11-01T11:56:15.793Z</time>
      </trkpt>
      <trkpt lat="49.10103" lon="2.18923">
        <ele>118</ele>
        <time>2015-11-01T11:56:16.572Z</time>
      </trkpt>
      <trkpt lat="49.10099" lon="2.18934">
        <ele>114</ele>
        <time>2015-11-01T11:56:23.671Z</time>
      </trkpt>
      <trkpt lat="49.10099" lon="2.18935">
        <ele>113</ele>
        <time>2015-11-01T11:56:24.569Z</time>
      </trkpt>
      <trkpt lat="49.10095" lon="2.18947">
        <ele>114</ele>
        <time>2015-11-01T11:56:32.753Z</time>
      </trkpt>
      <trkpt lat="49.10095" lon="2.18948">
        <ele>113</ele>
        <time>2015-11-01T11:56:33.592Z</time>
      </trkpt>
      <trkpt lat="49.10092" lon="2.18959">
        <ele>116</ele>
        <time>2015-11-01T11:56:40.606Z</time>
      </trkpt>
      <trkpt lat="49.10091" lon="2.18961">
        <ele>116</ele>
        <time>2015-11-01T11:56:41.585Z</time>
      </trkpt>
      <trkpt lat="49.10085" lon="2.1897">
        <ele>116</ele>
        <time>2015-11-01T11:56:50.872Z</time>
      </trkpt>
      <trkpt lat="49.10085" lon="2.18971">
        <ele>117</ele>
        <time>2015-11-01T11:56:51.509Z</time>
      </trkpt>
      <trkpt lat="49.1008" lon="2.18982">
        <ele>117</ele>
        <time>2015-11-01T11:56:58.750Z</time>
      </trkpt>
      <trkpt lat="49.10079" lon="2.18984">
        <ele>117</ele>
        <time>2015-11-01T11:56:59.520Z</time>
      </trkpt>
      <trkpt lat="49.10076" lon="2.18996">
        <ele>115</ele>
        <time>2015-11-01T11:57:59.634Z</time>
      </trkpt>
      <trkpt lat="49.10076" lon="2.18996">
        <ele>115</ele>
        <time>2015-11-01T11:58:00.651Z</time>
      </trkpt>
      <trkpt lat="49.10071" lon="2.19007">
        <ele>117</ele>
        <time>2015-11-01T11:58:11.837Z</time>
      </trkpt>
      <trkpt lat="49.1007" lon="2.19008">
        <ele>116</ele>
        <time>2015-11-01T11:58:12.522Z</time>
      </trkpt>
      <trkpt lat="49.10066" lon="2.19019">
        <ele>114</ele>
        <time>2015-11-01T11:58:20.800Z</time>
      </trkpt>
      <trkpt lat="49.10065" lon="2.1902">
        <ele>116</ele>
        <time>2015-11-01T11:58:21.608Z</time>
      </trkpt>
      <trkpt lat="49.10058" lon="2.19028">
        <ele>115</ele>
        <time>2015-11-01T11:58:27.860Z</time>
      </trkpt>
      <trkpt lat="49.10056" lon="2.19029">
        <ele>115</ele>
        <time>2015-11-01T11:58:28.576Z</time>
      </trkpt>
      <trkpt lat="49.10049" lon="2.19038">
        <ele>116</ele>
        <time>2015-11-01T11:58:35.758Z</time>
      </trkpt>
      <trkpt lat="49.10049" lon="2.19039">
        <ele>115</ele>
        <time>2015-11-01T11:58:36.535Z</time>
      </trkpt>
      <trkpt lat="49.10042" lon="2.19047">
        <ele>120</ele>
        <time>2015-11-01T11:58:41.733Z</time>
      </trkpt>
      <trkpt lat="49.10041" lon="2.19048">
        <ele>120</ele>
        <time>2015-11-01T11:58:42.503Z</time>
      </trkpt>
      <trkpt lat="49.10037" lon="2.1906">
        <ele>115</ele>
        <time>2015-11-01T11:58:50.757Z</time>
      </trkpt>
      <trkpt lat="49.10036" lon="2.19061">
        <ele>117</ele>
        <time>2015-11-01T11:58:51.567Z</time>
      </trkpt>
      <trkpt lat="49.10029" lon="2.19069">
        <ele>119</ele>
        <time>2015-11-01T11:58:59.104Z</time>
      </trkpt>
      <trkpt lat="49.10028" lon="2.1907">
        <ele>119</ele>
        <time>2015-11-01T11:58:59.552Z</time>
      </trkpt>
      <trkpt lat="49.10023" lon="2.1908">
        <ele>118</ele>
        <time>2015-11-01T11:59:06.785Z</time>
      </trkpt>
      <trkpt lat="49.10022" lon="2.19082">
        <ele>118</ele>
        <time>2015-11-01T11:59:07.585Z</time>
      </trkpt>
      <trkpt lat="49.10018" lon="2.19092">
        <ele>117</ele>
        <time>2015-11-01T11:59:14.098Z</time>
      </trkpt>
      <trkpt lat="49.10018" lon="2.19094">
        <ele>118</ele>
        <time>2015-11-01T11:59:14.584Z</time>
      </trkpt>
      <trkpt lat="49.10013" lon="2.19105">
        <ele>117</ele>
        <time>2015-11-01T11:59:21.612Z</time>
      </trkpt>
      <trkpt lat="49.10013" lon="2.19107">
        <ele>116</ele>
        <time>2015-11-01T11:59:22.568Z</time>
      </trkpt>
      <trkpt lat="49.10005" lon="2.19111">
        <ele>115</ele>
        <time>2015-11-01T12:00:09.680Z</time>
      </trkpt>
      <trkpt lat="49.10004" lon="2.19112">
        <ele>116</ele>
        <time>2015-11-01T12:00:10.522Z</time>
      </trkpt>
      <trkpt lat="49.09997" lon="2.19119">
        <ele>113</ele>
        <time>2015-11-01T12:00:15.682Z</time>
      </trkpt>
      <trkpt lat="49.09996" lon="2.19121">
        <ele>115</ele>
        <time>2015-11-01T12:00:16.579Z</time>
      </trkpt>
      <trkpt lat="49.09989" lon="2.19128">
        <ele>118</ele>
        <time>2015-11-01T12:00:23.799Z</time>
      </trkpt>
      <trkpt lat="49.09988" lon="2.19128">
        <ele>118</ele>
        <time>2015-11-01T12:00:24.544Z</time>
      </trkpt>
      <trkpt lat="49.09981" lon="2.19136">
        <ele>119</ele>
        <time>2015-11-01T12:00:33.715Z</time>
      </trkpt>
      <trkpt lat="49.0998" lon="2.19138">
        <ele>118</ele>
        <time>2015-11-01T12:00:34.570Z</time>
      </trkpt>
      <trkpt lat="49.09976" lon="2.19149">
        <ele>116</ele>
        <time>2015-11-01T12:00:41.791Z</time>
      </trkpt>
      <trkpt lat="49.09974" lon="2.19149">
        <ele>117</ele>
        <time>2015-11-01T12:00:42.593Z</time>
      </trkpt>
      <trkpt lat="49.09967" lon="2.19158">
        <ele>118</ele>
        <time>2015-11-01T12:00:49.760Z</time>
      </trkpt>
      <trkpt lat="49.09966" lon="2.19159">
        <ele>119</ele>
        <time>2015-11-01T12:00:50.560Z</time>
      </trkpt>
      <trkpt lat="49.0996" lon="2.19168">
        <ele>118</ele>
        <time>2015-11-01T12:00:57.609Z</time>
      </trkpt>
      <trkpt lat="49.09959" lon="2.19169">
        <ele>118</ele>
        <time>2015-11-01T12:00:58.587Z</time>
      </trkpt>
      <trkpt lat="49.09954" lon="2.19176">
        <ele>118</ele>
        <time>2015-11-01T12:01:03.637Z</time>
      </trkpt>
      <trkpt lat="49.09952" lon="2.19178">
        <ele>117</ele>
        <time>2015-11-01T12:01:04.627Z</time>
      </trkpt>
      <trkpt lat="49.09946" lon="2.19187">
        <ele>117</ele>
        <time>2015-11-01T12:01:11.612Z</time>
      </trkpt>
      <trkpt lat="49.09946" lon="2.19188">
        <ele>115</ele>
        <time>2015-11-01T12:01:12.571Z</time>
      </trkpt>
      <trkpt lat="49.0994" lon="2.19198">
        <ele>114</ele>
        <time>2015-11-01T12:01:28.625Z</time>
      </trkpt>
      <trkpt lat="49.09939" lon="2.19199">
        <ele>115</ele>
        <time>2015-11-01T12:01:29.576Z</time>
      </trkpt>
      <trkpt lat="49.09932" lon="2.19206">
        <ele>116</ele>
        <time>2015-11-01T12:01:36.729Z</time>
      </trkpt>
      <trkpt lat="49.09931" lon="2.19207">
        <ele>116</ele>
        <time>2015-11-01T12:01:37.513Z</time>
      </trkpt>
      <trkpt lat="49.09924" lon="2.19215">
        <ele>122</ele>
        <time>2015-11-01T12:01:57.652Z</time>
      </trkpt>
      <trkpt lat="49.09923" lon="2.19215">
        <ele>122</ele>
        <time>2015-11-01T12:01:58.552Z</time>
      </trkpt>
      <trkpt lat="49.09923" lon="2.19228">
        <ele>114</ele>
        <time>2015-11-01T12:02:57.868Z</time>
      </trkpt>
      <trkpt lat="49.09923" lon="2.19229">
        <ele>114</ele>
        <time>2015-11-01T12:02:58.589Z</time>
      </trkpt>
      <trkpt lat="49.09917" lon="2.19237">
        <ele>117</ele>
        <time>2015-11-01T12:03:13.898Z</time>
      </trkpt>
      <trkpt lat="49.09916" lon="2.19237">
        <ele>116</ele>
        <time>2015-11-01T12:03:14.556Z</time>
      </trkpt>
      <trkpt lat="49.09909" lon="2.19245">
        <ele>117</ele>
        <time>2015-11-01T12:03:22.592Z</time>
      </trkpt>
      <trkpt lat="49.09908" lon="2.19245">
        <ele>118</ele>
        <time>2015-11-01T12:03:23.624Z</time>
      </trkpt>
      <trkpt lat="49.099" lon="2.19251">
        <ele>120</ele>
        <time>2015-11-01T12:03:32.734Z</time>
      </trkpt>
      <trkpt lat="49.09899" lon="2.19252">
        <ele>121</ele>
        <time>2015-11-01T12:03:33.558Z</time>
      </trkpt>
      <trkpt lat="49.09894" lon="2.19263">
        <ele>119</ele>
        <time>2015-11-01T12:03:40.651Z</time>
      </trkpt>
      <trkpt lat="49.09894" lon="2.19265">
        <ele>119</ele>
        <time>2015-11-01T12:03:41.613Z</time>
      </trkpt>
      <trkpt lat="49.0989" lon="2.19276">
        <ele>114</ele>
        <time>2015-11-01T12:03:49.740Z</time>
      </trkpt>
      <trkpt lat="49.09889" lon="2.19277">
        <ele>115</ele>
        <time>2015-11-01T12:03:50.597Z</time>
      </trkpt>
      <trkpt lat="49.09882" lon="2.19285">
        <ele>116</ele>
        <time>2015-11-01T12:03:58.113Z</time>
      </trkpt>
      <trkpt lat="49.09882" lon="2.19286">
        <ele>116</ele>
        <time>2015-11-01T12:03:58.553Z</time>
      </trkpt>
      <trkpt lat="49.09875" lon="2.19295">
        <ele>115</ele>
        <time>2015-11-01T12:04:05.600Z</time>
      </trkpt>
      <trkpt lat="49.09874" lon="2.19296">
        <ele>115</ele>
        <time>2015-11-01T12:04:06.585Z</time>
      </trkpt>
      <trkpt lat="49.09868" lon="2.19305">
        <ele>117</ele>
        <time>2015-11-01T12:04:13.765Z</time>
      </trkpt>
      <trkpt lat="49.09867" lon="2.19306">
        <ele>116</ele>
        <time>2015-11-01T12:04:14.572Z</time>
      </trkpt>
      <trkpt lat="49.09862" lon="2.19317">
        <ele>116</ele>
        <time>2015-11-01T12:04:21.702Z</time>
      </trkpt>
      <trkpt lat="49.09861" lon="2.19318">
        <ele>117</ele>
        <time>2015-11-01T12:04:22.540Z</time>
      </trkpt>
      <trkpt lat="49.09855" lon="2.19328">
        <ele>117</ele>
        <time>2015-11-01T12:04:28.646Z</time>
      </trkpt>
      <trkpt lat="49.09854" lon="2.19329">
        <ele>115</ele>
        <time>2015-11-01T12:04:29.584Z</time>
      </trkpt>
      <trkpt lat="49.09849" lon="2.19339">
        <ele>113</ele>
        <time>2015-11-01T12:04:36.809Z</time>
      </trkpt>
      <trkpt lat="49.09848" lon="2.1934">
        <ele>113</ele>
        <time>2015-11-01T12:04:37.609Z</time>
      </trkpt>
      <trkpt lat="49.09842" lon="2.19348">
        <ele>116</ele>
        <time>2015-11-01T12:04:43.585Z</time>
      </trkpt>
      <trkpt lat="49.09841" lon="2.19349">
        <ele>116</ele>
        <time>2015-11-01T12:04:44.504Z</time>
      </trkpt>
      <trkpt lat="49.09835" lon="2.19358">
        <ele>118</ele>
        <time>2015-11-01T12:04:51.808Z</time>
      </trkpt>
      <trkpt lat="49.09834" lon="2.19359">
        <ele>118</ele>
        <time>2015-11-01T12:04:52.536Z</time>
      </trkpt>
      <trkpt lat="49.09828" lon="2.19368">
        <ele>121</ele>
        <time>2015-11-01T12:04:59.778Z</time>
      </trkpt>
      <trkpt lat="49.09827" lon="2.19368">
        <ele>122</ele>
        <time>2015-11-01T12:05:00.550Z</time>
      </trkpt>
      <trkpt lat="49.0982" lon="2.19376">
        <ele>121</ele>
        <time>2015-11-01T12:05:11.744Z</time>
      </trkpt>
      <trkpt lat="49.09819" lon="2.19378">
        <ele>120</ele>
        <time>2015-11-01T12:05:12.564Z</time>
      </trkpt>
      <trkpt lat="49.09814" lon="2.19387">
        <ele>116</ele>
        <time>2015-11-01T12:05:19.622Z</time>
      </trkpt>
      <trkpt lat="49.09813" lon="2.19389">
        <ele>115</ele>
        <time>2015-11-01T12:05:20.569Z</time>
      </trkpt>
      <trkpt lat="49.09806" lon="2.19397">
        <ele>114</ele>
        <time>2015-11-01T12:05:27.656Z</time>
      </trkpt>
      <trkpt lat="49.09805" lon="2.19399">
        <ele>115</ele>
        <time>2015-11-01T12:05:28.521Z</time>
      </trkpt>
      <trkpt lat="49.09799" lon="2.19407">
        <ele>115</ele>
        <time>2015-11-01T12:05:33.729Z</time>
      </trkpt>
      <trkpt lat="49.09798" lon="2.19408">
        <ele>115</ele>
        <time>2015-11-01T12:05:34.636Z</time>
      </trkpt>
      <trkpt lat="49.09792" lon="2.19417">
        <ele>117</ele>
        <time>2015-11-01T12:05:40.758Z</time>
      </trkpt>
      <trkpt lat="49.09791" lon="2.19417">
        <ele>117</ele>
        <time>2015-11-01T12:05:41.599Z</time>
      </trkpt>
      <trkpt lat="49.09784" lon="2.19424">
        <ele>115</ele>
        <time>2015-11-01T12:05:47.583Z</time>
      </trkpt>
      <trkpt lat="49.09783" lon="2.19425">
        <ele>115</ele>
        <time>2015-11-01T12:05:48.514Z</time>
      </trkpt>
      <trkpt lat="49.09778" lon="2.19436">
        <ele>115</ele>
        <time>2015-11-01T12:05:55.878Z</time>
      </trkpt>
      <trkpt lat="49.09777" lon="2.19437">
        <ele>116</ele>
        <time>2015-11-01T12:05:56.585Z</time>
      </trkpt>
      <trkpt lat="49.09771" lon="2.19446">
        <ele>113</ele>
        <time>2015-11-01T12:06:03.746Z</time>
      </trkpt>
      <trkpt lat="49.0977" lon="2.19447">
        <ele>113</ele>
        <time>2015-11-01T12:06:04.584Z</time>
      </trkpt>
      <trkpt lat="49.09766" lon="2.19457">
        <ele>113</ele>
        <time>2015-11-01T12:06:11.772Z</time>
      </trkpt>
      <trkpt lat="49.09765" lon="2.19459">
        <ele>113</ele>
        <time>2015-11-01T12:06:12.515Z</time>
      </trkpt>
      <trkpt lat="49.09758" lon="2.19464">
        <ele>115</ele>
        <time>2015-11-01T12:06:19.596Z</time>
      </trkpt>
      <trkpt lat="49.09757" lon="2.19465">
        <ele>115</ele>
        <time>2015-11-01T12:06:20.538Z</time>
      </trkpt>
      <trkpt lat="49.09753" lon="2.19476">
        <ele>116</ele>
        <time>2015-11-01T12:06:27.677Z</time>
      </trkpt>
      <trkpt lat="49.09753" lon="2.19477">
        <ele>117</ele>
        <time>2015-11-01T12:06:28.585Z</time>
      </trkpt>
      <trkpt lat="49.09748" lon="2.19487">
        <ele>118</ele>
        <time>2015-11-01T12:06:37.692Z</time>
      </trkpt>
      <trkpt lat="49.09747" lon="2.19489">
        <ele>118</ele>
        <time>2015-11-01T12:06:38.596Z</time>
      </trkpt>
      <trkpt lat="49.09745" lon="2.195">
        <ele>111</ele>
        <time>2015-11-01T12:06:45.660Z</time>
      </trkpt>
      <trkpt lat="49.09744" lon="2.19502">
        <ele>110</ele>
        <time>2015-11-01T12:06:46.590Z</time>
      </trkpt>
      <trkpt lat="49.09737" lon="2.19509">
        <ele>114</ele>
        <time>2015-11-01T12:06:56.680Z</time>
      </trkpt>
      <trkpt lat="49.09737" lon="2.1951">
        <ele>114</ele>
        <time>2015-11-01T12:06:57.598Z</time>
      </trkpt>
      <trkpt lat="49.09729" lon="2.19517">
        <ele>115</ele>
        <time>2015-11-01T12:07:03.713Z</time>
      </trkpt>
      <trkpt lat="49.09728" lon="2.19518">
        <ele>116</ele>
        <time>2015-11-01T12:07:04.701Z</time>
      </trkpt>
      <trkpt lat="49.0972" lon="2.19522">
        <ele>121</ele>
        <time>2015-11-01T12:07:11.873Z</time>
      </trkpt>
      <trkpt lat="49.09719" lon="2.19522">
        <ele>120</ele>
        <time>2015-11-01T12:07:12.598Z</time>
      </trkpt>
      <trkpt lat="49.09712" lon="2.19531">
        <ele>118</ele>
        <time>2015-11-01T12:07:21.066Z</time>
      </trkpt>
      <trkpt lat="49.09712" lon="2.19531">
        <ele>119</ele>
        <time>2015-11-01T12:07:21.595Z</time>
      </trkpt>
      <trkpt lat="49.09705" lon="2.19541">
        <ele>117</ele>
        <time>2015-11-01T12:07:36.557Z</time>
      </trkpt>
      <trkpt lat="49.09705" lon="2.19542">
        <ele>118</ele>
        <time>2015-11-01T12:07:37.593Z</time>
      </trkpt>
      <trkpt lat="49.097" lon="2.19552">
        <ele>112</ele>
        <time>2015-11-01T12:07:44.652Z</time>
      </trkpt>
      <trkpt lat="49.09699" lon="2.19554">
        <ele>112</ele>
        <time>2015-11-01T12:07:45.550Z</time>
      </trkpt>
      <trkpt lat="49.09694" lon="2.19564">
        <ele>110</ele>
        <time>2015-11-01T12:07:50.702Z</time>
      </trkpt>
      <trkpt lat="49.09693" lon="2.19566">
        <ele>110</ele>
        <time>2015-11-01T12:07:51.513Z</time>
      </trkpt>
      <trkpt lat="49.09688" lon="2.19576">
        <ele>110</ele>
        <time>2015-11-01T12:07:56.687Z</time>
      </trkpt>
      <trkpt lat="49.09687" lon="2.19577">
        <ele>112</ele>
        <time>2015-11-01T12:07:57.928Z</time>
      </trkpt>
      <trkpt lat="49.0968" lon="2.19585">
        <ele>116</ele>
        <time>2015-11-01T12:08:02.757Z</time>
      </trkpt>
      <trkpt lat="49.09679" lon="2.19586">
        <ele>117</ele>
        <time>2015-11-01T12:08:03.593Z</time>
      </trkpt>
      <trkpt lat="49.09673" lon="2.19594">
        <ele>118</ele>
        <time>2015-11-01T12:08:12.744Z</time>
      </trkpt>
      <trkpt lat="49.09672" lon="2.19595">
        <ele>117</ele>
        <time>2015-11-01T12:08:13.584Z</time>
      </trkpt>
      <trkpt lat="49.09666" lon="2.19603">
        <ele>118</ele>
        <time>2015-11-01T12:08:18.738Z</time>
      </trkpt>
      <trkpt lat="49.09665" lon="2.19604">
        <ele>118</ele>
        <time>2015-11-01T12:08:19.572Z</time>
      </trkpt>
      <trkpt lat="49.09658" lon="2.19611">
        <ele>120</ele>
        <time>2015-11-01T12:08:24.699Z</time>
      </trkpt>
      <trkpt lat="49.09657" lon="2.19613">
        <ele>119</ele>
        <time>2015-11-01T12:08:25.592Z</time>
      </trkpt>
      <trkpt lat="49.09652" lon="2.19623">
        <ele>119</ele>
        <time>2015-11-01T12:08:30.712Z</time>
      </trkpt>
      <trkpt lat="49.09651" lon="2.19625">
        <ele>119</ele>
        <time>2015-11-01T12:08:31.572Z</time>
      </trkpt>
      <trkpt lat="49.09647" lon="2.19635">
        <ele>114</ele>
        <time>2015-11-01T12:08:38.805Z</time>
      </trkpt>
      <trkpt lat="49.09646" lon="2.19636">
        <ele>115</ele>
        <time>2015-11-01T12:08:39.607Z</time>
      </trkpt>
      <trkpt lat="49.09639" lon="2.19643">
        <ele>114</ele>
        <time>2015-11-01T12:08:46.658Z</time>
      </trkpt>
      <trkpt lat="49.09638" lon="2.19644">
        <ele>112</ele>
        <time>2015-11-01T12:08:47.570Z</time>
      </trkpt>
      <trkpt lat="49.09631" lon="2.19652">
        <ele>115</ele>
        <time>2015-11-01T12:08:55.725Z</time>
      </trkpt>
      <trkpt lat="49.0963" lon="2.19654">
        <ele>114</ele>
        <time>2015-11-01T12:08:56.608Z</time>
      </trkpt>
      <trkpt lat="49.09623" lon="2.1966">
        <ele>118</ele>
        <time>2015-11-01T12:09:03.728Z</time>
      </trkpt>
      <trkpt lat="49.09622" lon="2.19661">
        <ele>119</ele>
        <time>2015-11-01T12:09:04.611Z</time>
      </trkpt>
      <trkpt lat="49.09616" lon="2.19669">
        <ele>117</ele>
        <time>2015-11-01T12:09:11.870Z</time>
      </trkpt>
      <trkpt lat="49.09615" lon="2.1967">
        <ele>117</ele>
        <time>2015-11-01T12:09:12.603Z</time>
      </trkpt>
      <trkpt lat="49.09608" lon="2.19678">
        <ele>113</ele>
        <time>2015-11-01T12:09:22.668Z</time>
      </trkpt>
      <trkpt lat="49.09607" lon="2.19679">
        <ele>113</ele>
        <time>2015-11-01T12:09:23.504Z</time>
      </trkpt>
      <trkpt lat="49.09602" lon="2.19687">
        <ele>115</ele>
        <time>2015-11-01T12:09:30.573Z</time>
      </trkpt>
      <trkpt lat="49.09601" lon="2.19689">
        <ele>115</ele>
        <time>2015-11-01T12:09:31.512Z</time>
      </trkpt>
      <trkpt lat="49.09595" lon="2.19699">
        <ele>112</ele>
        <time>2015-11-01T12:09:38.831Z</time>
      </trkpt>
      <trkpt lat="49.09594" lon="2.197">
        <ele>112</ele>
        <time>2015-11-01T12:09:39.568Z</time>
      </trkpt>
      <trkpt lat="49.09592" lon="2.19712">
        <ele>110</ele>
        <time>2015-11-01T12:09:47.826Z</time>
      </trkpt>
      <trkpt lat="49.09591" lon="2.19715">
        <ele>109</ele>
        <time>2015-11-01T12:09:48.648Z</time>
      </trkpt>
      <trkpt lat="49.09588" lon="2.19727">
        <ele>109</ele>
        <time>2015-11-01T12:10:22.854Z</time>
      </trkpt>
      <trkpt lat="49.09588" lon="2.19728">
        <ele>108</ele>
        <time>2015-11-01T12:10:23.580Z</time>
      </trkpt>
      <trkpt lat="49.09589" lon="2.19741">
        <ele>106</ele>
        <time>2015-11-01T12:10:34.740Z</time>
      </trkpt>
      <trkpt lat="49.09589" lon="2.19742">
        <ele>108</ele>
        <time>2015-11-01T12:10:35.592Z</time>
      </trkpt>
      <trkpt lat="49.09587" lon="2.19755">
        <ele>106</ele>
        <time>2015-11-01T12:10:46.761Z</time>
      </trkpt>
      <trkpt lat="49.09587" lon="2.19756">
        <ele>106</ele>
        <time>2015-11-01T12:10:47.596Z</time>
      </trkpt>
      <trkpt lat="49.09585" lon="2.19768">
        <ele>105</ele>
        <time>2015-11-01T12:10:58.213Z</time>
      </trkpt>
      <trkpt lat="49.09585" lon="2.19769">
        <ele>105</ele>
        <time>2015-11-01T12:10:58.515Z</time>
      </trkpt>
      <trkpt lat="49.09582" lon="2.19781">
        <ele>107</ele>
        <time>2015-11-01T12:11:05.932Z</time>
      </trkpt>
      <trkpt lat="49.09582" lon="2.19783">
        <ele>106</ele>
        <time>2015-11-01T12:11:06.548Z</time>
      </trkpt>
      <trkpt lat="49.0958" lon="2.19795">
        <ele>109</ele>
        <time>2015-11-01T12:11:12.767Z</time>
      </trkpt>
      <trkpt lat="49.09579" lon="2.19798">
        <ele>109</ele>
        <time>2015-11-01T12:11:13.572Z</time>
      </trkpt>
      <trkpt lat="49.09578" lon="2.1981">
        <ele>109</ele>
        <time>2015-11-01T12:11:19.725Z</time>
      </trkpt>
      <trkpt lat="49.09578" lon="2.19812">
        <ele>109</ele>
        <time>2015-11-01T12:11:20.568Z</time>
      </trkpt>
      <trkpt lat="49.09576" lon="2.19825">
        <ele>110</ele>
        <time>2015-11-01T12:11:27.686Z</time>
      </trkpt>
      <trkpt lat="49.09576" lon="2.19827">
        <ele>110</ele>
        <time>2015-11-01T12:11:28.564Z</time>
      </trkpt>
      <trkpt lat="49.09576" lon="2.19839">
        <ele>108</ele>
        <time>2015-11-01T12:11:35.679Z</time>
      </trkpt>
      <trkpt lat="49.09576" lon="2.1984">
        <ele>108</ele>
        <time>2015-11-01T12:11:36.596Z</time>
      </trkpt>
      <trkpt lat="49.09579" lon="2.19838">
        <ele>107</ele>
        <time>2015-11-01T12:11:56.594Z</time>
      </trkpt>
      <trkpt lat="49.0959" lon="2.19811">
        <ele>118</ele>
        <time>2015-11-01T13:03:52.559Z</time>
      </trkpt>
      <trkpt lat="49.0959" lon="2.19812">
        <ele>118</ele>
        <time>2015-11-01T13:03:59.455Z</time>
      </trkpt>
      <trkpt lat="49.09588" lon="2.19783">
        <ele>98</ele>
        <time>2015-11-01T13:04:00.289Z</time>
      </trkpt>
      <trkpt lat="49.09585" lon="2.19775">
        <ele>126</ele>
        <time>2015-11-01T13:04:02.664Z</time>
      </trkpt>
      <trkpt lat="49.09588" lon="2.19767">
        <ele>114</ele>
        <time>2015-11-01T13:04:03.291Z</time>
      </trkpt>
      <trkpt lat="49.09587" lon="2.1978">
        <ele>107</ele>
        <time>2015-11-01T13:04:07.627Z</time>
      </trkpt>
      <trkpt lat="49.09587" lon="2.19782">
        <ele>108</ele>
        <time>2015-11-01T13:04:08.521Z</time>
      </trkpt>
      <trkpt lat="49.09585" lon="2.19795">
        <ele>109</ele>
        <time>2015-11-01T13:04:16.678Z</time>
      </trkpt>
      <trkpt lat="49.09585" lon="2.19796">
        <ele>109</ele>
        <time>2015-11-01T13:04:17.607Z</time>
      </trkpt>
      <trkpt lat="49.09583" lon="2.19809">
        <ele>106</ele>
        <time>2015-11-01T13:04:27.683Z</time>
      </trkpt>
      <trkpt lat="49.09582" lon="2.1981">
        <ele>106</ele>
        <time>2015-11-01T13:04:28.538Z</time>
      </trkpt>
      <trkpt lat="49.0958" lon="2.19823">
        <ele>110</ele>
        <time>2015-11-01T13:04:36.652Z</time>
      </trkpt>
      <trkpt lat="49.09579" lon="2.19824">
        <ele>110</ele>
        <time>2015-11-01T13:04:37.591Z</time>
      </trkpt>
      <trkpt lat="49.09577" lon="2.19837">
        <ele>107</ele>
        <time>2015-11-01T13:04:46.657Z</time>
      </trkpt>
      <trkpt lat="49.09577" lon="2.19839">
        <ele>107</ele>
        <time>2015-11-01T13:04:47.573Z</time>
      </trkpt>
      <trkpt lat="49.09577" lon="2.19852">
        <ele>103</ele>
        <time>2015-11-01T13:04:55.625Z</time>
      </trkpt>
      <trkpt lat="49.09577" lon="2.19854">
        <ele>103</ele>
        <time>2015-11-01T13:04:56.536Z</time>
      </trkpt>
      <trkpt lat="49.09576" lon="2.19866">
        <ele>104</ele>
        <time>2015-11-01T13:05:02.625Z</time>
      </trkpt>
      <trkpt lat="49.09576" lon="2.19868">
        <ele>103</ele>
        <time>2015-11-01T13:05:03.577Z</time>
      </trkpt>
      <trkpt lat="49.09575" lon="2.19881">
        <ele>103</ele>
        <time>2015-11-01T13:05:10.844Z</time>
      </trkpt>
      <trkpt lat="49.09575" lon="2.19883">
        <ele>103</ele>
        <time>2015-11-01T13:05:11.522Z</time>
      </trkpt>
      <trkpt lat="49.09574" lon="2.19895">
        <ele>101</ele>
        <time>2015-11-01T13:05:21.608Z</time>
      </trkpt>
      <trkpt lat="49.09574" lon="2.19896">
        <ele>101</ele>
        <time>2015-11-01T13:05:22.652Z</time>
      </trkpt>
      <trkpt lat="49.09574" lon="2.19909">
        <ele>100</ele>
        <time>2015-11-01T13:05:31.671Z</time>
      </trkpt>
      <trkpt lat="49.09574" lon="2.19911">
        <ele>99</ele>
        <time>2015-11-01T13:05:32.549Z</time>
      </trkpt>
      <trkpt lat="49.09573" lon="2.19925">
        <ele>99</ele>
        <time>2015-11-01T13:05:40.639Z</time>
      </trkpt>
      <trkpt lat="49.09573" lon="2.19926">
        <ele>98</ele>
        <time>2015-11-01T13:05:41.562Z</time>
      </trkpt>
      <trkpt lat="49.09572" lon="2.19939">
        <ele>96</ele>
        <time>2015-11-01T13:05:49.727Z</time>
      </trkpt>
      <trkpt lat="49.09572" lon="2.1994">
        <ele>96</ele>
        <time>2015-11-01T13:05:50.638Z</time>
      </trkpt>
      <trkpt lat="49.0957" lon="2.19953">
        <ele>92</ele>
        <time>2015-11-01T13:06:03.720Z</time>
      </trkpt>
      <trkpt lat="49.0957" lon="2.19955">
        <ele>92</ele>
        <time>2015-11-01T13:06:04.659Z</time>
      </trkpt>
      <trkpt lat="49.09569" lon="2.19968">
        <ele>91</ele>
        <time>2015-11-01T13:06:11.778Z</time>
      </trkpt>
      <trkpt lat="49.09569" lon="2.1997">
        <ele>90</ele>
        <time>2015-11-01T13:06:12.562Z</time>
      </trkpt>
      <trkpt lat="49.09568" lon="2.19982">
        <ele>91</ele>
        <time>2015-11-01T13:06:20.789Z</time>
      </trkpt>
      <trkpt lat="49.09567" lon="2.19984">
        <ele>91</ele>
        <time>2015-11-01T13:06:21.596Z</time>
      </trkpt>
      <trkpt lat="49.09566" lon="2.19996">
        <ele>89</ele>
        <time>2015-11-01T13:06:29.753Z</time>
      </trkpt>
      <trkpt lat="49.09566" lon="2.19998">
        <ele>89</ele>
        <time>2015-11-01T13:06:30.753Z</time>
      </trkpt>
      <trkpt lat="49.09565" lon="2.2001">
        <ele>89</ele>
        <time>2015-11-01T13:06:37.699Z</time>
      </trkpt>
      <trkpt lat="49.09564" lon="2.20012">
        <ele>89</ele>
        <time>2015-11-01T13:06:38.609Z</time>
      </trkpt>
      <trkpt lat="49.09563" lon="2.20025">
        <ele>88</ele>
        <time>2015-11-01T13:06:46.905Z</time>
      </trkpt>
      <trkpt lat="49.09563" lon="2.20026">
        <ele>88</ele>
        <time>2015-11-01T13:06:47.581Z</time>
      </trkpt>
      <trkpt lat="49.09561" lon="2.20038">
        <ele>85</ele>
        <time>2015-11-01T13:06:55.759Z</time>
      </trkpt>
      <trkpt lat="49.09561" lon="2.2004">
        <ele>84</ele>
        <time>2015-11-01T13:06:56.577Z</time>
      </trkpt>
      <trkpt lat="49.0956" lon="2.20053">
        <ele>84</ele>
        <time>2015-11-01T13:07:04.734Z</time>
      </trkpt>
      <trkpt lat="49.0956" lon="2.20055">
        <ele>84</ele>
        <time>2015-11-01T13:07:05.571Z</time>
      </trkpt>
      <trkpt lat="49.0956" lon="2.20067">
        <ele>84</ele>
        <time>2015-11-01T13:07:12.643Z</time>
      </trkpt>
      <trkpt lat="49.0956" lon="2.20069">
        <ele>84</ele>
        <time>2015-11-01T13:07:13.685Z</time>
      </trkpt>
      <trkpt lat="49.09562" lon="2.20081">
        <ele>82</ele>
        <time>2015-11-01T13:07:20.812Z</time>
      </trkpt>
      <trkpt lat="49.09563" lon="2.20083">
        <ele>82</ele>
        <time>2015-11-01T13:07:21.586Z</time>
      </trkpt>
      <trkpt lat="49.09566" lon="2.20095">
        <ele>81</ele>
        <time>2015-11-01T13:07:28.699Z</time>
      </trkpt>
      <trkpt lat="49.09566" lon="2.20096">
        <ele>81</ele>
        <time>2015-11-01T13:07:29.572Z</time>
      </trkpt>
      <trkpt lat="49.0957" lon="2.20108">
        <ele>78</ele>
        <time>2015-11-01T13:07:38.802Z</time>
      </trkpt>
      <trkpt lat="49.09571" lon="2.20109">
        <ele>78</ele>
        <time>2015-11-01T13:07:39.612Z</time>
      </trkpt>
      <trkpt lat="49.09563" lon="2.20105">
        <ele>78</ele>
        <time>2015-11-01T13:08:57.694Z</time>
      </trkpt>
      <trkpt lat="49.09563" lon="2.20104">
        <ele>78</ele>
        <time>2015-11-01T13:08:58.570Z</time>
      </trkpt>
      <trkpt lat="49.09555" lon="2.20098">
        <ele>78</ele>
        <time>2015-11-01T13:09:07.682Z</time>
      </trkpt>
      <trkpt lat="49.09554" lon="2.20097">
        <ele>78</ele>
        <time>2015-11-01T13:09:08.604Z</time>
      </trkpt>
      <trkpt lat="49.09547" lon="2.20089">
        <ele>80</ele>
        <time>2015-11-01T13:09:16.700Z</time>
      </trkpt>
      <trkpt lat="49.09546" lon="2.20088">
        <ele>80</ele>
        <time>2015-11-01T13:09:17.517Z</time>
      </trkpt>
      <trkpt lat="49.09538" lon="2.20084">
        <ele>81</ele>
        <time>2015-11-01T13:09:25.631Z</time>
      </trkpt>
      <trkpt lat="49.09537" lon="2.20083">
        <ele>81</ele>
        <time>2015-11-01T13:09:26.577Z</time>
      </trkpt>
      <trkpt lat="49.0953" lon="2.20079">
        <ele>78</ele>
        <time>2015-11-01T13:09:32.679Z</time>
      </trkpt>
      <trkpt lat="49.09528" lon="2.20079">
        <ele>78</ele>
        <time>2015-11-01T13:09:33.597Z</time>
      </trkpt>
      <trkpt lat="49.09521" lon="2.20073">
        <ele>80</ele>
        <time>2015-11-01T13:09:40.722Z</time>
      </trkpt>
      <trkpt lat="49.0952" lon="2.20072">
        <ele>79</ele>
        <time>2015-11-01T13:09:41.619Z</time>
      </trkpt>
      <trkpt lat="49.09513" lon="2.20067">
        <ele>79</ele>
        <time>2015-11-01T13:09:48.741Z</time>
      </trkpt>
      <trkpt lat="49.09511" lon="2.20066">
        <ele>80</ele>
        <time>2015-11-01T13:09:49.603Z</time>
      </trkpt>
      <trkpt lat="49.09504" lon="2.2006">
        <ele>81</ele>
        <time>2015-11-01T13:09:55.662Z</time>
      </trkpt>
      <trkpt lat="49.09503" lon="2.20059">
        <ele>81</ele>
        <time>2015-11-01T13:09:56.555Z</time>
      </trkpt>
      <trkpt lat="49.09496" lon="2.20052">
        <ele>79</ele>
        <time>2015-11-01T13:10:03.639Z</time>
      </trkpt>
      <trkpt lat="49.09495" lon="2.20051">
        <ele>79</ele>
        <time>2015-11-01T13:10:04.514Z</time>
      </trkpt>
      <trkpt lat="49.09487" lon="2.20045">
        <ele>77</ele>
        <time>2015-11-01T13:10:11.631Z</time>
      </trkpt>
      <trkpt lat="49.09486" lon="2.20044">
        <ele>77</ele>
        <time>2015-11-01T13:10:12.526Z</time>
      </trkpt>
      <trkpt lat="49.09478" lon="2.20039">
        <ele>79</ele>
        <time>2015-11-01T13:10:19.757Z</time>
      </trkpt>
      <trkpt lat="49.09477" lon="2.20038">
        <ele>79</ele>
        <time>2015-11-01T13:10:20.523Z</time>
      </trkpt>
      <trkpt lat="49.09471" lon="2.20028">
        <ele>77</ele>
        <time>2015-11-01T13:10:50.665Z</time>
      </trkpt>
      <trkpt lat="49.0947" lon="2.20027">
        <ele>77</ele>
        <time>2015-11-01T13:10:51.593Z</time>
      </trkpt>
      <trkpt lat="49.09464" lon="2.20016">
        <ele>75</ele>
        <time>2015-11-01T13:10:58.772Z</time>
      </trkpt>
      <trkpt lat="49.09464" lon="2.20015">
        <ele>75</ele>
        <time>2015-11-01T13:10:59.594Z</time>
      </trkpt>
      <trkpt lat="49.09459" lon="2.20005">
        <ele>75</ele>
        <time>2015-11-01T13:11:06.770Z</time>
      </trkpt>
      <trkpt lat="49.09458" lon="2.20004">
        <ele>75</ele>
        <time>2015-11-01T13:11:07.587Z</time>
      </trkpt>
      <trkpt lat="49.09453" lon="2.19993">
        <ele>75</ele>
        <time>2015-11-01T13:11:14.838Z</time>
      </trkpt>
      <trkpt lat="49.09452" lon="2.19991">
        <ele>75</ele>
        <time>2015-11-01T13:11:15.638Z</time>
      </trkpt>
      <trkpt lat="49.09448" lon="2.1998">
        <ele>74</ele>
        <time>2015-11-01T13:11:21.734Z</time>
      </trkpt>
      <trkpt lat="49.09447" lon="2.19978">
        <ele>75</ele>
        <time>2015-11-01T13:11:22.523Z</time>
      </trkpt>
      <trkpt lat="49.09442" lon="2.19967">
        <ele>75</ele>
        <time>2015-11-01T13:11:29.816Z</time>
      </trkpt>
      <trkpt lat="49.09441" lon="2.19966">
        <ele>75</ele>
        <time>2015-11-01T13:11:30.622Z</time>
      </trkpt>
      <trkpt lat="49.09436" lon="2.19955">
        <ele>75</ele>
        <time>2015-11-01T13:11:39.623Z</time>
      </trkpt>
      <trkpt lat="49.09435" lon="2.19954">
        <ele>75</ele>
        <time>2015-11-01T13:11:40.532Z</time>
      </trkpt>
      <trkpt lat="49.09429" lon="2.19944">
        <ele>76</ele>
        <time>2015-11-01T13:11:47.708Z</time>
      </trkpt>
      <trkpt lat="49.09428" lon="2.19943">
        <ele>76</ele>
        <time>2015-11-01T13:11:48.514Z</time>
      </trkpt>
      <trkpt lat="49.09424" lon="2.19932">
        <ele>76</ele>
        <time>2015-11-01T13:11:55.751Z</time>
      </trkpt>
      <trkpt lat="49.09423" lon="2.19931">
        <ele>76</ele>
        <time>2015-11-01T13:11:56.586Z</time>
      </trkpt>
      <trkpt lat="49.09418" lon="2.19919">
        <ele>75</ele>
        <time>2015-11-01T13:12:04.767Z</time>
      </trkpt>
      <trkpt lat="49.09418" lon="2.19918">
        <ele>75</ele>
        <time>2015-11-01T13:12:05.612Z</time>
      </trkpt>
      <trkpt lat="49.09413" lon="2.19908">
        <ele>75</ele>
        <time>2015-11-01T13:12:12.757Z</time>
      </trkpt>
      <trkpt lat="49.09412" lon="2.19907">
        <ele>75</ele>
        <time>2015-11-01T13:12:13.590Z</time>
      </trkpt>
      <trkpt lat="49.09409" lon="2.19895">
        <ele>77</ele>
        <time>2015-11-01T13:12:20.714Z</time>
      </trkpt>
      <trkpt lat="49.09408" lon="2.19894">
        <ele>77</ele>
        <time>2015-11-01T13:12:21.636Z</time>
      </trkpt>
      <trkpt lat="49.09404" lon="2.19883">
        <ele>79</ele>
        <time>2015-11-01T13:12:29.809Z</time>
      </trkpt>
      <trkpt lat="49.09404" lon="2.19881">
        <ele>79</ele>
        <time>2015-11-01T13:12:30.595Z</time>
      </trkpt>
      <trkpt lat="49.094" lon="2.19869">
        <ele>78</ele>
        <time>2015-11-01T13:12:38.859Z</time>
      </trkpt>
      <trkpt lat="49.09399" lon="2.19868">
        <ele>78</ele>
        <time>2015-11-01T13:12:39.522Z</time>
      </trkpt>
      <trkpt lat="49.09395" lon="2.19856">
        <ele>77</ele>
        <time>2015-11-01T13:12:46.789Z</time>
      </trkpt>
      <trkpt lat="49.09395" lon="2.19854">
        <ele>77</ele>
        <time>2015-11-01T13:12:47.613Z</time>
      </trkpt>
      <trkpt lat="49.09393" lon="2.19842">
        <ele>76</ele>
        <time>2015-11-01T13:12:53.798Z</time>
      </trkpt>
      <trkpt lat="49.09393" lon="2.1984">
        <ele>76</ele>
        <time>2015-11-01T13:12:54.619Z</time>
      </trkpt>
      <trkpt lat="49.09391" lon="2.19827">
        <ele>79</ele>
        <time>2015-11-01T13:13:02.649Z</time>
      </trkpt>
      <trkpt lat="49.09391" lon="2.19825">
        <ele>79</ele>
        <time>2015-11-01T13:13:03.586Z</time>
      </trkpt>
      <trkpt lat="49.09385" lon="2.19818">
        <ele>77</ele>
        <time>2015-11-01T13:13:10.667Z</time>
      </trkpt>
      <trkpt lat="49.09383" lon="2.19817">
        <ele>77</ele>
        <time>2015-11-01T13:13:11.534Z</time>
      </trkpt>
      <trkpt lat="49.09374" lon="2.19817">
        <ele>72</ele>
        <time>2015-11-01T13:13:19.824Z</time>
      </trkpt>
      <trkpt lat="49.09373" lon="2.19818">
        <ele>71</ele>
        <time>2015-11-01T13:13:20.588Z</time>
      </trkpt>
      <trkpt lat="49.09371" lon="2.19831">
        <ele>69</ele>
        <time>2015-11-01T13:13:27.661Z</time>
      </trkpt>
      <trkpt lat="49.09371" lon="2.19833">
        <ele>68</ele>
        <time>2015-11-01T13:13:28.529Z</time>
      </trkpt>
      <trkpt lat="49.09367" lon="2.19846">
        <ele>68</ele>
        <time>2015-11-01T13:13:45.811Z</time>
      </trkpt>
      <trkpt lat="49.09367" lon="2.19846">
        <ele>68</ele>
        <time>2015-11-01T13:13:46.562Z</time>
      </trkpt>
      <trkpt lat="49.09361" lon="2.19856">
        <ele>68</ele>
        <time>2015-11-01T13:13:55.696Z</time>
      </trkpt>
      <trkpt lat="49.0936" lon="2.19858">
        <ele>68</ele>
        <time>2015-11-01T13:13:56.594Z</time>
      </trkpt>
      <trkpt lat="49.09356" lon="2.19869">
        <ele>68</ele>
        <time>2015-11-01T13:14:03.641Z</time>
      </trkpt>
      <trkpt lat="49.09355" lon="2.19871">
        <ele>67</ele>
        <time>2015-11-01T13:14:04.578Z</time>
      </trkpt>
      <trkpt lat="49.09352" lon="2.19882">
        <ele>68</ele>
        <time>2015-11-01T13:14:10.859Z</time>
      </trkpt>
      <trkpt lat="49.09351" lon="2.19884">
        <ele>68</ele>
        <time>2015-11-01T13:14:11.522Z</time>
      </trkpt>
      <trkpt lat="49.09347" lon="2.19895">
        <ele>68</ele>
        <time>2015-11-01T13:14:18.928Z</time>
      </trkpt>
      <trkpt lat="49.09346" lon="2.19897">
        <ele>68</ele>
        <time>2015-11-01T13:14:19.596Z</time>
      </trkpt>
      <trkpt lat="49.09341" lon="2.19906">
        <ele>70</ele>
        <time>2015-11-01T13:14:25.847Z</time>
      </trkpt>
      <trkpt lat="49.0934" lon="2.19908">
        <ele>71</ele>
        <time>2015-11-01T13:14:26.595Z</time>
      </trkpt>
      <trkpt lat="49.09336" lon="2.19919">
        <ele>72</ele>
        <time>2015-11-01T13:14:32.693Z</time>
      </trkpt>
      <trkpt lat="49.09336" lon="2.1992">
        <ele>71</ele>
        <time>2015-11-01T13:14:33.630Z</time>
      </trkpt>
      <trkpt lat="49.09332" lon="2.19932">
        <ele>71</ele>
        <time>2015-11-01T13:14:41.620Z</time>
      </trkpt>
      <trkpt lat="49.09332" lon="2.19934">
        <ele>71</ele>
        <time>2015-11-01T13:14:42.536Z</time>
      </trkpt>
      <trkpt lat="49.09327" lon="2.19944">
        <ele>74</ele>
        <time>2015-11-01T13:14:49.614Z</time>
      </trkpt>
      <trkpt lat="49.09327" lon="2.19946">
        <ele>73</ele>
        <time>2015-11-01T13:14:50.528Z</time>
      </trkpt>
      <trkpt lat="49.09322" lon="2.19956">
        <ele>73</ele>
        <time>2015-11-01T13:14:57.697Z</time>
      </trkpt>
      <trkpt lat="49.09322" lon="2.19957">
        <ele>73</ele>
        <time>2015-11-01T13:14:58.538Z</time>
      </trkpt>
      <trkpt lat="49.09318" lon="2.19968">
        <ele>74</ele>
        <time>2015-11-01T13:15:04.766Z</time>
      </trkpt>
      <trkpt lat="49.09318" lon="2.1997">
        <ele>74</ele>
        <time>2015-11-01T13:15:05.602Z</time>
      </trkpt>
      <trkpt lat="49.09313" lon="2.19981">
        <ele>76</ele>
        <time>2015-11-01T13:15:11.640Z</time>
      </trkpt>
      <trkpt lat="49.09312" lon="2.19983">
        <ele>76</ele>
        <time>2015-11-01T13:15:12.596Z</time>
      </trkpt>
      <trkpt lat="49.09307" lon="2.19993">
        <ele>78</ele>
        <time>2015-11-01T13:15:19.289Z</time>
      </trkpt>
      <trkpt lat="49.09306" lon="2.19994">
        <ele>79</ele>
        <time>2015-11-01T13:15:19.586Z</time>
      </trkpt>
      <trkpt lat="49.09301" lon="2.20006">
        <ele>82</ele>
        <time>2015-11-01T13:15:29.914Z</time>
      </trkpt>
      <trkpt lat="49.09301" lon="2.20008">
        <ele>82</ele>
        <time>2015-11-01T13:15:30.524Z</time>
      </trkpt>
      <trkpt lat="49.09297" lon="2.2002">
        <ele>83</ele>
        <time>2015-11-01T13:15:37.817Z</time>
      </trkpt>
      <trkpt lat="49.09297" lon="2.20022">
        <ele>82</ele>
        <time>2015-11-01T13:15:38.604Z</time>
      </trkpt>
      <trkpt lat="49.09293" lon="2.20032">
        <ele>82</ele>
        <time>2015-11-01T13:15:44.723Z</time>
      </trkpt>
      <trkpt lat="49.09292" lon="2.20034">
        <ele>82</ele>
        <time>2015-11-01T13:15:45.578Z</time>
      </trkpt>
      <trkpt lat="49.09288" lon="2.20046">
        <ele>80</ele>
        <time>2015-11-01T13:15:52.908Z</time>
      </trkpt>
      <trkpt lat="49.09288" lon="2.20048">
        <ele>81</ele>
        <time>2015-11-01T13:15:53.586Z</time>
      </trkpt>
      <trkpt lat="49.09284" lon="2.2006">
        <ele>82</ele>
        <time>2015-11-01T13:16:00.647Z</time>
      </trkpt>
      <trkpt lat="49.09283" lon="2.20062">
        <ele>81</ele>
        <time>2015-11-01T13:16:01.594Z</time>
      </trkpt>
      <trkpt lat="49.09279" lon="2.20073">
        <ele>82</ele>
        <time>2015-11-01T13:16:09.746Z</time>
      </trkpt>
      <trkpt lat="49.09278" lon="2.20075">
        <ele>83</ele>
        <time>2015-11-01T13:16:10.597Z</time>
      </trkpt>
      <trkpt lat="49.09274" lon="2.20085">
        <ele>86</ele>
        <time>2015-11-01T13:16:17.736Z</time>
      </trkpt>
      <trkpt lat="49.09274" lon="2.20087">
        <ele>86</ele>
        <time>2015-11-01T13:16:18.514Z</time>
      </trkpt>
      <trkpt lat="49.09269" lon="2.20097">
        <ele>85</ele>
        <time>2015-11-01T13:16:25.776Z</time>
      </trkpt>
      <trkpt lat="49.09268" lon="2.20099">
        <ele>85</ele>
        <time>2015-11-01T13:16:26.599Z</time>
      </trkpt>
      <trkpt lat="49.09264" lon="2.2011">
        <ele>85</ele>
        <time>2015-11-01T13:16:34.738Z</time>
      </trkpt>
      <trkpt lat="49.09263" lon="2.20112">
        <ele>84</ele>
        <time>2015-11-01T13:16:35.514Z</time>
      </trkpt>
      <trkpt lat="49.09261" lon="2.20124">
        <ele>83</ele>
        <time>2015-11-01T13:16:41.705Z</time>
      </trkpt>
      <trkpt lat="49.09261" lon="2.20126">
        <ele>83</ele>
        <time>2015-11-01T13:16:42.599Z</time>
      </trkpt>
      <trkpt lat="49.09257" lon="2.20137">
        <ele>86</ele>
        <time>2015-11-01T13:16:47.566Z</time>
      </trkpt>
      <trkpt lat="49.09257" lon="2.20139">
        <ele>86</ele>
        <time>2015-11-01T13:16:48.609Z</time>
      </trkpt>
      <trkpt lat="49.09254" lon="2.20152">
        <ele>84</ele>
        <time>2015-11-01T13:16:54.846Z</time>
      </trkpt>
      <trkpt lat="49.09253" lon="2.20153">
        <ele>84</ele>
        <time>2015-11-01T13:16:55.587Z</time>
      </trkpt>
      <trkpt lat="49.0925" lon="2.20165">
        <ele>82</ele>
        <time>2015-11-01T13:17:03.640Z</time>
      </trkpt>
      <trkpt lat="49.0925" lon="2.20166">
        <ele>83</ele>
        <time>2015-11-01T13:17:04.625Z</time>
      </trkpt>
      <trkpt lat="49.09248" lon="2.2018">
        <ele>80</ele>
        <time>2015-11-01T13:17:13.859Z</time>
      </trkpt>
      <trkpt lat="49.09247" lon="2.20181">
        <ele>80</ele>
        <time>2015-11-01T13:17:14.580Z</time>
      </trkpt>
      <trkpt lat="49.09246" lon="2.20193">
        <ele>77</ele>
        <time>2015-11-01T13:17:21.692Z</time>
      </trkpt>
      <trkpt lat="49.09246" lon="2.20195">
        <ele>76</ele>
        <time>2015-11-01T13:17:22.606Z</time>
      </trkpt>
      <trkpt lat="49.09246" lon="2.20207">
        <ele>72</ele>
        <time>2015-11-01T13:17:31.040Z</time>
      </trkpt>
      <trkpt lat="49.09246" lon="2.20209">
        <ele>72</ele>
        <time>2015-11-01T13:17:31.594Z</time>
      </trkpt>
      <trkpt lat="49.09244" lon="2.20222">
        <ele>74</ele>
        <time>2015-11-01T13:17:40.684Z</time>
      </trkpt>
      <trkpt lat="49.09244" lon="2.20224">
        <ele>74</ele>
        <time>2015-11-01T13:17:41.604Z</time>
      </trkpt>
      <trkpt lat="49.09241" lon="2.20236">
        <ele>73</ele>
        <time>2015-11-01T13:17:48.590Z</time>
      </trkpt>
      <trkpt lat="49.09241" lon="2.20237">
        <ele>72</ele>
        <time>2015-11-01T13:17:49.549Z</time>
      </trkpt>
      <trkpt lat="49.09236" lon="2.20249">
        <ele>72</ele>
        <time>2015-11-01T13:17:58.628Z</time>
      </trkpt>
      <trkpt lat="49.09235" lon="2.2025">
        <ele>72</ele>
        <time>2015-11-01T13:17:59.579Z</time>
      </trkpt>
      <trkpt lat="49.09229" lon="2.20258">
        <ele>72</ele>
        <time>2015-11-01T13:18:05.656Z</time>
      </trkpt>
      <trkpt lat="49.09228" lon="2.20259">
        <ele>72</ele>
        <time>2015-11-01T13:18:06.603Z</time>
      </trkpt>
      <trkpt lat="49.09221" lon="2.20265">
        <ele>71</ele>
        <time>2015-11-01T13:18:13.836Z</time>
      </trkpt>
      <trkpt lat="49.09219" lon="2.20267">
        <ele>71</ele>
        <time>2015-11-01T13:18:14.604Z</time>
      </trkpt>
      <trkpt lat="49.09213" lon="2.20275">
        <ele>70</ele>
        <time>2015-11-01T13:18:21.835Z</time>
      </trkpt>
      <trkpt lat="49.09212" lon="2.20276">
        <ele>70</ele>
        <time>2015-11-01T13:18:22.619Z</time>
      </trkpt>
      <trkpt lat="49.09206" lon="2.20284">
        <ele>71</ele>
        <time>2015-11-01T13:18:28.823Z</time>
      </trkpt>
      <trkpt lat="49.09205" lon="2.20285">
        <ele>71</ele>
        <time>2015-11-01T13:18:29.662Z</time>
      </trkpt>
      <trkpt lat="49.09198" lon="2.20293">
        <ele>69</ele>
        <time>2015-11-01T13:18:36.740Z</time>
      </trkpt>
      <trkpt lat="49.09197" lon="2.20294">
        <ele>69</ele>
        <time>2015-11-01T13:18:37.555Z</time>
      </trkpt>
      <trkpt lat="49.09197" lon="2.20307">
        <ele>70</ele>
        <time>2015-11-01T13:19:32.731Z</time>
      </trkpt>
      <trkpt lat="49.09198" lon="2.20308">
        <ele>70</ele>
        <time>2015-11-01T13:19:33.587Z</time>
      </trkpt>
      <trkpt lat="49.09196" lon="2.20321">
        <ele>71</ele>
        <time>2015-11-01T13:19:41.805Z</time>
      </trkpt>
      <trkpt lat="49.09196" lon="2.20323">
        <ele>71</ele>
        <time>2015-11-01T13:19:42.663Z</time>
      </trkpt>
      <trkpt lat="49.09194" lon="2.20335">
        <ele>71</ele>
        <time>2015-11-01T13:19:49.702Z</time>
      </trkpt>
      <trkpt lat="49.09194" lon="2.20336">
        <ele>70</ele>
        <time>2015-11-01T13:19:50.737Z</time>
      </trkpt>
      <trkpt lat="49.09192" lon="2.20349">
        <ele>71</ele>
        <time>2015-11-01T13:19:59.743Z</time>
      </trkpt>
      <trkpt lat="49.09191" lon="2.20351">
        <ele>71</ele>
        <time>2015-11-01T13:20:00.587Z</time>
      </trkpt>
      <trkpt lat="49.09187" lon="2.20361">
        <ele>70</ele>
        <time>2015-11-01T13:20:06.755Z</time>
      </trkpt>
      <trkpt lat="49.09187" lon="2.20363">
        <ele>70</ele>
        <time>2015-11-01T13:20:07.625Z</time>
      </trkpt>
      <trkpt lat="49.09184" lon="2.20375">
        <ele>69</ele>
        <time>2015-11-01T13:20:13.821Z</time>
      </trkpt>
      <trkpt lat="49.09184" lon="2.20377">
        <ele>70</ele>
        <time>2015-11-01T13:20:14.555Z</time>
      </trkpt>
      <trkpt lat="49.09181" lon="2.20388">
        <ele>71</ele>
        <time>2015-11-01T13:20:20.816Z</time>
      </trkpt>
      <trkpt lat="49.0918" lon="2.2039">
        <ele>71</ele>
        <time>2015-11-01T13:20:21.613Z</time>
      </trkpt>
      <trkpt lat="49.09177" lon="2.20402">
        <ele>70</ele>
        <time>2015-11-01T13:20:27.927Z</time>
      </trkpt>
      <trkpt lat="49.09176" lon="2.20404">
        <ele>70</ele>
        <time>2015-11-01T13:20:28.731Z</time>
      </trkpt>
      <trkpt lat="49.09175" lon="2.20416">
        <ele>68</ele>
        <time>2015-11-01T13:20:37.861Z</time>
      </trkpt>
      <trkpt lat="49.09175" lon="2.20418">
        <ele>69</ele>
        <time>2015-11-01T13:20:38.835Z</time>
      </trkpt>
      <trkpt lat="49.09174" lon="2.2043">
        <ele>68</ele>
        <time>2015-11-01T13:21:04.719Z</time>
      </trkpt>
      <trkpt lat="49.09174" lon="2.20432">
        <ele>69</ele>
        <time>2015-11-01T13:21:05.603Z</time>
      </trkpt>
      <trkpt lat="49.09171" lon="2.20444">
        <ele>69</ele>
        <time>2015-11-01T13:21:13.796Z</time>
      </trkpt>
      <trkpt lat="49.09171" lon="2.20446">
        <ele>69</ele>
        <time>2015-11-01T13:21:14.597Z</time>
      </trkpt>
      <trkpt lat="49.0917" lon="2.20459">
        <ele>69</ele>
        <time>2015-11-01T13:21:21.736Z</time>
      </trkpt>
      <trkpt lat="49.0917" lon="2.20461">
        <ele>69</ele>
        <time>2015-11-01T13:21:22.621Z</time>
      </trkpt>
      <trkpt lat="49.09168" lon="2.20473">
        <ele>70</ele>
        <time>2015-11-01T13:21:28.799Z</time>
      </trkpt>
      <trkpt lat="49.09168" lon="2.20474">
        <ele>70</ele>
        <time>2015-11-01T13:21:29.649Z</time>
      </trkpt>
      <trkpt lat="49.09167" lon="2.20488">
        <ele>67</ele>
        <time>2015-11-01T13:21:36.620Z</time>
      </trkpt>
      <trkpt lat="49.09167" lon="2.2049">
        <ele>67</ele>
        <time>2015-11-01T13:21:37.608Z</time>
      </trkpt>
      <trkpt lat="49.09165" lon="2.20503">
        <ele>68</ele>
        <time>2015-11-01T13:21:44.651Z</time>
      </trkpt>
      <trkpt lat="49.09165" lon="2.20505">
        <ele>69</ele>
        <time>2015-11-01T13:21:45.535Z</time>
      </trkpt>
      <trkpt lat="49.09164" lon="2.20517">
        <ele>68</ele>
        <time>2015-11-01T13:21:52.858Z</time>
      </trkpt>
      <trkpt lat="49.09163" lon="2.20519">
        <ele>68</ele>
        <time>2015-11-01T13:21:53.626Z</time>
      </trkpt>
      <trkpt lat="49.09162" lon="2.20533">
        <ele>68</ele>
        <time>2015-11-01T13:22:00.721Z</time>
      </trkpt>
      <trkpt lat="49.09161" lon="2.20534">
        <ele>69</ele>
        <time>2015-11-01T13:22:01.578Z</time>
      </trkpt>
      <trkpt lat="49.09158" lon="2.20546">
        <ele>69</ele>
        <time>2015-11-01T13:22:08.663Z</time>
      </trkpt>
      <trkpt lat="49.09158" lon="2.20547">
        <ele>69</ele>
        <time>2015-11-01T13:22:09.604Z</time>
      </trkpt>
      <trkpt lat="49.09156" lon="2.2056">
        <ele>69</ele>
        <time>2015-11-01T13:22:17.825Z</time>
      </trkpt>
      <trkpt lat="49.09155" lon="2.20562">
        <ele>69</ele>
        <time>2015-11-01T13:22:18.523Z</time>
      </trkpt>
      <trkpt lat="49.09153" lon="2.20573">
        <ele>68</ele>
        <time>2015-11-01T13:22:25.746Z</time>
      </trkpt>
      <trkpt lat="49.09152" lon="2.20575">
        <ele>67</ele>
        <time>2015-11-01T13:22:26.541Z</time>
      </trkpt>
      <trkpt lat="49.0915" lon="2.20587">
        <ele>68</ele>
        <time>2015-11-01T13:22:33.743Z</time>
      </trkpt>
      <trkpt lat="49.0915" lon="2.20589">
        <ele>67</ele>
        <time>2015-11-01T13:22:34.603Z</time>
      </trkpt>
      <trkpt lat="49.09147" lon="2.20601">
        <ele>65</ele>
        <time>2015-11-01T13:22:42.827Z</time>
      </trkpt>
      <trkpt lat="49.09147" lon="2.20603">
        <ele>65</ele>
        <time>2015-11-01T13:22:43.669Z</time>
      </trkpt>
      <trkpt lat="49.09146" lon="2.20616">
        <ele>67</ele>
        <time>2015-11-01T13:22:52.212Z</time>
      </trkpt>
      <trkpt lat="49.09145" lon="2.20618">
        <ele>67</ele>
        <time>2015-11-01T13:22:52.603Z</time>
      </trkpt>
      <trkpt lat="49.09143" lon="2.20631">
        <ele>67</ele>
        <time>2015-11-01T13:22:59.680Z</time>
      </trkpt>
      <trkpt lat="49.09142" lon="2.20633">
        <ele>67</ele>
        <time>2015-11-01T13:23:00.572Z</time>
      </trkpt>
      <trkpt lat="49.0914" lon="2.20646">
        <ele>67</ele>
        <time>2015-11-01T13:23:08.081Z</time>
      </trkpt>
      <trkpt lat="49.0914" lon="2.20647">
        <ele>67</ele>
        <time>2015-11-01T13:23:08.614Z</time>
      </trkpt>
      <trkpt lat="49.09136" lon="2.2066">
        <ele>68</ele>
        <time>2015-11-01T13:23:14.706Z</time>
      </trkpt>
      <trkpt lat="49.09135" lon="2.20662">
        <ele>68</ele>
        <time>2015-11-01T13:23:15.666Z</time>
      </trkpt>
      <trkpt lat="49.09132" lon="2.20674">
        <ele>70</ele>
        <time>2015-11-01T13:23:21.901Z</time>
      </trkpt>
      <trkpt lat="49.09131" lon="2.20676">
        <ele>71</ele>
        <time>2015-11-01T13:23:22.586Z</time>
      </trkpt>
      <trkpt lat="49.09129" lon="2.20688">
        <ele>71</ele>
        <time>2015-11-01T13:23:30.847Z</time>
      </trkpt>
      <trkpt lat="49.09129" lon="2.2069">
        <ele>72</ele>
        <time>2015-11-01T13:23:31.754Z</time>
      </trkpt>
      <trkpt lat="49.09127" lon="2.20702">
        <ele>70</ele>
        <time>2015-11-01T13:23:38.842Z</time>
      </trkpt>
      <trkpt lat="49.09127" lon="2.20703">
        <ele>70</ele>
        <time>2015-11-01T13:23:39.619Z</time>
      </trkpt>
      <trkpt lat="49.09126" lon="2.20716">
        <ele>70</ele>
        <time>2015-11-01T13:23:47.752Z</time>
      </trkpt>
      <trkpt lat="49.09125" lon="2.20717">
        <ele>70</ele>
        <time>2015-11-01T13:23:48.541Z</time>
      </trkpt>
      <trkpt lat="49.09121" lon="2.20729">
        <ele>68</ele>
        <time>2015-11-01T13:23:55.760Z</time>
      </trkpt>
      <trkpt lat="49.0912" lon="2.2073">
        <ele>68</ele>
        <time>2015-11-01T13:23:56.624Z</time>
      </trkpt>
      <trkpt lat="49.09118" lon="2.20743">
        <ele>70</ele>
        <time>2015-11-01T13:24:03.589Z</time>
      </trkpt>
      <trkpt lat="49.09117" lon="2.20745">
        <ele>71</ele>
        <time>2015-11-01T13:24:04.535Z</time>
      </trkpt>
      <trkpt lat="49.09116" lon="2.20758">
        <ele>68</ele>
        <time>2015-11-01T13:24:12.772Z</time>
      </trkpt>
      <trkpt lat="49.09116" lon="2.2076">
        <ele>67</ele>
        <time>2015-11-01T13:24:13.631Z</time>
      </trkpt>
      <trkpt lat="49.09111" lon="2.20769">
        <ele>70</ele>
        <time>2015-11-01T13:24:20.774Z</time>
      </trkpt>
      <trkpt lat="49.0911" lon="2.2077">
        <ele>68</ele>
        <time>2015-11-01T13:24:21.596Z</time>
      </trkpt>
      <trkpt lat="49.09102" lon="2.20764">
        <ele>68</ele>
        <time>2015-11-01T13:24:38.850Z</time>
      </trkpt>
      <trkpt lat="49.09101" lon="2.20764">
        <ele>68</ele>
        <time>2015-11-01T13:24:39.647Z</time>
      </trkpt>
      <trkpt lat="49.09093" lon="2.2076">
        <ele>68</ele>
        <time>2015-11-01T13:24:51.816Z</time>
      </trkpt>
      <trkpt lat="49.09092" lon="2.20759">
        <ele>68</ele>
        <time>2015-11-01T13:24:52.628Z</time>
      </trkpt>
      <trkpt lat="49.09085" lon="2.20753">
        <ele>67</ele>
        <time>2015-11-01T13:25:02.686Z</time>
      </trkpt>
      <trkpt lat="49.09084" lon="2.20753">
        <ele>67</ele>
        <time>2015-11-01T13:25:03.595Z</time>
      </trkpt>
      <trkpt lat="49.09077" lon="2.20749">
        <ele>66</ele>
        <time>2015-11-01T13:25:14.846Z</time>
      </trkpt>
      <trkpt lat="49.09076" lon="2.20749">
        <ele>66</ele>
        <time>2015-11-01T13:25:15.661Z</time>
      </trkpt>
      <trkpt lat="49.09068" lon="2.20742">
        <ele>68</ele>
        <time>2015-11-01T13:25:21.667Z</time>
      </trkpt>
      <trkpt lat="49.09067" lon="2.20741">
        <ele>67</ele>
        <time>2015-11-01T13:25:22.652Z</time>
      </trkpt>
      <trkpt lat="49.09059" lon="2.20735">
        <ele>68</ele>
        <time>2015-11-01T13:25:29.646Z</time>
      </trkpt>
      <trkpt lat="49.09059" lon="2.20734">
        <ele>67</ele>
        <time>2015-11-01T13:25:30.559Z</time>
      </trkpt>
      <trkpt lat="49.09051" lon="2.20728">
        <ele>68</ele>
        <time>2015-11-01T13:25:37.749Z</time>
      </trkpt>
      <trkpt lat="49.09049" lon="2.20728">
        <ele>68</ele>
        <time>2015-11-01T13:25:38.551Z</time>
      </trkpt>
      <trkpt lat="49.09042" lon="2.20724">
        <ele>67</ele>
        <time>2015-11-01T13:25:44.672Z</time>
      </trkpt>
      <trkpt lat="49.09041" lon="2.20724">
        <ele>67</ele>
        <time>2015-11-01T13:25:45.637Z</time>
      </trkpt>
      <trkpt lat="49.09032" lon="2.2072">
        <ele>67</ele>
        <time>2015-11-01T13:25:53.836Z</time>
      </trkpt>
      <trkpt lat="49.09031" lon="2.2072">
        <ele>67</ele>
        <time>2015-11-01T13:25:54.653Z</time>
      </trkpt>
      <trkpt lat="49.09023" lon="2.20716">
        <ele>67</ele>
        <time>2015-11-01T13:26:02.698Z</time>
      </trkpt>
      <trkpt lat="49.09022" lon="2.20716">
        <ele>66</ele>
        <time>2015-11-01T13:26:03.614Z</time>
      </trkpt>
      <trkpt lat="49.09013" lon="2.20714">
        <ele>68</ele>
        <time>2015-11-01T13:26:10.861Z</time>
      </trkpt>
      <trkpt lat="49.09011" lon="2.20713">
        <ele>68</ele>
        <time>2015-11-01T13:26:11.625Z</time>
      </trkpt>
      <trkpt lat="49.09004" lon="2.20711">
        <ele>69</ele>
        <time>2015-11-01T13:26:18.089Z</time>
      </trkpt>
      <trkpt lat="49.09003" lon="2.2071">
        <ele>69</ele>
        <time>2015-11-01T13:26:18.621Z</time>
      </trkpt>
      <trkpt lat="49.08995" lon="2.20705">
        <ele>72</ele>
        <time>2015-11-01T13:26:25.844Z</time>
      </trkpt>
      <trkpt lat="49.08994" lon="2.20704">
        <ele>74</ele>
        <time>2015-11-01T13:26:26.637Z</time>
      </trkpt>
      <trkpt lat="49.08987" lon="2.20703">
        <ele>75</ele>
        <time>2015-11-01T13:26:32.742Z</time>
      </trkpt>
      <trkpt lat="49.08985" lon="2.20703">
        <ele>75</ele>
        <time>2015-11-01T13:26:33.641Z</time>
      </trkpt>
      <trkpt lat="49.08977" lon="2.20699">
        <ele>73</ele>
        <time>2015-11-01T13:26:41.882Z</time>
      </trkpt>
      <trkpt lat="49.08975" lon="2.20698">
        <ele>73</ele>
        <time>2015-11-01T13:26:42.586Z</time>
      </trkpt>
      <trkpt lat="49.08967" lon="2.20697">
        <ele>73</ele>
        <time>2015-11-01T13:26:49.716Z</time>
      </trkpt>
      <trkpt lat="49.08966" lon="2.20696">
        <ele>72</ele>
        <time>2015-11-01T13:26:50.572Z</time>
      </trkpt>
      <trkpt lat="49.08958" lon="2.20694">
        <ele>72</ele>
        <time>2015-11-01T13:26:58.766Z</time>
      </trkpt>
      <trkpt lat="49.08957" lon="2.20693">
        <ele>73</ele>
        <time>2015-11-01T13:26:59.532Z</time>
      </trkpt>
      <trkpt lat="49.08949" lon="2.20687">
        <ele>75</ele>
        <time>2015-11-01T13:27:07.737Z</time>
      </trkpt>
      <trkpt lat="49.08948" lon="2.20687">
        <ele>75</ele>
        <time>2015-11-01T13:27:08.581Z</time>
      </trkpt>
      <trkpt lat="49.0894" lon="2.20684">
        <ele>72</ele>
        <time>2015-11-01T13:27:15.882Z</time>
      </trkpt>
      <trkpt lat="49.08939" lon="2.20684">
        <ele>72</ele>
        <time>2015-11-01T13:27:16.603Z</time>
      </trkpt>
      <trkpt lat="49.08931" lon="2.20683">
        <ele>72</ele>
        <time>2015-11-01T13:27:26.992Z</time>
      </trkpt>
      <trkpt lat="49.08929" lon="2.20683">
        <ele>71</ele>
        <time>2015-11-01T13:27:27.603Z</time>
      </trkpt>
      <trkpt lat="49.08921" lon="2.20677">
        <ele>71</ele>
        <time>2015-11-01T13:27:34.853Z</time>
      </trkpt>
      <trkpt lat="49.0892" lon="2.20677">
        <ele>70</ele>
        <time>2015-11-01T13:27:35.774Z</time>
      </trkpt>
      <trkpt lat="49.08912" lon="2.20673">
        <ele>68</ele>
        <time>2015-11-01T13:27:42.827Z</time>
      </trkpt>
      <trkpt lat="49.08911" lon="2.20672">
        <ele>68</ele>
        <time>2015-11-01T13:27:43.571Z</time>
      </trkpt>
      <trkpt lat="49.08902" lon="2.20668">
        <ele>68</ele>
        <time>2015-11-01T13:27:52.700Z</time>
      </trkpt>
      <trkpt lat="49.08901" lon="2.20667">
        <ele>68</ele>
        <time>2015-11-01T13:27:53.624Z</time>
      </trkpt>
      <trkpt lat="49.08894" lon="2.20665">
        <ele>67</ele>
        <time>2015-11-01T13:27:59.779Z</time>
      </trkpt>
      <trkpt lat="49.08892" lon="2.20664">
        <ele>67</ele>
        <time>2015-11-01T13:28:00.571Z</time>
      </trkpt>
      <trkpt lat="49.08884" lon="2.20661">
        <ele>66</ele>
        <time>2015-11-01T13:28:07.750Z</time>
      </trkpt>
      <trkpt lat="49.08883" lon="2.2066">
        <ele>66</ele>
        <time>2015-11-01T13:28:08.626Z</time>
      </trkpt>
      <trkpt lat="49.08875" lon="2.20659">
        <ele>65</ele>
        <time>2015-11-01T13:28:14.798Z</time>
      </trkpt>
      <trkpt lat="49.08874" lon="2.20658">
        <ele>65</ele>
        <time>2015-11-01T13:28:15.648Z</time>
      </trkpt>
      <trkpt lat="49.08866" lon="2.20655">
        <ele>66</ele>
        <time>2015-11-01T13:28:21.868Z</time>
      </trkpt>
      <trkpt lat="49.08864" lon="2.20655">
        <ele>66</ele>
        <time>2015-11-01T13:28:22.612Z</time>
      </trkpt>
      <trkpt lat="49.08857" lon="2.20652">
        <ele>67</ele>
        <time>2015-11-01T13:28:27.943Z</time>
      </trkpt>
      <trkpt lat="49.08855" lon="2.20651">
        <ele>67</ele>
        <time>2015-11-01T13:28:28.612Z</time>
      </trkpt>
      <trkpt lat="49.08848" lon="2.20648">
        <ele>67</ele>
        <time>2015-11-01T13:28:33.843Z</time>
      </trkpt>
      <trkpt lat="49.08847" lon="2.20647">
        <ele>68</ele>
        <time>2015-11-01T13:28:34.613Z</time>
      </trkpt>
      <trkpt lat="49.08838" lon="2.20641">
        <ele>66</ele>
        <time>2015-11-01T13:28:42.823Z</time>
      </trkpt>
      <trkpt lat="49.08838" lon="2.20641">
        <ele>66</ele>
        <time>2015-11-01T13:28:43.651Z</time>
      </trkpt>
      <trkpt lat="49.0883" lon="2.20636">
        <ele>67</ele>
        <time>2015-11-01T13:28:54.763Z</time>
      </trkpt>
      <trkpt lat="49.08829" lon="2.20635">
        <ele>66</ele>
        <time>2015-11-01T13:28:55.672Z</time>
      </trkpt>
      <trkpt lat="49.08821" lon="2.20631">
        <ele>67</ele>
        <time>2015-11-01T13:29:05.743Z</time>
      </trkpt>
      <trkpt lat="49.08821" lon="2.2063">
        <ele>66</ele>
        <time>2015-11-01T13:29:06.595Z</time>
      </trkpt>
      <trkpt lat="49.08813" lon="2.20628">
        <ele>63</ele>
        <time>2015-11-01T13:29:14.782Z</time>
      </trkpt>
      <trkpt lat="49.08811" lon="2.20627">
        <ele>63</ele>
        <time>2015-11-01T13:29:15.622Z</time>
      </trkpt>
      <trkpt lat="49.08804" lon="2.20622">
        <ele>65</ele>
        <time>2015-11-01T13:29:20.873Z</time>
      </trkpt>
      <trkpt lat="49.08802" lon="2.20621">
        <ele>66</ele>
        <time>2015-11-01T13:29:21.603Z</time>
      </trkpt>
      <trkpt lat="49.08794" lon="2.20615">
        <ele>65</ele>
        <time>2015-11-01T13:29:27.865Z</time>
      </trkpt>
      <trkpt lat="49.08793" lon="2.20614">
        <ele>65</ele>
        <time>2015-11-01T13:29:28.654Z</time>
      </trkpt>
      <trkpt lat="49.08785" lon="2.2061">
        <ele>69</ele>
        <time>2015-11-01T13:29:37.846Z</time>
      </trkpt>
      <trkpt lat="49.08783" lon="2.2061">
        <ele>68</ele>
        <time>2015-11-01T13:29:38.636Z</time>
      </trkpt>
      <trkpt lat="49.08776" lon="2.20606">
        <ele>69</ele>
        <time>2015-11-01T13:29:45.872Z</time>
      </trkpt>
      <trkpt lat="49.08774" lon="2.20605">
        <ele>70</ele>
        <time>2015-11-01T13:29:46.656Z</time>
      </trkpt>
      <trkpt lat="49.08766" lon="2.20604">
        <ele>68</ele>
        <time>2015-11-01T13:29:53.782Z</time>
      </trkpt>
      <trkpt lat="49.08765" lon="2.20603">
        <ele>68</ele>
        <time>2015-11-01T13:29:54.646Z</time>
      </trkpt>
      <trkpt lat="49.08757" lon="2.20601">
        <ele>67</ele>
        <time>2015-11-01T13:30:00.679Z</time>
      </trkpt>
      <trkpt lat="49.08756" lon="2.206">
        <ele>68</ele>
        <time>2015-11-01T13:30:01.531Z</time>
      </trkpt>
      <trkpt lat="49.08747" lon="2.20598">
        <ele>72</ele>
        <time>2015-11-01T13:30:08.694Z</time>
      </trkpt>
      <trkpt lat="49.08746" lon="2.20598">
        <ele>73</ele>
        <time>2015-11-01T13:30:09.591Z</time>
      </trkpt>
      <trkpt lat="49.08738" lon="2.20596">
        <ele>68</ele>
        <time>2015-11-01T13:30:17.814Z</time>
      </trkpt>
      <trkpt lat="49.08736" lon="2.20596">
        <ele>69</ele>
        <time>2015-11-01T13:30:18.676Z</time>
      </trkpt>
      <trkpt lat="49.08728" lon="2.20593">
        <ele>67</ele>
        <time>2015-11-01T13:30:24.972Z</time>
      </trkpt>
      <trkpt lat="49.08726" lon="2.20592">
        <ele>66</ele>
        <time>2015-11-01T13:30:25.539Z</time>
      </trkpt>
      <trkpt lat="49.08718" lon="2.20587">
        <ele>69</ele>
        <time>2015-11-01T13:30:32.749Z</time>
      </trkpt>
      <trkpt lat="49.08717" lon="2.20586">
        <ele>69</ele>
        <time>2015-11-01T13:30:33.606Z</time>
      </trkpt>
      <trkpt lat="49.08709" lon="2.20582">
        <ele>69</ele>
        <time>2015-11-01T13:30:41.854Z</time>
      </trkpt>
      <trkpt lat="49.08708" lon="2.20582">
        <ele>69</ele>
        <time>2015-11-01T13:30:42.663Z</time>
      </trkpt>
      <trkpt lat="49.08699" lon="2.20579">
        <ele>67</ele>
        <time>2015-11-01T13:30:57.786Z</time>
      </trkpt>
      <trkpt lat="49.08698" lon="2.20579">
        <ele>67</ele>
        <time>2015-11-01T13:30:58.581Z</time>
      </trkpt>
      <trkpt lat="49.08691" lon="2.20574">
        <ele>66</ele>
        <time>2015-11-01T13:31:04.620Z</time>
      </trkpt>
      <trkpt lat="49.0869" lon="2.20573">
        <ele>66</ele>
        <time>2015-11-01T13:31:05.605Z</time>
      </trkpt>
      <trkpt lat="49.08682" lon="2.20569">
        <ele>66</ele>
        <time>2015-11-01T13:31:12.755Z</time>
      </trkpt>
      <trkpt lat="49.08681" lon="2.20568">
        <ele>66</ele>
        <time>2015-11-01T13:31:13.615Z</time>
      </trkpt>
      <trkpt lat="49.08673" lon="2.20566">
        <ele>65</ele>
        <time>2015-11-01T13:31:37.793Z</time>
      </trkpt>
      <trkpt lat="49.08672" lon="2.20565">
        <ele>66</ele>
        <time>2015-11-01T13:31:38.596Z</time>
      </trkpt>
      <trkpt lat="49.08664" lon="2.20557">
        <ele>63</ele>
        <time>2015-11-01T13:32:16.791Z</time>
      </trkpt>
      <trkpt lat="49.08663" lon="2.20557">
        <ele>62</ele>
        <time>2015-11-01T13:32:17.603Z</time>
      </trkpt>
      <trkpt lat="49.08657" lon="2.2055">
        <ele>61</ele>
        <time>2015-11-01T13:32:22.764Z</time>
      </trkpt>
      <trkpt lat="49.08655" lon="2.20548">
        <ele>62</ele>
        <time>2015-11-01T13:32:23.603Z</time>
      </trkpt>
      <trkpt lat="49.08647" lon="2.20542">
        <ele>62</ele>
        <time>2015-11-01T13:32:28.707Z</time>
      </trkpt>
      <trkpt lat="49.08646" lon="2.20541">
        <ele>62</ele>
        <time>2015-11-01T13:32:29.644Z</time>
      </trkpt>
      <trkpt lat="49.08638" lon="2.20537">
        <ele>64</ele>
        <time>2015-11-01T13:32:34.837Z</time>
      </trkpt>
      <trkpt lat="49.08636" lon="2.20536">
        <ele>64</ele>
        <time>2015-11-01T13:32:35.624Z</time>
      </trkpt>
      <trkpt lat="49.08629" lon="2.20532">
        <ele>65</ele>
        <time>2015-11-01T13:32:41.757Z</time>
      </trkpt>
      <trkpt lat="49.08628" lon="2.20532">
        <ele>64</ele>
        <time>2015-11-01T13:32:42.638Z</time>
      </trkpt>
      <trkpt lat="49.0862" lon="2.20525">
        <ele>62</ele>
        <time>2015-11-01T13:32:56.846Z</time>
      </trkpt>
      <trkpt lat="49.08619" lon="2.20524">
        <ele>62</ele>
        <time>2015-11-01T13:32:57.624Z</time>
      </trkpt>
      <trkpt lat="49.08611" lon="2.20522">
        <ele>65</ele>
        <time>2015-11-01T13:33:02.821Z</time>
      </trkpt>
      <trkpt lat="49.0861" lon="2.20521">
        <ele>66</ele>
        <time>2015-11-01T13:33:03.598Z</time>
      </trkpt>
      <trkpt lat="49.08602" lon="2.20514">
        <ele>66</ele>
        <time>2015-11-01T13:33:10.760Z</time>
      </trkpt>
      <trkpt lat="49.08601" lon="2.20513">
        <ele>67</ele>
        <time>2015-11-01T13:33:11.572Z</time>
      </trkpt>
      <trkpt lat="49.08594" lon="2.20506">
        <ele>66</ele>
        <time>2015-11-01T13:33:17.696Z</time>
      </trkpt>
      <trkpt lat="49.08593" lon="2.20505">
        <ele>66</ele>
        <time>2015-11-01T13:33:18.546Z</time>
      </trkpt>
      <trkpt lat="49.08585" lon="2.20501">
        <ele>68</ele>
        <time>2015-11-01T13:33:24.854Z</time>
      </trkpt>
      <trkpt lat="49.08584" lon="2.205">
        <ele>69</ele>
        <time>2015-11-01T13:33:25.604Z</time>
      </trkpt>
      <trkpt lat="49.08577" lon="2.20494">
        <ele>70</ele>
        <time>2015-11-01T13:33:32.901Z</time>
      </trkpt>
      <trkpt lat="49.08576" lon="2.20493">
        <ele>70</ele>
        <time>2015-11-01T13:33:33.642Z</time>
      </trkpt>
      <trkpt lat="49.08569" lon="2.20484">
        <ele>65</ele>
        <time>2015-11-01T13:34:01.771Z</time>
      </trkpt>
      <trkpt lat="49.08568" lon="2.20484">
        <ele>65</ele>
        <time>2015-11-01T13:34:02.596Z</time>
      </trkpt>
      <trkpt lat="49.08561" lon="2.20477">
        <ele>65</ele>
        <time>2015-11-01T13:34:08.734Z</time>
      </trkpt>
      <trkpt lat="49.0856" lon="2.20476">
        <ele>65</ele>
        <time>2015-11-01T13:34:09.556Z</time>
      </trkpt>
      <trkpt lat="49.08552" lon="2.20469">
        <ele>65</ele>
        <time>2015-11-01T13:34:16.714Z</time>
      </trkpt>
      <trkpt lat="49.08551" lon="2.20468">
        <ele>64</ele>
        <time>2015-11-01T13:34:17.585Z</time>
      </trkpt>
      <trkpt lat="49.08545" lon="2.20459">
        <ele>63</ele>
        <time>2015-11-01T13:34:25.895Z</time>
      </trkpt>
      <trkpt lat="49.08545" lon="2.20458">
        <ele>63</ele>
        <time>2015-11-01T13:34:26.668Z</time>
      </trkpt>
      <trkpt lat="49.08538" lon="2.20449">
        <ele>63</ele>
        <time>2015-11-01T13:34:33.753Z</time>
      </trkpt>
      <trkpt lat="49.08537" lon="2.20448">
        <ele>63</ele>
        <time>2015-11-01T13:34:34.711Z</time>
      </trkpt>
      <trkpt lat="49.08529" lon="2.20446">
        <ele>66</ele>
        <time>2015-11-01T13:34:45.925Z</time>
      </trkpt>
      <trkpt lat="49.08528" lon="2.20445">
        <ele>66</ele>
        <time>2015-11-01T13:34:46.584Z</time>
      </trkpt>
      <trkpt lat="49.08522" lon="2.20437">
        <ele>66</ele>
        <time>2015-11-01T13:34:52.683Z</time>
      </trkpt>
      <trkpt lat="49.08521" lon="2.20435">
        <ele>66</ele>
        <time>2015-11-01T13:34:53.549Z</time>
      </trkpt>
      <trkpt lat="49.08515" lon="2.20427">
        <ele>67</ele>
        <time>2015-11-01T13:34:59.701Z</time>
      </trkpt>
      <trkpt lat="49.08514" lon="2.20426">
        <ele>67</ele>
        <time>2015-11-01T13:35:00.604Z</time>
      </trkpt>
      <trkpt lat="49.08508" lon="2.20418">
        <ele>68</ele>
        <time>2015-11-01T13:35:06.681Z</time>
      </trkpt>
      <trkpt lat="49.08507" lon="2.20417">
        <ele>68</ele>
        <time>2015-11-01T13:35:07.665Z</time>
      </trkpt>
      <trkpt lat="49.085" lon="2.20408">
        <ele>71</ele>
        <time>2015-11-01T13:35:16.844Z</time>
      </trkpt>
      <trkpt lat="49.085" lon="2.20407">
        <ele>71</ele>
        <time>2015-11-01T13:35:17.648Z</time>
      </trkpt>
      <trkpt lat="49.08494" lon="2.20397">
        <ele>71</ele>
        <time>2015-11-01T13:35:29.705Z</time>
      </trkpt>
      <trkpt lat="49.08493" lon="2.20396">
        <ele>71</ele>
        <time>2015-11-01T13:35:30.605Z</time>
      </trkpt>
      <trkpt lat="49.08488" lon="2.20385">
        <ele>73</ele>
        <time>2015-11-01T13:35:45.749Z</time>
      </trkpt>
      <trkpt lat="49.08488" lon="2.20385">
        <ele>74</ele>
        <time>2015-11-01T13:35:46.599Z</time>
      </trkpt>
      <trkpt lat="49.08479" lon="2.20386">
        <ele>78</ele>
        <time>2015-11-01T13:36:13.608Z</time>
      </trkpt>
      <trkpt lat="49.08479" lon="2.20387">
        <ele>78</ele>
        <time>2015-11-01T13:36:14.598Z</time>
      </trkpt>
      <trkpt lat="49.08474" lon="2.20398">
        <ele>78</ele>
        <time>2015-11-01T13:36:23.678Z</time>
      </trkpt>
      <trkpt lat="49.08473" lon="2.20399">
        <ele>78</ele>
        <time>2015-11-01T13:36:24.540Z</time>
      </trkpt>
      <trkpt lat="49.08468" lon="2.2041">
        <ele>77</ele>
        <time>2015-11-01T13:36:33.717Z</time>
      </trkpt>
      <trkpt lat="49.08467" lon="2.20411">
        <ele>77</ele>
        <time>2015-11-01T13:36:34.603Z</time>
      </trkpt>
      <trkpt lat="49.08462" lon="2.20421">
        <ele>77</ele>
        <time>2015-11-01T13:36:42.753Z</time>
      </trkpt>
      <trkpt lat="49.08461" lon="2.20423">
        <ele>77</ele>
        <time>2015-11-01T13:36:43.623Z</time>
      </trkpt>
      <trkpt lat="49.08455" lon="2.20431">
        <ele>77</ele>
        <time>2015-11-01T13:38:50.654Z</time>
      </trkpt>
      <trkpt lat="49.08454" lon="2.20432">
        <ele>77</ele>
        <time>2015-11-01T13:38:51.606Z</time>
      </trkpt>
      <trkpt lat="49.08448" lon="2.20442">
        <ele>76</ele>
        <time>2015-11-01T13:39:00.707Z</time>
      </trkpt>
      <trkpt lat="49.08447" lon="2.20443">
        <ele>76</ele>
        <time>2015-11-01T13:39:01.549Z</time>
      </trkpt>
      <trkpt lat="49.08442" lon="2.20453">
        <ele>75</ele>
        <time>2015-11-01T13:39:08.706Z</time>
      </trkpt>
      <trkpt lat="49.08442" lon="2.20455">
        <ele>76</ele>
        <time>2015-11-01T13:39:09.617Z</time>
      </trkpt>
      <trkpt lat="49.08437" lon="2.20464">
        <ele>76</ele>
        <time>2015-11-01T13:39:16.711Z</time>
      </trkpt>
      <trkpt lat="49.08436" lon="2.20466">
        <ele>77</ele>
        <time>2015-11-01T13:39:17.617Z</time>
      </trkpt>
      <trkpt lat="49.08431" lon="2.20477">
        <ele>78</ele>
        <time>2015-11-01T13:39:26.656Z</time>
      </trkpt>
      <trkpt lat="49.08431" lon="2.20478">
        <ele>77</ele>
        <time>2015-11-01T13:39:27.539Z</time>
      </trkpt>
      <trkpt lat="49.08427" lon="2.2049">
        <ele>76</ele>
        <time>2015-11-01T13:39:36.727Z</time>
      </trkpt>
      <trkpt lat="49.08426" lon="2.20491">
        <ele>76</ele>
        <time>2015-11-01T13:39:37.635Z</time>
      </trkpt>
      <trkpt lat="49.08423" lon="2.20503">
        <ele>74</ele>
        <time>2015-11-01T13:39:46.748Z</time>
      </trkpt>
      <trkpt lat="49.08423" lon="2.20504">
        <ele>74</ele>
        <time>2015-11-01T13:39:47.620Z</time>
      </trkpt>
      <trkpt lat="49.08419" lon="2.20515">
        <ele>76</ele>
        <time>2015-11-01T13:39:56.650Z</time>
      </trkpt>
      <trkpt lat="49.08418" lon="2.20516">
        <ele>77</ele>
        <time>2015-11-01T13:39:57.600Z</time>
      </trkpt>
      <trkpt lat="49.08414" lon="2.20527">
        <ele>76</ele>
        <time>2015-11-01T13:40:04.667Z</time>
      </trkpt>
      <trkpt lat="49.08414" lon="2.20529">
        <ele>75</ele>
        <time>2015-11-01T13:40:05.597Z</time>
      </trkpt>
      <trkpt lat="49.08408" lon="2.20539">
        <ele>73</ele>
        <time>2015-11-01T13:40:12.707Z</time>
      </trkpt>
      <trkpt lat="49.08408" lon="2.20541">
        <ele>72</ele>
        <time>2015-11-01T13:40:13.621Z</time>
      </trkpt>
      <trkpt lat="49.08403" lon="2.20552">
        <ele>72</ele>
        <time>2015-11-01T13:40:21.644Z</time>
      </trkpt>
      <trkpt lat="49.08402" lon="2.20554">
        <ele>73</ele>
        <time>2015-11-01T13:40:22.542Z</time>
      </trkpt>
      <trkpt lat="49.08398" lon="2.20565">
        <ele>74</ele>
        <time>2015-11-01T13:40:29.876Z</time>
      </trkpt>
      <trkpt lat="49.08398" lon="2.20567">
        <ele>75</ele>
        <time>2015-11-01T13:40:30.651Z</time>
      </trkpt>
      <trkpt lat="49.08395" lon="2.2058">
        <ele>73</ele>
        <time>2015-11-01T13:40:38.879Z</time>
      </trkpt>
      <trkpt lat="49.08395" lon="2.20581">
        <ele>73</ele>
        <time>2015-11-01T13:40:39.606Z</time>
      </trkpt>
      <trkpt lat="49.08391" lon="2.20593">
        <ele>74</ele>
        <time>2015-11-01T13:40:48.907Z</time>
      </trkpt>
      <trkpt lat="49.08391" lon="2.20595">
        <ele>73</ele>
        <time>2015-11-01T13:40:49.605Z</time>
      </trkpt>
      <trkpt lat="49.08391" lon="2.20607">
        <ele>72</ele>
        <time>2015-11-01T13:41:01.633Z</time>
      </trkpt>
      <trkpt lat="49.08391" lon="2.20609">
        <ele>71</ele>
        <time>2015-11-01T13:41:02.540Z</time>
      </trkpt>
      <trkpt lat="49.08393" lon="2.20621">
        <ele>69</ele>
        <time>2015-11-01T13:41:09.721Z</time>
      </trkpt>
      <trkpt lat="49.08393" lon="2.20623">
        <ele>70</ele>
        <time>2015-11-01T13:41:10.623Z</time>
      </trkpt>
      <trkpt lat="49.08397" lon="2.20634">
        <ele>74</ele>
        <time>2015-11-01T13:41:28.794Z</time>
      </trkpt>
      <trkpt lat="49.08398" lon="2.20635">
        <ele>72</ele>
        <time>2015-11-01T13:41:29.629Z</time>
      </trkpt>
      <trkpt lat="49.08406" lon="2.2064">
        <ele>70</ele>
        <time>2015-11-01T13:41:34.860Z</time>
      </trkpt>
      <trkpt lat="49.08408" lon="2.20641">
        <ele>69</ele>
        <time>2015-11-01T13:41:35.638Z</time>
      </trkpt>
      <trkpt lat="49.08415" lon="2.20646">
        <ele>66</ele>
        <time>2015-11-01T13:41:39.834Z</time>
      </trkpt>
      <trkpt lat="49.08417" lon="2.20647">
        <ele>66</ele>
        <time>2015-11-01T13:41:40.647Z</time>
      </trkpt>
      <trkpt lat="49.08424" lon="2.20652">
        <ele>68</ele>
        <time>2015-11-01T13:41:45.732Z</time>
      </trkpt>
      <trkpt lat="49.08426" lon="2.20652">
        <ele>67</ele>
        <time>2015-11-01T13:41:46.623Z</time>
      </trkpt>
      <trkpt lat="49.08434" lon="2.20655">
        <ele>69</ele>
        <time>2015-11-01T13:41:51.874Z</time>
      </trkpt>
      <trkpt lat="49.08435" lon="2.20656">
        <ele>71</ele>
        <time>2015-11-01T13:41:52.605Z</time>
      </trkpt>
      <trkpt lat="49.08443" lon="2.20659">
        <ele>74</ele>
        <time>2015-11-01T13:41:58.298Z</time>
      </trkpt>
      <trkpt lat="49.08444" lon="2.20661">
        <ele>74</ele>
        <time>2015-11-01T13:41:58.582Z</time>
      </trkpt>
      <trkpt lat="49.08452" lon="2.20665">
        <ele>77</ele>
        <time>2015-11-01T13:42:03.667Z</time>
      </trkpt>
      <trkpt lat="49.08453" lon="2.20665">
        <ele>76</ele>
        <time>2015-11-01T13:42:04.612Z</time>
      </trkpt>
      <trkpt lat="49.08461" lon="2.20669">
        <ele>80</ele>
        <time>2015-11-01T13:42:10.686Z</time>
      </trkpt>
      <trkpt lat="49.08462" lon="2.20669">
        <ele>80</ele>
        <time>2015-11-01T13:42:11.582Z</time>
      </trkpt>
      <trkpt lat="49.0847" lon="2.20674">
        <ele>82</ele>
        <time>2015-11-01T13:42:17.913Z</time>
      </trkpt>
      <trkpt lat="49.08471" lon="2.20675">
        <ele>83</ele>
        <time>2015-11-01T13:42:18.642Z</time>
      </trkpt>
      <trkpt lat="49.08479" lon="2.20679">
        <ele>84</ele>
        <time>2015-11-01T13:42:24.878Z</time>
      </trkpt>
      <trkpt lat="49.08481" lon="2.2068">
        <ele>85</ele>
        <time>2015-11-01T13:42:25.673Z</time>
      </trkpt>
      <trkpt lat="49.08489" lon="2.20682">
        <ele>81</ele>
        <time>2015-11-01T13:42:30.810Z</time>
      </trkpt>
      <trkpt lat="49.0849" lon="2.20682">
        <ele>82</ele>
        <time>2015-11-01T13:42:31.592Z</time>
      </trkpt>
      <trkpt lat="49.08497" lon="2.20689">
        <ele>78</ele>
        <time>2015-11-01T13:42:53.863Z</time>
      </trkpt>
      <trkpt lat="49.08498" lon="2.20689">
        <ele>78</ele>
        <time>2015-11-01T13:42:54.582Z</time>
      </trkpt>
      <trkpt lat="49.08505" lon="2.20694">
        <ele>75</ele>
        <time>2015-11-01T13:43:00.694Z</time>
      </trkpt>
      <trkpt lat="49.08507" lon="2.20695">
        <ele>76</ele>
        <time>2015-11-01T13:43:01.622Z</time>
      </trkpt>
      <trkpt lat="49.08514" lon="2.20699">
        <ele>74</ele>
        <time>2015-11-01T13:43:06.729Z</time>
      </trkpt>
      <trkpt lat="49.08516" lon="2.207">
        <ele>72</ele>
        <time>2015-11-01T13:43:07.588Z</time>
      </trkpt>
      <trkpt lat="49.08523" lon="2.20703">
        <ele>73</ele>
        <time>2015-11-01T13:43:10.620Z</time>
      </trkpt>
      <trkpt lat="49.08525" lon="2.20704">
        <ele>74</ele>
        <time>2015-11-01T13:43:11.638Z</time>
      </trkpt>
      <trkpt lat="49.08533" lon="2.20708">
        <ele>77</ele>
        <time>2015-11-01T13:43:18.267Z</time>
      </trkpt>
      <trkpt lat="49.08534" lon="2.20708">
        <ele>79</ele>
        <time>2015-11-01T13:43:18.597Z</time>
      </trkpt>
      <trkpt lat="49.08541" lon="2.20715">
        <ele>77</ele>
        <time>2015-11-01T13:43:26.851Z</time>
      </trkpt>
      <trkpt lat="49.08542" lon="2.20716">
        <ele>77</ele>
        <time>2015-11-01T13:43:27.604Z</time>
      </trkpt>
      <trkpt lat="49.0855" lon="2.20718">
        <ele>79</ele>
        <time>2015-11-01T13:43:33.884Z</time>
      </trkpt>
      <trkpt lat="49.08551" lon="2.20718">
        <ele>79</ele>
        <time>2015-11-01T13:43:34.648Z</time>
      </trkpt>
      <trkpt lat="49.0856" lon="2.20722">
        <ele>82</ele>
        <time>2015-11-01T13:43:39.856Z</time>
      </trkpt>
      <trkpt lat="49.08561" lon="2.20723">
        <ele>82</ele>
        <time>2015-11-01T13:43:40.662Z</time>
      </trkpt>
      <trkpt lat="49.08569" lon="2.20725">
        <ele>79</ele>
        <time>2015-11-01T13:44:14.658Z</time>
      </trkpt>
      <trkpt lat="49.08571" lon="2.20726">
        <ele>79</ele>
        <time>2015-11-01T13:44:15.655Z</time>
      </trkpt>
      <trkpt lat="49.08578" lon="2.20731">
        <ele>81</ele>
        <time>2015-11-01T13:44:23.769Z</time>
      </trkpt>
      <trkpt lat="49.08579" lon="2.20732">
        <ele>81</ele>
        <time>2015-11-01T13:44:24.611Z</time>
      </trkpt>
      <trkpt lat="49.08586" lon="2.20738">
        <ele>88</ele>
        <time>2015-11-01T13:45:15.875Z</time>
      </trkpt>
      <trkpt lat="49.08587" lon="2.20739">
        <ele>86</ele>
        <time>2015-11-01T13:45:16.624Z</time>
      </trkpt>
      <trkpt lat="49.08595" lon="2.20744">
        <ele>89</ele>
        <time>2015-11-01T13:45:22.689Z</time>
      </trkpt>
      <trkpt lat="49.08596" lon="2.20745">
        <ele>88</ele>
        <time>2015-11-01T13:45:23.633Z</time>
      </trkpt>
      <trkpt lat="49.08604" lon="2.20749">
        <ele>89</ele>
        <time>2015-11-01T13:45:30.862Z</time>
      </trkpt>
      <trkpt lat="49.08606" lon="2.20751">
        <ele>90</ele>
        <time>2015-11-01T13:45:31.557Z</time>
      </trkpt>
      <trkpt lat="49.08611" lon="2.20759">
        <ele>97</ele>
        <time>2015-11-01T13:45:51.926Z</time>
      </trkpt>
      <trkpt lat="49.08614" lon="2.20759">
        <ele>95</ele>
        <time>2015-11-01T13:45:52.654Z</time>
      </trkpt>
      <trkpt lat="49.08621" lon="2.20762">
        <ele>94</ele>
        <time>2015-11-01T13:45:57.870Z</time>
      </trkpt>
      <trkpt lat="49.08622" lon="2.20764">
        <ele>94</ele>
        <time>2015-11-01T13:45:58.639Z</time>
      </trkpt>
      <trkpt lat="49.08627" lon="2.20774">
        <ele>90</ele>
        <time>2015-11-01T13:46:05.720Z</time>
      </trkpt>
      <trkpt lat="49.08628" lon="2.20776">
        <ele>87</ele>
        <time>2015-11-01T13:46:06.580Z</time>
      </trkpt>
      <trkpt lat="49.08633" lon="2.20785">
        <ele>78</ele>
        <time>2015-11-01T13:46:12.666Z</time>
      </trkpt>
      <trkpt lat="49.08634" lon="2.20787">
        <ele>77</ele>
        <time>2015-11-01T13:46:13.591Z</time>
      </trkpt>
      <trkpt lat="49.08635" lon="2.20799">
        <ele>74</ele>
        <time>2015-11-01T13:46:22.205Z</time>
      </trkpt>
      <trkpt lat="49.08635" lon="2.20801">
        <ele>75</ele>
        <time>2015-11-01T13:46:22.639Z</time>
      </trkpt>
      <trkpt lat="49.08637" lon="2.20813">
        <ele>74</ele>
        <time>2015-11-01T13:46:30.876Z</time>
      </trkpt>
      <trkpt lat="49.08638" lon="2.20814">
        <ele>73</ele>
        <time>2015-11-01T13:46:31.623Z</time>
      </trkpt>
      <trkpt lat="49.08642" lon="2.20826">
        <ele>73</ele>
        <time>2015-11-01T13:46:42.854Z</time>
      </trkpt>
      <trkpt lat="49.08641" lon="2.20828">
        <ele>73</ele>
        <time>2015-11-01T13:46:43.622Z</time>
      </trkpt>
      <trkpt lat="49.0864" lon="2.20839">
        <ele>76</ele>
        <time>2015-11-01T13:46:49.851Z</time>
      </trkpt>
      <trkpt lat="49.0864" lon="2.20842">
        <ele>76</ele>
        <time>2015-11-01T13:46:50.599Z</time>
      </trkpt>
      <trkpt lat="49.08642" lon="2.20854">
        <ele>80</ele>
        <time>2015-11-01T13:47:01.148Z</time>
      </trkpt>
      <trkpt lat="49.08642" lon="2.20856">
        <ele>78</ele>
        <time>2015-11-01T13:47:01.632Z</time>
      </trkpt>
      <trkpt lat="49.08642" lon="2.20868">
        <ele>75</ele>
        <time>2015-11-01T13:47:06.629Z</time>
      </trkpt>
      <trkpt lat="49.08639" lon="2.20878">
        <ele>75</ele>
        <time>2015-11-01T13:47:11.993Z</time>
      </trkpt>
      <trkpt lat="49.08638" lon="2.20892">
        <ele>81</ele>
        <time>2015-11-01T13:47:24.714Z</time>
      </trkpt>
      <trkpt lat="49.08638" lon="2.20893">
        <ele>81</ele>
        <time>2015-11-01T13:47:25.605Z</time>
      </trkpt>
      <trkpt lat="49.08637" lon="2.20903">
        <ele>83</ele>
        <time>2015-11-01T13:47:35.789Z</time>
      </trkpt>
      <trkpt lat="49.08637" lon="2.20906">
        <ele>84</ele>
        <time>2015-11-01T13:47:36.623Z</time>
      </trkpt>
      <trkpt lat="49.08638" lon="2.20918">
        <ele>86</ele>
        <time>2015-11-01T13:47:40.726Z</time>
      </trkpt>
      <trkpt lat="49.08638" lon="2.20921">
        <ele>85</ele>
        <time>2015-11-01T13:47:41.615Z</time>
      </trkpt>
      <trkpt lat="49.08636" lon="2.20934">
        <ele>85</ele>
        <time>2015-11-01T13:47:46.853Z</time>
      </trkpt>
      <trkpt lat="49.08635" lon="2.20937">
        <ele>81</ele>
        <time>2015-11-01T13:47:47.638Z</time>
      </trkpt>
      <trkpt lat="49.08636" lon="2.2095">
        <ele>84</ele>
        <time>2015-11-01T13:47:54.856Z</time>
      </trkpt>
      <trkpt lat="49.08636" lon="2.20952">
        <ele>83</ele>
        <time>2015-11-01T13:47:55.629Z</time>
      </trkpt>
      <trkpt lat="49.08635" lon="2.20964">
        <ele>79</ele>
        <time>2015-11-01T13:48:02.769Z</time>
      </trkpt>
      <trkpt lat="49.08635" lon="2.20966">
        <ele>79</ele>
        <time>2015-11-01T13:48:03.644Z</time>
      </trkpt>
      <trkpt lat="49.08635" lon="2.20978">
        <ele>77</ele>
        <time>2015-11-01T13:48:10.643Z</time>
      </trkpt>
      <trkpt lat="49.08635" lon="2.2098">
        <ele>76</ele>
        <time>2015-11-01T13:48:11.631Z</time>
      </trkpt>
      <trkpt lat="49.08635" lon="2.20992">
        <ele>72</ele>
        <time>2015-11-01T13:48:18.961Z</time>
      </trkpt>
      <trkpt lat="49.08635" lon="2.20994">
        <ele>70</ele>
        <time>2015-11-01T13:48:19.648Z</time>
      </trkpt>
      <trkpt lat="49.08636" lon="2.21007">
        <ele>70</ele>
        <time>2015-11-01T13:48:32.832Z</time>
      </trkpt>
      <trkpt lat="49.08636" lon="2.21008">
        <ele>69</ele>
        <time>2015-11-01T13:48:33.681Z</time>
      </trkpt>
      <trkpt lat="49.08634" lon="2.21021">
        <ele>71</ele>
        <time>2015-11-01T13:48:39.794Z</time>
      </trkpt>
      <trkpt lat="49.08634" lon="2.21023">
        <ele>70</ele>
        <time>2015-11-01T13:48:40.597Z</time>
      </trkpt>
      <trkpt lat="49.08632" lon="2.21036">
        <ele>72</ele>
        <time>2015-11-01T13:48:45.778Z</time>
      </trkpt>
      <trkpt lat="49.08631" lon="2.21038">
        <ele>73</ele>
        <time>2015-11-01T13:48:46.605Z</time>
      </trkpt>
      <trkpt lat="49.08628" lon="2.21051">
        <ele>77</ele>
        <time>2015-11-01T13:48:52.612Z</time>
      </trkpt>
      <trkpt lat="49.08628" lon="2.21053">
        <ele>77</ele>
        <time>2015-11-01T13:48:53.565Z</time>
      </trkpt>
      <trkpt lat="49.08628" lon="2.21064">
        <ele>78</ele>
        <time>2015-11-01T13:48:59.660Z</time>
      </trkpt>
      <trkpt lat="49.08628" lon="2.21066">
        <ele>77</ele>
        <time>2015-11-01T13:49:00.597Z</time>
      </trkpt>
      <trkpt lat="49.08627" lon="2.21079">
        <ele>78</ele>
        <time>2015-11-01T13:49:06.795Z</time>
      </trkpt>
      <trkpt lat="49.08627" lon="2.21081">
        <ele>77</ele>
        <time>2015-11-01T13:49:07.596Z</time>
      </trkpt>
      <trkpt lat="49.08626" lon="2.21094">
        <ele>74</ele>
        <time>2015-11-01T13:49:13.836Z</time>
      </trkpt>
      <trkpt lat="49.08625" lon="2.21096">
        <ele>75</ele>
        <time>2015-11-01T13:49:14.642Z</time>
      </trkpt>
      <trkpt lat="49.08624" lon="2.21109">
        <ele>75</ele>
        <time>2015-11-01T13:49:20.887Z</time>
      </trkpt>
      <trkpt lat="49.08623" lon="2.21111">
        <ele>76</ele>
        <time>2015-11-01T13:49:21.631Z</time>
      </trkpt>
      <trkpt lat="49.08621" lon="2.21124">
        <ele>75</ele>
        <time>2015-11-01T13:49:27.884Z</time>
      </trkpt>
      <trkpt lat="49.08621" lon="2.21126">
        <ele>76</ele>
        <time>2015-11-01T13:49:28.657Z</time>
      </trkpt>
      <trkpt lat="49.08619" lon="2.21138">
        <ele>78</ele>
        <time>2015-11-01T13:49:33.756Z</time>
      </trkpt>
      <trkpt lat="49.08618" lon="2.2114">
        <ele>77</ele>
        <time>2015-11-01T13:49:34.583Z</time>
      </trkpt>
      <trkpt lat="49.08616" lon="2.21153">
        <ele>79</ele>
        <time>2015-11-01T13:49:40.743Z</time>
      </trkpt>
      <trkpt lat="49.08615" lon="2.21155">
        <ele>79</ele>
        <time>2015-11-01T13:49:41.589Z</time>
      </trkpt>
      <trkpt lat="49.08614" lon="2.21168">
        <ele>79</ele>
        <time>2015-11-01T13:49:48.907Z</time>
      </trkpt>
      <trkpt lat="49.08614" lon="2.2117">
        <ele>79</ele>
        <time>2015-11-01T13:49:49.648Z</time>
      </trkpt>
      <trkpt lat="49.08612" lon="2.21181">
        <ele>81</ele>
        <time>2015-11-01T13:49:55.827Z</time>
      </trkpt>
      <trkpt lat="49.08612" lon="2.21183">
        <ele>81</ele>
        <time>2015-11-01T13:49:56.650Z</time>
      </trkpt>
      <trkpt lat="49.0861" lon="2.21196">
        <ele>82</ele>
        <time>2015-11-01T13:50:03.698Z</time>
      </trkpt>
      <trkpt lat="49.0861" lon="2.21198">
        <ele>82</ele>
        <time>2015-11-01T13:50:04.588Z</time>
      </trkpt>
      <trkpt lat="49.08609" lon="2.21211">
        <ele>81</ele>
        <time>2015-11-01T13:50:11.761Z</time>
      </trkpt>
      <trkpt lat="49.08608" lon="2.21213">
        <ele>81</ele>
        <time>2015-11-01T13:50:12.600Z</time>
      </trkpt>
      <trkpt lat="49.08607" lon="2.21225">
        <ele>81</ele>
        <time>2015-11-01T13:50:18.817Z</time>
      </trkpt>
      <trkpt lat="49.08607" lon="2.21227">
        <ele>79</ele>
        <time>2015-11-01T13:50:19.551Z</time>
      </trkpt>
      <trkpt lat="49.08605" lon="2.21239">
        <ele>79</ele>
        <time>2015-11-01T13:50:26.808Z</time>
      </trkpt>
      <trkpt lat="49.08605" lon="2.21241">
        <ele>79</ele>
        <time>2015-11-01T13:50:27.649Z</time>
      </trkpt>
      <trkpt lat="49.08604" lon="2.21254">
        <ele>80</ele>
        <time>2015-11-01T13:50:34.837Z</time>
      </trkpt>
      <trkpt lat="49.08603" lon="2.21256">
        <ele>80</ele>
        <time>2015-11-01T13:50:35.644Z</time>
      </trkpt>
      <trkpt lat="49.08602" lon="2.21269">
        <ele>80</ele>
        <time>2015-11-01T13:50:42.762Z</time>
      </trkpt>
      <trkpt lat="49.08601" lon="2.21271">
        <ele>80</ele>
        <time>2015-11-01T13:50:43.586Z</time>
      </trkpt>
      <trkpt lat="49.08597" lon="2.21283">
        <ele>80</ele>
        <time>2015-11-01T13:50:51.771Z</time>
      </trkpt>
      <trkpt lat="49.08596" lon="2.21284">
        <ele>80</ele>
        <time>2015-11-01T13:50:52.615Z</time>
      </trkpt>
      <trkpt lat="49.08591" lon="2.21294">
        <ele>77</ele>
        <time>2015-11-01T13:51:35.800Z</time>
      </trkpt>
      <trkpt lat="49.0859" lon="2.21295">
        <ele>77</ele>
        <time>2015-11-01T13:51:36.617Z</time>
      </trkpt>
      <trkpt lat="49.08582" lon="2.21302">
        <ele>75</ele>
        <time>2015-11-01T13:51:43.750Z</time>
      </trkpt>
      <trkpt lat="49.08581" lon="2.21303">
        <ele>74</ele>
        <time>2015-11-01T13:51:44.675Z</time>
      </trkpt>
      <trkpt lat="49.08575" lon="2.2131">
        <ele>77</ele>
        <time>2015-11-01T13:51:50.814Z</time>
      </trkpt>
      <trkpt lat="49.08574" lon="2.21312">
        <ele>76</ele>
        <time>2015-11-01T13:51:51.617Z</time>
      </trkpt>
      <trkpt lat="49.08568" lon="2.2132">
        <ele>75</ele>
        <time>2015-11-01T13:51:58.796Z</time>
      </trkpt>
      <trkpt lat="49.08567" lon="2.21321">
        <ele>75</ele>
        <time>2015-11-01T13:51:59.619Z</time>
      </trkpt>
      <trkpt lat="49.08561" lon="2.2133">
        <ele>76</ele>
        <time>2015-11-01T13:52:06.682Z</time>
      </trkpt>
      <trkpt lat="49.0856" lon="2.21332">
        <ele>76</ele>
        <time>2015-11-01T13:52:07.613Z</time>
      </trkpt>
      <trkpt lat="49.08555" lon="2.21341">
        <ele>79</ele>
        <time>2015-11-01T13:52:12.882Z</time>
      </trkpt>
      <trkpt lat="49.08555" lon="2.21343">
        <ele>80</ele>
        <time>2015-11-01T13:52:13.649Z</time>
      </trkpt>
      <trkpt lat="49.08551" lon="2.21354">
        <ele>80</ele>
        <time>2015-11-01T13:52:19.726Z</time>
      </trkpt>
      <trkpt lat="49.08551" lon="2.21356">
        <ele>79</ele>
        <time>2015-11-01T13:52:20.550Z</time>
      </trkpt>
      <trkpt lat="49.08549" lon="2.21368">
        <ele>75</ele>
        <time>2015-11-01T13:52:31.839Z</time>
      </trkpt>
      <trkpt lat="49.08548" lon="2.21369">
        <ele>77</ele>
        <time>2015-11-01T13:52:32.629Z</time>
      </trkpt>
      <trkpt lat="49.08546" lon="2.21382">
        <ele>81</ele>
        <time>2015-11-01T13:53:11.799Z</time>
      </trkpt>
      <trkpt lat="49.08545" lon="2.21382">
        <ele>81</ele>
        <time>2015-11-01T13:53:12.551Z</time>
      </trkpt>
      <trkpt lat="49.08541" lon="2.21393">
        <ele>82</ele>
        <time>2015-11-01T13:53:44.747Z</time>
      </trkpt>
      <trkpt lat="49.0854" lon="2.21394">
        <ele>82</ele>
        <time>2015-11-01T13:53:45.629Z</time>
      </trkpt>
      <trkpt lat="49.08536" lon="2.21405">
        <ele>81</ele>
        <time>2015-11-01T13:53:53.775Z</time>
      </trkpt>
      <trkpt lat="49.08536" lon="2.21407">
        <ele>82</ele>
        <time>2015-11-01T13:53:54.597Z</time>
      </trkpt>
      <trkpt lat="49.08539" lon="2.21396">
        <ele>85</ele>
        <time>2015-11-01T13:54:23.886Z</time>
      </trkpt>
      <trkpt lat="49.0854" lon="2.21394">
        <ele>85</ele>
        <time>2015-11-01T13:54:24.601Z</time>
      </trkpt>
      <trkpt lat="49.08546" lon="2.21402">
        <ele>80</ele>
        <time>2015-11-01T13:55:52.757Z</time>
      </trkpt>
      <trkpt lat="49.08547" lon="2.21404">
        <ele>81</ele>
        <time>2015-11-01T13:55:53.648Z</time>
      </trkpt>
      <trkpt lat="49.08552" lon="2.21415">
        <ele>79</ele>
        <time>2015-11-01T13:56:06.804Z</time>
      </trkpt>
      <trkpt lat="49.08553" lon="2.21416">
        <ele>79</ele>
        <time>2015-11-01T13:56:07.621Z</time>
      </trkpt>
      <trkpt lat="49.0856" lon="2.21421">
        <ele>77</ele>
        <time>2015-11-01T13:56:15.785Z</time>
      </trkpt>
      <trkpt lat="49.08562" lon="2.21422">
        <ele>77</ele>
        <time>2015-11-01T13:56:16.633Z</time>
      </trkpt>
      <trkpt lat="49.0857" lon="2.21425">
        <ele>76</ele>
        <time>2015-11-01T13:56:23.904Z</time>
      </trkpt>
      <trkpt lat="49.08571" lon="2.21425">
        <ele>76</ele>
        <time>2015-11-01T13:56:24.644Z</time>
      </trkpt>
      <trkpt lat="49.08579" lon="2.21427">
        <ele>77</ele>
        <time>2015-11-01T13:56:30.850Z</time>
      </trkpt>
      <trkpt lat="49.08581" lon="2.21427">
        <ele>77</ele>
        <time>2015-11-01T13:56:31.598Z</time>
      </trkpt>
      <trkpt lat="49.08589" lon="2.2143">
        <ele>77</ele>
        <time>2015-11-01T13:56:36.832Z</time>
      </trkpt>
      <trkpt lat="49.08591" lon="2.2143">
        <ele>77</ele>
        <time>2015-11-01T13:56:37.584Z</time>
      </trkpt>
      <trkpt lat="49.08599" lon="2.21435">
        <ele>75</ele>
        <time>2015-11-01T13:56:44.773Z</time>
      </trkpt>
      <trkpt lat="49.086" lon="2.21435">
        <ele>75</ele>
        <time>2015-11-01T13:56:45.647Z</time>
      </trkpt>
      <trkpt lat="49.08608" lon="2.21435">
        <ele>75</ele>
        <time>2015-11-01T13:56:52.769Z</time>
      </trkpt>
      <trkpt lat="49.08609" lon="2.21435">
        <ele>75</ele>
        <time>2015-11-01T13:56:53.679Z</time>
      </trkpt>
      <trkpt lat="49.08617" lon="2.21437">
        <ele>74</ele>
        <time>2015-11-01T13:57:01.825Z</time>
      </trkpt>
      <trkpt lat="49.08618" lon="2.21437">
        <ele>74</ele>
        <time>2015-11-01T13:57:02.597Z</time>
      </trkpt>
      <trkpt lat="49.08626" lon="2.2144">
        <ele>74</ele>
        <time>2015-11-01T13:57:09.764Z</time>
      </trkpt>
      <trkpt lat="49.08627" lon="2.2144">
        <ele>74</ele>
        <time>2015-11-01T13:57:10.605Z</time>
      </trkpt>
      <trkpt lat="49.08636" lon="2.21442">
        <ele>76</ele>
        <time>2015-11-01T13:57:17.800Z</time>
      </trkpt>
      <trkpt lat="49.08637" lon="2.21442">
        <ele>76</ele>
        <time>2015-11-01T13:57:18.645Z</time>
      </trkpt>
      <trkpt lat="49.08646" lon="2.21442">
        <ele>73</ele>
        <time>2015-11-01T13:57:25.980Z</time>
      </trkpt>
      <trkpt lat="49.08647" lon="2.21442">
        <ele>74</ele>
        <time>2015-11-01T13:57:26.640Z</time>
      </trkpt>
      <trkpt lat="49.08656" lon="2.21443">
        <ele>73</ele>
        <time>2015-11-01T13:57:33.875Z</time>
      </trkpt>
      <trkpt lat="49.08657" lon="2.21442">
        <ele>73</ele>
        <time>2015-11-01T13:57:34.647Z</time>
      </trkpt>
      <trkpt lat="49.08666" lon="2.21443">
        <ele>74</ele>
        <time>2015-11-01T13:57:42.812Z</time>
      </trkpt>
      <trkpt lat="49.08667" lon="2.21442">
        <ele>74</ele>
        <time>2015-11-01T13:57:43.656Z</time>
      </trkpt>
      <trkpt lat="49.08675" lon="2.21441">
        <ele>77</ele>
        <time>2015-11-01T13:57:54.778Z</time>
      </trkpt>
      <trkpt lat="49.08676" lon="2.21441">
        <ele>77</ele>
        <time>2015-11-01T13:57:55.650Z</time>
      </trkpt>
      <trkpt lat="49.08682" lon="2.21434">
        <ele>77</ele>
        <time>2015-11-01T13:58:09.758Z</time>
      </trkpt>
      <trkpt lat="49.08684" lon="2.21433">
        <ele>77</ele>
        <time>2015-11-01T13:58:10.549Z</time>
      </trkpt>
      <trkpt lat="49.08692" lon="2.2143">
        <ele>80</ele>
        <time>2015-11-01T13:58:21.854Z</time>
      </trkpt>
      <trkpt lat="49.08692" lon="2.2143">
        <ele>80</ele>
        <time>2015-11-01T13:58:22.613Z</time>
      </trkpt>
      <trkpt lat="49.08701" lon="2.21427">
        <ele>83</ele>
        <time>2015-11-01T13:58:34.698Z</time>
      </trkpt>
      <trkpt lat="49.08701" lon="2.21427">
        <ele>83</ele>
        <time>2015-11-01T13:58:35.636Z</time>
      </trkpt>
      <trkpt lat="49.0871" lon="2.21426">
        <ele>75</ele>
        <time>2015-11-01T13:58:43.697Z</time>
      </trkpt>
      <trkpt lat="49.08712" lon="2.21426">
        <ele>74</ele>
        <time>2015-11-01T13:58:44.657Z</time>
      </trkpt>
      <trkpt lat="49.0872" lon="2.21425">
        <ele>75</ele>
        <time>2015-11-01T13:58:48.909Z</time>
      </trkpt>
      <trkpt lat="49.08721" lon="2.21425">
        <ele>75</ele>
        <time>2015-11-01T13:58:49.671Z</time>
      </trkpt>
      <trkpt lat="49.08729" lon="2.21425">
        <ele>76</ele>
        <time>2015-11-01T13:58:53.759Z</time>
      </trkpt>
      <trkpt lat="49.08731" lon="2.21425">
        <ele>76</ele>
        <time>2015-11-01T13:58:54.641Z</time>
      </trkpt>
      <trkpt lat="49.0874" lon="2.21426">
        <ele>79</ele>
        <time>2015-11-01T13:58:58.869Z</time>
      </trkpt>
      <trkpt lat="49.08742" lon="2.21426">
        <ele>78</ele>
        <time>2015-11-01T13:58:59.642Z</time>
      </trkpt>
      <trkpt lat="49.08749" lon="2.21427">
        <ele>80</ele>
        <time>2015-11-01T13:59:03.687Z</time>
      </trkpt>
      <trkpt lat="49.08751" lon="2.21427">
        <ele>78</ele>
        <time>2015-11-01T13:59:04.549Z</time>
      </trkpt>
      <trkpt lat="49.0876" lon="2.21426">
        <ele>78</ele>
        <time>2015-11-01T13:59:11.685Z</time>
      </trkpt>
      <trkpt lat="49.08761" lon="2.21426">
        <ele>78</ele>
        <time>2015-11-01T13:59:12.573Z</time>
      </trkpt>
      <trkpt lat="49.0877" lon="2.21427">
        <ele>83</ele>
        <time>2015-11-01T13:59:22.809Z</time>
      </trkpt>
      <trkpt lat="49.0877" lon="2.21428">
        <ele>83</ele>
        <time>2015-11-01T13:59:23.613Z</time>
      </trkpt>
      <trkpt lat="49.08779" lon="2.21428">
        <ele>83</ele>
        <time>2015-11-01T13:59:31.817Z</time>
      </trkpt>
      <trkpt lat="49.08781" lon="2.21428">
        <ele>86</ele>
        <time>2015-11-01T13:59:32.664Z</time>
      </trkpt>
      <trkpt lat="49.08789" lon="2.21428">
        <ele>88</ele>
        <time>2015-11-01T13:59:37.865Z</time>
      </trkpt>
      <trkpt lat="49.0879" lon="2.21428">
        <ele>87</ele>
        <time>2015-11-01T13:59:38.645Z</time>
      </trkpt>
      <trkpt lat="49.08798" lon="2.21429">
        <ele>88</ele>
        <time>2015-11-01T13:59:45.790Z</time>
      </trkpt>
      <trkpt lat="49.08799" lon="2.21429">
        <ele>88</ele>
        <time>2015-11-01T13:59:46.599Z</time>
      </trkpt>
      <trkpt lat="49.08806" lon="2.21438">
        <ele>90</ele>
        <time>2015-11-01T14:00:02.714Z</time>
      </trkpt>
      <trkpt lat="49.08806" lon="2.21438">
        <ele>90</ele>
        <time>2015-11-01T14:00:03.642Z</time>
      </trkpt>
      <trkpt lat="49.08806" lon="2.2145">
        <ele>88</ele>
        <time>2015-11-01T14:00:29.740Z</time>
      </trkpt>
      <trkpt lat="49.08806" lon="2.21451">
        <ele>88</ele>
        <time>2015-11-01T14:00:30.614Z</time>
      </trkpt>
      <trkpt lat="49.08805" lon="2.21464">
        <ele>84</ele>
        <time>2015-11-01T14:00:39.912Z</time>
      </trkpt>
      <trkpt lat="49.08805" lon="2.21465">
        <ele>84</ele>
        <time>2015-11-01T14:00:40.649Z</time>
      </trkpt>
      <trkpt lat="49.08803" lon="2.21477">
        <ele>85</ele>
        <time>2015-11-01T14:00:47.700Z</time>
      </trkpt>
      <trkpt lat="49.08803" lon="2.21479">
        <ele>85</ele>
        <time>2015-11-01T14:00:48.643Z</time>
      </trkpt>
      <trkpt lat="49.08801" lon="2.21491">
        <ele>89</ele>
        <time>2015-11-01T14:00:55.883Z</time>
      </trkpt>
      <trkpt lat="49.088" lon="2.21494">
        <ele>90</ele>
        <time>2015-11-01T14:00:56.650Z</time>
      </trkpt>
      <trkpt lat="49.08798" lon="2.21507">
        <ele>92</ele>
        <time>2015-11-01T14:01:04.812Z</time>
      </trkpt>
      <trkpt lat="49.08798" lon="2.21508">
        <ele>92</ele>
        <time>2015-11-01T14:01:05.551Z</time>
      </trkpt>
      <trkpt lat="49.08806" lon="2.21508">
        <ele>86</ele>
        <time>2015-11-01T14:02:44.791Z</time>
      </trkpt>
      <trkpt lat="49.08807" lon="2.21508">
        <ele>88</ele>
        <time>2015-11-01T14:02:45.575Z</time>
      </trkpt>
      <trkpt lat="49.08803" lon="2.21519">
        <ele>84</ele>
        <time>2015-11-01T14:03:16.979Z</time>
      </trkpt>
      <trkpt lat="49.08802" lon="2.21521">
        <ele>84</ele>
        <time>2015-11-01T14:03:17.600Z</time>
      </trkpt>
      <trkpt lat="49.088" lon="2.21533">
        <ele>84</ele>
        <time>2015-11-01T14:03:22.897Z</time>
      </trkpt>
      <trkpt lat="49.088" lon="2.21535">
        <ele>86</ele>
        <time>2015-11-01T14:03:23.684Z</time>
      </trkpt>
      <trkpt lat="49.08798" lon="2.21547">
        <ele>75</ele>
        <time>2015-11-01T14:04:42.843Z</time>
      </trkpt>
      <trkpt lat="49.08798" lon="2.21548">
        <ele>76</ele>
        <time>2015-11-01T14:04:43.591Z</time>
      </trkpt>
      <trkpt lat="49.08793" lon="2.2156">
        <ele>82</ele>
        <time>2015-11-01T14:04:52.821Z</time>
      </trkpt>
      <trkpt lat="49.08793" lon="2.21561">
        <ele>83</ele>
        <time>2015-11-01T14:04:53.566Z</time>
      </trkpt>
      <trkpt lat="49.0879" lon="2.21572">
        <ele>79</ele>
        <time>2015-11-01T14:05:01.690Z</time>
      </trkpt>
      <trkpt lat="49.0879" lon="2.21574">
        <ele>78</ele>
        <time>2015-11-01T14:05:02.558Z</time>
      </trkpt>
      <trkpt lat="49.08786" lon="2.21585">
        <ele>83</ele>
        <time>2015-11-01T14:05:10.650Z</time>
      </trkpt>
      <trkpt lat="49.08785" lon="2.21587">
        <ele>83</ele>
        <time>2015-11-01T14:05:11.559Z</time>
      </trkpt>
      <trkpt lat="49.08787" lon="2.216">
        <ele>84</ele>
        <time>2015-11-01T14:05:17.859Z</time>
      </trkpt>
      <trkpt lat="49.08787" lon="2.21602">
        <ele>84</ele>
        <time>2015-11-01T14:05:18.647Z</time>
      </trkpt>
      <trkpt lat="49.08785" lon="2.21614">
        <ele>87</ele>
        <time>2015-11-01T14:05:23.873Z</time>
      </trkpt>
      <trkpt lat="49.08785" lon="2.21616">
        <ele>86</ele>
        <time>2015-11-01T14:05:24.643Z</time>
      </trkpt>
      <trkpt lat="49.08782" lon="2.21628">
        <ele>79</ele>
        <time>2015-11-01T14:05:38.188Z</time>
      </trkpt>
      <trkpt lat="49.08782" lon="2.2163">
        <ele>76</ele>
        <time>2015-11-01T14:05:38.598Z</time>
      </trkpt>
      <trkpt lat="49.08779" lon="2.21643">
        <ele>78</ele>
        <time>2015-11-01T14:05:45.896Z</time>
      </trkpt>
      <trkpt lat="49.08779" lon="2.21645">
        <ele>80</ele>
        <time>2015-11-01T14:05:46.624Z</time>
      </trkpt>
      <trkpt lat="49.08775" lon="2.21657">
        <ele>80</ele>
        <time>2015-11-01T14:05:53.733Z</time>
      </trkpt>
      <trkpt lat="49.08774" lon="2.21659">
        <ele>80</ele>
        <time>2015-11-01T14:05:54.668Z</time>
      </trkpt>
      <trkpt lat="49.08771" lon="2.21671">
        <ele>79</ele>
        <time>2015-11-01T14:06:01.711Z</time>
      </trkpt>
      <trkpt lat="49.08771" lon="2.21672">
        <ele>83</ele>
        <time>2015-11-01T14:06:02.606Z</time>
      </trkpt>
      <trkpt lat="49.08772" lon="2.21686">
        <ele>80</ele>
        <time>2015-11-01T14:06:12.725Z</time>
      </trkpt>
      <trkpt lat="49.08772" lon="2.21686">
        <ele>82</ele>
        <time>2015-11-01T14:06:13.630Z</time>
      </trkpt>
      <trkpt lat="49.08771" lon="2.21698">
        <ele>81</ele>
        <time>2015-11-01T14:06:56.670Z</time>
      </trkpt>
      <trkpt lat="49.08772" lon="2.21701">
        <ele>81</ele>
        <time>2015-11-01T14:06:57.591Z</time>
      </trkpt>
      <trkpt lat="49.08774" lon="2.21714">
        <ele>82</ele>
        <time>2015-11-01T14:07:02.709Z</time>
      </trkpt>
      <trkpt lat="49.08774" lon="2.21716">
        <ele>78</ele>
        <time>2015-11-01T14:07:03.630Z</time>
      </trkpt>
      <trkpt lat="49.08777" lon="2.21728">
        <ele>77</ele>
        <time>2015-11-01T14:07:10.682Z</time>
      </trkpt>
      <trkpt lat="49.08777" lon="2.21729">
        <ele>78</ele>
        <time>2015-11-01T14:07:11.598Z</time>
      </trkpt>
      <trkpt lat="49.08778" lon="2.2174">
        <ele>81</ele>
        <time>2015-11-01T14:07:24.675Z</time>
      </trkpt>
      <trkpt lat="49.08778" lon="2.21743">
        <ele>81</ele>
        <time>2015-11-01T14:07:25.570Z</time>
      </trkpt>
      <trkpt lat="49.08778" lon="2.21756">
        <ele>85</ele>
        <time>2015-11-01T14:07:31.923Z</time>
      </trkpt>
      <trkpt lat="49.08779" lon="2.21758">
        <ele>84</ele>
        <time>2015-11-01T14:07:32.623Z</time>
      </trkpt>
      <trkpt lat="49.08781" lon="2.2177">
        <ele>82</ele>
        <time>2015-11-01T14:07:37.866Z</time>
      </trkpt>
      <trkpt lat="49.08781" lon="2.21772">
        <ele>82</ele>
        <time>2015-11-01T14:07:38.693Z</time>
      </trkpt>
      <trkpt lat="49.08779" lon="2.21783">
        <ele>83</ele>
        <time>2015-11-01T14:07:45.759Z</time>
      </trkpt>
      <trkpt lat="49.08779" lon="2.21785">
        <ele>84</ele>
        <time>2015-11-01T14:07:46.632Z</time>
      </trkpt>
      <trkpt lat="49.08779" lon="2.21797">
        <ele>94</ele>
        <time>2015-11-01T14:07:52.757Z</time>
      </trkpt>
      <trkpt lat="49.08778" lon="2.21799">
        <ele>95</ele>
        <time>2015-11-01T14:07:53.631Z</time>
      </trkpt>
      <trkpt lat="49.08777" lon="2.21811">
        <ele>88</ele>
        <time>2015-11-01T14:08:00.774Z</time>
      </trkpt>
      <trkpt lat="49.08778" lon="2.21813">
        <ele>88</ele>
        <time>2015-11-01T14:08:01.647Z</time>
      </trkpt>
      <trkpt lat="49.08776" lon="2.21825">
        <ele>85</ele>
        <time>2015-11-01T14:08:10.725Z</time>
      </trkpt>
      <trkpt lat="49.08775" lon="2.21827">
        <ele>85</ele>
        <time>2015-11-01T14:08:11.611Z</time>
      </trkpt>
      <trkpt lat="49.08775" lon="2.2184">
        <ele>85</ele>
        <time>2015-11-01T14:08:17.664Z</time>
      </trkpt>
      <trkpt lat="49.08774" lon="2.21842">
        <ele>84</ele>
        <time>2015-11-01T14:08:18.610Z</time>
      </trkpt>
      <trkpt lat="49.08775" lon="2.21855">
        <ele>80</ele>
        <time>2015-11-01T14:08:25.817Z</time>
      </trkpt>
      <trkpt lat="49.08775" lon="2.21857">
        <ele>81</ele>
        <time>2015-11-01T14:08:26.606Z</time>
      </trkpt>
      <trkpt lat="49.08774" lon="2.21868">
        <ele>80</ele>
        <time>2015-11-01T14:08:32.655Z</time>
      </trkpt>
      <trkpt lat="49.08774" lon="2.21871">
        <ele>80</ele>
        <time>2015-11-01T14:08:33.626Z</time>
      </trkpt>
      <trkpt lat="49.08773" lon="2.21883">
        <ele>80</ele>
        <time>2015-11-01T14:08:39.899Z</time>
      </trkpt>
      <trkpt lat="49.08773" lon="2.21885">
        <ele>81</ele>
        <time>2015-11-01T14:08:40.642Z</time>
      </trkpt>
      <trkpt lat="49.08772" lon="2.21898">
        <ele>78</ele>
        <time>2015-11-01T14:08:48.751Z</time>
      </trkpt>
      <trkpt lat="49.08772" lon="2.219">
        <ele>79</ele>
        <time>2015-11-01T14:08:49.591Z</time>
      </trkpt>
      <trkpt lat="49.08769" lon="2.21911">
        <ele>81</ele>
        <time>2015-11-01T14:08:56.853Z</time>
      </trkpt>
      <trkpt lat="49.08768" lon="2.21913">
        <ele>81</ele>
        <time>2015-11-01T14:08:57.607Z</time>
      </trkpt>
      <trkpt lat="49.08767" lon="2.21925">
        <ele>82</ele>
        <time>2015-11-01T14:09:03.760Z</time>
      </trkpt>
      <trkpt lat="49.08767" lon="2.21927">
        <ele>83</ele>
        <time>2015-11-01T14:09:04.564Z</time>
      </trkpt>
      <trkpt lat="49.08763" lon="2.21938">
        <ele>87</ele>
        <time>2015-11-01T14:09:11.715Z</time>
      </trkpt>
      <trkpt lat="49.08762" lon="2.2194">
        <ele>89</ele>
        <time>2015-11-01T14:09:12.582Z</time>
      </trkpt>
      <trkpt lat="49.08757" lon="2.2195">
        <ele>87</ele>
        <time>2015-11-01T14:09:20.723Z</time>
      </trkpt>
      <trkpt lat="49.08756" lon="2.21951">
        <ele>87</ele>
        <time>2015-11-01T14:09:21.611Z</time>
      </trkpt>
      <trkpt lat="49.08751" lon="2.21962">
        <ele>90</ele>
        <time>2015-11-01T14:09:29.875Z</time>
      </trkpt>
      <trkpt lat="49.08749" lon="2.21962">
        <ele>91</ele>
        <time>2015-11-01T14:09:30.605Z</time>
      </trkpt>
      <trkpt lat="49.08744" lon="2.21972">
        <ele>93</ele>
        <time>2015-11-01T14:09:39.729Z</time>
      </trkpt>
      <trkpt lat="49.08744" lon="2.21975">
        <ele>92</ele>
        <time>2015-11-01T14:09:40.633Z</time>
      </trkpt>
      <trkpt lat="49.08741" lon="2.21986">
        <ele>90</ele>
        <time>2015-11-01T14:09:47.869Z</time>
      </trkpt>
      <trkpt lat="49.0874" lon="2.21988">
        <ele>90</ele>
        <time>2015-11-01T14:09:48.644Z</time>
      </trkpt>
      <trkpt lat="49.08736" lon="2.21999">
        <ele>90</ele>
        <time>2015-11-01T14:09:55.725Z</time>
      </trkpt>
      <trkpt lat="49.08736" lon="2.22001">
        <ele>90</ele>
        <time>2015-11-01T14:09:56.635Z</time>
      </trkpt>
      <trkpt lat="49.08731" lon="2.22012">
        <ele>88</ele>
        <time>2015-11-01T14:10:03.747Z</time>
      </trkpt>
      <trkpt lat="49.0873" lon="2.22013">
        <ele>89</ele>
        <time>2015-11-01T14:10:04.594Z</time>
      </trkpt>
      <trkpt lat="49.08728" lon="2.22026">
        <ele>82</ele>
        <time>2015-11-01T14:10:12.711Z</time>
      </trkpt>
      <trkpt lat="49.08727" lon="2.22028">
        <ele>81</ele>
        <time>2015-11-01T14:10:13.613Z</time>
      </trkpt>
      <trkpt lat="49.08724" lon="2.2204">
        <ele>78</ele>
        <time>2015-11-01T14:10:20.912Z</time>
      </trkpt>
      <trkpt lat="49.08723" lon="2.22041">
        <ele>78</ele>
        <time>2015-11-01T14:10:21.616Z</time>
      </trkpt>
      <trkpt lat="49.08718" lon="2.2205">
        <ele>81</ele>
        <time>2015-11-01T14:10:27.822Z</time>
      </trkpt>
      <trkpt lat="49.08717" lon="2.22051">
        <ele>79</ele>
        <time>2015-11-01T14:10:28.601Z</time>
      </trkpt>
      <trkpt lat="49.08714" lon="2.22064">
        <ele>80</ele>
        <time>2015-11-01T14:10:35.657Z</time>
      </trkpt>
      <trkpt lat="49.08714" lon="2.22066">
        <ele>81</ele>
        <time>2015-11-01T14:10:36.585Z</time>
      </trkpt>
      <trkpt lat="49.08708" lon="2.22075">
        <ele>81</ele>
        <time>2015-11-01T14:10:43.820Z</time>
      </trkpt>
      <trkpt lat="49.08708" lon="2.22078">
        <ele>79</ele>
        <time>2015-11-01T14:10:45.691Z</time>
      </trkpt>
      <trkpt lat="49.08709" lon="2.2209">
        <ele>80</ele>
        <time>2015-11-01T14:11:10.673Z</time>
      </trkpt>
      <trkpt lat="49.08709" lon="2.22092">
        <ele>80</ele>
        <time>2015-11-01T14:11:11.615Z</time>
      </trkpt>
      <trkpt lat="49.08705" lon="2.22103">
        <ele>82</ele>
        <time>2015-11-01T14:11:16.970Z</time>
      </trkpt>
      <trkpt lat="49.08704" lon="2.22106">
        <ele>82</ele>
        <time>2015-11-01T14:11:17.635Z</time>
      </trkpt>
      <trkpt lat="49.08703" lon="2.22119">
        <ele>81</ele>
        <time>2015-11-01T14:11:23.774Z</time>
      </trkpt>
      <trkpt lat="49.08703" lon="2.22121">
        <ele>80</ele>
        <time>2015-11-01T14:11:24.632Z</time>
      </trkpt>
      <trkpt lat="49.08701" lon="2.22134">
        <ele>80</ele>
        <time>2015-11-01T14:11:39.770Z</time>
      </trkpt>
      <trkpt lat="49.08701" lon="2.22135">
        <ele>80</ele>
        <time>2015-11-01T14:11:40.644Z</time>
      </trkpt>
      <trkpt lat="49.08698" lon="2.22148">
        <ele>81</ele>
        <time>2015-11-01T14:11:47.861Z</time>
      </trkpt>
      <trkpt lat="49.08698" lon="2.22149">
        <ele>80</ele>
        <time>2015-11-01T14:11:48.622Z</time>
      </trkpt>
      <trkpt lat="49.08693" lon="2.2216">
        <ele>80</ele>
        <time>2015-11-01T14:11:56.694Z</time>
      </trkpt>
      <trkpt lat="49.08692" lon="2.22162">
        <ele>82</ele>
        <time>2015-11-01T14:11:57.616Z</time>
      </trkpt>
      <trkpt lat="49.08686" lon="2.22172">
        <ele>86</ele>
        <time>2015-11-01T14:12:05.639Z</time>
      </trkpt>
      <trkpt lat="49.08685" lon="2.22173">
        <ele>86</ele>
        <time>2015-11-01T14:12:06.550Z</time>
      </trkpt>
      <trkpt lat="49.08683" lon="2.22186">
        <ele>93</ele>
        <time>2015-11-01T14:12:12.698Z</time>
      </trkpt>
      <trkpt lat="49.08683" lon="2.22187">
        <ele>92</ele>
        <time>2015-11-01T14:12:13.634Z</time>
      </trkpt>
      <trkpt lat="49.08683" lon="2.222">
        <ele>93</ele>
        <time>2015-11-01T14:12:20.889Z</time>
      </trkpt>
      <trkpt lat="49.08682" lon="2.22202">
        <ele>94</ele>
        <time>2015-11-01T14:12:21.641Z</time>
      </trkpt>
      <trkpt lat="49.0868" lon="2.22215">
        <ele>92</ele>
        <time>2015-11-01T14:12:29.849Z</time>
      </trkpt>
      <trkpt lat="49.08681" lon="2.22217">
        <ele>92</ele>
        <time>2015-11-01T14:12:30.607Z</time>
      </trkpt>
      <trkpt lat="49.0868" lon="2.2223">
        <ele>92</ele>
        <time>2015-11-01T14:12:44.993Z</time>
      </trkpt>
      <trkpt lat="49.0868" lon="2.22231">
        <ele>92</ele>
        <time>2015-11-01T14:12:45.590Z</time>
      </trkpt>
      <trkpt lat="49.0868" lon="2.22244">
        <ele>82</ele>
        <time>2015-11-01T14:15:17.718Z</time>
      </trkpt>
      <trkpt lat="49.08681" lon="2.22245">
        <ele>82</ele>
        <time>2015-11-01T14:15:18.568Z</time>
      </trkpt>
      <trkpt lat="49.0868" lon="2.22258">
        <ele>80</ele>
        <time>2015-11-01T14:15:44.276Z</time>
      </trkpt>
      <trkpt lat="49.0868" lon="2.22259">
        <ele>81</ele>
        <time>2015-11-01T14:15:44.639Z</time>
      </trkpt>
      <trkpt lat="49.08681" lon="2.22271">
        <ele>84</ele>
        <time>2015-11-01T14:15:49.864Z</time>
      </trkpt>
      <trkpt lat="49.08681" lon="2.22273">
        <ele>83</ele>
        <time>2015-11-01T14:15:50.647Z</time>
      </trkpt>
      <trkpt lat="49.08682" lon="2.22286">
        <ele>83</ele>
        <time>2015-11-01T14:15:56.895Z</time>
      </trkpt>
      <trkpt lat="49.08681" lon="2.22288">
        <ele>83</ele>
        <time>2015-11-01T14:15:57.642Z</time>
      </trkpt>
      <trkpt lat="49.08684" lon="2.223">
        <ele>83</ele>
        <time>2015-11-01T14:16:05.037Z</time>
      </trkpt>
      <trkpt lat="49.08685" lon="2.22302">
        <ele>82</ele>
        <time>2015-11-01T14:16:05.618Z</time>
      </trkpt>
      <trkpt lat="49.0868" lon="2.22312">
        <ele>86</ele>
        <time>2015-11-01T14:16:13.922Z</time>
      </trkpt>
      <trkpt lat="49.0868" lon="2.22314">
        <ele>87</ele>
        <time>2015-11-01T14:16:14.657Z</time>
      </trkpt>
      <trkpt lat="49.08678" lon="2.22326">
        <ele>85</ele>
        <time>2015-11-01T14:16:21.876Z</time>
      </trkpt>
      <trkpt lat="49.08677" lon="2.22328">
        <ele>88</ele>
        <time>2015-11-01T14:16:22.616Z</time>
      </trkpt>
      <trkpt lat="49.08671" lon="2.22338">
        <ele>91</ele>
        <time>2015-11-01T14:16:29.750Z</time>
      </trkpt>
      <trkpt lat="49.0867" lon="2.22339">
        <ele>90</ele>
        <time>2015-11-01T14:16:30.639Z</time>
      </trkpt>
      <trkpt lat="49.08665" lon="2.22349">
        <ele>97</ele>
        <time>2015-11-01T14:16:38.930Z</time>
      </trkpt>
      <trkpt lat="49.08664" lon="2.2235">
        <ele>95</ele>
        <time>2015-11-01T14:16:39.640Z</time>
      </trkpt>
      <trkpt lat="49.08659" lon="2.2236">
        <ele>96</ele>
        <time>2015-11-01T14:16:48.807Z</time>
      </trkpt>
      <trkpt lat="49.08659" lon="2.22362">
        <ele>97</ele>
        <time>2015-11-01T14:16:49.619Z</time>
      </trkpt>
      <trkpt lat="49.08653" lon="2.2237">
        <ele>99</ele>
        <time>2015-11-01T14:16:55.883Z</time>
      </trkpt>
      <trkpt lat="49.08652" lon="2.22371">
        <ele>100</ele>
        <time>2015-11-01T14:16:56.558Z</time>
      </trkpt>
      <trkpt lat="49.08645" lon="2.22379">
        <ele>105</ele>
        <time>2015-11-01T14:17:03.825Z</time>
      </trkpt>
      <trkpt lat="49.08644" lon="2.2238">
        <ele>105</ele>
        <time>2015-11-01T14:17:04.644Z</time>
      </trkpt>
      <trkpt lat="49.08641" lon="2.22391">
        <ele>103</ele>
        <time>2015-11-01T14:17:10.732Z</time>
      </trkpt>
      <trkpt lat="49.08641" lon="2.22393">
        <ele>100</ele>
        <time>2015-11-01T14:17:11.622Z</time>
      </trkpt>
      <trkpt lat="49.08636" lon="2.22404">
        <ele>99</ele>
        <time>2015-11-01T14:17:19.772Z</time>
      </trkpt>
      <trkpt lat="49.08635" lon="2.22405">
        <ele>98</ele>
        <time>2015-11-01T14:17:20.608Z</time>
      </trkpt>
      <trkpt lat="49.0863" lon="2.22414">
        <ele>98</ele>
        <time>2015-11-01T14:17:27.898Z</time>
      </trkpt>
      <trkpt lat="49.0863" lon="2.22416">
        <ele>98</ele>
        <time>2015-11-01T14:17:28.666Z</time>
      </trkpt>
      <trkpt lat="49.08623" lon="2.22424">
        <ele>98</ele>
        <time>2015-11-01T14:17:35.950Z</time>
      </trkpt>
      <trkpt lat="49.08623" lon="2.22426">
        <ele>95</ele>
        <time>2015-11-01T14:17:36.670Z</time>
      </trkpt>
      <trkpt lat="49.0862" lon="2.22438">
        <ele>88</ele>
        <time>2015-11-01T14:17:42.965Z</time>
      </trkpt>
      <trkpt lat="49.08619" lon="2.2244">
        <ele>88</ele>
        <time>2015-11-01T14:17:43.635Z</time>
      </trkpt>
      <trkpt lat="49.08617" lon="2.22453">
        <ele>87</ele>
        <time>2015-11-01T14:17:49.895Z</time>
      </trkpt>
      <trkpt lat="49.08616" lon="2.22455">
        <ele>87</ele>
        <time>2015-11-01T14:17:50.651Z</time>
      </trkpt>
      <trkpt lat="49.08615" lon="2.22468">
        <ele>84</ele>
        <time>2015-11-01T14:17:57.833Z</time>
      </trkpt>
      <trkpt lat="49.08615" lon="2.22469">
        <ele>86</ele>
        <time>2015-11-01T14:17:58.661Z</time>
      </trkpt>
      <trkpt lat="49.08618" lon="2.22482">
        <ele>87</ele>
        <time>2015-11-01T14:18:06.740Z</time>
      </trkpt>
      <trkpt lat="49.08619" lon="2.22483">
        <ele>86</ele>
        <time>2015-11-01T14:18:07.599Z</time>
      </trkpt>
      <trkpt lat="49.08621" lon="2.22495">
        <ele>82</ele>
        <time>2015-11-01T14:18:14.807Z</time>
      </trkpt>
      <trkpt lat="49.08622" lon="2.22496">
        <ele>82</ele>
        <time>2015-11-01T14:18:15.641Z</time>
      </trkpt>
      <trkpt lat="49.08625" lon="2.22509">
        <ele>83</ele>
        <time>2015-11-01T14:18:24.008Z</time>
      </trkpt>
      <trkpt lat="49.08626" lon="2.2251">
        <ele>83</ele>
        <time>2015-11-01T14:18:24.567Z</time>
      </trkpt>
      <trkpt lat="49.08632" lon="2.2252">
        <ele>88</ele>
        <time>2015-11-01T14:18:52.831Z</time>
      </trkpt>
      <trkpt lat="49.08632" lon="2.22521">
        <ele>89</ele>
        <time>2015-11-01T14:18:53.607Z</time>
      </trkpt>
      <trkpt lat="49.08637" lon="2.22531">
        <ele>85</ele>
        <time>2015-11-01T14:19:03.748Z</time>
      </trkpt>
      <trkpt lat="49.08637" lon="2.22533">
        <ele>84</ele>
        <time>2015-11-01T14:19:04.755Z</time>
      </trkpt>
      <trkpt lat="49.08641" lon="2.22545">
        <ele>83</ele>
        <time>2015-11-01T14:19:22.912Z</time>
      </trkpt>
      <trkpt lat="49.08641" lon="2.22546">
        <ele>84</ele>
        <time>2015-11-01T14:19:23.631Z</time>
      </trkpt>
      <trkpt lat="49.08642" lon="2.22558">
        <ele>86</ele>
        <time>2015-11-01T14:19:34.899Z</time>
      </trkpt>
      <trkpt lat="49.08642" lon="2.22559">
        <ele>86</ele>
        <time>2015-11-01T14:19:35.666Z</time>
      </trkpt>
      <trkpt lat="49.0864" lon="2.22572">
        <ele>88</ele>
        <time>2015-11-01T14:19:42.875Z</time>
      </trkpt>
      <trkpt lat="49.0864" lon="2.22574">
        <ele>89</ele>
        <time>2015-11-01T14:19:43.611Z</time>
      </trkpt>
      <trkpt lat="49.08633" lon="2.22581">
        <ele>91</ele>
        <time>2015-11-01T14:19:51.738Z</time>
      </trkpt>
      <trkpt lat="49.08632" lon="2.22583">
        <ele>90</ele>
        <time>2015-11-01T14:19:52.576Z</time>
      </trkpt>
      <trkpt lat="49.08629" lon="2.22595">
        <ele>89</ele>
        <time>2015-11-01T14:19:58.866Z</time>
      </trkpt>
      <trkpt lat="49.08628" lon="2.22597">
        <ele>88</ele>
        <time>2015-11-01T14:19:59.594Z</time>
      </trkpt>
      <trkpt lat="49.08622" lon="2.22606">
        <ele>84</ele>
        <time>2015-11-01T14:20:05.866Z</time>
      </trkpt>
      <trkpt lat="49.08622" lon="2.22608">
        <ele>83</ele>
        <time>2015-11-01T14:20:06.600Z</time>
      </trkpt>
      <trkpt lat="49.0862" lon="2.22622">
        <ele>85</ele>
        <time>2015-11-01T14:20:19.845Z</time>
      </trkpt>
      <trkpt lat="49.0862" lon="2.22623">
        <ele>85</ele>
        <time>2015-11-01T14:20:20.698Z</time>
      </trkpt>
      <trkpt lat="49.08616" lon="2.22634">
        <ele>85</ele>
        <time>2015-11-01T14:20:26.914Z</time>
      </trkpt>
      <trkpt lat="49.08615" lon="2.22635">
        <ele>86</ele>
        <time>2015-11-01T14:20:27.609Z</time>
      </trkpt>
      <trkpt lat="49.08613" lon="2.22648">
        <ele>89</ele>
        <time>2015-11-01T14:20:36.179Z</time>
      </trkpt>
      <trkpt lat="49.08614" lon="2.2265">
        <ele>87</ele>
        <time>2015-11-01T14:20:36.640Z</time>
      </trkpt>
      <trkpt lat="49.08615" lon="2.22662">
        <ele>89</ele>
        <time>2015-11-01T14:20:41.800Z</time>
      </trkpt>
      <trkpt lat="49.08615" lon="2.22664">
        <ele>88</ele>
        <time>2015-11-01T14:20:42.642Z</time>
      </trkpt>
      <trkpt lat="49.08614" lon="2.22676">
        <ele>89</ele>
        <time>2015-11-01T14:20:48.944Z</time>
      </trkpt>
      <trkpt lat="49.08614" lon="2.22678">
        <ele>89</ele>
        <time>2015-11-01T14:20:49.656Z</time>
      </trkpt>
      <trkpt lat="49.08613" lon="2.22692">
        <ele>91</ele>
        <time>2015-11-01T14:20:56.753Z</time>
      </trkpt>
      <trkpt lat="49.08613" lon="2.22694">
        <ele>91</ele>
        <time>2015-11-01T14:20:57.649Z</time>
      </trkpt>
      <trkpt lat="49.08611" lon="2.22707">
        <ele>93</ele>
        <time>2015-11-01T14:21:35.733Z</time>
      </trkpt>
      <trkpt lat="49.08611" lon="2.22707">
        <ele>93</ele>
        <time>2015-11-01T14:21:36.568Z</time>
      </trkpt>
      <trkpt lat="49.08611" lon="2.2272">
        <ele>91</ele>
        <time>2015-11-01T14:22:48.762Z</time>
      </trkpt>
      <trkpt lat="49.08611" lon="2.22721">
        <ele>90</ele>
        <time>2015-11-01T14:22:49.661Z</time>
      </trkpt>
      <trkpt lat="49.08614" lon="2.22734">
        <ele>87</ele>
        <time>2015-11-01T14:22:58.865Z</time>
      </trkpt>
      <trkpt lat="49.08614" lon="2.22734">
        <ele>88</ele>
        <time>2015-11-01T14:22:59.614Z</time>
      </trkpt>
      <trkpt lat="49.08613" lon="2.22747">
        <ele>92</ele>
        <time>2015-11-01T14:23:34.940Z</time>
      </trkpt>
      <trkpt lat="49.08614" lon="2.22748">
        <ele>91</ele>
        <time>2015-11-01T14:23:35.637Z</time>
      </trkpt>
      <trkpt lat="49.08616" lon="2.22761">
        <ele>90</ele>
        <time>2015-11-01T14:23:42.789Z</time>
      </trkpt>
      <trkpt lat="49.08616" lon="2.22763">
        <ele>90</ele>
        <time>2015-11-01T14:23:43.583Z</time>
      </trkpt>
      <trkpt lat="49.08618" lon="2.22775">
        <ele>91</ele>
        <time>2015-11-01T14:23:50.779Z</time>
      </trkpt>
      <trkpt lat="49.08618" lon="2.22777">
        <ele>92</ele>
        <time>2015-11-01T14:23:51.619Z</time>
      </trkpt>
      <trkpt lat="49.08619" lon="2.22789">
        <ele>90</ele>
        <time>2015-11-01T14:24:00.940Z</time>
      </trkpt>
      <trkpt lat="49.08619" lon="2.22791">
        <ele>90</ele>
        <time>2015-11-01T14:24:01.567Z</time>
      </trkpt>
      <trkpt lat="49.08624" lon="2.22801">
        <ele>89</ele>
        <time>2015-11-01T14:24:14.875Z</time>
      </trkpt>
      <trkpt lat="49.08624" lon="2.22802">
        <ele>89</ele>
        <time>2015-11-01T14:24:15.602Z</time>
      </trkpt>
      <trkpt lat="49.08622" lon="2.22815">
        <ele>91</ele>
        <time>2015-11-01T14:24:26.013Z</time>
      </trkpt>
      <trkpt lat="49.08622" lon="2.22816">
        <ele>92</ele>
        <time>2015-11-01T14:24:26.591Z</time>
      </trkpt>
      <trkpt lat="49.08621" lon="2.2283">
        <ele>93</ele>
        <time>2015-11-01T14:24:35.836Z</time>
      </trkpt>
      <trkpt lat="49.0862" lon="2.22831">
        <ele>94</ele>
        <time>2015-11-01T14:24:36.559Z</time>
      </trkpt>
      <trkpt lat="49.08618" lon="2.22844">
        <ele>99</ele>
        <time>2015-11-01T14:24:45.680Z</time>
      </trkpt>
      <trkpt lat="49.08619" lon="2.22846">
        <ele>98</ele>
        <time>2015-11-01T14:24:46.601Z</time>
      </trkpt>
      <trkpt lat="49.0862" lon="2.22859">
        <ele>102</ele>
        <time>2015-11-01T14:24:53.926Z</time>
      </trkpt>
      <trkpt lat="49.0862" lon="2.22861">
        <ele>101</ele>
        <time>2015-11-01T14:24:54.607Z</time>
      </trkpt>
      <trkpt lat="49.08621" lon="2.22874">
        <ele>102</ele>
        <time>2015-11-01T14:25:01.941Z</time>
      </trkpt>
      <trkpt lat="49.08621" lon="2.22876">
        <ele>102</ele>
        <time>2015-11-01T14:25:02.696Z</time>
      </trkpt>
      <trkpt lat="49.08623" lon="2.22889">
        <ele>99</ele>
        <time>2015-11-01T14:25:09.712Z</time>
      </trkpt>
      <trkpt lat="49.08624" lon="2.22891">
        <ele>98</ele>
        <time>2015-11-01T14:25:10.664Z</time>
      </trkpt>
      <trkpt lat="49.08627" lon="2.22904">
        <ele>97</ele>
        <time>2015-11-01T14:25:17.918Z</time>
      </trkpt>
      <trkpt lat="49.08627" lon="2.22905">
        <ele>96</ele>
        <time>2015-11-01T14:25:18.559Z</time>
      </trkpt>
      <trkpt lat="49.0863" lon="2.22918">
        <ele>95</ele>
        <time>2015-11-01T14:25:24.743Z</time>
      </trkpt>
      <trkpt lat="49.08631" lon="2.2292">
        <ele>94</ele>
        <time>2015-11-01T14:25:25.644Z</time>
      </trkpt>
      <trkpt lat="49.08634" lon="2.22931">
        <ele>94</ele>
        <time>2015-11-01T14:25:33.853Z</time>
      </trkpt>
      <trkpt lat="49.08634" lon="2.22933">
        <ele>94</ele>
        <time>2015-11-01T14:25:34.656Z</time>
      </trkpt>
      <trkpt lat="49.08637" lon="2.22946">
        <ele>97</ele>
        <time>2015-11-01T14:25:42.770Z</time>
      </trkpt>
      <trkpt lat="49.08637" lon="2.22948">
        <ele>97</ele>
        <time>2015-11-01T14:25:43.738Z</time>
      </trkpt>
      <trkpt lat="49.0864" lon="2.22958">
        <ele>97</ele>
        <time>2015-11-01T14:25:50.928Z</time>
      </trkpt>
      <trkpt lat="49.08641" lon="2.2296">
        <ele>96</ele>
        <time>2015-11-01T14:25:51.583Z</time>
      </trkpt>
      <trkpt lat="49.08646" lon="2.22971">
        <ele>99</ele>
        <time>2015-11-01T14:25:59.795Z</time>
      </trkpt>
      <trkpt lat="49.08646" lon="2.22973">
        <ele>100</ele>
        <time>2015-11-01T14:26:00.648Z</time>
      </trkpt>
      <trkpt lat="49.08651" lon="2.22983">
        <ele>102</ele>
        <time>2015-11-01T14:26:09.650Z</time>
      </trkpt>
      <trkpt lat="49.08652" lon="2.22984">
        <ele>101</ele>
        <time>2015-11-01T14:26:10.733Z</time>
      </trkpt>
      <trkpt lat="49.08659" lon="2.2299">
        <ele>99</ele>
        <time>2015-11-01T14:26:16.865Z</time>
      </trkpt>
      <trkpt lat="49.0866" lon="2.2299">
        <ele>99</ele>
        <time>2015-11-01T14:26:17.559Z</time>
      </trkpt>
      <trkpt lat="49.08668" lon="2.22993">
        <ele>98</ele>
        <time>2015-11-01T14:26:29.957Z</time>
      </trkpt>
      <trkpt lat="49.08669" lon="2.22992">
        <ele>97</ele>
        <time>2015-11-01T14:26:30.653Z</time>
      </trkpt>
      <trkpt lat="49.08678" lon="2.22989">
        <ele>98</ele>
        <time>2015-11-01T14:26:38.812Z</time>
      </trkpt>
      <trkpt lat="49.08679" lon="2.22989">
        <ele>98</ele>
        <time>2015-11-01T14:26:39.616Z</time>
      </trkpt>
      <trkpt lat="49.08688" lon="2.2299">
        <ele>100</ele>
        <time>2015-11-01T14:26:49.906Z</time>
      </trkpt>
      <trkpt lat="49.08688" lon="2.22991">
        <ele>99</ele>
        <time>2015-11-01T14:26:50.599Z</time>
      </trkpt>
      <trkpt lat="49.08696" lon="2.22987">
        <ele>96</ele>
        <time>2015-11-01T14:28:17.741Z</time>
      </trkpt>
      <trkpt lat="49.08698" lon="2.22987">
        <ele>98</ele>
        <time>2015-11-01T14:28:18.637Z</time>
      </trkpt>
      <trkpt lat="49.08697" lon="2.23">
        <ele>109</ele>
        <time>2015-11-01T14:28:43.764Z</time>
      </trkpt>
      <trkpt lat="49.08697" lon="2.23001">
        <ele>107</ele>
        <time>2015-11-01T14:28:44.650Z</time>
      </trkpt>
      <trkpt lat="49.08704" lon="2.23007">
        <ele>100</ele>
        <time>2015-11-01T14:28:52.900Z</time>
      </trkpt>
      <trkpt lat="49.08706" lon="2.23009">
        <ele>97</ele>
        <time>2015-11-01T14:28:53.602Z</time>
      </trkpt>
      <trkpt lat="49.08713" lon="2.23016">
        <ele>100</ele>
        <time>2015-11-01T14:29:01.867Z</time>
      </trkpt>
      <trkpt lat="49.08713" lon="2.23017">
        <ele>101</ele>
        <time>2015-11-01T14:29:02.635Z</time>
      </trkpt>
      <trkpt lat="49.0872" lon="2.23023">
        <ele>102</ele>
        <time>2015-11-01T14:29:09.750Z</time>
      </trkpt>
      <trkpt lat="49.08721" lon="2.23023">
        <ele>102</ele>
        <time>2015-11-01T14:29:10.607Z</time>
      </trkpt>
      <trkpt lat="49.08729" lon="2.2303">
        <ele>104</ele>
        <time>2015-11-01T14:29:17.099Z</time>
      </trkpt>
      <trkpt lat="49.0873" lon="2.23031">
        <ele>104</ele>
        <time>2015-11-01T14:29:17.584Z</time>
      </trkpt>
      <trkpt lat="49.08737" lon="2.23036">
        <ele>103</ele>
        <time>2015-11-01T14:29:25.837Z</time>
      </trkpt>
      <trkpt lat="49.08738" lon="2.23036">
        <ele>103</ele>
        <time>2015-11-01T14:29:26.631Z</time>
      </trkpt>
      <trkpt lat="49.08746" lon="2.23042">
        <ele>104</ele>
        <time>2015-11-01T14:29:33.991Z</time>
      </trkpt>
      <trkpt lat="49.08747" lon="2.23044">
        <ele>104</ele>
        <time>2015-11-01T14:29:34.659Z</time>
      </trkpt>
      <trkpt lat="49.08755" lon="2.23047">
        <ele>105</ele>
        <time>2015-11-01T14:29:46.880Z</time>
      </trkpt>
      <trkpt lat="49.08756" lon="2.23047">
        <ele>105</ele>
        <time>2015-11-01T14:29:47.667Z</time>
      </trkpt>
      <trkpt lat="49.08765" lon="2.23042">
        <ele>103</ele>
        <time>2015-11-01T14:29:54.785Z</time>
      </trkpt>
      <trkpt lat="49.08766" lon="2.23042">
        <ele>103</ele>
        <time>2015-11-01T14:29:55.617Z</time>
      </trkpt>
      <trkpt lat="49.08759" lon="2.23047">
        <ele>105</ele>
        <time>2015-11-01T14:30:14.668Z</time>
      </trkpt>
      <trkpt lat="49.08758" lon="2.23049">
        <ele>106</ele>
        <time>2015-11-01T14:30:15.586Z</time>
      </trkpt>
      <trkpt lat="49.08751" lon="2.23056">
        <ele>108</ele>
        <time>2015-11-01T14:30:22.909Z</time>
      </trkpt>
      <trkpt lat="49.0875" lon="2.23057">
        <ele>109</ele>
        <time>2015-11-01T14:30:23.656Z</time>
      </trkpt>
      <trkpt lat="49.08753" lon="2.23067">
        <ele>101</ele>
        <time>2015-11-01T14:30:27.728Z</time>
      </trkpt>
      <trkpt lat="49.08754" lon="2.23069">
        <ele>100</ele>
        <time>2015-11-01T14:30:29.253Z</time>
      </trkpt>
      <trkpt lat="49.08758" lon="2.2308">
        <ele>100</ele>
        <time>2015-11-01T14:30:33.640Z</time>
      </trkpt>
      <trkpt lat="49.08759" lon="2.23082">
        <ele>100</ele>
        <time>2015-11-01T14:30:34.645Z</time>
      </trkpt>
      <trkpt lat="49.08763" lon="2.23094">
        <ele>98</ele>
        <time>2015-11-01T14:30:41.664Z</time>
      </trkpt>
      <trkpt lat="49.08763" lon="2.23095">
        <ele>97</ele>
        <time>2015-11-01T14:30:42.607Z</time>
      </trkpt>
      <trkpt lat="49.08769" lon="2.23104">
        <ele>99</ele>
        <time>2015-11-01T14:30:51.641Z</time>
      </trkpt>
      <trkpt lat="49.08771" lon="2.23104">
        <ele>101</ele>
        <time>2015-11-01T14:30:52.567Z</time>
      </trkpt>
      <trkpt lat="49.08779" lon="2.23106">
        <ele>103</ele>
        <time>2015-11-01T14:31:02.738Z</time>
      </trkpt>
      <trkpt lat="49.0878" lon="2.23107">
        <ele>102</ele>
        <time>2015-11-01T14:31:03.647Z</time>
      </trkpt>
      <trkpt lat="49.08788" lon="2.2311">
        <ele>98</ele>
        <time>2015-11-01T14:31:09.705Z</time>
      </trkpt>
      <trkpt lat="49.0879" lon="2.2311">
        <ele>98</ele>
        <time>2015-11-01T14:31:10.599Z</time>
      </trkpt>
      <trkpt lat="49.08798" lon="2.23111">
        <ele>98</ele>
        <time>2015-11-01T14:31:18.652Z</time>
      </trkpt>
      <trkpt lat="49.08799" lon="2.23112">
        <ele>97</ele>
        <time>2015-11-01T14:31:19.634Z</time>
      </trkpt>
      <trkpt lat="49.08805" lon="2.2312">
        <ele>99</ele>
        <time>2015-11-01T14:31:26.679Z</time>
      </trkpt>
      <trkpt lat="49.08805" lon="2.23121">
        <ele>99</ele>
        <time>2015-11-01T14:31:27.632Z</time>
      </trkpt>
      <trkpt lat="49.08807" lon="2.23133">
        <ele>98</ele>
        <time>2015-11-01T14:31:38.692Z</time>
      </trkpt>
      <trkpt lat="49.08807" lon="2.23135">
        <ele>98</ele>
        <time>2015-11-01T14:31:39.624Z</time>
      </trkpt>
      <trkpt lat="49.08804" lon="2.23146">
        <ele>96</ele>
        <time>2015-11-01T14:31:47.672Z</time>
      </trkpt>
      <trkpt lat="49.08803" lon="2.23148">
        <ele>95</ele>
        <time>2015-11-01T14:31:48.643Z</time>
      </trkpt>
      <trkpt lat="49.08796" lon="2.23155">
        <ele>101</ele>
        <time>2015-11-01T14:31:56.906Z</time>
      </trkpt>
      <trkpt lat="49.08795" lon="2.23155">
        <ele>101</ele>
        <time>2015-11-01T14:31:57.625Z</time>
      </trkpt>
      <trkpt lat="49.08788" lon="2.23164">
        <ele>105</ele>
        <time>2015-11-01T14:32:05.737Z</time>
      </trkpt>
      <trkpt lat="49.08788" lon="2.23166">
        <ele>105</ele>
        <time>2015-11-01T14:32:06.603Z</time>
      </trkpt>
      <trkpt lat="49.08786" lon="2.23179">
        <ele>106</ele>
        <time>2015-11-01T14:32:14.795Z</time>
      </trkpt>
      <trkpt lat="49.08786" lon="2.2318">
        <ele>106</ele>
        <time>2015-11-01T14:32:15.559Z</time>
      </trkpt>
      <trkpt lat="49.08791" lon="2.23192">
        <ele>106</ele>
        <time>2015-11-01T14:32:24.781Z</time>
      </trkpt>
      <trkpt lat="49.08792" lon="2.23193">
        <ele>106</ele>
        <time>2015-11-01T14:32:25.569Z</time>
      </trkpt>
      <trkpt lat="49.08796" lon="2.23203">
        <ele>108</ele>
        <time>2015-11-01T14:32:32.856Z</time>
      </trkpt>
      <trkpt lat="49.08796" lon="2.23205">
        <ele>108</ele>
        <time>2015-11-01T14:32:33.648Z</time>
      </trkpt>
      <trkpt lat="49.08801" lon="2.23215">
        <ele>107</ele>
        <time>2015-11-01T14:32:40.989Z</time>
      </trkpt>
      <trkpt lat="49.08802" lon="2.23217">
        <ele>107</ele>
        <time>2015-11-01T14:32:41.659Z</time>
      </trkpt>
      <trkpt lat="49.08806" lon="2.23227">
        <ele>105</ele>
        <time>2015-11-01T14:32:49.970Z</time>
      </trkpt>
      <trkpt lat="49.08806" lon="2.23229">
        <ele>105</ele>
        <time>2015-11-01T14:32:50.615Z</time>
      </trkpt>
      <trkpt lat="49.08808" lon="2.23242">
        <ele>109</ele>
        <time>2015-11-01T14:32:57.847Z</time>
      </trkpt>
      <trkpt lat="49.08808" lon="2.23243">
        <ele>109</ele>
        <time>2015-11-01T14:32:58.627Z</time>
      </trkpt>
      <trkpt lat="49.08811" lon="2.23255">
        <ele>110</ele>
        <time>2015-11-01T14:33:05.778Z</time>
      </trkpt>
      <trkpt lat="49.08811" lon="2.23257">
        <ele>110</ele>
        <time>2015-11-01T14:33:06.640Z</time>
      </trkpt>
      <trkpt lat="49.08812" lon="2.2327">
        <ele>110</ele>
        <time>2015-11-01T14:33:14.693Z</time>
      </trkpt>
      <trkpt lat="49.08813" lon="2.23272">
        <ele>110</ele>
        <time>2015-11-01T14:33:15.632Z</time>
      </trkpt>
      <trkpt lat="49.08815" lon="2.23283">
        <ele>112</ele>
        <time>2015-11-01T14:33:22.871Z</time>
      </trkpt>
      <trkpt lat="49.08816" lon="2.23285">
        <ele>111</ele>
        <time>2015-11-01T14:33:23.643Z</time>
      </trkpt>
      <trkpt lat="49.0882" lon="2.23296">
        <ele>109</ele>
        <time>2015-11-01T14:33:31.881Z</time>
      </trkpt>
      <trkpt lat="49.0882" lon="2.23298">
        <ele>110</ele>
        <time>2015-11-01T14:33:32.623Z</time>
      </trkpt>
      <trkpt lat="49.08821" lon="2.2331">
        <ele>112</ele>
        <time>2015-11-01T14:33:39.911Z</time>
      </trkpt>
      <trkpt lat="49.08822" lon="2.23311">
        <ele>112</ele>
        <time>2015-11-01T14:33:40.665Z</time>
      </trkpt>
      <trkpt lat="49.08826" lon="2.23324">
        <ele>110</ele>
        <time>2015-11-01T14:33:47.885Z</time>
      </trkpt>
      <trkpt lat="49.08826" lon="2.23325">
        <ele>109</ele>
        <time>2015-11-01T14:33:48.666Z</time>
      </trkpt>
      <trkpt lat="49.0883" lon="2.23336">
        <ele>110</ele>
        <time>2015-11-01T14:33:55.724Z</time>
      </trkpt>
      <trkpt lat="49.0883" lon="2.23337">
        <ele>111</ele>
        <time>2015-11-01T14:33:56.611Z</time>
      </trkpt>
      <trkpt lat="49.08834" lon="2.23348">
        <ele>112</ele>
        <time>2015-11-01T14:34:06.701Z</time>
      </trkpt>
      <trkpt lat="49.08835" lon="2.23349">
        <ele>112</ele>
        <time>2015-11-01T14:34:07.632Z</time>
      </trkpt>
      <trkpt lat="49.08839" lon="2.23359">
        <ele>110</ele>
        <time>2015-11-01T14:34:14.715Z</time>
      </trkpt>
      <trkpt lat="49.0884" lon="2.2336">
        <ele>110</ele>
        <time>2015-11-01T14:34:15.604Z</time>
      </trkpt>
      <trkpt lat="49.08844" lon="2.23371">
        <ele>109</ele>
        <time>2015-11-01T14:34:22.022Z</time>
      </trkpt>
      <trkpt lat="49.08844" lon="2.23372">
        <ele>108</ele>
        <time>2015-11-01T14:34:22.644Z</time>
      </trkpt>
      <trkpt lat="49.08847" lon="2.23384">
        <ele>109</ele>
        <time>2015-11-01T14:34:29.722Z</time>
      </trkpt>
      <trkpt lat="49.08847" lon="2.23386">
        <ele>108</ele>
        <time>2015-11-01T14:34:30.650Z</time>
      </trkpt>
      <trkpt lat="49.08851" lon="2.23397">
        <ele>107</ele>
        <time>2015-11-01T14:34:37.879Z</time>
      </trkpt>
      <trkpt lat="49.08852" lon="2.23399">
        <ele>106</ele>
        <time>2015-11-01T14:34:38.618Z</time>
      </trkpt>
      <trkpt lat="49.08856" lon="2.23409">
        <ele>106</ele>
        <time>2015-11-01T14:34:45.946Z</time>
      </trkpt>
      <trkpt lat="49.08857" lon="2.23411">
        <ele>105</ele>
        <time>2015-11-01T14:34:46.600Z</time>
      </trkpt>
      <trkpt lat="49.08862" lon="2.23421">
        <ele>106</ele>
        <time>2015-11-01T14:34:53.696Z</time>
      </trkpt>
      <trkpt lat="49.08863" lon="2.23423">
        <ele>106</ele>
        <time>2015-11-01T14:34:54.629Z</time>
      </trkpt>
      <trkpt lat="49.08868" lon="2.23431">
        <ele>104</ele>
        <time>2015-11-01T14:35:01.661Z</time>
      </trkpt>
      <trkpt lat="49.08869" lon="2.23432">
        <ele>105</ele>
        <time>2015-11-01T14:35:02.640Z</time>
      </trkpt>
      <trkpt lat="49.08874" lon="2.23444">
        <ele>107</ele>
        <time>2015-11-01T14:35:10.685Z</time>
      </trkpt>
      <trkpt lat="49.08875" lon="2.23445">
        <ele>107</ele>
        <time>2015-11-01T14:35:11.615Z</time>
      </trkpt>
      <trkpt lat="49.08874" lon="2.23458">
        <ele>109</ele>
        <time>2015-11-01T14:35:19.711Z</time>
      </trkpt>
      <trkpt lat="49.08873" lon="2.23459">
        <ele>109</ele>
        <time>2015-11-01T14:35:20.644Z</time>
      </trkpt>
      <trkpt lat="49.08868" lon="2.23469">
        <ele>110</ele>
        <time>2015-11-01T14:35:27.659Z</time>
      </trkpt>
      <trkpt lat="49.08867" lon="2.2347">
        <ele>110</ele>
        <time>2015-11-01T14:35:28.570Z</time>
      </trkpt>
      <trkpt lat="49.0886" lon="2.23476">
        <ele>113</ele>
        <time>2015-11-01T14:35:34.884Z</time>
      </trkpt>
      <trkpt lat="49.08858" lon="2.23476">
        <ele>114</ele>
        <time>2015-11-01T14:35:35.618Z</time>
      </trkpt>
      <trkpt lat="49.08851" lon="2.23481">
        <ele>119</ele>
        <time>2015-11-01T14:35:41.919Z</time>
      </trkpt>
      <trkpt lat="49.0885" lon="2.23482">
        <ele>120</ele>
        <time>2015-11-01T14:35:42.619Z</time>
      </trkpt>
      <trkpt lat="49.08842" lon="2.23489">
        <ele>120</ele>
        <time>2015-11-01T14:35:49.977Z</time>
      </trkpt>
      <trkpt lat="49.08842" lon="2.2349">
        <ele>120</ele>
        <time>2015-11-01T14:35:50.592Z</time>
      </trkpt>
      <trkpt lat="49.08834" lon="2.23496">
        <ele>119</ele>
        <time>2015-11-01T14:35:58.894Z</time>
      </trkpt>
      <trkpt lat="49.08834" lon="2.23497">
        <ele>119</ele>
        <time>2015-11-01T14:35:59.658Z</time>
      </trkpt>
      <trkpt lat="49.08827" lon="2.23505">
        <ele>120</ele>
        <time>2015-11-01T14:36:08.791Z</time>
      </trkpt>
      <trkpt lat="49.08826" lon="2.23506">
        <ele>119</ele>
        <time>2015-11-01T14:36:09.631Z</time>
      </trkpt>
      <trkpt lat="49.08818" lon="2.23508">
        <ele>117</ele>
        <time>2015-11-01T14:36:16.858Z</time>
      </trkpt>
      <trkpt lat="49.08817" lon="2.23509">
        <ele>118</ele>
        <time>2015-11-01T14:36:17.758Z</time>
      </trkpt>
      <trkpt lat="49.08809" lon="2.23514">
        <ele>119</ele>
        <time>2015-11-01T14:36:24.938Z</time>
      </trkpt>
      <trkpt lat="49.08808" lon="2.23515">
        <ele>119</ele>
        <time>2015-11-01T14:36:25.576Z</time>
      </trkpt>
      <trkpt lat="49.08802" lon="2.23524">
        <ele>117</ele>
        <time>2015-11-01T14:36:33.005Z</time>
      </trkpt>
      <trkpt lat="49.08801" lon="2.23525">
        <ele>117</ele>
        <time>2015-11-01T14:36:33.642Z</time>
      </trkpt>
      <trkpt lat="49.08794" lon="2.23531">
        <ele>118</ele>
        <time>2015-11-01T14:36:41.769Z</time>
      </trkpt>
      <trkpt lat="49.08793" lon="2.23532">
        <ele>119</ele>
        <time>2015-11-01T14:36:42.676Z</time>
      </trkpt>
      <trkpt lat="49.08785" lon="2.23536">
        <ele>119</ele>
        <time>2015-11-01T14:36:49.881Z</time>
      </trkpt>
      <trkpt lat="49.08783" lon="2.23536">
        <ele>120</ele>
        <time>2015-11-01T14:36:50.660Z</time>
      </trkpt>
      <trkpt lat="49.08775" lon="2.23537">
        <ele>121</ele>
        <time>2015-11-01T14:36:55.854Z</time>
      </trkpt>
      <trkpt lat="49.08774" lon="2.23538">
        <ele>120</ele>
        <time>2015-11-01T14:36:56.603Z</time>
      </trkpt>
      <trkpt lat="49.08772" lon="2.2355">
        <ele>120</ele>
        <time>2015-11-01T14:37:04.840Z</time>
      </trkpt>
      <trkpt lat="49.08772" lon="2.23552">
        <ele>119</ele>
        <time>2015-11-01T14:37:05.568Z</time>
      </trkpt>
      <trkpt lat="49.08767" lon="2.23563">
        <ele>120</ele>
        <time>2015-11-01T14:37:14.775Z</time>
      </trkpt>
      <trkpt lat="49.08767" lon="2.23564">
        <ele>120</ele>
        <time>2015-11-01T14:37:15.832Z</time>
      </trkpt>
      <trkpt lat="49.08759" lon="2.2357">
        <ele>126</ele>
        <time>2015-11-01T14:37:23.799Z</time>
      </trkpt>
      <trkpt lat="49.08757" lon="2.2357">
        <ele>127</ele>
        <time>2015-11-01T14:37:24.649Z</time>
      </trkpt>
      <trkpt lat="49.08749" lon="2.23574">
        <ele>129</ele>
        <time>2015-11-01T14:37:34.855Z</time>
      </trkpt>
      <trkpt lat="49.08748" lon="2.23574">
        <ele>131</ele>
        <time>2015-11-01T14:37:35.649Z</time>
      </trkpt>
      <trkpt lat="49.08743" lon="2.23584">
        <ele>122</ele>
        <time>2015-11-01T14:38:03.767Z</time>
      </trkpt>
      <trkpt lat="49.08743" lon="2.23585">
        <ele>121</ele>
        <time>2015-11-01T14:38:04.632Z</time>
      </trkpt>
      <trkpt lat="49.08738" lon="2.23595">
        <ele>119</ele>
        <time>2015-11-01T14:38:12.762Z</time>
      </trkpt>
      <trkpt lat="49.08737" lon="2.23596">
        <ele>119</ele>
        <time>2015-11-01T14:38:13.618Z</time>
      </trkpt>
      <trkpt lat="49.0873" lon="2.23602">
        <ele>119</ele>
        <time>2015-11-01T14:38:20.735Z</time>
      </trkpt>
      <trkpt lat="49.08729" lon="2.23603">
        <ele>120</ele>
        <time>2015-11-01T14:38:21.634Z</time>
      </trkpt>
      <trkpt lat="49.08724" lon="2.23613">
        <ele>121</ele>
        <time>2015-11-01T14:38:27.834Z</time>
      </trkpt>
      <trkpt lat="49.08723" lon="2.23614">
        <ele>119</ele>
        <time>2015-11-01T14:38:28.672Z</time>
      </trkpt>
      <trkpt lat="49.08717" lon="2.23623">
        <ele>124</ele>
        <time>2015-11-01T14:38:36.774Z</time>
      </trkpt>
      <trkpt lat="49.08716" lon="2.23624">
        <ele>123</ele>
        <time>2015-11-01T14:38:37.609Z</time>
      </trkpt>
      <trkpt lat="49.08708" lon="2.23627">
        <ele>124</ele>
        <time>2015-11-01T14:38:42.831Z</time>
      </trkpt>
      <trkpt lat="49.08706" lon="2.23628">
        <ele>123</ele>
        <time>2015-11-01T14:38:43.567Z</time>
      </trkpt>
      <trkpt lat="49.08699" lon="2.2363">
        <ele>123</ele>
        <time>2015-11-01T14:38:48.881Z</time>
      </trkpt>
      <trkpt lat="49.08697" lon="2.2363">
        <ele>124</ele>
        <time>2015-11-01T14:38:49.649Z</time>
      </trkpt>
      <trkpt lat="49.08689" lon="2.23629">
        <ele>132</ele>
        <time>2015-11-01T14:38:57.835Z</time>
      </trkpt>
      <trkpt lat="49.08688" lon="2.23629">
        <ele>133</ele>
        <time>2015-11-01T14:38:58.676Z</time>
      </trkpt>
      <trkpt lat="49.0868" lon="2.23628">
        <ele>132</ele>
        <time>2015-11-01T14:39:04.901Z</time>
      </trkpt>
      <trkpt lat="49.08678" lon="2.23628">
        <ele>131</ele>
        <time>2015-11-01T14:39:05.609Z</time>
      </trkpt>
      <trkpt lat="49.0867" lon="2.23628">
        <ele>133</ele>
        <time>2015-11-01T14:39:12.780Z</time>
      </trkpt>
      <trkpt lat="49.08669" lon="2.23628">
        <ele>133</ele>
        <time>2015-11-01T14:39:13.623Z</time>
      </trkpt>
      <trkpt lat="49.08661" lon="2.23629">
        <ele>140</ele>
        <time>2015-11-01T14:39:19.818Z</time>
      </trkpt>
      <trkpt lat="49.08659" lon="2.23629">
        <ele>142</ele>
        <time>2015-11-01T14:39:20.608Z</time>
      </trkpt>
      <trkpt lat="49.08652" lon="2.23634">
        <ele>140</ele>
        <time>2015-11-01T14:39:27.957Z</time>
      </trkpt>
      <trkpt lat="49.0865" lon="2.23635">
        <ele>140</ele>
        <time>2015-11-01T14:39:28.620Z</time>
      </trkpt>
      <trkpt lat="49.08642" lon="2.23638">
        <ele>138</ele>
        <time>2015-11-01T14:39:34.903Z</time>
      </trkpt>
      <trkpt lat="49.08641" lon="2.23639">
        <ele>139</ele>
        <time>2015-11-01T14:39:35.621Z</time>
      </trkpt>
      <trkpt lat="49.08632" lon="2.23642">
        <ele>138</ele>
        <time>2015-11-01T14:39:42.877Z</time>
      </trkpt>
      <trkpt lat="49.08631" lon="2.23641">
        <ele>141</ele>
        <time>2015-11-01T14:39:43.629Z</time>
      </trkpt>
      <trkpt lat="49.08622" lon="2.23642">
        <ele>142</ele>
        <time>2015-11-01T14:39:53.858Z</time>
      </trkpt>
      <trkpt lat="49.08621" lon="2.23642">
        <ele>142</ele>
        <time>2015-11-01T14:39:54.617Z</time>
      </trkpt>
      <trkpt lat="49.08613" lon="2.23644">
        <ele>143</ele>
        <time>2015-11-01T14:40:01.824Z</time>
      </trkpt>
      <trkpt lat="49.08612" lon="2.23645">
        <ele>142</ele>
        <time>2015-11-01T14:40:02.656Z</time>
      </trkpt>
      <trkpt lat="49.08603" lon="2.23647">
        <ele>140</ele>
        <time>2015-11-01T14:40:08.816Z</time>
      </trkpt>
      <trkpt lat="49.08602" lon="2.23647">
        <ele>139</ele>
        <time>2015-11-01T14:40:09.568Z</time>
      </trkpt>
      <trkpt lat="49.08593" lon="2.2365">
        <ele>133</ele>
        <time>2015-11-01T14:40:20.043Z</time>
      </trkpt>
      <trkpt lat="49.08593" lon="2.23651">
        <ele>133</ele>
        <time>2015-11-01T14:40:20.689Z</time>
      </trkpt>
      <trkpt lat="49.08584" lon="2.23649">
        <ele>137</ele>
        <time>2015-11-01T14:41:40.822Z</time>
      </trkpt>
      <trkpt lat="49.08584" lon="2.23649">
        <ele>137</ele>
        <time>2015-11-01T14:41:41.568Z</time>
      </trkpt>
      <trkpt lat="49.08576" lon="2.23648">
        <ele>141</ele>
        <time>2015-11-01T14:41:46.797Z</time>
      </trkpt>
      <trkpt lat="49.08574" lon="2.23649">
        <ele>142</ele>
        <time>2015-11-01T14:41:47.632Z</time>
      </trkpt>
      <trkpt lat="49.08566" lon="2.23652">
        <ele>140</ele>
        <time>2015-11-01T14:41:53.881Z</time>
      </trkpt>
      <trkpt lat="49.08564" lon="2.23653">
        <ele>139</ele>
        <time>2015-11-01T14:41:54.577Z</time>
      </trkpt>
      <trkpt lat="49.08556" lon="2.23655">
        <ele>144</ele>
        <time>2015-11-01T14:42:02.750Z</time>
      </trkpt>
      <trkpt lat="49.08555" lon="2.23655">
        <ele>145</ele>
        <time>2015-11-01T14:42:03.813Z</time>
      </trkpt>
      <trkpt lat="49.08546" lon="2.23657">
        <ele>147</ele>
        <time>2015-11-01T14:42:10.757Z</time>
      </trkpt>
      <trkpt lat="49.08545" lon="2.23658">
        <ele>147</ele>
        <time>2015-11-01T14:42:11.624Z</time>
      </trkpt>
      <trkpt lat="49.08536" lon="2.2366">
        <ele>145</ele>
        <time>2015-11-01T14:42:17.883Z</time>
      </trkpt>
      <trkpt lat="49.08535" lon="2.2366">
        <ele>146</ele>
        <time>2015-11-01T14:42:18.659Z</time>
      </trkpt>
      <trkpt lat="49.08527" lon="2.23665">
        <ele>140</ele>
        <time>2015-11-01T14:42:26.716Z</time>
      </trkpt>
      <trkpt lat="49.08527" lon="2.23665">
        <ele>140</ele>
        <time>2015-11-01T14:42:27.648Z</time>
      </trkpt>
      <trkpt lat="49.08518" lon="2.2367">
        <ele>137</ele>
        <time>2015-11-01T14:42:35.924Z</time>
      </trkpt>
      <trkpt lat="49.08517" lon="2.23671">
        <ele>137</ele>
        <time>2015-11-01T14:42:36.678Z</time>
      </trkpt>
      <trkpt lat="49.0851" lon="2.23676">
        <ele>133</ele>
        <time>2015-11-01T14:42:45.750Z</time>
      </trkpt>
      <trkpt lat="49.08509" lon="2.23676">
        <ele>133</ele>
        <time>2015-11-01T14:42:46.651Z</time>
      </trkpt>
      <trkpt lat="49.085" lon="2.23679">
        <ele>136</ele>
        <time>2015-11-01T14:42:52.904Z</time>
      </trkpt>
      <trkpt lat="49.08499" lon="2.2368">
        <ele>136</ele>
        <time>2015-11-01T14:42:53.678Z</time>
      </trkpt>
      <trkpt lat="49.08491" lon="2.23684">
        <ele>138</ele>
        <time>2015-11-01T14:42:59.819Z</time>
      </trkpt>
      <trkpt lat="49.08489" lon="2.23684">
        <ele>137</ele>
        <time>2015-11-01T14:43:00.624Z</time>
      </trkpt>
      <trkpt lat="49.08481" lon="2.23689">
        <ele>136</ele>
        <time>2015-11-01T14:43:08.740Z</time>
      </trkpt>
      <trkpt lat="49.0848" lon="2.2369">
        <ele>138</ele>
        <time>2015-11-01T14:43:09.621Z</time>
      </trkpt>
      <trkpt lat="49.08473" lon="2.23691">
        <ele>139</ele>
        <time>2015-11-01T14:43:14.697Z</time>
      </trkpt>
      <trkpt lat="49.08471" lon="2.23691">
        <ele>140</ele>
        <time>2015-11-01T14:43:15.576Z</time>
      </trkpt>
      <trkpt lat="49.08462" lon="2.23691">
        <ele>134</ele>
        <time>2015-11-01T14:43:23.652Z</time>
      </trkpt>
      <trkpt lat="49.08461" lon="2.2369">
        <ele>134</ele>
        <time>2015-11-01T14:43:24.708Z</time>
      </trkpt>
      <trkpt lat="49.08452" lon="2.23692">
        <ele>130</ele>
        <time>2015-11-01T14:43:34.753Z</time>
      </trkpt>
      <trkpt lat="49.08451" lon="2.23693">
        <ele>130</ele>
        <time>2015-11-01T14:43:35.676Z</time>
      </trkpt>
      <trkpt lat="49.08444" lon="2.2369">
        <ele>130</ele>
        <time>2015-11-01T14:43:39.888Z</time>
      </trkpt>
      <trkpt lat="49.08442" lon="2.2369">
        <ele>128</ele>
        <time>2015-11-01T14:43:40.660Z</time>
      </trkpt>
      <trkpt lat="49.08434" lon="2.23693">
        <ele>127</ele>
        <time>2015-11-01T14:43:47.916Z</time>
      </trkpt>
      <trkpt lat="49.08433" lon="2.23693">
        <ele>125</ele>
        <time>2015-11-01T14:43:48.673Z</time>
      </trkpt>
      <trkpt lat="49.08425" lon="2.23695">
        <ele>131</ele>
        <time>2015-11-01T14:43:54.756Z</time>
      </trkpt>
      <trkpt lat="49.08424" lon="2.23696">
        <ele>130</ele>
        <time>2015-11-01T14:43:55.597Z</time>
      </trkpt>
      <trkpt lat="49.08416" lon="2.23698">
        <ele>129</ele>
        <time>2015-11-01T14:44:03.887Z</time>
      </trkpt>
      <trkpt lat="49.08415" lon="2.23697">
        <ele>130</ele>
        <time>2015-11-01T14:44:04.681Z</time>
      </trkpt>
      <trkpt lat="49.08406" lon="2.23696">
        <ele>133</ele>
        <time>2015-11-01T14:44:09.726Z</time>
      </trkpt>
      <trkpt lat="49.08404" lon="2.23696">
        <ele>135</ele>
        <time>2015-11-01T14:44:10.616Z</time>
      </trkpt>
      <trkpt lat="49.08396" lon="2.237">
        <ele>133</ele>
        <time>2015-11-01T14:44:17.902Z</time>
      </trkpt>
      <trkpt lat="49.08395" lon="2.23701">
        <ele>133</ele>
        <time>2015-11-01T14:44:18.668Z</time>
      </trkpt>
      <trkpt lat="49.08387" lon="2.23703">
        <ele>133</ele>
        <time>2015-11-01T14:44:25.158Z</time>
      </trkpt>
      <trkpt lat="49.08386" lon="2.23703">
        <ele>133</ele>
        <time>2015-11-01T14:44:25.641Z</time>
      </trkpt>
      <trkpt lat="49.08378" lon="2.23701">
        <ele>134</ele>
        <time>2015-11-01T14:44:31.101Z</time>
      </trkpt>
      <trkpt lat="49.08376" lon="2.23701">
        <ele>134</ele>
        <time>2015-11-01T14:44:31.649Z</time>
      </trkpt>
      <trkpt lat="49.08368" lon="2.237">
        <ele>128</ele>
        <time>2015-11-01T14:44:38.199Z</time>
      </trkpt>
      <trkpt lat="49.08367" lon="2.23699">
        <ele>128</ele>
        <time>2015-11-01T14:44:38.609Z</time>
      </trkpt>
      <trkpt lat="49.08358" lon="2.23699">
        <ele>130</ele>
        <time>2015-11-01T14:44:44.944Z</time>
      </trkpt>
      <trkpt lat="49.08356" lon="2.23698">
        <ele>130</ele>
        <time>2015-11-01T14:44:45.612Z</time>
      </trkpt>
      <trkpt lat="49.08348" lon="2.23698">
        <ele>132</ele>
        <time>2015-11-01T14:45:00.842Z</time>
      </trkpt>
      <trkpt lat="49.08346" lon="2.23699">
        <ele>134</ele>
        <time>2015-11-01T14:45:01.620Z</time>
      </trkpt>
      <trkpt lat="49.08339" lon="2.23706">
        <ele>128</ele>
        <time>2015-11-01T14:45:15.736Z</time>
      </trkpt>
      <trkpt lat="49.08339" lon="2.23706">
        <ele>128</ele>
        <time>2015-11-01T14:45:16.656Z</time>
      </trkpt>
      <trkpt lat="49.0833" lon="2.23708">
        <ele>125</ele>
        <time>2015-11-01T14:45:28.728Z</time>
      </trkpt>
      <trkpt lat="49.08326" lon="2.2371">
        <ele>125</ele>
        <time>2015-11-01T14:45:30.816Z</time>
      </trkpt>
      <trkpt lat="49.08318" lon="2.23714">
        <ele>122</ele>
        <time>2015-11-01T14:45:35.740Z</time>
      </trkpt>
      <trkpt lat="49.08317" lon="2.23715">
        <ele>124</ele>
        <time>2015-11-01T14:45:36.626Z</time>
      </trkpt>
      <trkpt lat="49.08309" lon="2.2372">
        <ele>122</ele>
        <time>2015-11-01T14:45:44.804Z</time>
      </trkpt>
      <trkpt lat="49.08308" lon="2.23721">
        <ele>123</ele>
        <time>2015-11-01T14:45:45.616Z</time>
      </trkpt>
      <trkpt lat="49.08302" lon="2.23729">
        <ele>124</ele>
        <time>2015-11-01T14:45:52.736Z</time>
      </trkpt>
      <trkpt lat="49.08301" lon="2.2373">
        <ele>124</ele>
        <time>2015-11-01T14:45:53.632Z</time>
      </trkpt>
      <trkpt lat="49.08292" lon="2.23736">
        <ele>122</ele>
        <time>2015-11-01T14:46:00.776Z</time>
      </trkpt>
      <trkpt lat="49.08291" lon="2.23737">
        <ele>123</ele>
        <time>2015-11-01T14:46:01.658Z</time>
      </trkpt>
      <trkpt lat="49.08283" lon="2.23743">
        <ele>125</ele>
        <time>2015-11-01T14:46:08.731Z</time>
      </trkpt>
      <trkpt lat="49.08282" lon="2.23744">
        <ele>125</ele>
        <time>2015-11-01T14:46:09.633Z</time>
      </trkpt>
      <trkpt lat="49.08274" lon="2.23749">
        <ele>126</ele>
        <time>2015-11-01T14:46:16.680Z</time>
      </trkpt>
      <trkpt lat="49.08273" lon="2.23749">
        <ele>126</ele>
        <time>2015-11-01T14:46:17.633Z</time>
      </trkpt>
      <trkpt lat="49.08265" lon="2.23755">
        <ele>121</ele>
        <time>2015-11-01T14:46:25.693Z</time>
      </trkpt>
      <trkpt lat="49.08264" lon="2.23755">
        <ele>120</ele>
        <time>2015-11-01T14:46:26.571Z</time>
      </trkpt>
      <trkpt lat="49.08257" lon="2.2376">
        <ele>121</ele>
        <time>2015-11-01T14:46:33.925Z</time>
      </trkpt>
      <trkpt lat="49.08256" lon="2.23761">
        <ele>122</ele>
        <time>2015-11-01T14:46:34.658Z</time>
      </trkpt>
      <trkpt lat="49.08249" lon="2.23766">
        <ele>124</ele>
        <time>2015-11-01T14:46:42.166Z</time>
      </trkpt>
      <trkpt lat="49.08247" lon="2.23767">
        <ele>124</ele>
        <time>2015-11-01T14:46:42.626Z</time>
      </trkpt>
      <trkpt lat="49.0824" lon="2.23771">
        <ele>126</ele>
        <time>2015-11-01T14:46:47.900Z</time>
      </trkpt>
      <trkpt lat="49.08238" lon="2.23772">
        <ele>125</ele>
        <time>2015-11-01T14:46:48.639Z</time>
      </trkpt>
      <trkpt lat="49.0823" lon="2.23773">
        <ele>124</ele>
        <time>2015-11-01T14:46:54.863Z</time>
      </trkpt>
      <trkpt lat="49.08229" lon="2.23774">
        <ele>125</ele>
        <time>2015-11-01T14:46:55.671Z</time>
      </trkpt>
      <trkpt lat="49.08221" lon="2.23773">
        <ele>127</ele>
        <time>2015-11-01T14:47:01.859Z</time>
      </trkpt>
      <trkpt lat="49.08219" lon="2.23774">
        <ele>128</ele>
        <time>2015-11-01T14:47:02.674Z</time>
      </trkpt>
      <trkpt lat="49.08212" lon="2.23781">
        <ele>127</ele>
        <time>2015-11-01T14:47:09.655Z</time>
      </trkpt>
      <trkpt lat="49.08211" lon="2.23781">
        <ele>126</ele>
        <time>2015-11-01T14:47:10.608Z</time>
      </trkpt>
      <trkpt lat="49.08204" lon="2.23787">
        <ele>122</ele>
        <time>2015-11-01T14:47:17.895Z</time>
      </trkpt>
      <trkpt lat="49.08203" lon="2.23787">
        <ele>123</ele>
        <time>2015-11-01T14:47:18.845Z</time>
      </trkpt>
      <trkpt lat="49.08196" lon="2.23794">
        <ele>125</ele>
        <time>2015-11-01T14:47:24.910Z</time>
      </trkpt>
      <trkpt lat="49.08196" lon="2.23796">
        <ele>125</ele>
        <time>2015-11-01T14:47:25.654Z</time>
      </trkpt>
      <trkpt lat="49.08187" lon="2.23799">
        <ele>131</ele>
        <time>2015-11-01T14:49:16.761Z</time>
      </trkpt>
      <trkpt lat="49.08186" lon="2.238">
        <ele>133</ele>
        <time>2015-11-01T14:49:17.634Z</time>
      </trkpt>
      <trkpt lat="49.08177" lon="2.23801">
        <ele>134</ele>
        <time>2015-11-01T14:49:24.944Z</time>
      </trkpt>
      <trkpt lat="49.08176" lon="2.238">
        <ele>134</ele>
        <time>2015-11-01T14:49:25.679Z</time>
      </trkpt>
      <trkpt lat="49.08168" lon="2.23801">
        <ele>130</ele>
        <time>2015-11-01T14:49:32.874Z</time>
      </trkpt>
      <trkpt lat="49.08166" lon="2.23802">
        <ele>130</ele>
        <time>2015-11-01T14:49:33.627Z</time>
      </trkpt>
      <trkpt lat="49.08158" lon="2.23802">
        <ele>127</ele>
        <time>2015-11-01T14:49:36.909Z</time>
      </trkpt>
      <trkpt lat="49.08156" lon="2.23802">
        <ele>127</ele>
        <time>2015-11-01T14:49:37.614Z</time>
      </trkpt>
      <trkpt lat="49.08148" lon="2.23806">
        <ele>124</ele>
        <time>2015-11-01T14:49:43.233Z</time>
      </trkpt>
      <trkpt lat="49.08147" lon="2.23806">
        <ele>125</ele>
        <time>2015-11-01T14:49:43.625Z</time>
      </trkpt>
      <trkpt lat="49.08139" lon="2.23807">
        <ele>135</ele>
        <time>2015-11-01T14:49:50.726Z</time>
      </trkpt>
      <trkpt lat="49.08138" lon="2.23808">
        <ele>135</ele>
        <time>2015-11-01T14:49:51.664Z</time>
      </trkpt>
      <trkpt lat="49.0813" lon="2.23812">
        <ele>137</ele>
        <time>2015-11-01T14:49:58.872Z</time>
      </trkpt>
      <trkpt lat="49.08129" lon="2.23813">
        <ele>134</ele>
        <time>2015-11-01T14:49:59.626Z</time>
      </trkpt>
      <trkpt lat="49.0812" lon="2.23816">
        <ele>140</ele>
        <time>2015-11-01T14:50:09.090Z</time>
      </trkpt>
      <trkpt lat="49.0812" lon="2.23818">
        <ele>142</ele>
        <time>2015-11-01T14:50:09.592Z</time>
      </trkpt>
      <trkpt lat="49.08112" lon="2.23821">
        <ele>137</ele>
        <time>2015-11-01T14:50:16.729Z</time>
      </trkpt>
      <trkpt lat="49.08111" lon="2.23822">
        <ele>138</ele>
        <time>2015-11-01T14:50:17.908Z</time>
      </trkpt>
      <trkpt lat="49.08103" lon="2.23826">
        <ele>140</ele>
        <time>2015-11-01T14:50:24.795Z</time>
      </trkpt>
      <trkpt lat="49.08102" lon="2.23825">
        <ele>141</ele>
        <time>2015-11-01T14:50:25.630Z</time>
      </trkpt>
      <trkpt lat="49.08094" lon="2.23826">
        <ele>143</ele>
        <time>2015-11-01T14:50:30.915Z</time>
      </trkpt>
      <trkpt lat="49.08093" lon="2.23827">
        <ele>143</ele>
        <time>2015-11-01T14:50:31.653Z</time>
      </trkpt>
      <trkpt lat="49.08084" lon="2.2383">
        <ele>141</ele>
        <time>2015-11-01T14:50:44.919Z</time>
      </trkpt>
      <trkpt lat="49.08083" lon="2.2383">
        <ele>141</ele>
        <time>2015-11-01T14:50:45.676Z</time>
      </trkpt>
      <trkpt lat="49.08074" lon="2.23832">
        <ele>148</ele>
        <time>2015-11-01T14:50:54.820Z</time>
      </trkpt>
      <trkpt lat="49.08074" lon="2.23832">
        <ele>149</ele>
        <time>2015-11-01T14:50:55.648Z</time>
      </trkpt>
      <trkpt lat="49.08066" lon="2.23834">
        <ele>148</ele>
        <time>2015-11-01T14:51:03.709Z</time>
      </trkpt>
      <trkpt lat="49.08065" lon="2.23834">
        <ele>148</ele>
        <time>2015-11-01T14:51:04.626Z</time>
      </trkpt>
      <trkpt lat="49.08056" lon="2.23833">
        <ele>149</ele>
        <time>2015-11-01T14:51:15.663Z</time>
      </trkpt>
      <trkpt lat="49.08055" lon="2.23833">
        <ele>148</ele>
        <time>2015-11-01T14:51:16.577Z</time>
      </trkpt>
      <trkpt lat="49.08047" lon="2.23836">
        <ele>146</ele>
        <time>2015-11-01T14:51:22.831Z</time>
      </trkpt>
      <trkpt lat="49.08044" lon="2.23836">
        <ele>147</ele>
        <time>2015-11-01T14:51:23.652Z</time>
      </trkpt>
      <trkpt lat="49.08036" lon="2.23834">
        <ele>152</ele>
        <time>2015-11-01T14:51:29.024Z</time>
      </trkpt>
      <trkpt lat="49.08035" lon="2.23834">
        <ele>152</ele>
        <time>2015-11-01T14:51:29.642Z</time>
      </trkpt>
      <trkpt lat="49.08026" lon="2.23836">
        <ele>151</ele>
        <time>2015-11-01T14:51:38.909Z</time>
      </trkpt>
      <trkpt lat="49.08024" lon="2.23836">
        <ele>150</ele>
        <time>2015-11-01T14:51:39.619Z</time>
      </trkpt>
      <trkpt lat="49.08016" lon="2.23836">
        <ele>147</ele>
        <time>2015-11-01T14:51:46.741Z</time>
      </trkpt>
      <trkpt lat="49.08014" lon="2.23836">
        <ele>148</ele>
        <time>2015-11-01T14:51:47.794Z</time>
      </trkpt>
      <trkpt lat="49.08005" lon="2.23837">
        <ele>149</ele>
        <time>2015-11-01T14:51:54.822Z</time>
      </trkpt>
      <trkpt lat="49.08004" lon="2.23837">
        <ele>151</ele>
        <time>2015-11-01T14:51:55.650Z</time>
      </trkpt>
      <trkpt lat="49.07996" lon="2.23839">
        <ele>148</ele>
        <time>2015-11-01T14:52:02.888Z</time>
      </trkpt>
      <trkpt lat="49.07995" lon="2.2384">
        <ele>147</ele>
        <time>2015-11-01T14:52:03.585Z</time>
      </trkpt>
      <trkpt lat="49.07987" lon="2.23842">
        <ele>145</ele>
        <time>2015-11-01T14:52:09.717Z</time>
      </trkpt>
      <trkpt lat="49.07986" lon="2.23842">
        <ele>147</ele>
        <time>2015-11-01T14:52:10.632Z</time>
      </trkpt>
      <trkpt lat="49.07977" lon="2.23842">
        <ele>153</ele>
        <time>2015-11-01T14:52:23.919Z</time>
      </trkpt>
      <trkpt lat="49.07976" lon="2.23843">
        <ele>153</ele>
        <time>2015-11-01T14:52:24.676Z</time>
      </trkpt>
      <trkpt lat="49.07969" lon="2.23849">
        <ele>153</ele>
        <time>2015-11-01T14:52:32.716Z</time>
      </trkpt>
      <trkpt lat="49.07968" lon="2.23849">
        <ele>152</ele>
        <time>2015-11-01T14:52:33.637Z</time>
      </trkpt>
      <trkpt lat="49.07961" lon="2.2385">
        <ele>153</ele>
        <time>2015-11-01T14:52:38.222Z</time>
      </trkpt>
      <trkpt lat="49.07958" lon="2.2385">
        <ele>155</ele>
        <time>2015-11-01T14:52:38.577Z</time>
      </trkpt>
      <trkpt lat="49.07951" lon="2.23849">
        <ele>147</ele>
        <time>2015-11-01T14:53:35.945Z</time>
      </trkpt>
      <trkpt lat="49.07949" lon="2.23848">
        <ele>148</ele>
        <time>2015-11-01T14:53:36.640Z</time>
      </trkpt>
      <trkpt lat="49.07941" lon="2.23845">
        <ele>149</ele>
        <time>2015-11-01T14:53:40.884Z</time>
      </trkpt>
      <trkpt lat="49.07939" lon="2.23844">
        <ele>149</ele>
        <time>2015-11-01T14:53:41.693Z</time>
      </trkpt>
      <trkpt lat="49.07932" lon="2.23843">
        <ele>148</ele>
        <time>2015-11-01T14:53:45.763Z</time>
      </trkpt>
      <trkpt lat="49.0793" lon="2.23843">
        <ele>150</ele>
        <time>2015-11-01T14:53:46.650Z</time>
      </trkpt>
      <trkpt lat="49.07922" lon="2.23843">
        <ele>149</ele>
        <time>2015-11-01T14:53:51.909Z</time>
      </trkpt>
      <trkpt lat="49.0792" lon="2.23842">
        <ele>150</ele>
        <time>2015-11-01T14:53:52.667Z</time>
      </trkpt>
      <trkpt lat="49.07912" lon="2.23841">
        <ele>155</ele>
        <time>2015-11-01T14:53:58.943Z</time>
      </trkpt>
      <trkpt lat="49.0791" lon="2.23841">
        <ele>155</ele>
        <time>2015-11-01T14:53:59.659Z</time>
      </trkpt>
      <trkpt lat="49.07903" lon="2.23841">
        <ele>155</ele>
        <time>2015-11-01T14:54:03.914Z</time>
      </trkpt>
      <trkpt lat="49.07901" lon="2.23841">
        <ele>158</ele>
        <time>2015-11-01T14:54:04.709Z</time>
      </trkpt>
      <trkpt lat="49.07893" lon="2.23842">
        <ele>153</ele>
        <time>2015-11-01T14:54:09.770Z</time>
      </trkpt>
      <trkpt lat="49.07892" lon="2.23843">
        <ele>152</ele>
        <time>2015-11-01T14:54:10.578Z</time>
      </trkpt>
      <trkpt lat="49.07884" lon="2.23849">
        <ele>148</ele>
        <time>2015-11-01T14:54:16.788Z</time>
      </trkpt>
      <trkpt lat="49.07883" lon="2.23849">
        <ele>148</ele>
        <time>2015-11-01T14:54:17.576Z</time>
      </trkpt>
      <trkpt lat="49.07875" lon="2.2385">
        <ele>153</ele>
        <time>2015-11-01T14:54:22.707Z</time>
      </trkpt>
      <trkpt lat="49.07874" lon="2.2385">
        <ele>155</ele>
        <time>2015-11-01T14:54:23.577Z</time>
      </trkpt>
      <trkpt lat="49.07865" lon="2.23855">
        <ele>154</ele>
        <time>2015-11-01T14:54:31.816Z</time>
      </trkpt>
      <trkpt lat="49.07865" lon="2.23856">
        <ele>155</ele>
        <time>2015-11-01T14:54:32.669Z</time>
      </trkpt>
      <trkpt lat="49.07857" lon="2.2386">
        <ele>152</ele>
        <time>2015-11-01T14:54:39.951Z</time>
      </trkpt>
      <trkpt lat="49.07856" lon="2.2386">
        <ele>153</ele>
        <time>2015-11-01T14:54:40.698Z</time>
      </trkpt>
      <trkpt lat="49.07847" lon="2.23862">
        <ele>153</ele>
        <time>2015-11-01T14:54:47.951Z</time>
      </trkpt>
      <trkpt lat="49.07846" lon="2.23862">
        <ele>151</ele>
        <time>2015-11-01T14:54:48.683Z</time>
      </trkpt>
      <trkpt lat="49.07839" lon="2.23868">
        <ele>150</ele>
        <time>2015-11-01T14:54:54.796Z</time>
      </trkpt>
      <trkpt lat="49.07838" lon="2.2387">
        <ele>150</ele>
        <time>2015-11-01T14:54:55.633Z</time>
      </trkpt>
      <trkpt lat="49.0783" lon="2.23875">
        <ele>152</ele>
        <time>2015-11-01T14:55:00.727Z</time>
      </trkpt>
      <trkpt lat="49.07829" lon="2.23876">
        <ele>152</ele>
        <time>2015-11-01T14:55:01.618Z</time>
      </trkpt>
      <trkpt lat="49.07823" lon="2.23884">
        <ele>152</ele>
        <time>2015-11-01T14:55:06.859Z</time>
      </trkpt>
      <trkpt lat="49.07822" lon="2.23886">
        <ele>151</ele>
        <time>2015-11-01T14:55:07.636Z</time>
      </trkpt>
      <trkpt lat="49.07814" lon="2.2389">
        <ele>149</ele>
        <time>2015-11-01T14:55:12.693Z</time>
      </trkpt>
      <trkpt lat="49.07813" lon="2.23891">
        <ele>148</ele>
        <time>2015-11-01T14:55:13.576Z</time>
      </trkpt>
      <trkpt lat="49.07806" lon="2.23896">
        <ele>147</ele>
        <time>2015-11-01T14:55:18.977Z</time>
      </trkpt>
      <trkpt lat="49.07805" lon="2.23897">
        <ele>147</ele>
        <time>2015-11-01T14:55:19.617Z</time>
      </trkpt>
      <trkpt lat="49.07797" lon="2.23903">
        <ele>142</ele>
        <time>2015-11-01T14:55:26.958Z</time>
      </trkpt>
      <trkpt lat="49.07796" lon="2.23904">
        <ele>143</ele>
        <time>2015-11-01T14:55:27.644Z</time>
      </trkpt>
      <trkpt lat="49.07789" lon="2.23912">
        <ele>144</ele>
        <time>2015-11-01T14:55:34.003Z</time>
      </trkpt>
      <trkpt lat="49.07788" lon="2.23914">
        <ele>143</ele>
        <time>2015-11-01T14:55:34.657Z</time>
      </trkpt>
      <trkpt lat="49.0778" lon="2.23919">
        <ele>142</ele>
        <time>2015-11-01T14:55:40.818Z</time>
      </trkpt>
      <trkpt lat="49.07779" lon="2.2392">
        <ele>143</ele>
        <time>2015-11-01T14:55:41.675Z</time>
      </trkpt>
      <trkpt lat="49.07773" lon="2.23927">
        <ele>144</ele>
        <time>2015-11-01T14:55:48.665Z</time>
      </trkpt>
      <trkpt lat="49.07772" lon="2.23928">
        <ele>143</ele>
        <time>2015-11-01T14:55:49.595Z</time>
      </trkpt>
      <trkpt lat="49.07765" lon="2.23935">
        <ele>145</ele>
        <time>2015-11-01T14:55:56.900Z</time>
      </trkpt>
      <trkpt lat="49.07764" lon="2.23935">
        <ele>146</ele>
        <time>2015-11-01T14:55:57.612Z</time>
      </trkpt>
      <trkpt lat="49.07755" lon="2.23938">
        <ele>144</ele>
        <time>2015-11-01T14:56:03.938Z</time>
      </trkpt>
      <trkpt lat="49.07754" lon="2.2394">
        <ele>145</ele>
        <time>2015-11-01T14:56:04.653Z</time>
      </trkpt>
      <trkpt lat="49.07747" lon="2.23947">
        <ele>144</ele>
        <time>2015-11-01T14:56:10.806Z</time>
      </trkpt>
      <trkpt lat="49.07746" lon="2.23948">
        <ele>145</ele>
        <time>2015-11-01T14:56:11.593Z</time>
      </trkpt>
      <trkpt lat="49.07738" lon="2.23953">
        <ele>148</ele>
        <time>2015-11-01T14:56:22.767Z</time>
      </trkpt>
      <trkpt lat="49.07737" lon="2.23954">
        <ele>150</ele>
        <time>2015-11-01T14:56:23.645Z</time>
      </trkpt>
      <trkpt lat="49.07729" lon="2.23959">
        <ele>154</ele>
        <time>2015-11-01T14:56:31.925Z</time>
      </trkpt>
      <trkpt lat="49.07728" lon="2.2396">
        <ele>155</ele>
        <time>2015-11-01T14:56:32.684Z</time>
      </trkpt>
      <trkpt lat="49.07721" lon="2.23965">
        <ele>158</ele>
        <time>2015-11-01T14:56:41.280Z</time>
      </trkpt>
      <trkpt lat="49.0772" lon="2.23966">
        <ele>158</ele>
        <time>2015-11-01T14:56:41.682Z</time>
      </trkpt>
      <trkpt lat="49.07716" lon="2.23976">
        <ele>154</ele>
        <time>2015-11-01T14:56:47.952Z</time>
      </trkpt>
      <trkpt lat="49.07715" lon="2.23977">
        <ele>155</ele>
        <time>2015-11-01T14:56:48.646Z</time>
      </trkpt>
      <trkpt lat="49.07709" lon="2.23987">
        <ele>152</ele>
        <time>2015-11-01T14:56:58.001Z</time>
      </trkpt>
      <trkpt lat="49.07708" lon="2.23988">
        <ele>151</ele>
        <time>2015-11-01T14:56:58.667Z</time>
      </trkpt>
      <trkpt lat="49.07702" lon="2.23999">
        <ele>147</ele>
        <time>2015-11-01T14:57:04.724Z</time>
      </trkpt>
      <trkpt lat="49.07701" lon="2.24001">
        <ele>146</ele>
        <time>2015-11-01T14:57:05.668Z</time>
      </trkpt>
      <trkpt lat="49.07695" lon="2.24008">
        <ele>146</ele>
        <time>2015-11-01T14:57:12.733Z</time>
      </trkpt>
      <trkpt lat="49.07694" lon="2.24009">
        <ele>146</ele>
        <time>2015-11-01T14:57:13.624Z</time>
      </trkpt>
      <trkpt lat="49.07689" lon="2.24019">
        <ele>147</ele>
        <time>2015-11-01T14:57:20.843Z</time>
      </trkpt>
      <trkpt lat="49.07688" lon="2.2402">
        <ele>148</ele>
        <time>2015-11-01T14:57:21.633Z</time>
      </trkpt>
      <trkpt lat="49.07682" lon="2.2403">
        <ele>143</ele>
        <time>2015-11-01T14:57:28.879Z</time>
      </trkpt>
      <trkpt lat="49.07681" lon="2.24031">
        <ele>142</ele>
        <time>2015-11-01T14:57:29.621Z</time>
      </trkpt>
      <trkpt lat="49.07674" lon="2.24039">
        <ele>142</ele>
        <time>2015-11-01T14:57:37.907Z</time>
      </trkpt>
      <trkpt lat="49.07674" lon="2.24041">
        <ele>142</ele>
        <time>2015-11-01T14:57:38.676Z</time>
      </trkpt>
      <trkpt lat="49.07669" lon="2.24051">
        <ele>140</ele>
        <time>2015-11-01T14:57:44.957Z</time>
      </trkpt>
      <trkpt lat="49.07668" lon="2.24052">
        <ele>139</ele>
        <time>2015-11-01T14:57:45.717Z</time>
      </trkpt>
      <trkpt lat="49.07661" lon="2.24059">
        <ele>140</ele>
        <time>2015-11-01T14:57:52.017Z</time>
      </trkpt>
      <trkpt lat="49.0766" lon="2.24061">
        <ele>139</ele>
        <time>2015-11-01T14:57:52.588Z</time>
      </trkpt>
      <trkpt lat="49.07653" lon="2.24068">
        <ele>140</ele>
        <time>2015-11-01T14:57:58.766Z</time>
      </trkpt>
      <trkpt lat="49.07652" lon="2.24069">
        <ele>139</ele>
        <time>2015-11-01T14:57:59.690Z</time>
      </trkpt>
      <trkpt lat="49.07645" lon="2.24076">
        <ele>138</ele>
        <time>2015-11-01T14:58:07.009Z</time>
      </trkpt>
      <trkpt lat="49.07643" lon="2.24077">
        <ele>138</ele>
        <time>2015-11-01T14:58:07.634Z</time>
      </trkpt>
      <trkpt lat="49.07639" lon="2.24088">
        <ele>139</ele>
        <time>2015-11-01T14:58:24.942Z</time>
      </trkpt>
      <trkpt lat="49.07638" lon="2.24089">
        <ele>139</ele>
        <time>2015-11-01T14:58:25.677Z</time>
      </trkpt>
      <trkpt lat="49.07631" lon="2.24095">
        <ele>139</ele>
        <time>2015-11-01T14:58:33.934Z</time>
      </trkpt>
      <trkpt lat="49.0763" lon="2.24095">
        <ele>140</ele>
        <time>2015-11-01T14:58:34.686Z</time>
      </trkpt>
      <trkpt lat="49.07622" lon="2.24101">
        <ele>141</ele>
        <time>2015-11-01T14:58:42.729Z</time>
      </trkpt>
      <trkpt lat="49.07621" lon="2.24103">
        <ele>141</ele>
        <time>2015-11-01T14:58:43.626Z</time>
      </trkpt>
      <trkpt lat="49.07614" lon="2.24109">
        <ele>143</ele>
        <time>2015-11-01T14:58:51.010Z</time>
      </trkpt>
      <trkpt lat="49.07613" lon="2.24111">
        <ele>143</ele>
        <time>2015-11-01T14:58:51.577Z</time>
      </trkpt>
      <trkpt lat="49.07607" lon="2.24119">
        <ele>144</ele>
        <time>2015-11-01T14:58:57.748Z</time>
      </trkpt>
      <trkpt lat="49.07606" lon="2.2412">
        <ele>143</ele>
        <time>2015-11-01T14:58:58.597Z</time>
      </trkpt>
      <trkpt lat="49.076" lon="2.24128">
        <ele>144</ele>
        <time>2015-11-01T14:59:05.751Z</time>
      </trkpt>
      <trkpt lat="49.07598" lon="2.24128">
        <ele>143</ele>
        <time>2015-11-01T14:59:06.646Z</time>
      </trkpt>
      <trkpt lat="49.0759" lon="2.24127">
        <ele>138</ele>
        <time>2015-11-01T14:59:28.037Z</time>
      </trkpt>
      <trkpt lat="49.07589" lon="2.24128">
        <ele>139</ele>
        <time>2015-11-01T14:59:28.668Z</time>
      </trkpt>
      <trkpt lat="49.07581" lon="2.24131">
        <ele>140</ele>
        <time>2015-11-01T14:59:34.805Z</time>
      </trkpt>
      <trkpt lat="49.0758" lon="2.24131">
        <ele>141</ele>
        <time>2015-11-01T14:59:35.657Z</time>
      </trkpt>
      <trkpt lat="49.07571" lon="2.24132">
        <ele>144</ele>
        <time>2015-11-01T14:59:42.872Z</time>
      </trkpt>
      <trkpt lat="49.07571" lon="2.24132">
        <ele>144</ele>
        <time>2015-11-01T14:59:43.671Z</time>
      </trkpt>
      <trkpt lat="49.07562" lon="2.24132">
        <ele>142</ele>
        <time>2015-11-01T14:59:51.974Z</time>
      </trkpt>
      <trkpt lat="49.07561" lon="2.24133">
        <ele>142</ele>
        <time>2015-11-01T14:59:52.780Z</time>
      </trkpt>
      <trkpt lat="49.07553" lon="2.24135">
        <ele>144</ele>
        <time>2015-11-01T14:59:59.739Z</time>
      </trkpt>
      <trkpt lat="49.07551" lon="2.24135">
        <ele>144</ele>
        <time>2015-11-01T15:00:00.649Z</time>
      </trkpt>
      <trkpt lat="49.07543" lon="2.24138">
        <ele>141</ele>
        <time>2015-11-01T15:00:07.718Z</time>
      </trkpt>
      <trkpt lat="49.07542" lon="2.24139">
        <ele>141</ele>
        <time>2015-11-01T15:00:08.684Z</time>
      </trkpt>
      <trkpt lat="49.07534" lon="2.24142">
        <ele>136</ele>
        <time>2015-11-01T15:00:13.958Z</time>
      </trkpt>
      <trkpt lat="49.07533" lon="2.24142">
        <ele>135</ele>
        <time>2015-11-01T15:00:14.657Z</time>
      </trkpt>
      <trkpt lat="49.07524" lon="2.24144">
        <ele>132</ele>
        <time>2015-11-01T15:00:21.887Z</time>
      </trkpt>
      <trkpt lat="49.07523" lon="2.24145">
        <ele>132</ele>
        <time>2015-11-01T15:00:22.626Z</time>
      </trkpt>
      <trkpt lat="49.07514" lon="2.24147">
        <ele>129</ele>
        <time>2015-11-01T15:00:28.694Z</time>
      </trkpt>
      <trkpt lat="49.07513" lon="2.24147">
        <ele>129</ele>
        <time>2015-11-01T15:00:29.814Z</time>
      </trkpt>
      <trkpt lat="49.07508" lon="2.24138">
        <ele>121</ele>
        <time>2015-11-01T15:00:47.770Z</time>
      </trkpt>
      <trkpt lat="49.07506" lon="2.24137">
        <ele>120</ele>
        <time>2015-11-01T15:00:49.725Z</time>
      </trkpt>
      <trkpt lat="49.07499" lon="2.24131">
        <ele>121</ele>
        <time>2015-11-01T15:00:59.796Z</time>
      </trkpt>
      <trkpt lat="49.07498" lon="2.2413">
        <ele>121</ele>
        <time>2015-11-01T15:01:00.660Z</time>
      </trkpt>
      <trkpt lat="49.0749" lon="2.24128">
        <ele>122</ele>
        <time>2015-11-01T15:01:09.628Z</time>
      </trkpt>
      <trkpt lat="49.07488" lon="2.24128">
        <ele>123</ele>
        <time>2015-11-01T15:01:09.708Z</time>
      </trkpt>
      <trkpt lat="49.0748" lon="2.24124">
        <ele>125</ele>
        <time>2015-11-01T15:01:16.815Z</time>
      </trkpt>
      <trkpt lat="49.07479" lon="2.24124">
        <ele>126</ele>
        <time>2015-11-01T15:01:17.950Z</time>
      </trkpt>
      <trkpt lat="49.07472" lon="2.24116">
        <ele>124</ele>
        <time>2015-11-01T15:01:23.963Z</time>
      </trkpt>
      <trkpt lat="49.07471" lon="2.24115">
        <ele>121</ele>
        <time>2015-11-01T15:01:24.603Z</time>
      </trkpt>
      <trkpt lat="49.07464" lon="2.24108">
        <ele>117</ele>
        <time>2015-11-01T15:01:32.025Z</time>
      </trkpt>
      <trkpt lat="49.07464" lon="2.24106">
        <ele>115</ele>
        <time>2015-11-01T15:01:32.709Z</time>
      </trkpt>
      <trkpt lat="49.07458" lon="2.24096">
        <ele>114</ele>
        <time>2015-11-01T15:01:39.882Z</time>
      </trkpt>
      <trkpt lat="49.07457" lon="2.24095">
        <ele>115</ele>
        <time>2015-11-01T15:01:40.668Z</time>
      </trkpt>
      <trkpt lat="49.0745" lon="2.24088">
        <ele>117</ele>
        <time>2015-11-01T15:01:46.840Z</time>
      </trkpt>
      <trkpt lat="49.07449" lon="2.24087">
        <ele>116</ele>
        <time>2015-11-01T15:01:47.685Z</time>
      </trkpt>
      <trkpt lat="49.07441" lon="2.24084">
        <ele>118</ele>
        <time>2015-11-01T15:02:00.808Z</time>
      </trkpt>
      <trkpt lat="49.07439" lon="2.24084">
        <ele>119</ele>
        <time>2015-11-01T15:02:01.627Z</time>
      </trkpt>
      <trkpt lat="49.07443" lon="2.24073">
        <ele>115</ele>
        <time>2015-11-01T15:02:33.924Z</time>
      </trkpt>
      <trkpt lat="49.07444" lon="2.24072">
        <ele>114</ele>
        <time>2015-11-01T15:02:34.653Z</time>
      </trkpt>
      <trkpt lat="49.07445" lon="2.2406">
        <ele>113</ele>
        <time>2015-11-01T15:02:42.065Z</time>
      </trkpt>
      <trkpt lat="49.07446" lon="2.24058">
        <ele>113</ele>
        <time>2015-11-01T15:02:42.657Z</time>
      </trkpt>
      <trkpt lat="49.07449" lon="2.24047">
        <ele>111</ele>
        <time>2015-11-01T15:02:47.888Z</time>
      </trkpt>
      <trkpt lat="49.0745" lon="2.24045">
        <ele>111</ele>
        <time>2015-11-01T15:02:48.669Z</time>
      </trkpt>
      <trkpt lat="49.07453" lon="2.24032">
        <ele>109</ele>
        <time>2015-11-01T15:02:54.766Z</time>
      </trkpt>
      <trkpt lat="49.07453" lon="2.24031">
        <ele>112</ele>
        <time>2015-11-01T15:02:55.682Z</time>
      </trkpt>
      <trkpt lat="49.07447" lon="2.2402">
        <ele>110</ele>
        <time>2015-11-01T15:03:02.012Z</time>
      </trkpt>
      <trkpt lat="49.07446" lon="2.24019">
        <ele>110</ele>
        <time>2015-11-01T15:03:02.691Z</time>
      </trkpt>
      <trkpt lat="49.07445" lon="2.24007">
        <ele>111</ele>
        <time>2015-11-01T15:03:08.761Z</time>
      </trkpt>
      <trkpt lat="49.07444" lon="2.24005">
        <ele>110</ele>
        <time>2015-11-01T15:03:09.638Z</time>
      </trkpt>
      <trkpt lat="49.07443" lon="2.23993">
        <ele>113</ele>
        <time>2015-11-01T15:03:14.925Z</time>
      </trkpt>
      <trkpt lat="49.07442" lon="2.23991">
        <ele>114</ele>
        <time>2015-11-01T15:03:15.642Z</time>
      </trkpt>
      <trkpt lat="49.07443" lon="2.23977">
        <ele>113</ele>
        <time>2015-11-01T15:03:22.087Z</time>
      </trkpt>
      <trkpt lat="49.07443" lon="2.23975">
        <ele>113</ele>
        <time>2015-11-01T15:03:22.649Z</time>
      </trkpt>
      <trkpt lat="49.07445" lon="2.23963">
        <ele>113</ele>
        <time>2015-11-01T15:03:27.690Z</time>
      </trkpt>
      <trkpt lat="49.07445" lon="2.23961">
        <ele>114</ele>
        <time>2015-11-01T15:03:28.585Z</time>
      </trkpt>
      <trkpt lat="49.07442" lon="2.23948">
        <ele>115</ele>
        <time>2015-11-01T15:03:34.902Z</time>
      </trkpt>
      <trkpt lat="49.07441" lon="2.23946">
        <ele>115</ele>
        <time>2015-11-01T15:03:35.627Z</time>
      </trkpt>
      <trkpt lat="49.07445" lon="2.23934">
        <ele>111</ele>
        <time>2015-11-01T15:03:41.914Z</time>
      </trkpt>
      <trkpt lat="49.07446" lon="2.23932">
        <ele>111</ele>
        <time>2015-11-01T15:03:42.646Z</time>
      </trkpt>
      <trkpt lat="49.07444" lon="2.23919">
        <ele>105</ele>
        <time>2015-11-01T15:03:49.763Z</time>
      </trkpt>
      <trkpt lat="49.07444" lon="2.23917">
        <ele>108</ele>
        <time>2015-11-01T15:03:50.649Z</time>
      </trkpt>
      <trkpt lat="49.07438" lon="2.23907">
        <ele>112</ele>
        <time>2015-11-01T15:03:56.745Z</time>
      </trkpt>
      <trkpt lat="49.07437" lon="2.23906">
        <ele>114</ele>
        <time>2015-11-01T15:03:57.666Z</time>
      </trkpt>
      <trkpt lat="49.07429" lon="2.23902">
        <ele>113</ele>
        <time>2015-11-01T15:04:02.082Z</time>
      </trkpt>
      <trkpt lat="49.07427" lon="2.23901">
        <ele>111</ele>
        <time>2015-11-01T15:04:02.871Z</time>
      </trkpt>
      <trkpt lat="49.07419" lon="2.23898">
        <ele>113</ele>
        <time>2015-11-01T15:04:06.801Z</time>
      </trkpt>
      <trkpt lat="49.07417" lon="2.23896">
        <ele>113</ele>
        <time>2015-11-01T15:04:07.645Z</time>
      </trkpt>
      <trkpt lat="49.0741" lon="2.23891">
        <ele>113</ele>
        <time>2015-11-01T15:04:12.815Z</time>
      </trkpt>
      <trkpt lat="49.07409" lon="2.2389">
        <ele>111</ele>
        <time>2015-11-01T15:04:13.609Z</time>
      </trkpt>
      <trkpt lat="49.074" lon="2.23886">
        <ele>112</ele>
        <time>2015-11-01T15:04:23.785Z</time>
      </trkpt>
      <trkpt lat="49.074" lon="2.23884">
        <ele>112</ele>
        <time>2015-11-01T15:04:24.651Z</time>
      </trkpt>
      <trkpt lat="49.07394" lon="2.23875">
        <ele>114</ele>
        <time>2015-11-01T15:04:31.720Z</time>
      </trkpt>
      <trkpt lat="49.07394" lon="2.23873">
        <ele>117</ele>
        <time>2015-11-01T15:04:32.585Z</time>
      </trkpt>
      <trkpt lat="49.07391" lon="2.2386">
        <ele>112</ele>
        <time>2015-11-01T15:04:40.759Z</time>
      </trkpt>
      <trkpt lat="49.0739" lon="2.23859">
        <ele>112</ele>
        <time>2015-11-01T15:04:41.633Z</time>
      </trkpt>
      <trkpt lat="49.07386" lon="2.23848">
        <ele>112</ele>
        <time>2015-11-01T15:04:49.751Z</time>
      </trkpt>
      <trkpt lat="49.07385" lon="2.23846">
        <ele>110</ele>
        <time>2015-11-01T15:04:50.661Z</time>
      </trkpt>
      <trkpt lat="49.07381" lon="2.23834">
        <ele>110</ele>
        <time>2015-11-01T15:04:57.872Z</time>
      </trkpt>
      <trkpt lat="49.07381" lon="2.23832">
        <ele>111</ele>
        <time>2015-11-01T15:04:58.634Z</time>
      </trkpt>
      <trkpt lat="49.07379" lon="2.2382">
        <ele>114</ele>
        <time>2015-11-01T15:05:07.752Z</time>
      </trkpt>
      <trkpt lat="49.07379" lon="2.23819">
        <ele>114</ele>
        <time>2015-11-01T15:05:08.600Z</time>
      </trkpt>
      <trkpt lat="49.07378" lon="2.23806">
        <ele>112</ele>
        <time>2015-11-01T15:05:14.817Z</time>
      </trkpt>
      <trkpt lat="49.07378" lon="2.23804">
        <ele>109</ele>
        <time>2015-11-01T15:05:15.591Z</time>
      </trkpt>
      <trkpt lat="49.0738" lon="2.23792">
        <ele>111</ele>
        <time>2015-11-01T15:05:22.869Z</time>
      </trkpt>
      <trkpt lat="49.0738" lon="2.2379">
        <ele>111</ele>
        <time>2015-11-01T15:05:23.667Z</time>
      </trkpt>
      <trkpt lat="49.07382" lon="2.23779">
        <ele>110</ele>
        <time>2015-11-01T15:05:30.860Z</time>
      </trkpt>
      <trkpt lat="49.07383" lon="2.23777">
        <ele>110</ele>
        <time>2015-11-01T15:05:31.670Z</time>
      </trkpt>
      <trkpt lat="49.07386" lon="2.23766">
        <ele>109</ele>
        <time>2015-11-01T15:05:38.902Z</time>
      </trkpt>
      <trkpt lat="49.07386" lon="2.23764">
        <ele>110</ele>
        <time>2015-11-01T15:05:39.683Z</time>
      </trkpt>
      <trkpt lat="49.07391" lon="2.23754">
        <ele>112</ele>
        <time>2015-11-01T15:05:45.975Z</time>
      </trkpt>
      <trkpt lat="49.07392" lon="2.23753">
        <ele>112</ele>
        <time>2015-11-01T15:05:46.648Z</time>
      </trkpt>
      <trkpt lat="49.07399" lon="2.23745">
        <ele>112</ele>
        <time>2015-11-01T15:05:53.139Z</time>
      </trkpt>
      <trkpt lat="49.074" lon="2.23744">
        <ele>111</ele>
        <time>2015-11-01T15:05:53.634Z</time>
      </trkpt>
      <trkpt lat="49.07408" lon="2.23741">
        <ele>110</ele>
        <time>2015-11-01T15:06:00.759Z</time>
      </trkpt>
      <trkpt lat="49.07409" lon="2.23738">
        <ele>110</ele>
        <time>2015-11-01T15:06:01.610Z</time>
      </trkpt>
      <trkpt lat="49.07414" lon="2.23729">
        <ele>108</ele>
        <time>2015-11-01T15:06:07.764Z</time>
      </trkpt>
      <trkpt lat="49.07416" lon="2.23729">
        <ele>109</ele>
        <time>2015-11-01T15:06:08.723Z</time>
      </trkpt>
      <trkpt lat="49.07424" lon="2.23724">
        <ele>111</ele>
        <time>2015-11-01T15:06:14.740Z</time>
      </trkpt>
      <trkpt lat="49.07425" lon="2.23723">
        <ele>112</ele>
        <time>2015-11-01T15:06:15.625Z</time>
      </trkpt>
      <trkpt lat="49.07433" lon="2.23717">
        <ele>114</ele>
        <time>2015-11-01T15:06:22.969Z</time>
      </trkpt>
      <trkpt lat="49.07433" lon="2.23717">
        <ele>114</ele>
        <time>2015-11-01T15:06:23.642Z</time>
      </trkpt>
      <trkpt lat="49.07442" lon="2.23714">
        <ele>110</ele>
        <time>2015-11-01T15:06:33.960Z</time>
      </trkpt>
      <trkpt lat="49.07442" lon="2.23714">
        <ele>111</ele>
        <time>2015-11-01T15:06:34.713Z</time>
      </trkpt>
      <trkpt lat="49.07451" lon="2.23709">
        <ele>113</ele>
        <time>2015-11-01T15:06:42.909Z</time>
      </trkpt>
      <trkpt lat="49.07452" lon="2.23708">
        <ele>111</ele>
        <time>2015-11-01T15:06:43.667Z</time>
      </trkpt>
      <trkpt lat="49.07461" lon="2.23707">
        <ele>111</ele>
        <time>2015-11-01T15:06:50.917Z</time>
      </trkpt>
      <trkpt lat="49.07462" lon="2.23707">
        <ele>109</ele>
        <time>2015-11-01T15:06:51.594Z</time>
      </trkpt>
      <trkpt lat="49.0747" lon="2.23704">
        <ele>111</ele>
        <time>2015-11-01T15:06:58.849Z</time>
      </trkpt>
      <trkpt lat="49.07472" lon="2.23704">
        <ele>111</ele>
        <time>2015-11-01T15:06:59.665Z</time>
      </trkpt>
      <trkpt lat="49.0748" lon="2.23698">
        <ele>112</ele>
        <time>2015-11-01T15:07:07.013Z</time>
      </trkpt>
      <trkpt lat="49.07481" lon="2.23698">
        <ele>113</ele>
        <time>2015-11-01T15:07:07.633Z</time>
      </trkpt>
      <trkpt lat="49.07489" lon="2.23693">
        <ele>108</ele>
        <time>2015-11-01T15:07:14.971Z</time>
      </trkpt>
      <trkpt lat="49.0749" lon="2.23692">
        <ele>107</ele>
        <time>2015-11-01T15:07:15.627Z</time>
      </trkpt>
      <trkpt lat="49.07497" lon="2.23684">
        <ele>111</ele>
        <time>2015-11-01T15:07:23.970Z</time>
      </trkpt>
      <trkpt lat="49.07498" lon="2.23683">
        <ele>111</ele>
        <time>2015-11-01T15:07:24.811Z</time>
      </trkpt>
      <trkpt lat="49.07502" lon="2.23673">
        <ele>113</ele>
        <time>2015-11-01T15:07:32.789Z</time>
      </trkpt>
      <trkpt lat="49.07504" lon="2.23673">
        <ele>109</ele>
        <time>2015-11-01T15:07:33.671Z</time>
      </trkpt>
      <trkpt lat="49.07513" lon="2.23672">
        <ele>108</ele>
        <time>2015-11-01T15:07:38.945Z</time>
      </trkpt>
      <trkpt lat="49.07515" lon="2.23671">
        <ele>109</ele>
        <time>2015-11-01T15:07:39.648Z</time>
      </trkpt>
      <trkpt lat="49.07521" lon="2.23664">
        <ele>110</ele>
        <time>2015-11-01T15:07:43.968Z</time>
      </trkpt>
      <trkpt lat="49.07522" lon="2.23663">
        <ele>111</ele>
        <time>2015-11-01T15:07:44.640Z</time>
      </trkpt>
      <trkpt lat="49.0753" lon="2.23656">
        <ele>107</ele>
        <time>2015-11-01T15:07:50.918Z</time>
      </trkpt>
      <trkpt lat="49.07531" lon="2.23655">
        <ele>108</ele>
        <time>2015-11-01T15:07:51.681Z</time>
      </trkpt>
      <trkpt lat="49.07539" lon="2.2365">
        <ele>108</ele>
        <time>2015-11-01T15:07:59.476Z</time>
      </trkpt>
      <trkpt lat="49.07539" lon="2.23649">
        <ele>108</ele>
        <time>2015-11-01T15:07:59.922Z</time>
      </trkpt>
      <trkpt lat="49.07545" lon="2.23639">
        <ele>105</ele>
        <time>2015-11-01T15:08:09.797Z</time>
      </trkpt>
      <trkpt lat="49.07546" lon="2.23639">
        <ele>103</ele>
        <time>2015-11-01T15:08:10.647Z</time>
      </trkpt>
      <trkpt lat="49.0755" lon="2.23628">
        <ele>107</ele>
        <time>2015-11-01T15:08:19.773Z</time>
      </trkpt>
      <trkpt lat="49.0755" lon="2.23626">
        <ele>106</ele>
        <time>2015-11-01T15:08:20.596Z</time>
      </trkpt>
      <trkpt lat="49.07553" lon="2.23614">
        <ele>109</ele>
        <time>2015-11-01T15:08:27.823Z</time>
      </trkpt>
      <trkpt lat="49.07554" lon="2.23612">
        <ele>109</ele>
        <time>2015-11-01T15:08:28.660Z</time>
      </trkpt>
      <trkpt lat="49.07554" lon="2.23599">
        <ele>109</ele>
        <time>2015-11-01T15:08:36.968Z</time>
      </trkpt>
      <trkpt lat="49.07555" lon="2.23597">
        <ele>109</ele>
        <time>2015-11-01T15:08:37.652Z</time>
      </trkpt>
      <trkpt lat="49.07559" lon="2.23587">
        <ele>104</ele>
        <time>2015-11-01T15:08:45.895Z</time>
      </trkpt>
      <trkpt lat="49.0756" lon="2.23585">
        <ele>105</ele>
        <time>2015-11-01T15:08:46.659Z</time>
      </trkpt>
      <trkpt lat="49.07561" lon="2.23573">
        <ele>111</ele>
        <time>2015-11-01T15:08:55.730Z</time>
      </trkpt>
      <trkpt lat="49.07561" lon="2.23572">
        <ele>111</ele>
        <time>2015-11-01T15:08:56.650Z</time>
      </trkpt>
      <trkpt lat="49.07563" lon="2.2356">
        <ele>103</ele>
        <time>2015-11-01T15:09:04.883Z</time>
      </trkpt>
      <trkpt lat="49.07564" lon="2.23558">
        <ele>103</ele>
        <time>2015-11-01T15:09:05.686Z</time>
      </trkpt>
      <trkpt lat="49.07564" lon="2.23545">
        <ele>107</ele>
        <time>2015-11-01T15:09:13.726Z</time>
      </trkpt>
      <trkpt lat="49.07564" lon="2.23543">
        <ele>106</ele>
        <time>2015-11-01T15:09:14.652Z</time>
      </trkpt>
      <trkpt lat="49.07566" lon="2.23531">
        <ele>112</ele>
        <time>2015-11-01T15:09:21.737Z</time>
      </trkpt>
      <trkpt lat="49.07566" lon="2.23529">
        <ele>110</ele>
        <time>2015-11-01T15:09:23.180Z</time>
      </trkpt>
      <trkpt lat="49.0757" lon="2.23517">
        <ele>109</ele>
        <time>2015-11-01T15:09:29.738Z</time>
      </trkpt>
      <trkpt lat="49.0757" lon="2.23515">
        <ele>109</ele>
        <time>2015-11-01T15:09:30.664Z</time>
      </trkpt>
      <trkpt lat="49.07571" lon="2.23503">
        <ele>108</ele>
        <time>2015-11-01T15:09:36.715Z</time>
      </trkpt>
      <trkpt lat="49.07572" lon="2.23501">
        <ele>109</ele>
        <time>2015-11-01T15:09:37.635Z</time>
      </trkpt>
      <trkpt lat="49.07574" lon="2.23489">
        <ele>104</ele>
        <time>2015-11-01T15:09:45.927Z</time>
      </trkpt>
      <trkpt lat="49.07575" lon="2.23488">
        <ele>102</ele>
        <time>2015-11-01T15:09:46.629Z</time>
      </trkpt>
      <trkpt lat="49.07577" lon="2.23476">
        <ele>94</ele>
        <time>2015-11-01T15:09:55.918Z</time>
      </trkpt>
      <trkpt lat="49.07578" lon="2.23475">
        <ele>95</ele>
        <time>2015-11-01T15:09:56.638Z</time>
      </trkpt>
      <trkpt lat="49.0758" lon="2.23462">
        <ele>100</ele>
        <time>2015-11-01T15:10:02.964Z</time>
      </trkpt>
      <trkpt lat="49.07579" lon="2.2346">
        <ele>101</ele>
        <time>2015-11-01T15:10:03.667Z</time>
      </trkpt>
      <trkpt lat="49.07579" lon="2.23448">
        <ele>104</ele>
        <time>2015-11-01T15:10:10.747Z</time>
      </trkpt>
      <trkpt lat="49.07579" lon="2.23446">
        <ele>104</ele>
        <time>2015-11-01T15:10:11.642Z</time>
      </trkpt>
      <trkpt lat="49.07581" lon="2.23433">
        <ele>103</ele>
        <time>2015-11-01T15:10:18.922Z</time>
      </trkpt>
      <trkpt lat="49.07581" lon="2.23431">
        <ele>102</ele>
        <time>2015-11-01T15:10:19.650Z</time>
      </trkpt>
      <trkpt lat="49.07586" lon="2.23421">
        <ele>100</ele>
        <time>2015-11-01T15:10:24.958Z</time>
      </trkpt>
      <trkpt lat="49.07587" lon="2.23419">
        <ele>101</ele>
        <time>2015-11-01T15:10:25.693Z</time>
      </trkpt>
      <trkpt lat="49.07593" lon="2.23409">
        <ele>99</ele>
        <time>2015-11-01T15:10:30.758Z</time>
      </trkpt>
      <trkpt lat="49.07593" lon="2.23407">
        <ele>99</ele>
        <time>2015-11-01T15:10:31.665Z</time>
      </trkpt>
      <trkpt lat="49.07597" lon="2.23397">
        <ele>105</ele>
        <time>2015-11-01T15:10:42.836Z</time>
      </trkpt>
      <trkpt lat="49.07598" lon="2.23395">
        <ele>104</ele>
        <time>2015-11-01T15:10:43.755Z</time>
      </trkpt>
      <trkpt lat="49.07601" lon="2.23384">
        <ele>107</ele>
        <time>2015-11-01T15:10:49.863Z</time>
      </trkpt>
      <trkpt lat="49.07602" lon="2.23382">
        <ele>107</ele>
        <time>2015-11-01T15:10:50.691Z</time>
      </trkpt>
      <trkpt lat="49.07605" lon="2.23371">
        <ele>106</ele>
        <time>2015-11-01T15:10:56.956Z</time>
      </trkpt>
      <trkpt lat="49.07605" lon="2.23369">
        <ele>105</ele>
        <time>2015-11-01T15:10:57.674Z</time>
      </trkpt>
      <trkpt lat="49.0761" lon="2.23359">
        <ele>105</ele>
        <time>2015-11-01T15:11:03.081Z</time>
      </trkpt>
      <trkpt lat="49.0761" lon="2.23357">
        <ele>103</ele>
        <time>2015-11-01T15:11:03.658Z</time>
      </trkpt>
      <trkpt lat="49.07615" lon="2.23346">
        <ele>103</ele>
        <time>2015-11-01T15:11:09.932Z</time>
      </trkpt>
      <trkpt lat="49.07615" lon="2.23344">
        <ele>103</ele>
        <time>2015-11-01T15:11:10.702Z</time>
      </trkpt>
      <trkpt lat="49.0762" lon="2.23333">
        <ele>102</ele>
        <time>2015-11-01T15:11:17.730Z</time>
      </trkpt>
      <trkpt lat="49.0762" lon="2.23331">
        <ele>102</ele>
        <time>2015-11-01T15:11:18.593Z</time>
      </trkpt>
      <trkpt lat="49.07623" lon="2.23319">
        <ele>103</ele>
        <time>2015-11-01T15:11:25.759Z</time>
      </trkpt>
      <trkpt lat="49.07624" lon="2.23318">
        <ele>104</ele>
        <time>2015-11-01T15:11:26.701Z</time>
      </trkpt>
      <trkpt lat="49.0763" lon="2.23308">
        <ele>105</ele>
        <time>2015-11-01T15:11:33.746Z</time>
      </trkpt>
      <trkpt lat="49.07631" lon="2.23307">
        <ele>106</ele>
        <time>2015-11-01T15:11:34.633Z</time>
      </trkpt>
      <trkpt lat="49.07634" lon="2.23295">
        <ele>108</ele>
        <time>2015-11-01T15:11:43.094Z</time>
      </trkpt>
      <trkpt lat="49.07634" lon="2.23293">
        <ele>108</ele>
        <time>2015-11-01T15:11:43.684Z</time>
      </trkpt>
      <trkpt lat="49.07636" lon="2.23281">
        <ele>112</ele>
        <time>2015-11-01T15:11:51.781Z</time>
      </trkpt>
      <trkpt lat="49.07637" lon="2.23279">
        <ele>113</ele>
        <time>2015-11-01T15:11:52.675Z</time>
      </trkpt>
      <trkpt lat="49.0764" lon="2.23269">
        <ele>116</ele>
        <time>2015-11-01T15:11:58.911Z</time>
      </trkpt>
      <trkpt lat="49.07641" lon="2.23266">
        <ele>117</ele>
        <time>2015-11-01T15:11:59.667Z</time>
      </trkpt>
      <trkpt lat="49.07647" lon="2.23256">
        <ele>112</ele>
        <time>2015-11-01T15:12:07.925Z</time>
      </trkpt>
      <trkpt lat="49.07647" lon="2.23255">
        <ele>113</ele>
        <time>2015-11-01T15:12:08.776Z</time>
      </trkpt>
      <trkpt lat="49.07647" lon="2.23243">
        <ele>118</ele>
        <time>2015-11-01T15:12:19.694Z</time>
      </trkpt>
      <trkpt lat="49.07648" lon="2.23242">
        <ele>117</ele>
        <time>2015-11-01T15:12:20.658Z</time>
      </trkpt>
      <trkpt lat="49.07652" lon="2.23232">
        <ele>116</ele>
        <time>2015-11-01T15:12:26.957Z</time>
      </trkpt>
      <trkpt lat="49.07652" lon="2.2323">
        <ele>116</ele>
        <time>2015-11-01T15:12:27.598Z</time>
      </trkpt>
      <trkpt lat="49.07657" lon="2.23219">
        <ele>118</ele>
        <time>2015-11-01T15:12:33.964Z</time>
      </trkpt>
      <trkpt lat="49.07658" lon="2.23218">
        <ele>118</ele>
        <time>2015-11-01T15:12:34.721Z</time>
      </trkpt>
      <trkpt lat="49.07664" lon="2.23207">
        <ele>118</ele>
        <time>2015-11-01T15:12:41.791Z</time>
      </trkpt>
      <trkpt lat="49.07664" lon="2.23205">
        <ele>118</ele>
        <time>2015-11-01T15:12:42.645Z</time>
      </trkpt>
      <trkpt lat="49.07665" lon="2.23193">
        <ele>118</ele>
        <time>2015-11-01T15:12:48.915Z</time>
      </trkpt>
      <trkpt lat="49.07665" lon="2.23191">
        <ele>117</ele>
        <time>2015-11-01T15:12:49.637Z</time>
      </trkpt>
      <trkpt lat="49.07667" lon="2.23178">
        <ele>116</ele>
        <time>2015-11-01T15:12:56.896Z</time>
      </trkpt>
      <trkpt lat="49.07668" lon="2.23177">
        <ele>116</ele>
        <time>2015-11-01T15:12:57.640Z</time>
      </trkpt>
      <trkpt lat="49.07672" lon="2.23166">
        <ele>116</ele>
        <time>2015-11-01T15:13:05.973Z</time>
      </trkpt>
      <trkpt lat="49.07673" lon="2.23165">
        <ele>117</ele>
        <time>2015-11-01T15:13:06.684Z</time>
      </trkpt>
      <trkpt lat="49.07674" lon="2.23153">
        <ele>118</ele>
        <time>2015-11-01T15:13:12.765Z</time>
      </trkpt>
      <trkpt lat="49.07675" lon="2.23151">
        <ele>119</ele>
        <time>2015-11-01T15:13:13.661Z</time>
      </trkpt>
      <trkpt lat="49.07679" lon="2.2314">
        <ele>114</ele>
        <time>2015-11-01T15:13:19.817Z</time>
      </trkpt>
      <trkpt lat="49.0768" lon="2.23138">
        <ele>114</ele>
        <time>2015-11-01T15:13:20.946Z</time>
      </trkpt>
      <trkpt lat="49.07684" lon="2.23127">
        <ele>115</ele>
        <time>2015-11-01T15:13:28.957Z</time>
      </trkpt>
      <trkpt lat="49.07685" lon="2.23126">
        <ele>116</ele>
        <time>2015-11-01T15:13:29.710Z</time>
      </trkpt>
      <trkpt lat="49.0769" lon="2.23116">
        <ele>123</ele>
        <time>2015-11-01T15:13:40.930Z</time>
      </trkpt>
      <trkpt lat="49.07691" lon="2.23113">
        <ele>124</ele>
        <time>2015-11-01T15:13:41.873Z</time>
      </trkpt>
      <trkpt lat="49.07695" lon="2.23103">
        <ele>126</ele>
        <time>2015-11-01T15:13:47.913Z</time>
      </trkpt>
      <trkpt lat="49.07696" lon="2.23102">
        <ele>127</ele>
        <time>2015-11-01T15:13:48.677Z</time>
      </trkpt>
      <trkpt lat="49.07701" lon="2.23093">
        <ele>128</ele>
        <time>2015-11-01T15:13:57.052Z</time>
      </trkpt>
      <trkpt lat="49.07702" lon="2.23091">
        <ele>129</ele>
        <time>2015-11-01T15:13:57.675Z</time>
      </trkpt>
      <trkpt lat="49.07708" lon="2.23081">
        <ele>131</ele>
        <time>2015-11-01T15:14:05.984Z</time>
      </trkpt>
      <trkpt lat="49.07709" lon="2.2308">
        <ele>131</ele>
        <time>2015-11-01T15:14:06.649Z</time>
      </trkpt>
      <trkpt lat="49.07712" lon="2.23068">
        <ele>127</ele>
        <time>2015-11-01T15:14:12.752Z</time>
      </trkpt>
      <trkpt lat="49.07713" lon="2.23066">
        <ele>128</ele>
        <time>2015-11-01T15:14:13.658Z</time>
      </trkpt>
      <trkpt lat="49.07717" lon="2.23055">
        <ele>126</ele>
        <time>2015-11-01T15:14:18.763Z</time>
      </trkpt>
      <trkpt lat="49.07717" lon="2.23053">
        <ele>125</ele>
        <time>2015-11-01T15:14:19.721Z</time>
      </trkpt>
      <trkpt lat="49.07719" lon="2.23041">
        <ele>123</ele>
        <time>2015-11-01T15:14:25.971Z</time>
      </trkpt>
      <trkpt lat="49.07719" lon="2.23039">
        <ele>122</ele>
        <time>2015-11-01T15:14:26.595Z</time>
      </trkpt>
      <trkpt lat="49.07724" lon="2.2303">
        <ele>120</ele>
        <time>2015-11-01T15:14:34.730Z</time>
      </trkpt>
      <trkpt lat="49.07725" lon="2.23028">
        <ele>119</ele>
        <time>2015-11-01T15:14:35.641Z</time>
      </trkpt>
      <trkpt lat="49.07729" lon="2.23017">
        <ele>122</ele>
        <time>2015-11-01T15:14:42.054Z</time>
      </trkpt>
      <trkpt lat="49.07729" lon="2.23015">
        <ele>123</ele>
        <time>2015-11-01T15:14:42.685Z</time>
      </trkpt>
      <trkpt lat="49.07732" lon="2.23003">
        <ele>125</ele>
        <time>2015-11-01T15:14:49.994Z</time>
      </trkpt>
      <trkpt lat="49.07732" lon="2.23001">
        <ele>126</ele>
        <time>2015-11-01T15:14:50.666Z</time>
      </trkpt>
      <trkpt lat="49.07734" lon="2.22988">
        <ele>127</ele>
        <time>2015-11-01T15:14:59.043Z</time>
      </trkpt>
      <trkpt lat="49.07734" lon="2.22987">
        <ele>127</ele>
        <time>2015-11-01T15:14:59.701Z</time>
      </trkpt>
      <trkpt lat="49.07736" lon="2.22975">
        <ele>126</ele>
        <time>2015-11-01T15:15:06.963Z</time>
      </trkpt>
      <trkpt lat="49.07737" lon="2.22973">
        <ele>125</ele>
        <time>2015-11-01T15:15:07.658Z</time>
      </trkpt>
      <trkpt lat="49.0774" lon="2.22961">
        <ele>125</ele>
        <time>2015-11-01T15:15:12.782Z</time>
      </trkpt>
      <trkpt lat="49.07741" lon="2.22958">
        <ele>125</ele>
        <time>2015-11-01T15:15:13.651Z</time>
      </trkpt>
      <trkpt lat="49.07742" lon="2.22945">
        <ele>124</ele>
        <time>2015-11-01T15:15:19.768Z</time>
      </trkpt>
      <trkpt lat="49.07742" lon="2.22943">
        <ele>124</ele>
        <time>2015-11-01T15:15:20.691Z</time>
      </trkpt>
      <trkpt lat="49.07738" lon="2.22931">
        <ele>122</ele>
        <time>2015-11-01T15:15:30.311Z</time>
      </trkpt>
      <trkpt lat="49.07738" lon="2.2293">
        <ele>123</ele>
        <time>2015-11-01T15:15:30.617Z</time>
      </trkpt>
      <trkpt lat="49.07733" lon="2.22919">
        <ele>122</ele>
        <time>2015-11-01T15:15:38.732Z</time>
      </trkpt>
      <trkpt lat="49.07733" lon="2.22918">
        <ele>122</ele>
        <time>2015-11-01T15:15:39.627Z</time>
      </trkpt>
      <trkpt lat="49.0773" lon="2.22906">
        <ele>119</ele>
        <time>2015-11-01T15:15:56.724Z</time>
      </trkpt>
      <trkpt lat="49.07729" lon="2.22904">
        <ele>120</ele>
        <time>2015-11-01T15:15:57.604Z</time>
      </trkpt>
      <trkpt lat="49.07727" lon="2.22893">
        <ele>116</ele>
        <time>2015-11-01T15:16:05.045Z</time>
      </trkpt>
      <trkpt lat="49.07727" lon="2.22891">
        <ele>116</ele>
        <time>2015-11-01T15:16:05.647Z</time>
      </trkpt>
      <trkpt lat="49.07728" lon="2.22878">
        <ele>119</ele>
        <time>2015-11-01T15:16:11.677Z</time>
      </trkpt>
      <trkpt lat="49.07728" lon="2.22876">
        <ele>120</ele>
        <time>2015-11-01T15:16:12.651Z</time>
      </trkpt>
      <trkpt lat="49.07726" lon="2.22864">
        <ele>125</ele>
        <time>2015-11-01T15:16:19.737Z</time>
      </trkpt>
      <trkpt lat="49.07726" lon="2.22862">
        <ele>124</ele>
        <time>2015-11-01T15:16:20.690Z</time>
      </trkpt>
      <trkpt lat="49.07722" lon="2.22852">
        <ele>123</ele>
        <time>2015-11-01T15:16:28.888Z</time>
      </trkpt>
      <trkpt lat="49.07721" lon="2.22851">
        <ele>122</ele>
        <time>2015-11-01T15:16:29.663Z</time>
      </trkpt>
      <trkpt lat="49.0772" lon="2.22839">
        <ele>124</ele>
        <time>2015-11-01T15:16:36.019Z</time>
      </trkpt>
      <trkpt lat="49.0772" lon="2.22837">
        <ele>124</ele>
        <time>2015-11-01T15:16:36.651Z</time>
      </trkpt>
      <trkpt lat="49.07718" lon="2.22825">
        <ele>123</ele>
        <time>2015-11-01T15:16:42.972Z</time>
      </trkpt>
      <trkpt lat="49.07718" lon="2.22823">
        <ele>123</ele>
        <time>2015-11-01T15:16:43.683Z</time>
      </trkpt>
      <trkpt lat="49.07713" lon="2.22812">
        <ele>127</ele>
        <time>2015-11-01T15:16:51.964Z</time>
      </trkpt>
      <trkpt lat="49.07712" lon="2.22811">
        <ele>129</ele>
        <time>2015-11-01T15:16:52.642Z</time>
      </trkpt>
      <trkpt lat="49.07709" lon="2.228">
        <ele>129</ele>
        <time>2015-11-01T15:16:59.946Z</time>
      </trkpt>
      <trkpt lat="49.07708" lon="2.22798">
        <ele>129</ele>
        <time>2015-11-01T15:17:00.717Z</time>
      </trkpt>
      <trkpt lat="49.07705" lon="2.22786">
        <ele>126</ele>
        <time>2015-11-01T15:17:08.092Z</time>
      </trkpt>
      <trkpt lat="49.07705" lon="2.22784">
        <ele>125</ele>
        <time>2015-11-01T15:17:08.691Z</time>
      </trkpt>
      <trkpt lat="49.07702" lon="2.22773">
        <ele>124</ele>
        <time>2015-11-01T15:17:13.808Z</time>
      </trkpt>
      <trkpt lat="49.07702" lon="2.22771">
        <ele>126</ele>
        <time>2015-11-01T15:17:14.673Z</time>
      </trkpt>
      <trkpt lat="49.07703" lon="2.22758">
        <ele>127</ele>
        <time>2015-11-01T15:17:19.789Z</time>
      </trkpt>
      <trkpt lat="49.07702" lon="2.22757">
        <ele>125</ele>
        <time>2015-11-01T15:17:20.674Z</time>
      </trkpt>
      <trkpt lat="49.077" lon="2.22744">
        <ele>124</ele>
        <time>2015-11-01T15:17:28.988Z</time>
      </trkpt>
      <trkpt lat="49.077" lon="2.22742">
        <ele>124</ele>
        <time>2015-11-01T15:17:29.662Z</time>
      </trkpt>
      <trkpt lat="49.07697" lon="2.22729">
        <ele>127</ele>
        <time>2015-11-01T15:17:39.925Z</time>
      </trkpt>
      <trkpt lat="49.07697" lon="2.22727">
        <ele>128</ele>
        <time>2015-11-01T15:17:40.649Z</time>
      </trkpt>
      <trkpt lat="49.07694" lon="2.22716">
        <ele>127</ele>
        <time>2015-11-01T15:17:45.964Z</time>
      </trkpt>
      <trkpt lat="49.07693" lon="2.22714">
        <ele>127</ele>
        <time>2015-11-01T15:17:46.683Z</time>
      </trkpt>
      <trkpt lat="49.07689" lon="2.22704">
        <ele>125</ele>
        <time>2015-11-01T15:17:51.771Z</time>
      </trkpt>
      <trkpt lat="49.07688" lon="2.22702">
        <ele>125</ele>
        <time>2015-11-01T15:17:52.658Z</time>
      </trkpt>
      <trkpt lat="49.07681" lon="2.22694">
        <ele>124</ele>
        <time>2015-11-01T15:17:58.758Z</time>
      </trkpt>
      <trkpt lat="49.07681" lon="2.22693">
        <ele>124</ele>
        <time>2015-11-01T15:17:59.657Z</time>
      </trkpt>
      <trkpt lat="49.07679" lon="2.22681">
        <ele>124</ele>
        <time>2015-11-01T15:18:06.817Z</time>
      </trkpt>
      <trkpt lat="49.07678" lon="2.22679">
        <ele>124</ele>
        <time>2015-11-01T15:18:07.675Z</time>
      </trkpt>
      <trkpt lat="49.07673" lon="2.22669">
        <ele>123</ele>
        <time>2015-11-01T15:18:14.736Z</time>
      </trkpt>
      <trkpt lat="49.07673" lon="2.22668">
        <ele>122</ele>
        <time>2015-11-01T15:18:15.643Z</time>
      </trkpt>
      <trkpt lat="49.07669" lon="2.22657">
        <ele>120</ele>
        <time>2015-11-01T15:18:22.712Z</time>
      </trkpt>
      <trkpt lat="49.07668" lon="2.22656">
        <ele>120</ele>
        <time>2015-11-01T15:18:23.665Z</time>
      </trkpt>
      <trkpt lat="49.07663" lon="2.22644">
        <ele>120</ele>
        <time>2015-11-01T15:18:30.829Z</time>
      </trkpt>
      <trkpt lat="49.07663" lon="2.22642">
        <ele>119</ele>
        <time>2015-11-01T15:18:31.661Z</time>
      </trkpt>
      <trkpt lat="49.07661" lon="2.22631">
        <ele>117</ele>
        <time>2015-11-01T15:18:38.737Z</time>
      </trkpt>
      <trkpt lat="49.0766" lon="2.22629">
        <ele>118</ele>
        <time>2015-11-01T15:18:39.658Z</time>
      </trkpt>
      <trkpt lat="49.07656" lon="2.22618">
        <ele>117</ele>
        <time>2015-11-01T15:18:46.802Z</time>
      </trkpt>
      <trkpt lat="49.07657" lon="2.22616">
        <ele>116</ele>
        <time>2015-11-01T15:18:47.686Z</time>
      </trkpt>
      <trkpt lat="49.07653" lon="2.22605">
        <ele>120</ele>
        <time>2015-11-01T15:18:54.908Z</time>
      </trkpt>
      <trkpt lat="49.07653" lon="2.22603">
        <ele>118</ele>
        <time>2015-11-01T15:18:55.678Z</time>
      </trkpt>
      <trkpt lat="49.0765" lon="2.22592">
        <ele>117</ele>
        <time>2015-11-01T15:19:01.921Z</time>
      </trkpt>
      <trkpt lat="49.07649" lon="2.2259">
        <ele>117</ele>
        <time>2015-11-01T15:19:02.595Z</time>
      </trkpt>
      <trkpt lat="49.07643" lon="2.22584">
        <ele>114</ele>
        <time>2015-11-01T15:19:07.932Z</time>
      </trkpt>
      <trkpt lat="49.07642" lon="2.22582">
        <ele>114</ele>
        <time>2015-11-01T15:19:08.641Z</time>
      </trkpt>
      <trkpt lat="49.07641" lon="2.22569">
        <ele>115</ele>
        <time>2015-11-01T15:19:14.687Z</time>
      </trkpt>
      <trkpt lat="49.0764" lon="2.22567">
        <ele>115</ele>
        <time>2015-11-01T15:19:15.610Z</time>
      </trkpt>
      <trkpt lat="49.07634" lon="2.22558">
        <ele>116</ele>
        <time>2015-11-01T15:19:21.723Z</time>
      </trkpt>
      <trkpt lat="49.07633" lon="2.22556">
        <ele>116</ele>
        <time>2015-11-01T15:19:22.692Z</time>
      </trkpt>
      <trkpt lat="49.07627" lon="2.22547">
        <ele>115</ele>
        <time>2015-11-01T15:19:29.879Z</time>
      </trkpt>
      <trkpt lat="49.07627" lon="2.22546">
        <ele>115</ele>
        <time>2015-11-01T15:19:30.872Z</time>
      </trkpt>
      <trkpt lat="49.07623" lon="2.22535">
        <ele>114</ele>
        <time>2015-11-01T15:19:38.072Z</time>
      </trkpt>
      <trkpt lat="49.07622" lon="2.22533">
        <ele>113</ele>
        <time>2015-11-01T15:19:38.651Z</time>
      </trkpt>
      <trkpt lat="49.0762" lon="2.22521">
        <ele>115</ele>
        <time>2015-11-01T15:19:47.045Z</time>
      </trkpt>
      <trkpt lat="49.0762" lon="2.22519">
        <ele>115</ele>
        <time>2015-11-01T15:19:47.667Z</time>
      </trkpt>
      <trkpt lat="49.07616" lon="2.22508">
        <ele>110</ele>
        <time>2015-11-01T15:19:54.752Z</time>
      </trkpt>
      <trkpt lat="49.07615" lon="2.22507">
        <ele>109</ele>
        <time>2015-11-01T15:19:55.645Z</time>
      </trkpt>
      <trkpt lat="49.07608" lon="2.22501">
        <ele>106</ele>
        <time>2015-11-01T15:20:02.079Z</time>
      </trkpt>
      <trkpt lat="49.07607" lon="2.225">
        <ele>106</ele>
        <time>2015-11-01T15:20:02.647Z</time>
      </trkpt>
      <trkpt lat="49.076" lon="2.22492">
        <ele>106</ele>
        <time>2015-11-01T15:20:09.814Z</time>
      </trkpt>
      <trkpt lat="49.07599" lon="2.2249">
        <ele>106</ele>
        <time>2015-11-01T15:20:10.621Z</time>
      </trkpt>
      <trkpt lat="49.07594" lon="2.22479">
        <ele>110</ele>
        <time>2015-11-01T15:20:17.725Z</time>
      </trkpt>
      <trkpt lat="49.07593" lon="2.22478">
        <ele>109</ele>
        <time>2015-11-01T15:20:18.793Z</time>
      </trkpt>
      <trkpt lat="49.07588" lon="2.22467">
        <ele>110</ele>
        <time>2015-11-01T15:20:25.985Z</time>
      </trkpt>
      <trkpt lat="49.07587" lon="2.22465">
        <ele>110</ele>
        <time>2015-11-01T15:20:26.681Z</time>
      </trkpt>
      <trkpt lat="49.07583" lon="2.22454">
        <ele>111</ele>
        <time>2015-11-01T15:20:32.869Z</time>
      </trkpt>
      <trkpt lat="49.07582" lon="2.22452">
        <ele>111</ele>
        <time>2015-11-01T15:20:33.652Z</time>
      </trkpt>
      <trkpt lat="49.07581" lon="2.22439">
        <ele>107</ele>
        <time>2015-11-01T15:20:41.924Z</time>
      </trkpt>
      <trkpt lat="49.07581" lon="2.22438">
        <ele>107</ele>
        <time>2015-11-01T15:20:42.646Z</time>
      </trkpt>
      <trkpt lat="49.0758" lon="2.22425">
        <ele>108</ele>
        <time>2015-11-01T15:20:49.818Z</time>
      </trkpt>
      <trkpt lat="49.0758" lon="2.22423">
        <ele>108</ele>
        <time>2015-11-01T15:20:50.671Z</time>
      </trkpt>
      <trkpt lat="49.07582" lon="2.22411">
        <ele>109</ele>
        <time>2015-11-01T15:20:57.964Z</time>
      </trkpt>
      <trkpt lat="49.07583" lon="2.22409">
        <ele>109</ele>
        <time>2015-11-01T15:20:58.762Z</time>
      </trkpt>
      <trkpt lat="49.07585" lon="2.22397">
        <ele>113</ele>
        <time>2015-11-01T15:21:05.958Z</time>
      </trkpt>
      <trkpt lat="49.07586" lon="2.22395">
        <ele>114</ele>
        <time>2015-11-01T15:21:06.610Z</time>
      </trkpt>
      <trkpt lat="49.07594" lon="2.22394">
        <ele>112</ele>
        <time>2015-11-01T15:21:14.798Z</time>
      </trkpt>
      <trkpt lat="49.07595" lon="2.22394">
        <ele>110</ele>
        <time>2015-11-01T15:21:15.650Z</time>
      </trkpt>
      <trkpt lat="49.07588" lon="2.224">
        <ele>108</ele>
        <time>2015-11-01T15:33:44.710Z</time>
      </trkpt>
      <trkpt lat="49.07587" lon="2.224">
        <ele>109</ele>
        <time>2015-11-01T15:33:45.657Z</time>
      </trkpt>
      <trkpt lat="49.07579" lon="2.22405">
        <ele>109</ele>
        <time>2015-11-01T15:33:53.972Z</time>
      </trkpt>
      <trkpt lat="49.07578" lon="2.22405">
        <ele>110</ele>
        <time>2015-11-01T15:33:54.733Z</time>
      </trkpt>
      <trkpt lat="49.0757" lon="2.22409">
        <ele>108</ele>
        <time>2015-11-01T15:34:04.981Z</time>
      </trkpt>
      <trkpt lat="49.07569" lon="2.22409">
        <ele>108</ele>
        <time>2015-11-01T15:34:05.709Z</time>
      </trkpt>
      <trkpt lat="49.07561" lon="2.22405">
        <ele>107</ele>
        <time>2015-11-01T15:34:13.750Z</time>
      </trkpt>
      <trkpt lat="49.0756" lon="2.22405">
        <ele>108</ele>
        <time>2015-11-01T15:34:14.706Z</time>
      </trkpt>
      <trkpt lat="49.07568" lon="2.22404">
        <ele>113</ele>
        <time>2015-11-01T15:34:47.713Z</time>
      </trkpt>
      <trkpt lat="49.07569" lon="2.22404">
        <ele>113</ele>
        <time>2015-11-01T15:34:49.222Z</time>
      </trkpt>
      <trkpt lat="49.07577" lon="2.22401">
        <ele>112</ele>
        <time>2015-11-01T15:35:00.728Z</time>
      </trkpt>
      <trkpt lat="49.07578" lon="2.224">
        <ele>112</ele>
        <time>2015-11-01T15:35:01.649Z</time>
      </trkpt>
      <trkpt lat="49.07585" lon="2.22392">
        <ele>113</ele>
        <time>2015-11-01T15:35:08.774Z</time>
      </trkpt>
      <trkpt lat="49.07586" lon="2.22391">
        <ele>112</ele>
        <time>2015-11-01T15:35:09.673Z</time>
      </trkpt>
      <trkpt lat="49.07588" lon="2.22378">
        <ele>113</ele>
        <time>2015-11-01T15:35:17.774Z</time>
      </trkpt>
      <trkpt lat="49.07588" lon="2.22376">
        <ele>113</ele>
        <time>2015-11-01T15:35:18.654Z</time>
      </trkpt>
      <trkpt lat="49.07593" lon="2.22364">
        <ele>110</ele>
        <time>2015-11-01T15:35:26.913Z</time>
      </trkpt>
      <trkpt lat="49.07593" lon="2.22362">
        <ele>111</ele>
        <time>2015-11-01T15:35:27.753Z</time>
      </trkpt>
      <trkpt lat="49.07598" lon="2.22351">
        <ele>110</ele>
        <time>2015-11-01T15:35:36.965Z</time>
      </trkpt>
      <trkpt lat="49.07598" lon="2.22349">
        <ele>111</ele>
        <time>2015-11-01T15:35:37.694Z</time>
      </trkpt>
      <trkpt lat="49.07602" lon="2.22338">
        <ele>109</ele>
        <time>2015-11-01T15:35:44.814Z</time>
      </trkpt>
      <trkpt lat="49.07603" lon="2.22336">
        <ele>109</ele>
        <time>2015-11-01T15:35:45.682Z</time>
      </trkpt>
      <trkpt lat="49.07607" lon="2.22325">
        <ele>111</ele>
        <time>2015-11-01T15:35:53.016Z</time>
      </trkpt>
      <trkpt lat="49.07608" lon="2.22323">
        <ele>110</ele>
        <time>2015-11-01T15:35:54.029Z</time>
      </trkpt>
      <trkpt lat="49.07612" lon="2.22311">
        <ele>111</ele>
        <time>2015-11-01T15:36:01.139Z</time>
      </trkpt>
      <trkpt lat="49.07613" lon="2.2231">
        <ele>111</ele>
        <time>2015-11-01T15:36:01.740Z</time>
      </trkpt>
      <trkpt lat="49.07616" lon="2.22298">
        <ele>111</ele>
        <time>2015-11-01T15:36:08.083Z</time>
      </trkpt>
      <trkpt lat="49.07617" lon="2.22297">
        <ele>111</ele>
        <time>2015-11-01T15:36:08.721Z</time>
      </trkpt>
      <trkpt lat="49.07621" lon="2.22286">
        <ele>112</ele>
        <time>2015-11-01T15:36:14.964Z</time>
      </trkpt>
      <trkpt lat="49.07621" lon="2.22284">
        <ele>111</ele>
        <time>2015-11-01T15:36:15.620Z</time>
      </trkpt>
      <trkpt lat="49.07626" lon="2.22273">
        <ele>113</ele>
        <time>2015-11-01T15:36:21.705Z</time>
      </trkpt>
      <trkpt lat="49.07627" lon="2.2227">
        <ele>113</ele>
        <time>2015-11-01T15:36:22.642Z</time>
      </trkpt>
      <trkpt lat="49.07631" lon="2.22259">
        <ele>113</ele>
        <time>2015-11-01T15:36:28.778Z</time>
      </trkpt>
      <trkpt lat="49.07632" lon="2.22258">
        <ele>112</ele>
        <time>2015-11-01T15:36:29.695Z</time>
      </trkpt>
      <trkpt lat="49.07635" lon="2.22247">
        <ele>112</ele>
        <time>2015-11-01T15:36:35.987Z</time>
      </trkpt>
      <trkpt lat="49.07636" lon="2.22245">
        <ele>112</ele>
        <time>2015-11-01T15:36:36.671Z</time>
      </trkpt>
      <trkpt lat="49.07639" lon="2.22234">
        <ele>112</ele>
        <time>2015-11-01T15:36:42.693Z</time>
      </trkpt>
      <trkpt lat="49.0764" lon="2.22232">
        <ele>113</ele>
        <time>2015-11-01T15:36:43.694Z</time>
      </trkpt>
      <trkpt lat="49.07643" lon="2.22219">
        <ele>113</ele>
        <time>2015-11-01T15:36:51.017Z</time>
      </trkpt>
      <trkpt lat="49.07643" lon="2.22217">
        <ele>113</ele>
        <time>2015-11-01T15:36:51.760Z</time>
      </trkpt>
      <trkpt lat="49.07645" lon="2.22205">
        <ele>113</ele>
        <time>2015-11-01T15:36:57.882Z</time>
      </trkpt>
      <trkpt lat="49.07646" lon="2.22203">
        <ele>113</ele>
        <time>2015-11-01T15:36:58.704Z</time>
      </trkpt>
      <trkpt lat="49.07647" lon="2.22191">
        <ele>112</ele>
        <time>2015-11-01T15:37:04.874Z</time>
      </trkpt>
      <trkpt lat="49.07647" lon="2.22189">
        <ele>113</ele>
        <time>2015-11-01T15:37:05.714Z</time>
      </trkpt>
      <trkpt lat="49.07647" lon="2.22177">
        <ele>112</ele>
        <time>2015-11-01T15:37:11.814Z</time>
      </trkpt>
      <trkpt lat="49.07647" lon="2.22175">
        <ele>112</ele>
        <time>2015-11-01T15:37:12.664Z</time>
      </trkpt>
      <trkpt lat="49.07649" lon="2.22163">
        <ele>113</ele>
        <time>2015-11-01T15:37:18.795Z</time>
      </trkpt>
      <trkpt lat="49.07649" lon="2.22161">
        <ele>113</ele>
        <time>2015-11-01T15:37:19.672Z</time>
      </trkpt>
      <trkpt lat="49.0765" lon="2.22148">
        <ele>113</ele>
        <time>2015-11-01T15:37:26.934Z</time>
      </trkpt>
      <trkpt lat="49.0765" lon="2.22146">
        <ele>113</ele>
        <time>2015-11-01T15:37:27.861Z</time>
      </trkpt>
      <trkpt lat="49.0765" lon="2.22134">
        <ele>112</ele>
        <time>2015-11-01T15:37:35.001Z</time>
      </trkpt>
      <trkpt lat="49.0765" lon="2.22132">
        <ele>112</ele>
        <time>2015-11-01T15:37:35.701Z</time>
      </trkpt>
      <trkpt lat="49.0765" lon="2.2212">
        <ele>113</ele>
        <time>2015-11-01T15:37:41.873Z</time>
      </trkpt>
      <trkpt lat="49.0765" lon="2.22117">
        <ele>113</ele>
        <time>2015-11-01T15:37:42.684Z</time>
      </trkpt>
      <trkpt lat="49.0765" lon="2.22105">
        <ele>115</ele>
        <time>2015-11-01T15:37:49.922Z</time>
      </trkpt>
      <trkpt lat="49.0765" lon="2.22103">
        <ele>115</ele>
        <time>2015-11-01T15:37:50.809Z</time>
      </trkpt>
      <trkpt lat="49.0765" lon="2.22092">
        <ele>114</ele>
        <time>2015-11-01T15:37:56.736Z</time>
      </trkpt>
      <trkpt lat="49.0765" lon="2.2209">
        <ele>114</ele>
        <time>2015-11-01T15:37:57.650Z</time>
      </trkpt>
      <trkpt lat="49.07651" lon="2.22077">
        <ele>115</ele>
        <time>2015-11-01T15:38:04.086Z</time>
      </trkpt>
      <trkpt lat="49.07651" lon="2.22075">
        <ele>115</ele>
        <time>2015-11-01T15:38:04.700Z</time>
      </trkpt>
      <trkpt lat="49.07652" lon="2.22063">
        <ele>116</ele>
        <time>2015-11-01T15:38:11.022Z</time>
      </trkpt>
      <trkpt lat="49.07652" lon="2.22061">
        <ele>115</ele>
        <time>2015-11-01T15:38:11.691Z</time>
      </trkpt>
      <trkpt lat="49.07653" lon="2.22049">
        <ele>117</ele>
        <time>2015-11-01T15:38:17.840Z</time>
      </trkpt>
      <trkpt lat="49.07653" lon="2.22047">
        <ele>117</ele>
        <time>2015-11-01T15:38:18.680Z</time>
      </trkpt>
      <trkpt lat="49.07653" lon="2.22035">
        <ele>117</ele>
        <time>2015-11-01T15:38:26.008Z</time>
      </trkpt>
      <trkpt lat="49.07653" lon="2.22033">
        <ele>117</ele>
        <time>2015-11-01T15:38:26.722Z</time>
      </trkpt>
      <trkpt lat="49.07654" lon="2.22021">
        <ele>117</ele>
        <time>2015-11-01T15:38:32.803Z</time>
      </trkpt>
      <trkpt lat="49.07654" lon="2.22019">
        <ele>117</ele>
        <time>2015-11-01T15:38:33.753Z</time>
      </trkpt>
      <trkpt lat="49.07654" lon="2.22006">
        <ele>118</ele>
        <time>2015-11-01T15:38:40.088Z</time>
      </trkpt>
      <trkpt lat="49.07654" lon="2.22004">
        <ele>117</ele>
        <time>2015-11-01T15:38:40.702Z</time>
      </trkpt>
      <trkpt lat="49.07654" lon="2.21992">
        <ele>116</ele>
        <time>2015-11-01T15:38:47.877Z</time>
      </trkpt>
      <trkpt lat="49.07654" lon="2.2199">
        <ele>115</ele>
        <time>2015-11-01T15:38:48.769Z</time>
      </trkpt>
      <trkpt lat="49.07655" lon="2.21978">
        <ele>115</ele>
        <time>2015-11-01T15:38:54.945Z</time>
      </trkpt>
      <trkpt lat="49.07655" lon="2.21976">
        <ele>114</ele>
        <time>2015-11-01T15:38:55.694Z</time>
      </trkpt>
      <trkpt lat="49.07657" lon="2.21964">
        <ele>116</ele>
        <time>2015-11-01T15:39:02.992Z</time>
      </trkpt>
      <trkpt lat="49.07657" lon="2.21962">
        <ele>116</ele>
        <time>2015-11-01T15:39:03.710Z</time>
      </trkpt>
      <trkpt lat="49.07657" lon="2.21949">
        <ele>116</ele>
        <time>2015-11-01T15:39:10.035Z</time>
      </trkpt>
      <trkpt lat="49.07657" lon="2.21947">
        <ele>117</ele>
        <time>2015-11-01T15:39:10.736Z</time>
      </trkpt>
      <trkpt lat="49.07658" lon="2.21935">
        <ele>117</ele>
        <time>2015-11-01T15:39:16.818Z</time>
      </trkpt>
      <trkpt lat="49.07658" lon="2.21933">
        <ele>117</ele>
        <time>2015-11-01T15:39:17.616Z</time>
      </trkpt>
      <trkpt lat="49.07658" lon="2.2192">
        <ele>117</ele>
        <time>2015-11-01T15:39:24.836Z</time>
      </trkpt>
      <trkpt lat="49.07658" lon="2.21918">
        <ele>116</ele>
        <time>2015-11-01T15:39:25.616Z</time>
      </trkpt>
      <trkpt lat="49.07659" lon="2.21905">
        <ele>115</ele>
        <time>2015-11-01T15:39:32.937Z</time>
      </trkpt>
      <trkpt lat="49.07659" lon="2.21904">
        <ele>115</ele>
        <time>2015-11-01T15:39:33.692Z</time>
      </trkpt>
      <trkpt lat="49.07659" lon="2.21892">
        <ele>115</ele>
        <time>2015-11-01T15:39:40.941Z</time>
      </trkpt>
      <trkpt lat="49.07659" lon="2.2189">
        <ele>115</ele>
        <time>2015-11-01T15:39:41.803Z</time>
      </trkpt>
      <trkpt lat="49.07658" lon="2.21877">
        <ele>116</ele>
        <time>2015-11-01T15:39:48.943Z</time>
      </trkpt>
      <trkpt lat="49.07658" lon="2.21875">
        <ele>116</ele>
        <time>2015-11-01T15:39:49.682Z</time>
      </trkpt>
      <trkpt lat="49.07657" lon="2.21862">
        <ele>115</ele>
        <time>2015-11-01T15:39:57.036Z</time>
      </trkpt>
      <trkpt lat="49.07656" lon="2.2186">
        <ele>115</ele>
        <time>2015-11-01T15:39:57.728Z</time>
      </trkpt>
      <trkpt lat="49.07654" lon="2.21849">
        <ele>116</ele>
        <time>2015-11-01T15:40:04.006Z</time>
      </trkpt>
      <trkpt lat="49.07654" lon="2.21847">
        <ele>115</ele>
        <time>2015-11-01T15:40:04.706Z</time>
      </trkpt>
      <trkpt lat="49.07653" lon="2.21834">
        <ele>116</ele>
        <time>2015-11-01T15:40:11.863Z</time>
      </trkpt>
      <trkpt lat="49.07653" lon="2.21832">
        <ele>116</ele>
        <time>2015-11-01T15:40:12.697Z</time>
      </trkpt>
      <trkpt lat="49.0765" lon="2.2182">
        <ele>115</ele>
        <time>2015-11-01T15:40:18.922Z</time>
      </trkpt>
      <trkpt lat="49.0765" lon="2.21818">
        <ele>115</ele>
        <time>2015-11-01T15:40:19.672Z</time>
      </trkpt>
      <trkpt lat="49.07645" lon="2.21808">
        <ele>114</ele>
        <time>2015-11-01T15:40:28.114Z</time>
      </trkpt>
      <trkpt lat="49.07644" lon="2.21806">
        <ele>115</ele>
        <time>2015-11-01T15:40:28.672Z</time>
      </trkpt>
      <trkpt lat="49.07641" lon="2.21794">
        <ele>115</ele>
        <time>2015-11-01T15:40:37.031Z</time>
      </trkpt>
      <trkpt lat="49.07641" lon="2.21792">
        <ele>115</ele>
        <time>2015-11-01T15:40:37.693Z</time>
      </trkpt>
      <trkpt lat="49.07641" lon="2.21779">
        <ele>112</ele>
        <time>2015-11-01T15:40:43.975Z</time>
      </trkpt>
      <trkpt lat="49.07641" lon="2.21777">
        <ele>112</ele>
        <time>2015-11-01T15:40:44.701Z</time>
      </trkpt>
      <trkpt lat="49.07637" lon="2.21766">
        <ele>113</ele>
        <time>2015-11-01T15:40:52.070Z</time>
      </trkpt>
      <trkpt lat="49.07637" lon="2.21764">
        <ele>113</ele>
        <time>2015-11-01T15:40:52.608Z</time>
      </trkpt>
      <trkpt lat="49.07633" lon="2.21753">
        <ele>113</ele>
        <time>2015-11-01T15:40:59.977Z</time>
      </trkpt>
      <trkpt lat="49.07633" lon="2.21751">
        <ele>113</ele>
        <time>2015-11-01T15:41:00.627Z</time>
      </trkpt>
      <trkpt lat="49.07629" lon="2.21739">
        <ele>113</ele>
        <time>2015-11-01T15:41:06.995Z</time>
      </trkpt>
      <trkpt lat="49.07629" lon="2.21738">
        <ele>113</ele>
        <time>2015-11-01T15:41:07.707Z</time>
      </trkpt>
      <trkpt lat="49.07626" lon="2.21726">
        <ele>115</ele>
        <time>2015-11-01T15:41:13.877Z</time>
      </trkpt>
      <trkpt lat="49.07626" lon="2.21724">
        <ele>115</ele>
        <time>2015-11-01T15:41:14.624Z</time>
      </trkpt>
      <trkpt lat="49.07624" lon="2.21712">
        <ele>116</ele>
        <time>2015-11-01T15:41:20.788Z</time>
      </trkpt>
      <trkpt lat="49.07623" lon="2.2171">
        <ele>116</ele>
        <time>2015-11-01T15:41:21.682Z</time>
      </trkpt>
      <trkpt lat="49.07622" lon="2.21697">
        <ele>115</ele>
        <time>2015-11-01T15:41:28.949Z</time>
      </trkpt>
      <trkpt lat="49.07622" lon="2.21694">
        <ele>116</ele>
        <time>2015-11-01T15:41:29.940Z</time>
      </trkpt>
      <trkpt lat="49.0762" lon="2.21682">
        <ele>114</ele>
        <time>2015-11-01T15:41:35.930Z</time>
      </trkpt>
      <trkpt lat="49.0762" lon="2.2168">
        <ele>114</ele>
        <time>2015-11-01T15:41:36.693Z</time>
      </trkpt>
      <trkpt lat="49.07616" lon="2.21668">
        <ele>117</ele>
        <time>2015-11-01T15:41:43.874Z</time>
      </trkpt>
      <trkpt lat="49.07616" lon="2.21667">
        <ele>117</ele>
        <time>2015-11-01T15:41:44.700Z</time>
      </trkpt>
      <trkpt lat="49.07614" lon="2.21655">
        <ele>117</ele>
        <time>2015-11-01T15:41:51.955Z</time>
      </trkpt>
      <trkpt lat="49.07614" lon="2.21653">
        <ele>116</ele>
        <time>2015-11-01T15:41:52.658Z</time>
      </trkpt>
      <trkpt lat="49.07611" lon="2.21641">
        <ele>118</ele>
        <time>2015-11-01T15:41:59.975Z</time>
      </trkpt>
      <trkpt lat="49.07611" lon="2.2164">
        <ele>118</ele>
        <time>2015-11-01T15:42:00.665Z</time>
      </trkpt>
      <trkpt lat="49.07608" lon="2.21627">
        <ele>118</ele>
        <time>2015-11-01T15:42:08.856Z</time>
      </trkpt>
      <trkpt lat="49.07607" lon="2.21625">
        <ele>118</ele>
        <time>2015-11-01T15:42:09.683Z</time>
      </trkpt>
      <trkpt lat="49.07605" lon="2.21613">
        <ele>119</ele>
        <time>2015-11-01T15:42:16.738Z</time>
      </trkpt>
      <trkpt lat="49.07605" lon="2.21611">
        <ele>119</ele>
        <time>2015-11-01T15:42:17.656Z</time>
      </trkpt>
      <trkpt lat="49.07602" lon="2.216">
        <ele>119</ele>
        <time>2015-11-01T15:42:24.792Z</time>
      </trkpt>
      <trkpt lat="49.07602" lon="2.21598">
        <ele>119</ele>
        <time>2015-11-01T15:42:25.619Z</time>
      </trkpt>
      <trkpt lat="49.076" lon="2.21585">
        <ele>118</ele>
        <time>2015-11-01T15:42:32.788Z</time>
      </trkpt>
      <trkpt lat="49.076" lon="2.21583">
        <ele>119</ele>
        <time>2015-11-01T15:42:33.644Z</time>
      </trkpt>
      <trkpt lat="49.07598" lon="2.21571">
        <ele>119</ele>
        <time>2015-11-01T15:42:39.904Z</time>
      </trkpt>
      <trkpt lat="49.07598" lon="2.21569">
        <ele>118</ele>
        <time>2015-11-01T15:42:40.698Z</time>
      </trkpt>
      <trkpt lat="49.07594" lon="2.21557">
        <ele>117</ele>
        <time>2015-11-01T15:42:47.902Z</time>
      </trkpt>
      <trkpt lat="49.07594" lon="2.21555">
        <ele>118</ele>
        <time>2015-11-01T15:42:48.698Z</time>
      </trkpt>
      <trkpt lat="49.07591" lon="2.21543">
        <ele>117</ele>
        <time>2015-11-01T15:42:55.984Z</time>
      </trkpt>
      <trkpt lat="49.07591" lon="2.21542">
        <ele>117</ele>
        <time>2015-11-01T15:42:56.681Z</time>
      </trkpt>
      <trkpt lat="49.07588" lon="2.21529">
        <ele>117</ele>
        <time>2015-11-01T15:43:04.104Z</time>
      </trkpt>
      <trkpt lat="49.07587" lon="2.21528">
        <ele>117</ele>
        <time>2015-11-01T15:43:04.684Z</time>
      </trkpt>
      <trkpt lat="49.07584" lon="2.21515">
        <ele>117</ele>
        <time>2015-11-01T15:43:12.196Z</time>
      </trkpt>
      <trkpt lat="49.07583" lon="2.21514">
        <ele>117</ele>
        <time>2015-11-01T15:43:12.714Z</time>
      </trkpt>
      <trkpt lat="49.0758" lon="2.21501">
        <ele>116</ele>
        <time>2015-11-01T15:43:19.812Z</time>
      </trkpt>
      <trkpt lat="49.0758" lon="2.21499">
        <ele>117</ele>
        <time>2015-11-01T15:43:20.688Z</time>
      </trkpt>
      <trkpt lat="49.07577" lon="2.21487">
        <ele>118</ele>
        <time>2015-11-01T15:43:28.124Z</time>
      </trkpt>
      <trkpt lat="49.07577" lon="2.21485">
        <ele>118</ele>
        <time>2015-11-01T15:43:28.665Z</time>
      </trkpt>
      <trkpt lat="49.07576" lon="2.21474">
        <ele>119</ele>
        <time>2015-11-01T15:43:36.021Z</time>
      </trkpt>
      <trkpt lat="49.07575" lon="2.21472">
        <ele>119</ele>
        <time>2015-11-01T15:43:36.711Z</time>
      </trkpt>
      <trkpt lat="49.07572" lon="2.2146">
        <ele>117</ele>
        <time>2015-11-01T15:43:43.804Z</time>
      </trkpt>
      <trkpt lat="49.07571" lon="2.21458">
        <ele>117</ele>
        <time>2015-11-01T15:43:44.697Z</time>
      </trkpt>
      <trkpt lat="49.07568" lon="2.21447">
        <ele>117</ele>
        <time>2015-11-01T15:43:50.825Z</time>
      </trkpt>
      <trkpt lat="49.07568" lon="2.21445">
        <ele>117</ele>
        <time>2015-11-01T15:43:51.678Z</time>
      </trkpt>
      <trkpt lat="49.07565" lon="2.21432">
        <ele>118</ele>
        <time>2015-11-01T15:43:58.873Z</time>
      </trkpt>
      <trkpt lat="49.07565" lon="2.21431">
        <ele>119</ele>
        <time>2015-11-01T15:43:59.672Z</time>
      </trkpt>
      <trkpt lat="49.07562" lon="2.21418">
        <ele>118</ele>
        <time>2015-11-01T15:44:06.859Z</time>
      </trkpt>
      <trkpt lat="49.07561" lon="2.21416">
        <ele>118</ele>
        <time>2015-11-01T15:44:07.674Z</time>
      </trkpt>
      <trkpt lat="49.07559" lon="2.21404">
        <ele>117</ele>
        <time>2015-11-01T15:44:14.948Z</time>
      </trkpt>
      <trkpt lat="49.07558" lon="2.21402">
        <ele>117</ele>
        <time>2015-11-01T15:44:15.664Z</time>
      </trkpt>
      <trkpt lat="49.07554" lon="2.21389">
        <ele>118</ele>
        <time>2015-11-01T15:44:22.924Z</time>
      </trkpt>
      <trkpt lat="49.07554" lon="2.21387">
        <ele>117</ele>
        <time>2015-11-01T15:44:23.680Z</time>
      </trkpt>
      <trkpt lat="49.07552" lon="2.21376">
        <ele>116</ele>
        <time>2015-11-01T15:44:30.041Z</time>
      </trkpt>
      <trkpt lat="49.07551" lon="2.21374">
        <ele>117</ele>
        <time>2015-11-01T15:44:30.677Z</time>
      </trkpt>
      <trkpt lat="49.07548" lon="2.21362">
        <ele>117</ele>
        <time>2015-11-01T15:44:38.011Z</time>
      </trkpt>
      <trkpt lat="49.07548" lon="2.21361">
        <ele>116</ele>
        <time>2015-11-01T15:44:38.698Z</time>
      </trkpt>
      <trkpt lat="49.07546" lon="2.21348">
        <ele>115</ele>
        <time>2015-11-01T15:44:46.001Z</time>
      </trkpt>
      <trkpt lat="49.07546" lon="2.21346">
        <ele>115</ele>
        <time>2015-11-01T15:44:46.701Z</time>
      </trkpt>
      <trkpt lat="49.07543" lon="2.21335">
        <ele>114</ele>
        <time>2015-11-01T15:44:53.023Z</time>
      </trkpt>
      <trkpt lat="49.07543" lon="2.21333">
        <ele>114</ele>
        <time>2015-11-01T15:44:53.681Z</time>
      </trkpt>
      <trkpt lat="49.0754" lon="2.21322">
        <ele>113</ele>
        <time>2015-11-01T15:45:00.848Z</time>
      </trkpt>
      <trkpt lat="49.07539" lon="2.2132">
        <ele>113</ele>
        <time>2015-11-01T15:45:01.728Z</time>
      </trkpt>
      <trkpt lat="49.07537" lon="2.21307">
        <ele>114</ele>
        <time>2015-11-01T15:45:08.857Z</time>
      </trkpt>
      <trkpt lat="49.07537" lon="2.21306">
        <ele>114</ele>
        <time>2015-11-01T15:45:09.688Z</time>
      </trkpt>
      <trkpt lat="49.07533" lon="2.21294">
        <ele>114</ele>
        <time>2015-11-01T15:45:16.978Z</time>
      </trkpt>
      <trkpt lat="49.07533" lon="2.21292">
        <ele>113</ele>
        <time>2015-11-01T15:45:17.650Z</time>
      </trkpt>
      <trkpt lat="49.0753" lon="2.21279">
        <ele>113</ele>
        <time>2015-11-01T15:45:24.969Z</time>
      </trkpt>
      <trkpt lat="49.0753" lon="2.21278">
        <ele>112</ele>
        <time>2015-11-01T15:45:25.696Z</time>
      </trkpt>
      <trkpt lat="49.07528" lon="2.21265">
        <ele>113</ele>
        <time>2015-11-01T15:45:33.049Z</time>
      </trkpt>
      <trkpt lat="49.07527" lon="2.21263">
        <ele>113</ele>
        <time>2015-11-01T15:45:33.660Z</time>
      </trkpt>
      <trkpt lat="49.07525" lon="2.21251">
        <ele>114</ele>
        <time>2015-11-01T15:45:40.954Z</time>
      </trkpt>
      <trkpt lat="49.07525" lon="2.21249">
        <ele>114</ele>
        <time>2015-11-01T15:45:41.667Z</time>
      </trkpt>
      <trkpt lat="49.0752" lon="2.21237">
        <ele>114</ele>
        <time>2015-11-01T15:46:27.788Z</time>
      </trkpt>
      <trkpt lat="49.0752" lon="2.21235">
        <ele>114</ele>
        <time>2015-11-01T15:46:28.681Z</time>
      </trkpt>
      <trkpt lat="49.07517" lon="2.21223">
        <ele>112</ele>
        <time>2015-11-01T15:46:36.842Z</time>
      </trkpt>
      <trkpt lat="49.07517" lon="2.21222">
        <ele>112</ele>
        <time>2015-11-01T15:46:37.673Z</time>
      </trkpt>
      <trkpt lat="49.07516" lon="2.21209">
        <ele>112</ele>
        <time>2015-11-01T15:46:45.810Z</time>
      </trkpt>
      <trkpt lat="49.07516" lon="2.21207">
        <ele>112</ele>
        <time>2015-11-01T15:46:46.699Z</time>
      </trkpt>
      <trkpt lat="49.07514" lon="2.21195">
        <ele>111</ele>
        <time>2015-11-01T15:46:53.812Z</time>
      </trkpt>
      <trkpt lat="49.07514" lon="2.21193">
        <ele>111</ele>
        <time>2015-11-01T15:46:54.708Z</time>
      </trkpt>
      <trkpt lat="49.07514" lon="2.2118">
        <ele>111</ele>
        <time>2015-11-01T15:47:10.760Z</time>
      </trkpt>
      <trkpt lat="49.07514" lon="2.21179">
        <ele>111</ele>
        <time>2015-11-01T15:47:11.645Z</time>
      </trkpt>
      <trkpt lat="49.07512" lon="2.21166">
        <ele>109</ele>
        <time>2015-11-01T15:47:17.804Z</time>
      </trkpt>
      <trkpt lat="49.07512" lon="2.21164">
        <ele>109</ele>
        <time>2015-11-01T15:47:18.664Z</time>
      </trkpt>
      <trkpt lat="49.07511" lon="2.21152">
        <ele>108</ele>
        <time>2015-11-01T15:47:24.837Z</time>
      </trkpt>
      <trkpt lat="49.07512" lon="2.2115">
        <ele>108</ele>
        <time>2015-11-01T15:47:25.778Z</time>
      </trkpt>
      <trkpt lat="49.07511" lon="2.21138">
        <ele>107</ele>
        <time>2015-11-01T15:47:32.798Z</time>
      </trkpt>
      <trkpt lat="49.07511" lon="2.21136">
        <ele>107</ele>
        <time>2015-11-01T15:47:33.651Z</time>
      </trkpt>
      <trkpt lat="49.07511" lon="2.21123">
        <ele>107</ele>
        <time>2015-11-01T15:47:40.796Z</time>
      </trkpt>
      <trkpt lat="49.07511" lon="2.21121">
        <ele>107</ele>
        <time>2015-11-01T15:47:41.690Z</time>
      </trkpt>
      <trkpt lat="49.07511" lon="2.21109">
        <ele>108</ele>
        <time>2015-11-01T15:47:47.811Z</time>
      </trkpt>
      <trkpt lat="49.07511" lon="2.21107">
        <ele>107</ele>
        <time>2015-11-01T15:47:48.705Z</time>
      </trkpt>
      <trkpt lat="49.07511" lon="2.21094">
        <ele>106</ele>
        <time>2015-11-01T15:47:55.822Z</time>
      </trkpt>
      <trkpt lat="49.07511" lon="2.21092">
        <ele>105</ele>
        <time>2015-11-01T15:47:56.656Z</time>
      </trkpt>
      <trkpt lat="49.07506" lon="2.21082">
        <ele>107</ele>
        <time>2015-11-01T15:48:05.786Z</time>
      </trkpt>
      <trkpt lat="49.07506" lon="2.2108">
        <ele>107</ele>
        <time>2015-11-01T15:48:06.626Z</time>
      </trkpt>
      <trkpt lat="49.07507" lon="2.21067">
        <ele>106</ele>
        <time>2015-11-01T15:48:37.985Z</time>
      </trkpt>
      <trkpt lat="49.07507" lon="2.21066">
        <ele>107</ele>
        <time>2015-11-01T15:48:38.653Z</time>
      </trkpt>
      <trkpt lat="49.07504" lon="2.21054">
        <ele>105</ele>
        <time>2015-11-01T15:48:44.944Z</time>
      </trkpt>
      <trkpt lat="49.07503" lon="2.21052">
        <ele>105</ele>
        <time>2015-11-01T15:48:45.657Z</time>
      </trkpt>
      <trkpt lat="49.07498" lon="2.21043">
        <ele>105</ele>
        <time>2015-11-01T15:48:52.077Z</time>
      </trkpt>
      <trkpt lat="49.07497" lon="2.21042">
        <ele>104</ele>
        <time>2015-11-01T15:48:52.700Z</time>
      </trkpt>
      <trkpt lat="49.0749" lon="2.21033">
        <ele>105</ele>
        <time>2015-11-01T15:48:59.778Z</time>
      </trkpt>
      <trkpt lat="49.07489" lon="2.21032">
        <ele>105</ele>
        <time>2015-11-01T15:49:00.666Z</time>
      </trkpt>
      <trkpt lat="49.07484" lon="2.21021">
        <ele>106</ele>
        <time>2015-11-01T15:49:08.742Z</time>
      </trkpt>
      <trkpt lat="49.07484" lon="2.21019">
        <ele>106</ele>
        <time>2015-11-01T15:49:09.698Z</time>
      </trkpt>
      <trkpt lat="49.07478" lon="2.21009">
        <ele>105</ele>
        <time>2015-11-01T15:49:16.833Z</time>
      </trkpt>
      <trkpt lat="49.07478" lon="2.21008">
        <ele>106</ele>
        <time>2015-11-01T15:49:17.680Z</time>
      </trkpt>
      <trkpt lat="49.07473" lon="2.20999">
        <ele>103</ele>
        <time>2015-11-01T15:49:24.772Z</time>
      </trkpt>
      <trkpt lat="49.07472" lon="2.20997">
        <ele>103</ele>
        <time>2015-11-01T15:49:25.682Z</time>
      </trkpt>
      <trkpt lat="49.07466" lon="2.20988">
        <ele>102</ele>
        <time>2015-11-01T15:49:32.844Z</time>
      </trkpt>
      <trkpt lat="49.07466" lon="2.20986">
        <ele>102</ele>
        <time>2015-11-01T15:49:33.728Z</time>
      </trkpt>
      <trkpt lat="49.07458" lon="2.20979">
        <ele>103</ele>
        <time>2015-11-01T15:49:40.734Z</time>
      </trkpt>
      <trkpt lat="49.07457" lon="2.20978">
        <ele>103</ele>
        <time>2015-11-01T15:49:41.683Z</time>
      </trkpt>
      <trkpt lat="49.0745" lon="2.20974">
        <ele>104</ele>
        <time>2015-11-01T15:49:48.810Z</time>
      </trkpt>
      <trkpt lat="49.07449" lon="2.20973">
        <ele>104</ele>
        <time>2015-11-01T15:49:49.762Z</time>
      </trkpt>
      <trkpt lat="49.07442" lon="2.20966">
        <ele>102</ele>
        <time>2015-11-01T15:49:56.765Z</time>
      </trkpt>
      <trkpt lat="49.07441" lon="2.20965">
        <ele>102</ele>
        <time>2015-11-01T15:49:57.709Z</time>
      </trkpt>
      <trkpt lat="49.07433" lon="2.20958">
        <ele>102</ele>
        <time>2015-11-01T15:50:05.800Z</time>
      </trkpt>
      <trkpt lat="49.07432" lon="2.20957">
        <ele>103</ele>
        <time>2015-11-01T15:50:06.659Z</time>
      </trkpt>
      <trkpt lat="49.07427" lon="2.20947">
        <ele>105</ele>
        <time>2015-11-01T15:50:13.750Z</time>
      </trkpt>
      <trkpt lat="49.07426" lon="2.20946">
        <ele>105</ele>
        <time>2015-11-01T15:50:14.625Z</time>
      </trkpt>
      <trkpt lat="49.0742" lon="2.20936">
        <ele>106</ele>
        <time>2015-11-01T15:50:22.746Z</time>
      </trkpt>
      <trkpt lat="49.0742" lon="2.20934">
        <ele>106</ele>
        <time>2015-11-01T15:50:23.658Z</time>
      </trkpt>
      <trkpt lat="49.07414" lon="2.20924">
        <ele>108</ele>
        <time>2015-11-01T15:50:30.804Z</time>
      </trkpt>
      <trkpt lat="49.07414" lon="2.20923">
        <ele>109</ele>
        <time>2015-11-01T15:50:31.729Z</time>
      </trkpt>
      <trkpt lat="49.0741" lon="2.20912">
        <ele>109</ele>
        <time>2015-11-01T15:50:38.855Z</time>
      </trkpt>
      <trkpt lat="49.07409" lon="2.2091">
        <ele>111</ele>
        <time>2015-11-01T15:50:39.681Z</time>
      </trkpt>
      <trkpt lat="49.07406" lon="2.20899">
        <ele>113</ele>
        <time>2015-11-01T15:50:46.847Z</time>
      </trkpt>
      <trkpt lat="49.07405" lon="2.20898">
        <ele>114</ele>
        <time>2015-11-01T15:50:47.728Z</time>
      </trkpt>
      <trkpt lat="49.07399" lon="2.20888">
        <ele>113</ele>
        <time>2015-11-01T15:50:54.818Z</time>
      </trkpt>
      <trkpt lat="49.07398" lon="2.20887">
        <ele>113</ele>
        <time>2015-11-01T15:50:55.716Z</time>
      </trkpt>
      <trkpt lat="49.07393" lon="2.20877">
        <ele>112</ele>
        <time>2015-11-01T15:51:02.062Z</time>
      </trkpt>
      <trkpt lat="49.07392" lon="2.20876">
        <ele>112</ele>
        <time>2015-11-01T15:51:02.693Z</time>
      </trkpt>
      <trkpt lat="49.07387" lon="2.20867">
        <ele>111</ele>
        <time>2015-11-01T15:51:08.824Z</time>
      </trkpt>
      <trkpt lat="49.07386" lon="2.20866">
        <ele>112</ele>
        <time>2015-11-01T15:51:09.700Z</time>
      </trkpt>
      <trkpt lat="49.07381" lon="2.20856">
        <ele>112</ele>
        <time>2015-11-01T15:51:16.850Z</time>
      </trkpt>
      <trkpt lat="49.0738" lon="2.20854">
        <ele>112</ele>
        <time>2015-11-01T15:51:17.689Z</time>
      </trkpt>
      <trkpt lat="49.07374" lon="2.20845">
        <ele>112</ele>
        <time>2015-11-01T15:51:25.106Z</time>
      </trkpt>
      <trkpt lat="49.07373" lon="2.20844">
        <ele>112</ele>
        <time>2015-11-01T15:51:25.693Z</time>
      </trkpt>
      <trkpt lat="49.07367" lon="2.20836">
        <ele>112</ele>
        <time>2015-11-01T15:51:31.925Z</time>
      </trkpt>
      <trkpt lat="49.07366" lon="2.20835">
        <ele>112</ele>
        <time>2015-11-01T15:51:32.918Z</time>
      </trkpt>
      <trkpt lat="49.07361" lon="2.20826">
        <ele>111</ele>
        <time>2015-11-01T15:51:39.022Z</time>
      </trkpt>
      <trkpt lat="49.0736" lon="2.20824">
        <ele>110</ele>
        <time>2015-11-01T15:51:39.685Z</time>
      </trkpt>
      <trkpt lat="49.07354" lon="2.20814">
        <ele>110</ele>
        <time>2015-11-01T15:51:46.985Z</time>
      </trkpt>
      <trkpt lat="49.07354" lon="2.20813">
        <ele>110</ele>
        <time>2015-11-01T15:51:47.658Z</time>
      </trkpt>
      <trkpt lat="49.07348" lon="2.20803">
        <ele>109</ele>
        <time>2015-11-01T15:51:54.871Z</time>
      </trkpt>
      <trkpt lat="49.07348" lon="2.20801">
        <ele>109</ele>
        <time>2015-11-01T15:51:55.661Z</time>
      </trkpt>
      <trkpt lat="49.07341" lon="2.20793">
        <ele>110</ele>
        <time>2015-11-01T15:52:02.929Z</time>
      </trkpt>
      <trkpt lat="49.07341" lon="2.20792">
        <ele>109</ele>
        <time>2015-11-01T15:52:03.831Z</time>
      </trkpt>
      <trkpt lat="49.07335" lon="2.20782">
        <ele>110</ele>
        <time>2015-11-01T15:52:10.948Z</time>
      </trkpt>
      <trkpt lat="49.07335" lon="2.20781">
        <ele>110</ele>
        <time>2015-11-01T15:52:11.707Z</time>
      </trkpt>
      <trkpt lat="49.0733" lon="2.20771">
        <ele>108</ele>
        <time>2015-11-01T15:52:17.871Z</time>
      </trkpt>
      <trkpt lat="49.07329" lon="2.20769">
        <ele>108</ele>
        <time>2015-11-01T15:52:18.649Z</time>
      </trkpt>
      <trkpt lat="49.07324" lon="2.20759">
        <ele>108</ele>
        <time>2015-11-01T15:52:26.165Z</time>
      </trkpt>
      <trkpt lat="49.07323" lon="2.20758">
        <ele>108</ele>
        <time>2015-11-01T15:52:26.616Z</time>
      </trkpt>
      <trkpt lat="49.07317" lon="2.20748">
        <ele>107</ele>
        <time>2015-11-01T15:52:36.008Z</time>
      </trkpt>
      <trkpt lat="49.07316" lon="2.20747">
        <ele>106</ele>
        <time>2015-11-01T15:52:36.681Z</time>
      </trkpt>
      <trkpt lat="49.0731" lon="2.20738">
        <ele>107</ele>
        <time>2015-11-01T15:52:43.766Z</time>
      </trkpt>
      <trkpt lat="49.07309" lon="2.20737">
        <ele>107</ele>
        <time>2015-11-01T15:52:44.756Z</time>
      </trkpt>
      <trkpt lat="49.07304" lon="2.20727">
        <ele>109</ele>
        <time>2015-11-01T15:52:52.827Z</time>
      </trkpt>
      <trkpt lat="49.07304" lon="2.20725">
        <ele>109</ele>
        <time>2015-11-01T15:52:53.686Z</time>
      </trkpt>
      <trkpt lat="49.07299" lon="2.20714">
        <ele>110</ele>
        <time>2015-11-01T15:53:01.833Z</time>
      </trkpt>
      <trkpt lat="49.07298" lon="2.20713">
        <ele>111</ele>
        <time>2015-11-01T15:53:02.691Z</time>
      </trkpt>
      <trkpt lat="49.07292" lon="2.20704">
        <ele>109</ele>
        <time>2015-11-01T15:53:10.167Z</time>
      </trkpt>
      <trkpt lat="49.07291" lon="2.20703">
        <ele>108</ele>
        <time>2015-11-01T15:53:10.674Z</time>
      </trkpt>
      <trkpt lat="49.07285" lon="2.20694">
        <ele>107</ele>
        <time>2015-11-01T15:53:16.790Z</time>
      </trkpt>
      <trkpt lat="49.07284" lon="2.20693">
        <ele>106</ele>
        <time>2015-11-01T15:53:17.665Z</time>
      </trkpt>
      <trkpt lat="49.07279" lon="2.20682">
        <ele>109</ele>
        <time>2015-11-01T15:53:25.172Z</time>
      </trkpt>
      <trkpt lat="49.07278" lon="2.2068">
        <ele>108</ele>
        <time>2015-11-01T15:53:25.621Z</time>
      </trkpt>
      <trkpt lat="49.07274" lon="2.20668">
        <ele>111</ele>
        <time>2015-11-01T15:53:33.099Z</time>
      </trkpt>
      <trkpt lat="49.07274" lon="2.20666">
        <ele>111</ele>
        <time>2015-11-01T15:53:33.675Z</time>
      </trkpt>
      <trkpt lat="49.07268" lon="2.20657">
        <ele>111</ele>
        <time>2015-11-01T15:53:41.136Z</time>
      </trkpt>
      <trkpt lat="49.07267" lon="2.20656">
        <ele>111</ele>
        <time>2015-11-01T15:53:41.684Z</time>
      </trkpt>
      <trkpt lat="49.07261" lon="2.20646">
        <ele>110</ele>
        <time>2015-11-01T15:53:56.867Z</time>
      </trkpt>
      <trkpt lat="49.0726" lon="2.20646">
        <ele>109</ele>
        <time>2015-11-01T15:53:57.714Z</time>
      </trkpt>
      <trkpt lat="49.07255" lon="2.20635">
        <ele>108</ele>
        <time>2015-11-01T15:54:04.973Z</time>
      </trkpt>
      <trkpt lat="49.07254" lon="2.20634">
        <ele>108</ele>
        <time>2015-11-01T15:54:05.715Z</time>
      </trkpt>
      <trkpt lat="49.07248" lon="2.20623">
        <ele>109</ele>
        <time>2015-11-01T15:54:12.819Z</time>
      </trkpt>
      <trkpt lat="49.07247" lon="2.20622">
        <ele>108</ele>
        <time>2015-11-01T15:54:13.706Z</time>
      </trkpt>
      <trkpt lat="49.07242" lon="2.20611">
        <ele>109</ele>
        <time>2015-11-01T15:54:20.761Z</time>
      </trkpt>
      <trkpt lat="49.07242" lon="2.2061">
        <ele>108</ele>
        <time>2015-11-01T15:54:21.694Z</time>
      </trkpt>
      <trkpt lat="49.07238" lon="2.206">
        <ele>107</ele>
        <time>2015-11-01T15:54:36.889Z</time>
      </trkpt>
      <trkpt lat="49.07237" lon="2.20598">
        <ele>107</ele>
        <time>2015-11-01T15:54:37.665Z</time>
      </trkpt>
      <trkpt lat="49.07231" lon="2.20588">
        <ele>110</ele>
        <time>2015-11-01T15:54:45.949Z</time>
      </trkpt>
      <trkpt lat="49.0723" lon="2.20586">
        <ele>110</ele>
        <time>2015-11-01T15:54:46.724Z</time>
      </trkpt>
      <trkpt lat="49.07225" lon="2.20576">
        <ele>110</ele>
        <time>2015-11-01T15:54:53.812Z</time>
      </trkpt>
      <trkpt lat="49.07224" lon="2.20575">
        <ele>109</ele>
        <time>2015-11-01T15:54:54.808Z</time>
      </trkpt>
      <trkpt lat="49.07218" lon="2.20566">
        <ele>106</ele>
        <time>2015-11-01T15:55:00.911Z</time>
      </trkpt>
      <trkpt lat="49.07217" lon="2.20565">
        <ele>106</ele>
        <time>2015-11-01T15:55:01.678Z</time>
      </trkpt>
      <trkpt lat="49.07211" lon="2.20554">
        <ele>107</ele>
        <time>2015-11-01T15:55:08.834Z</time>
      </trkpt>
      <trkpt lat="49.0721" lon="2.20553">
        <ele>106</ele>
        <time>2015-11-01T15:55:09.671Z</time>
      </trkpt>
      <trkpt lat="49.07205" lon="2.20544">
        <ele>109</ele>
        <time>2015-11-01T15:55:16.873Z</time>
      </trkpt>
      <trkpt lat="49.07205" lon="2.20543">
        <ele>108</ele>
        <time>2015-11-01T15:55:17.684Z</time>
      </trkpt>
      <trkpt lat="49.07204" lon="2.20529">
        <ele>115</ele>
        <time>2015-11-01T15:55:25.834Z</time>
      </trkpt>
      <trkpt lat="49.07203" lon="2.20528">
        <ele>114</ele>
        <time>2015-11-01T15:55:26.659Z</time>
      </trkpt>
      <trkpt lat="49.07197" lon="2.20518">
        <ele>113</ele>
        <time>2015-11-01T15:55:33.867Z</time>
      </trkpt>
      <trkpt lat="49.07196" lon="2.20516">
        <ele>114</ele>
        <time>2015-11-01T15:55:34.684Z</time>
      </trkpt>
      <trkpt lat="49.07193" lon="2.20504">
        <ele>116</ele>
        <time>2015-11-01T15:55:42.835Z</time>
      </trkpt>
      <trkpt lat="49.07192" lon="2.20502">
        <ele>116</ele>
        <time>2015-11-01T15:55:43.684Z</time>
      </trkpt>
      <trkpt lat="49.07187" lon="2.20492">
        <ele>116</ele>
        <time>2015-11-01T15:55:48.803Z</time>
      </trkpt>
      <trkpt lat="49.07186" lon="2.20491">
        <ele>116</ele>
        <time>2015-11-01T15:55:49.692Z</time>
      </trkpt>
      <trkpt lat="49.0718" lon="2.20482">
        <ele>116</ele>
        <time>2015-11-01T15:55:56.981Z</time>
      </trkpt>
      <trkpt lat="49.0718" lon="2.20481">
        <ele>116</ele>
        <time>2015-11-01T15:55:57.698Z</time>
      </trkpt>
      <trkpt lat="49.07175" lon="2.2047">
        <ele>119</ele>
        <time>2015-11-01T15:56:05.803Z</time>
      </trkpt>
      <trkpt lat="49.07173" lon="2.20468">
        <ele>120</ele>
        <time>2015-11-01T15:56:08.167Z</time>
      </trkpt>
      <trkpt lat="49.07166" lon="2.2046">
        <ele>118</ele>
        <time>2015-11-01T15:56:13.865Z</time>
      </trkpt>
      <trkpt lat="49.07165" lon="2.20459">
        <ele>117</ele>
        <time>2015-11-01T15:56:14.687Z</time>
      </trkpt>
      <trkpt lat="49.07158" lon="2.2045">
        <ele>117</ele>
        <time>2015-11-01T15:56:20.826Z</time>
      </trkpt>
      <trkpt lat="49.07157" lon="2.20449">
        <ele>116</ele>
        <time>2015-11-01T15:56:21.688Z</time>
      </trkpt>
      <trkpt lat="49.07152" lon="2.20439">
        <ele>115</ele>
        <time>2015-11-01T15:56:27.790Z</time>
      </trkpt>
      <trkpt lat="49.07151" lon="2.20438">
        <ele>115</ele>
        <time>2015-11-01T15:56:28.635Z</time>
      </trkpt>
      <trkpt lat="49.07146" lon="2.20427">
        <ele>114</ele>
        <time>2015-11-01T15:56:35.798Z</time>
      </trkpt>
      <trkpt lat="49.07145" lon="2.20426">
        <ele>114</ele>
        <time>2015-11-01T15:56:36.628Z</time>
      </trkpt>
      <trkpt lat="49.0714" lon="2.20416">
        <ele>114</ele>
        <time>2015-11-01T15:56:43.805Z</time>
      </trkpt>
      <trkpt lat="49.07139" lon="2.20415">
        <ele>114</ele>
        <time>2015-11-01T15:56:44.688Z</time>
      </trkpt>
      <trkpt lat="49.07134" lon="2.20405">
        <ele>113</ele>
        <time>2015-11-01T15:56:51.803Z</time>
      </trkpt>
      <trkpt lat="49.07133" lon="2.20403">
        <ele>112</ele>
        <time>2015-11-01T15:56:52.659Z</time>
      </trkpt>
      <trkpt lat="49.07128" lon="2.20392">
        <ele>114</ele>
        <time>2015-11-01T15:56:59.774Z</time>
      </trkpt>
      <trkpt lat="49.07127" lon="2.20391">
        <ele>113</ele>
        <time>2015-11-01T15:57:00.680Z</time>
      </trkpt>
      <trkpt lat="49.0712" lon="2.20383">
        <ele>113</ele>
        <time>2015-11-01T15:57:07.957Z</time>
      </trkpt>
      <trkpt lat="49.07119" lon="2.20381">
        <ele>113</ele>
        <time>2015-11-01T15:57:08.702Z</time>
      </trkpt>
      <trkpt lat="49.07115" lon="2.20371">
        <ele>115</ele>
        <time>2015-11-01T15:57:15.802Z</time>
      </trkpt>
      <trkpt lat="49.07114" lon="2.2037">
        <ele>115</ele>
        <time>2015-11-01T15:57:16.649Z</time>
      </trkpt>
      <trkpt lat="49.07109" lon="2.20359">
        <ele>118</ele>
        <time>2015-11-01T15:57:23.815Z</time>
      </trkpt>
      <trkpt lat="49.07108" lon="2.20358">
        <ele>118</ele>
        <time>2015-11-01T15:57:24.656Z</time>
      </trkpt>
      <trkpt lat="49.07102" lon="2.20348">
        <ele>122</ele>
        <time>2015-11-01T15:57:33.088Z</time>
      </trkpt>
      <trkpt lat="49.07101" lon="2.20346">
        <ele>121</ele>
        <time>2015-11-01T15:57:33.708Z</time>
      </trkpt>
      <trkpt lat="49.07094" lon="2.20339">
        <ele>119</ele>
        <time>2015-11-01T15:57:39.803Z</time>
      </trkpt>
      <trkpt lat="49.07093" lon="2.20337">
        <ele>118</ele>
        <time>2015-11-01T15:57:40.658Z</time>
      </trkpt>
      <trkpt lat="49.07086" lon="2.20329">
        <ele>115</ele>
        <time>2015-11-01T15:57:47.788Z</time>
      </trkpt>
      <trkpt lat="49.07085" lon="2.20328">
        <ele>114</ele>
        <time>2015-11-01T15:57:48.703Z</time>
      </trkpt>
      <trkpt lat="49.07077" lon="2.20321">
        <ele>112</ele>
        <time>2015-11-01T15:57:55.814Z</time>
      </trkpt>
      <trkpt lat="49.07076" lon="2.2032">
        <ele>112</ele>
        <time>2015-11-01T15:57:56.705Z</time>
      </trkpt>
      <trkpt lat="49.0707" lon="2.20312">
        <ele>112</ele>
        <time>2015-11-01T15:58:02.753Z</time>
      </trkpt>
      <trkpt lat="49.07069" lon="2.20311">
        <ele>113</ele>
        <time>2015-11-01T15:58:03.626Z</time>
      </trkpt>
      <trkpt lat="49.07063" lon="2.20302">
        <ele>114</ele>
        <time>2015-11-01T15:58:12.772Z</time>
      </trkpt>
      <trkpt lat="49.07063" lon="2.203">
        <ele>115</ele>
        <time>2015-11-01T15:58:13.625Z</time>
      </trkpt>
      <trkpt lat="49.07056" lon="2.20292">
        <ele>114</ele>
        <time>2015-11-01T15:58:20.808Z</time>
      </trkpt>
      <trkpt lat="49.07055" lon="2.20291">
        <ele>114</ele>
        <time>2015-11-01T15:58:21.696Z</time>
      </trkpt>
      <trkpt lat="49.07048" lon="2.20282">
        <ele>115</ele>
        <time>2015-11-01T15:58:29.844Z</time>
      </trkpt>
      <trkpt lat="49.07047" lon="2.20281">
        <ele>115</ele>
        <time>2015-11-01T15:58:30.621Z</time>
      </trkpt>
      <trkpt lat="49.07043" lon="2.2027">
        <ele>116</ele>
        <time>2015-11-01T15:58:38.796Z</time>
      </trkpt>
      <trkpt lat="49.07042" lon="2.20268">
        <ele>117</ele>
        <time>2015-11-01T15:58:39.768Z</time>
      </trkpt>
      <trkpt lat="49.07043" lon="2.20255">
        <ele>117</ele>
        <time>2015-11-01T15:58:46.846Z</time>
      </trkpt>
      <trkpt lat="49.07044" lon="2.20253">
        <ele>116</ele>
        <time>2015-11-01T15:58:47.675Z</time>
      </trkpt>
      <trkpt lat="49.07048" lon="2.20242">
        <ele>111</ele>
        <time>2015-11-01T15:58:55.745Z</time>
      </trkpt>
      <trkpt lat="49.07049" lon="2.20241">
        <ele>110</ele>
        <time>2015-11-01T15:58:56.682Z</time>
      </trkpt>
      <trkpt lat="49.07057" lon="2.20234">
        <ele>107</ele>
        <time>2015-11-01T15:59:05.823Z</time>
      </trkpt>
      <trkpt lat="49.07058" lon="2.20233">
        <ele>107</ele>
        <time>2015-11-01T15:59:06.667Z</time>
      </trkpt>
      <trkpt lat="49.07065" lon="2.20227">
        <ele>110</ele>
        <time>2015-11-01T15:59:14.795Z</time>
      </trkpt>
      <trkpt lat="49.07066" lon="2.20226">
        <ele>110</ele>
        <time>2015-11-01T15:59:15.689Z</time>
      </trkpt>
      <trkpt lat="49.07072" lon="2.20218">
        <ele>109</ele>
        <time>2015-11-01T15:59:24.734Z</time>
      </trkpt>
      <trkpt lat="49.07072" lon="2.20216">
        <ele>108</ele>
        <time>2015-11-01T15:59:25.664Z</time>
      </trkpt>
      <trkpt lat="49.07079" lon="2.20209">
        <ele>110</ele>
        <time>2015-11-01T15:59:32.067Z</time>
      </trkpt>
      <trkpt lat="49.0708" lon="2.20208">
        <ele>109</ele>
        <time>2015-11-01T15:59:32.678Z</time>
      </trkpt>
      <trkpt lat="49.07086" lon="2.20201">
        <ele>108</ele>
        <time>2015-11-01T15:59:38.888Z</time>
      </trkpt>
      <trkpt lat="49.07087" lon="2.20199">
        <ele>107</ele>
        <time>2015-11-01T15:59:39.668Z</time>
      </trkpt>
      <trkpt lat="49.07093" lon="2.20189">
        <ele>108</ele>
        <time>2015-11-01T15:59:46.807Z</time>
      </trkpt>
      <trkpt lat="49.07094" lon="2.20188">
        <ele>108</ele>
        <time>2015-11-01T15:59:47.650Z</time>
      </trkpt>
      <trkpt lat="49.07102" lon="2.20181">
        <ele>109</ele>
        <time>2015-11-01T15:59:56.190Z</time>
      </trkpt>
      <trkpt lat="49.07103" lon="2.20181">
        <ele>109</ele>
        <time>2015-11-01T15:59:56.682Z</time>
      </trkpt>
      <trkpt lat="49.0711" lon="2.20175">
        <ele>107</ele>
        <time>2015-11-01T16:00:05.086Z</time>
      </trkpt>
      <trkpt lat="49.07112" lon="2.20174">
        <ele>106</ele>
        <time>2015-11-01T16:00:05.683Z</time>
      </trkpt>
      <trkpt lat="49.07118" lon="2.20167">
        <ele>105</ele>
        <time>2015-11-01T16:00:11.811Z</time>
      </trkpt>
      <trkpt lat="49.07119" lon="2.20166">
        <ele>105</ele>
        <time>2015-11-01T16:00:12.715Z</time>
      </trkpt>
      <trkpt lat="49.07126" lon="2.2016">
        <ele>105</ele>
        <time>2015-11-01T16:00:18.818Z</time>
      </trkpt>
      <trkpt lat="49.07127" lon="2.20159">
        <ele>104</ele>
        <time>2015-11-01T16:00:19.665Z</time>
      </trkpt>
      <trkpt lat="49.07133" lon="2.20149">
        <ele>101</ele>
        <time>2015-11-01T16:00:26.846Z</time>
      </trkpt>
      <trkpt lat="49.07133" lon="2.20148">
        <ele>101</ele>
        <time>2015-11-01T16:00:27.707Z</time>
      </trkpt>
      <trkpt lat="49.07139" lon="2.20138">
        <ele>103</ele>
        <time>2015-11-01T16:00:34.898Z</time>
      </trkpt>
      <trkpt lat="49.0714" lon="2.20137">
        <ele>103</ele>
        <time>2015-11-01T16:00:35.687Z</time>
      </trkpt>
      <trkpt lat="49.07147" lon="2.20129">
        <ele>105</ele>
        <time>2015-11-01T16:00:43.895Z</time>
      </trkpt>
      <trkpt lat="49.07148" lon="2.20128">
        <ele>105</ele>
        <time>2015-11-01T16:00:44.689Z</time>
      </trkpt>
      <trkpt lat="49.07155" lon="2.20121">
        <ele>101</ele>
        <time>2015-11-01T16:00:51.959Z</time>
      </trkpt>
      <trkpt lat="49.07156" lon="2.2012">
        <ele>101</ele>
        <time>2015-11-01T16:00:52.824Z</time>
      </trkpt>
      <trkpt lat="49.07161" lon="2.2011">
        <ele>99</ele>
        <time>2015-11-01T16:00:59.793Z</time>
      </trkpt>
      <trkpt lat="49.07162" lon="2.20109">
        <ele>99</ele>
        <time>2015-11-01T16:01:00.675Z</time>
      </trkpt>
      <trkpt lat="49.07169" lon="2.20105">
        <ele>94</ele>
        <time>2015-11-01T16:01:10.801Z</time>
      </trkpt>
      <trkpt lat="49.0717" lon="2.20104">
        <ele>94</ele>
        <time>2015-11-01T16:01:11.639Z</time>
      </trkpt>
      <trkpt lat="49.07177" lon="2.20097">
        <ele>94</ele>
        <time>2015-11-01T16:01:22.826Z</time>
      </trkpt>
      <trkpt lat="49.07178" lon="2.20097">
        <ele>94</ele>
        <time>2015-11-01T16:01:23.684Z</time>
      </trkpt>
      <trkpt lat="49.07186" lon="2.20098">
        <ele>97</ele>
        <time>2015-11-01T16:01:32.101Z</time>
      </trkpt>
      <trkpt lat="49.07187" lon="2.20098">
        <ele>96</ele>
        <time>2015-11-01T16:01:32.723Z</time>
      </trkpt>
      <trkpt lat="49.07196" lon="2.20099">
        <ele>90</ele>
        <time>2015-11-01T16:01:43.042Z</time>
      </trkpt>
      <trkpt lat="49.07197" lon="2.201">
        <ele>91</ele>
        <time>2015-11-01T16:01:43.737Z</time>
      </trkpt>
      <trkpt lat="49.07204" lon="2.20095">
        <ele>91</ele>
        <time>2015-11-01T16:01:50.962Z</time>
      </trkpt>
      <trkpt lat="49.07205" lon="2.20093">
        <ele>90</ele>
        <time>2015-11-01T16:01:51.657Z</time>
      </trkpt>
      <trkpt lat="49.07213" lon="2.20089">
        <ele>92</ele>
        <time>2015-11-01T16:01:56.048Z</time>
      </trkpt>
      <trkpt lat="49.07214" lon="2.20087">
        <ele>91</ele>
        <time>2015-11-01T16:01:56.701Z</time>
      </trkpt>
      <trkpt lat="49.07221" lon="2.20078">
        <ele>90</ele>
        <time>2015-11-01T16:02:05.895Z</time>
      </trkpt>
      <trkpt lat="49.07222" lon="2.20077">
        <ele>89</ele>
        <time>2015-11-01T16:02:06.683Z</time>
      </trkpt>
      <trkpt lat="49.07227" lon="2.2007">
        <ele>87</ele>
        <time>2015-11-01T16:02:17.869Z</time>
      </trkpt>
      <trkpt lat="49.07229" lon="2.20068">
        <ele>87</ele>
        <time>2015-11-01T16:02:18.667Z</time>
      </trkpt>
      <trkpt lat="49.07237" lon="2.20063">
        <ele>85</ele>
        <time>2015-11-01T16:02:24.892Z</time>
      </trkpt>
      <trkpt lat="49.07237" lon="2.20062">
        <ele>85</ele>
        <time>2015-11-01T16:02:25.674Z</time>
      </trkpt>
      <trkpt lat="49.07232" lon="2.20051">
        <ele>85</ele>
        <time>2015-11-01T16:02:37.777Z</time>
      </trkpt>
      <trkpt lat="49.07231" lon="2.2005">
        <ele>85</ele>
        <time>2015-11-01T16:02:38.685Z</time>
      </trkpt>
      <trkpt lat="49.07225" lon="2.20041">
        <ele>84</ele>
        <time>2015-11-01T16:02:45.907Z</time>
      </trkpt>
      <trkpt lat="49.07224" lon="2.2004">
        <ele>83</ele>
        <time>2015-11-01T16:02:46.635Z</time>
      </trkpt>
      <trkpt lat="49.07218" lon="2.20034">
        <ele>83</ele>
        <time>2015-11-01T16:02:52.830Z</time>
      </trkpt>
      <trkpt lat="49.07217" lon="2.20032">
        <ele>83</ele>
        <time>2015-11-01T16:02:53.646Z</time>
      </trkpt>
      <trkpt lat="49.07212" lon="2.20022">
        <ele>83</ele>
        <time>2015-11-01T16:03:01.066Z</time>
      </trkpt>
      <trkpt lat="49.07211" lon="2.20021">
        <ele>84</ele>
        <time>2015-11-01T16:03:01.716Z</time>
      </trkpt>
      <trkpt lat="49.07206" lon="2.2001">
        <ele>83</ele>
        <time>2015-11-01T16:03:09.936Z</time>
      </trkpt>
      <trkpt lat="49.07206" lon="2.20009">
        <ele>84</ele>
        <time>2015-11-01T16:03:10.718Z</time>
      </trkpt>
      <trkpt lat="49.07199" lon="2.19999">
        <ele>85</ele>
        <time>2015-11-01T16:03:20.021Z</time>
      </trkpt>
      <trkpt lat="49.07199" lon="2.19998">
        <ele>84</ele>
        <time>2015-11-01T16:03:20.681Z</time>
      </trkpt>
      <trkpt lat="49.07192" lon="2.19989">
        <ele>83</ele>
        <time>2015-11-01T16:03:29.117Z</time>
      </trkpt>
      <trkpt lat="49.07191" lon="2.19988">
        <ele>82</ele>
        <time>2015-11-01T16:03:29.659Z</time>
      </trkpt>
      <trkpt lat="49.07186" lon="2.19977">
        <ele>83</ele>
        <time>2015-11-01T16:03:38.355Z</time>
      </trkpt>
      <trkpt lat="49.07185" lon="2.19976">
        <ele>82</ele>
        <time>2015-11-01T16:03:38.647Z</time>
      </trkpt>
      <trkpt lat="49.07181" lon="2.19964">
        <ele>85</ele>
        <time>2015-11-01T16:03:47.030Z</time>
      </trkpt>
      <trkpt lat="49.07181" lon="2.19963">
        <ele>84</ele>
        <time>2015-11-01T16:03:47.715Z</time>
      </trkpt>
      <trkpt lat="49.07174" lon="2.19956">
        <ele>80</ele>
        <time>2015-11-01T16:03:54.984Z</time>
      </trkpt>
      <trkpt lat="49.07173" lon="2.19955">
        <ele>80</ele>
        <time>2015-11-01T16:03:55.691Z</time>
      </trkpt>
      <trkpt lat="49.07167" lon="2.19947">
        <ele>81</ele>
        <time>2015-11-01T16:04:02.007Z</time>
      </trkpt>
      <trkpt lat="49.07166" lon="2.19946">
        <ele>81</ele>
        <time>2015-11-01T16:04:02.698Z</time>
      </trkpt>
      <trkpt lat="49.0716" lon="2.19937">
        <ele>81</ele>
        <time>2015-11-01T16:04:09.984Z</time>
      </trkpt>
      <trkpt lat="49.07159" lon="2.19936">
        <ele>82</ele>
        <time>2015-11-01T16:04:10.714Z</time>
      </trkpt>
      <trkpt lat="49.07152" lon="2.19926">
        <ele>81</ele>
        <time>2015-11-01T16:04:18.878Z</time>
      </trkpt>
      <trkpt lat="49.07151" lon="2.19925">
        <ele>81</ele>
        <time>2015-11-01T16:04:19.617Z</time>
      </trkpt>
      <trkpt lat="49.07146" lon="2.19914">
        <ele>82</ele>
        <time>2015-11-01T16:04:28.122Z</time>
      </trkpt>
      <trkpt lat="49.07145" lon="2.19913">
        <ele>83</ele>
        <time>2015-11-01T16:04:28.685Z</time>
      </trkpt>
      <trkpt lat="49.07139" lon="2.19904">
        <ele>84</ele>
        <time>2015-11-01T16:04:36.023Z</time>
      </trkpt>
      <trkpt lat="49.07138" lon="2.19903">
        <ele>84</ele>
        <time>2015-11-01T16:04:36.676Z</time>
      </trkpt>
      <trkpt lat="49.07132" lon="2.19892">
        <ele>86</ele>
        <time>2015-11-01T16:04:45.043Z</time>
      </trkpt>
      <trkpt lat="49.07132" lon="2.19891">
        <ele>86</ele>
        <time>2015-11-01T16:04:45.676Z</time>
      </trkpt>
      <trkpt lat="49.07134" lon="2.19879">
        <ele>87</ele>
        <time>2015-11-01T16:04:53.082Z</time>
      </trkpt>
      <trkpt lat="49.07135" lon="2.19877">
        <ele>87</ele>
        <time>2015-11-01T16:04:53.728Z</time>
      </trkpt>
      <trkpt lat="49.07141" lon="2.19868">
        <ele>83</ele>
        <time>2015-11-01T16:05:01.076Z</time>
      </trkpt>
      <trkpt lat="49.07141" lon="2.19867">
        <ele>83</ele>
        <time>2015-11-01T16:05:01.686Z</time>
      </trkpt>
      <trkpt lat="49.07146" lon="2.19856">
        <ele>79</ele>
        <time>2015-11-01T16:05:09.944Z</time>
      </trkpt>
      <trkpt lat="49.07146" lon="2.19854">
        <ele>80</ele>
        <time>2015-11-01T16:05:10.695Z</time>
      </trkpt>
      <trkpt lat="49.07143" lon="2.19842">
        <ele>79</ele>
        <time>2015-11-01T16:05:16.939Z</time>
      </trkpt>
      <trkpt lat="49.07143" lon="2.1984">
        <ele>78</ele>
        <time>2015-11-01T16:05:17.618Z</time>
      </trkpt>
      <trkpt lat="49.07137" lon="2.19831">
        <ele>76</ele>
        <time>2015-11-01T16:05:23.868Z</time>
      </trkpt>
      <trkpt lat="49.07136" lon="2.1983">
        <ele>76</ele>
        <time>2015-11-01T16:05:24.665Z</time>
      </trkpt>
      <trkpt lat="49.0713" lon="2.19823">
        <ele>77</ele>
        <time>2015-11-01T16:05:31.924Z</time>
      </trkpt>
      <trkpt lat="49.07129" lon="2.19821">
        <ele>77</ele>
        <time>2015-11-01T16:05:32.682Z</time>
      </trkpt>
      <trkpt lat="49.07125" lon="2.1981">
        <ele>79</ele>
        <time>2015-11-01T16:05:40.955Z</time>
      </trkpt>
      <trkpt lat="49.07124" lon="2.19808">
        <ele>79</ele>
        <time>2015-11-01T16:05:41.713Z</time>
      </trkpt>
      <trkpt lat="49.07119" lon="2.19798">
        <ele>79</ele>
        <time>2015-11-01T16:05:48.770Z</time>
      </trkpt>
      <trkpt lat="49.07118" lon="2.19796">
        <ele>78</ele>
        <time>2015-11-01T16:05:49.628Z</time>
      </trkpt>
      <trkpt lat="49.07112" lon="2.19787">
        <ele>79</ele>
        <time>2015-11-01T16:05:57.025Z</time>
      </trkpt>
      <trkpt lat="49.07111" lon="2.19786">
        <ele>79</ele>
        <time>2015-11-01T16:05:57.617Z</time>
      </trkpt>
      <trkpt lat="49.07105" lon="2.19777">
        <ele>81</ele>
        <time>2015-11-01T16:06:06.125Z</time>
      </trkpt>
      <trkpt lat="49.07104" lon="2.19776">
        <ele>80</ele>
        <time>2015-11-01T16:06:06.642Z</time>
      </trkpt>
      <trkpt lat="49.07097" lon="2.19767">
        <ele>84</ele>
        <time>2015-11-01T16:06:14.019Z</time>
      </trkpt>
      <trkpt lat="49.07097" lon="2.19765">
        <ele>84</ele>
        <time>2015-11-01T16:06:14.673Z</time>
      </trkpt>
      <trkpt lat="49.07091" lon="2.19755">
        <ele>81</ele>
        <time>2015-11-01T16:06:22.022Z</time>
      </trkpt>
      <trkpt lat="49.07091" lon="2.19754">
        <ele>81</ele>
        <time>2015-11-01T16:06:22.673Z</time>
      </trkpt>
      <trkpt lat="49.07085" lon="2.19745">
        <ele>79</ele>
        <time>2015-11-01T16:06:30.008Z</time>
      </trkpt>
      <trkpt lat="49.07084" lon="2.19743">
        <ele>80</ele>
        <time>2015-11-01T16:06:30.700Z</time>
      </trkpt>
      <trkpt lat="49.07078" lon="2.19734">
        <ele>80</ele>
        <time>2015-11-01T16:06:39.066Z</time>
      </trkpt>
      <trkpt lat="49.07077" lon="2.19733">
        <ele>79</ele>
        <time>2015-11-01T16:06:39.709Z</time>
      </trkpt>
      <trkpt lat="49.07069" lon="2.19726">
        <ele>77</ele>
        <time>2015-11-01T16:06:48.941Z</time>
      </trkpt>
      <trkpt lat="49.07068" lon="2.19725">
        <ele>78</ele>
        <time>2015-11-01T16:06:49.658Z</time>
      </trkpt>
      <trkpt lat="49.07062" lon="2.19716">
        <ele>81</ele>
        <time>2015-11-01T16:06:59.030Z</time>
      </trkpt>
      <trkpt lat="49.07061" lon="2.19716">
        <ele>80</ele>
        <time>2015-11-01T16:06:59.681Z</time>
      </trkpt>
      <trkpt lat="49.07055" lon="2.19705">
        <ele>79</ele>
        <time>2015-11-01T16:07:08.175Z</time>
      </trkpt>
      <trkpt lat="49.07054" lon="2.19704">
        <ele>79</ele>
        <time>2015-11-01T16:07:08.677Z</time>
      </trkpt>
      <trkpt lat="49.07049" lon="2.19695">
        <ele>78</ele>
        <time>2015-11-01T16:07:14.987Z</time>
      </trkpt>
      <trkpt lat="49.07048" lon="2.19694">
        <ele>78</ele>
        <time>2015-11-01T16:07:15.682Z</time>
      </trkpt>
      <trkpt lat="49.07041" lon="2.19685">
        <ele>79</ele>
        <time>2015-11-01T16:07:22.024Z</time>
      </trkpt>
      <trkpt lat="49.0704" lon="2.19683">
        <ele>79</ele>
        <time>2015-11-01T16:07:22.626Z</time>
      </trkpt>
      <trkpt lat="49.07034" lon="2.19674">
        <ele>79</ele>
        <time>2015-11-01T16:07:29.059Z</time>
      </trkpt>
      <trkpt lat="49.07033" lon="2.19672">
        <ele>79</ele>
        <time>2015-11-01T16:07:29.628Z</time>
      </trkpt>
      <trkpt lat="49.07027" lon="2.19663">
        <ele>79</ele>
        <time>2015-11-01T16:07:37.099Z</time>
      </trkpt>
      <trkpt lat="49.07026" lon="2.19662">
        <ele>78</ele>
        <time>2015-11-01T16:07:37.737Z</time>
      </trkpt>
      <trkpt lat="49.07019" lon="2.19654">
        <ele>78</ele>
        <time>2015-11-01T16:07:44.963Z</time>
      </trkpt>
      <trkpt lat="49.07019" lon="2.19652">
        <ele>78</ele>
        <time>2015-11-01T16:07:45.715Z</time>
      </trkpt>
      <trkpt lat="49.07014" lon="2.19642">
        <ele>81</ele>
        <time>2015-11-01T16:07:54.062Z</time>
      </trkpt>
      <trkpt lat="49.07013" lon="2.19641">
        <ele>81</ele>
        <time>2015-11-01T16:07:54.771Z</time>
      </trkpt>
      <trkpt lat="49.07005" lon="2.19634">
        <ele>79</ele>
        <time>2015-11-01T16:08:01.924Z</time>
      </trkpt>
      <trkpt lat="49.07004" lon="2.19633">
        <ele>79</ele>
        <time>2015-11-01T16:08:02.709Z</time>
      </trkpt>
      <trkpt lat="49.06996" lon="2.19627">
        <ele>79</ele>
        <time>2015-11-01T16:08:10.052Z</time>
      </trkpt>
      <trkpt lat="49.06995" lon="2.19626">
        <ele>79</ele>
        <time>2015-11-01T16:08:10.701Z</time>
      </trkpt>
      <trkpt lat="49.06987" lon="2.1962">
        <ele>77</ele>
        <time>2015-11-01T16:08:18.930Z</time>
      </trkpt>
      <trkpt lat="49.06986" lon="2.19619">
        <ele>77</ele>
        <time>2015-11-01T16:08:19.689Z</time>
      </trkpt>
      <trkpt lat="49.06978" lon="2.19613">
        <ele>79</ele>
        <time>2015-11-01T16:08:27.020Z</time>
      </trkpt>
      <trkpt lat="49.06977" lon="2.19613">
        <ele>78</ele>
        <time>2015-11-01T16:08:27.689Z</time>
      </trkpt>
      <trkpt lat="49.0697" lon="2.19607">
        <ele>79</ele>
        <time>2015-11-01T16:08:35.112Z</time>
      </trkpt>
      <trkpt lat="49.06969" lon="2.19606">
        <ele>79</ele>
        <time>2015-11-01T16:08:35.690Z</time>
      </trkpt>
      <trkpt lat="49.06961" lon="2.196">
        <ele>78</ele>
        <time>2015-11-01T16:08:43.060Z</time>
      </trkpt>
      <trkpt lat="49.06959" lon="2.19598">
        <ele>76</ele>
        <time>2015-11-01T16:08:44.897Z</time>
      </trkpt>
      <trkpt lat="49.06951" lon="2.19592">
        <ele>74</ele>
        <time>2015-11-01T16:08:50.945Z</time>
      </trkpt>
      <trkpt lat="49.0695" lon="2.19591">
        <ele>74</ele>
        <time>2015-11-01T16:08:51.633Z</time>
      </trkpt>
      <trkpt lat="49.06943" lon="2.19585">
        <ele>75</ele>
        <time>2015-11-01T16:08:58.921Z</time>
      </trkpt>
      <trkpt lat="49.06942" lon="2.19584">
        <ele>74</ele>
        <time>2015-11-01T16:08:59.645Z</time>
      </trkpt>
      <trkpt lat="49.06933" lon="2.19582">
        <ele>75</ele>
        <time>2015-11-01T16:09:07.962Z</time>
      </trkpt>
      <trkpt lat="49.06932" lon="2.19581">
        <ele>74</ele>
        <time>2015-11-01T16:09:08.636Z</time>
      </trkpt>
      <trkpt lat="49.06925" lon="2.19574">
        <ele>78</ele>
        <time>2015-11-01T16:09:15.862Z</time>
      </trkpt>
      <trkpt lat="49.06924" lon="2.19573">
        <ele>78</ele>
        <time>2015-11-01T16:09:16.705Z</time>
      </trkpt>
      <trkpt lat="49.06917" lon="2.19565">
        <ele>81</ele>
        <time>2015-11-01T16:09:23.871Z</time>
      </trkpt>
      <trkpt lat="49.06916" lon="2.19564">
        <ele>81</ele>
        <time>2015-11-01T16:09:24.686Z</time>
      </trkpt>
      <trkpt lat="49.06911" lon="2.19554">
        <ele>79</ele>
        <time>2015-11-01T16:09:31.807Z</time>
      </trkpt>
      <trkpt lat="49.06911" lon="2.19552">
        <ele>79</ele>
        <time>2015-11-01T16:09:32.683Z</time>
      </trkpt>
      <trkpt lat="49.06909" lon="2.1954">
        <ele>78</ele>
        <time>2015-11-01T16:09:39.895Z</time>
      </trkpt>
      <trkpt lat="49.06908" lon="2.19539">
        <ele>77</ele>
        <time>2015-11-01T16:09:40.706Z</time>
      </trkpt>
      <trkpt lat="49.06903" lon="2.19529">
        <ele>79</ele>
        <time>2015-11-01T16:09:47.834Z</time>
      </trkpt>
      <trkpt lat="49.06902" lon="2.19528">
        <ele>79</ele>
        <time>2015-11-01T16:09:48.680Z</time>
      </trkpt>
      <trkpt lat="49.06894" lon="2.19522">
        <ele>77</ele>
        <time>2015-11-01T16:09:56.852Z</time>
      </trkpt>
      <trkpt lat="49.06893" lon="2.19521">
        <ele>77</ele>
        <time>2015-11-01T16:09:57.644Z</time>
      </trkpt>
      <trkpt lat="49.06886" lon="2.19516">
        <ele>77</ele>
        <time>2015-11-01T16:10:04.863Z</time>
      </trkpt>
      <trkpt lat="49.06884" lon="2.19515">
        <ele>76</ele>
        <time>2015-11-01T16:10:05.686Z</time>
      </trkpt>
      <trkpt lat="49.06876" lon="2.19513">
        <ele>75</ele>
        <time>2015-11-01T16:10:12.882Z</time>
      </trkpt>
      <trkpt lat="49.06875" lon="2.19512">
        <ele>76</ele>
        <time>2015-11-01T16:10:13.785Z</time>
      </trkpt>
      <trkpt lat="49.06868" lon="2.19507">
        <ele>76</ele>
        <time>2015-11-01T16:10:20.868Z</time>
      </trkpt>
      <trkpt lat="49.06866" lon="2.19506">
        <ele>76</ele>
        <time>2015-11-01T16:10:21.692Z</time>
      </trkpt>
      <trkpt lat="49.06859" lon="2.19503">
        <ele>79</ele>
        <time>2015-11-01T16:10:28.982Z</time>
      </trkpt>
      <trkpt lat="49.06858" lon="2.19502">
        <ele>78</ele>
        <time>2015-11-01T16:10:29.633Z</time>
      </trkpt>
      <trkpt lat="49.0685" lon="2.19495">
        <ele>77</ele>
        <time>2015-11-01T16:10:36.818Z</time>
      </trkpt>
      <trkpt lat="49.06849" lon="2.19494">
        <ele>77</ele>
        <time>2015-11-01T16:10:37.650Z</time>
      </trkpt>
      <trkpt lat="49.06841" lon="2.19489">
        <ele>77</ele>
        <time>2015-11-01T16:10:43.867Z</time>
      </trkpt>
      <trkpt lat="49.0684" lon="2.19488">
        <ele>76</ele>
        <time>2015-11-01T16:10:44.696Z</time>
      </trkpt>
      <trkpt lat="49.06833" lon="2.19484">
        <ele>75</ele>
        <time>2015-11-01T16:10:52.857Z</time>
      </trkpt>
      <trkpt lat="49.06832" lon="2.19483">
        <ele>75</ele>
        <time>2015-11-01T16:10:53.707Z</time>
      </trkpt>
      <trkpt lat="49.06825" lon="2.19477">
        <ele>76</ele>
        <time>2015-11-01T16:10:59.983Z</time>
      </trkpt>
      <trkpt lat="49.06824" lon="2.19476">
        <ele>75</ele>
        <time>2015-11-01T16:11:00.649Z</time>
      </trkpt>
      <trkpt lat="49.06816" lon="2.19471">
        <ele>76</ele>
        <time>2015-11-01T16:11:08.854Z</time>
      </trkpt>
      <trkpt lat="49.06814" lon="2.1947">
        <ele>75</ele>
        <time>2015-11-01T16:11:09.669Z</time>
      </trkpt>
      <trkpt lat="49.06806" lon="2.19466">
        <ele>76</ele>
        <time>2015-11-01T16:11:15.826Z</time>
      </trkpt>
      <trkpt lat="49.06805" lon="2.19465">
        <ele>76</ele>
        <time>2015-11-01T16:11:16.690Z</time>
      </trkpt>
      <trkpt lat="49.06798" lon="2.19461">
        <ele>75</ele>
        <time>2015-11-01T16:11:22.816Z</time>
      </trkpt>
      <trkpt lat="49.06797" lon="2.1946">
        <ele>75</ele>
        <time>2015-11-01T16:11:23.657Z</time>
      </trkpt>
      <trkpt lat="49.06789" lon="2.19455">
        <ele>74</ele>
        <time>2015-11-01T16:11:30.802Z</time>
      </trkpt>
      <trkpt lat="49.06788" lon="2.19455">
        <ele>74</ele>
        <time>2015-11-01T16:11:31.681Z</time>
      </trkpt>
      <trkpt lat="49.0678" lon="2.19449">
        <ele>73</ele>
        <time>2015-11-01T16:11:38.864Z</time>
      </trkpt>
      <trkpt lat="49.06779" lon="2.19448">
        <ele>73</ele>
        <time>2015-11-01T16:11:39.690Z</time>
      </trkpt>
      <trkpt lat="49.06772" lon="2.19444">
        <ele>73</ele>
        <time>2015-11-01T16:11:45.837Z</time>
      </trkpt>
      <trkpt lat="49.06771" lon="2.19444">
        <ele>72</ele>
        <time>2015-11-01T16:11:46.673Z</time>
      </trkpt>
      <trkpt lat="49.06763" lon="2.1944">
        <ele>71</ele>
        <time>2015-11-01T16:11:53.835Z</time>
      </trkpt>
      <trkpt lat="49.06762" lon="2.19439">
        <ele>71</ele>
        <time>2015-11-01T16:11:54.757Z</time>
      </trkpt>
      <trkpt lat="49.06754" lon="2.19434">
        <ele>71</ele>
        <time>2015-11-01T16:12:00.830Z</time>
      </trkpt>
      <trkpt lat="49.06753" lon="2.19433">
        <ele>71</ele>
        <time>2015-11-01T16:12:01.645Z</time>
      </trkpt>
      <trkpt lat="49.06745" lon="2.19427">
        <ele>71</ele>
        <time>2015-11-01T16:12:07.805Z</time>
      </trkpt>
      <trkpt lat="49.06744" lon="2.19425">
        <ele>70</ele>
        <time>2015-11-01T16:12:08.645Z</time>
      </trkpt>
      <trkpt lat="49.06736" lon="2.19419">
        <ele>72</ele>
        <time>2015-11-01T16:12:15.774Z</time>
      </trkpt>
      <trkpt lat="49.06735" lon="2.19418">
        <ele>72</ele>
        <time>2015-11-01T16:12:16.673Z</time>
      </trkpt>
      <trkpt lat="49.06728" lon="2.19412">
        <ele>71</ele>
        <time>2015-11-01T16:12:24.843Z</time>
      </trkpt>
      <trkpt lat="49.06727" lon="2.19411">
        <ele>73</ele>
        <time>2015-11-01T16:12:25.708Z</time>
      </trkpt>
      <trkpt lat="49.06721" lon="2.19403">
        <ele>75</ele>
        <time>2015-11-01T16:12:32.963Z</time>
      </trkpt>
      <trkpt lat="49.0672" lon="2.19402">
        <ele>75</ele>
        <time>2015-11-01T16:12:33.689Z</time>
      </trkpt>
      <trkpt lat="49.06714" lon="2.19394">
        <ele>75</ele>
        <time>2015-11-01T16:12:41.119Z</time>
      </trkpt>
      <trkpt lat="49.06713" lon="2.19393">
        <ele>75</ele>
        <time>2015-11-01T16:12:41.665Z</time>
      </trkpt>
      <trkpt lat="49.06707" lon="2.19384">
        <ele>75</ele>
        <time>2015-11-01T16:12:47.884Z</time>
      </trkpt>
      <trkpt lat="49.06707" lon="2.19382">
        <ele>75</ele>
        <time>2015-11-01T16:12:48.685Z</time>
      </trkpt>
      <trkpt lat="49.06704" lon="2.19371">
        <ele>76</ele>
        <time>2015-11-01T16:13:02.798Z</time>
      </trkpt>
      <trkpt lat="49.06703" lon="2.19369">
        <ele>76</ele>
        <time>2015-11-01T16:13:03.658Z</time>
      </trkpt>
      <trkpt lat="49.067" lon="2.19357">
        <ele>79</ele>
        <time>2015-11-01T16:13:10.815Z</time>
      </trkpt>
      <trkpt lat="49.06699" lon="2.19355">
        <ele>80</ele>
        <time>2015-11-01T16:13:11.665Z</time>
      </trkpt>
      <trkpt lat="49.06697" lon="2.19342">
        <ele>83</ele>
        <time>2015-11-01T16:13:18.853Z</time>
      </trkpt>
      <trkpt lat="49.06696" lon="2.1934">
        <ele>83</ele>
        <time>2015-11-01T16:13:19.673Z</time>
      </trkpt>
      <trkpt lat="49.06693" lon="2.19329">
        <ele>82</ele>
        <time>2015-11-01T16:13:27.772Z</time>
      </trkpt>
      <trkpt lat="49.06693" lon="2.19327">
        <ele>81</ele>
        <time>2015-11-01T16:13:28.699Z</time>
      </trkpt>
      <trkpt lat="49.06688" lon="2.19317">
        <ele>79</ele>
        <time>2015-11-01T16:13:35.825Z</time>
      </trkpt>
      <trkpt lat="49.06687" lon="2.19315">
        <ele>77</ele>
        <time>2015-11-01T16:13:36.647Z</time>
      </trkpt>
      <trkpt lat="49.06682" lon="2.19305">
        <ele>76</ele>
        <time>2015-11-01T16:13:42.801Z</time>
      </trkpt>
      <trkpt lat="49.06682" lon="2.19303">
        <ele>77</ele>
        <time>2015-11-01T16:13:43.645Z</time>
      </trkpt>
      <trkpt lat="49.06678" lon="2.19292">
        <ele>81</ele>
        <time>2015-11-01T16:13:50.859Z</time>
      </trkpt>
      <trkpt lat="49.06678" lon="2.19291">
        <ele>80</ele>
        <time>2015-11-01T16:13:51.726Z</time>
      </trkpt>
      <trkpt lat="49.06672" lon="2.19281">
        <ele>81</ele>
        <time>2015-11-01T16:13:57.975Z</time>
      </trkpt>
      <trkpt lat="49.06671" lon="2.1928">
        <ele>81</ele>
        <time>2015-11-01T16:13:58.690Z</time>
      </trkpt>
      <trkpt lat="49.06663" lon="2.19273">
        <ele>75</ele>
        <time>2015-11-01T16:14:05.808Z</time>
      </trkpt>
      <trkpt lat="49.06662" lon="2.19272">
        <ele>75</ele>
        <time>2015-11-01T16:14:06.774Z</time>
      </trkpt>
      <trkpt lat="49.06658" lon="2.19261">
        <ele>77</ele>
        <time>2015-11-01T16:14:14.984Z</time>
      </trkpt>
      <trkpt lat="49.06658" lon="2.19259">
        <ele>76</ele>
        <time>2015-11-01T16:14:15.704Z</time>
      </trkpt>
      <trkpt lat="49.06657" lon="2.19247">
        <ele>82</ele>
        <time>2015-11-01T16:14:24.856Z</time>
      </trkpt>
      <trkpt lat="49.06657" lon="2.19245">
        <ele>83</ele>
        <time>2015-11-01T16:14:25.722Z</time>
      </trkpt>
      <trkpt lat="49.06655" lon="2.19233">
        <ele>85</ele>
        <time>2015-11-01T16:14:33.863Z</time>
      </trkpt>
      <trkpt lat="49.06654" lon="2.19232">
        <ele>84</ele>
        <time>2015-11-01T16:14:34.683Z</time>
      </trkpt>
      <trkpt lat="49.06649" lon="2.19223">
        <ele>81</ele>
        <time>2015-11-01T16:14:40.802Z</time>
      </trkpt>
      <trkpt lat="49.06648" lon="2.19221">
        <ele>80</ele>
        <time>2015-11-01T16:14:41.691Z</time>
      </trkpt>
      <trkpt lat="49.06644" lon="2.19211">
        <ele>83</ele>
        <time>2015-11-01T16:14:47.924Z</time>
      </trkpt>
      <trkpt lat="49.06644" lon="2.19209">
        <ele>85</ele>
        <time>2015-11-01T16:14:48.683Z</time>
      </trkpt>
      <trkpt lat="49.06641" lon="2.19198">
        <ele>86</ele>
        <time>2015-11-01T16:14:55.892Z</time>
      </trkpt>
      <trkpt lat="49.0664" lon="2.19196">
        <ele>86</ele>
        <time>2015-11-01T16:14:56.857Z</time>
      </trkpt>
      <trkpt lat="49.06635" lon="2.19186">
        <ele>92</ele>
        <time>2015-11-01T16:15:04.884Z</time>
      </trkpt>
      <trkpt lat="49.06634" lon="2.19185">
        <ele>90</ele>
        <time>2015-11-01T16:15:05.701Z</time>
      </trkpt>
      <trkpt lat="49.0663" lon="2.19174">
        <ele>87</ele>
        <time>2015-11-01T16:15:14.111Z</time>
      </trkpt>
      <trkpt lat="49.06629" lon="2.19172">
        <ele>87</ele>
        <time>2015-11-01T16:15:14.634Z</time>
      </trkpt>
      <trkpt lat="49.06625" lon="2.19162">
        <ele>87</ele>
        <time>2015-11-01T16:15:19.770Z</time>
      </trkpt>
      <trkpt lat="49.06624" lon="2.1916">
        <ele>87</ele>
        <time>2015-11-01T16:15:20.639Z</time>
      </trkpt>
      <trkpt lat="49.06618" lon="2.1915">
        <ele>86</ele>
        <time>2015-11-01T16:16:06.910Z</time>
      </trkpt>
      <trkpt lat="49.06618" lon="2.19149">
        <ele>86</ele>
        <time>2015-11-01T16:16:07.688Z</time>
      </trkpt>
      <trkpt lat="49.06612" lon="2.1914">
        <ele>84</ele>
        <time>2015-11-01T16:16:14.052Z</time>
      </trkpt>
      <trkpt lat="49.06611" lon="2.19138">
        <ele>84</ele>
        <time>2015-11-01T16:16:14.675Z</time>
      </trkpt>
      <trkpt lat="49.06604" lon="2.1913">
        <ele>82</ele>
        <time>2015-11-01T16:16:20.828Z</time>
      </trkpt>
      <trkpt lat="49.06603" lon="2.19128">
        <ele>82</ele>
        <time>2015-11-01T16:16:21.633Z</time>
      </trkpt>
      <trkpt lat="49.06597" lon="2.1912">
        <ele>83</ele>
        <time>2015-11-01T16:16:26.916Z</time>
      </trkpt>
      <trkpt lat="49.06596" lon="2.19118">
        <ele>84</ele>
        <time>2015-11-01T16:16:27.666Z</time>
      </trkpt>
      <trkpt lat="49.06591" lon="2.19109">
        <ele>83</ele>
        <time>2015-11-01T16:16:35.891Z</time>
      </trkpt>
      <trkpt lat="49.06591" lon="2.19107">
        <ele>84</ele>
        <time>2015-11-01T16:16:36.681Z</time>
      </trkpt>
      <trkpt lat="49.06585" lon="2.19097">
        <ele>85</ele>
        <time>2015-11-01T16:16:43.797Z</time>
      </trkpt>
      <trkpt lat="49.06585" lon="2.19095">
        <ele>86</ele>
        <time>2015-11-01T16:16:44.635Z</time>
      </trkpt>
      <trkpt lat="49.0658" lon="2.19084">
        <ele>87</ele>
        <time>2015-11-01T16:16:53.017Z</time>
      </trkpt>
      <trkpt lat="49.0658" lon="2.19082">
        <ele>85</ele>
        <time>2015-11-01T16:16:53.740Z</time>
      </trkpt>
      <trkpt lat="49.06576" lon="2.19072">
        <ele>82</ele>
        <time>2015-11-01T16:17:00.198Z</time>
      </trkpt>
      <trkpt lat="49.06575" lon="2.1907">
        <ele>83</ele>
        <time>2015-11-01T16:17:00.689Z</time>
      </trkpt>
      <trkpt lat="49.06571" lon="2.1906">
        <ele>84</ele>
        <time>2015-11-01T16:17:07.251Z</time>
      </trkpt>
      <trkpt lat="49.06571" lon="2.19058">
        <ele>84</ele>
        <time>2015-11-01T16:17:07.692Z</time>
      </trkpt>
      <trkpt lat="49.06566" lon="2.19048">
        <ele>83</ele>
        <time>2015-11-01T16:17:14.916Z</time>
      </trkpt>
      <trkpt lat="49.06565" lon="2.19046">
        <ele>82</ele>
        <time>2015-11-01T16:17:15.699Z</time>
      </trkpt>
      <trkpt lat="49.06562" lon="2.19035">
        <ele>82</ele>
        <time>2015-11-01T16:17:23.834Z</time>
      </trkpt>
      <trkpt lat="49.06562" lon="2.19034">
        <ele>82</ele>
        <time>2015-11-01T16:17:24.641Z</time>
      </trkpt>
      <trkpt lat="49.06559" lon="2.19021">
        <ele>81</ele>
        <time>2015-11-01T16:17:38.860Z</time>
      </trkpt>
      <trkpt lat="49.06559" lon="2.19019">
        <ele>81</ele>
        <time>2015-11-01T16:17:39.783Z</time>
      </trkpt>
      <trkpt lat="49.06555" lon="2.19009">
        <ele>82</ele>
        <time>2015-11-01T16:17:47.064Z</time>
      </trkpt>
      <trkpt lat="49.06554" lon="2.19008">
        <ele>82</ele>
        <time>2015-11-01T16:17:47.692Z</time>
      </trkpt>
      <trkpt lat="49.06545" lon="2.19012">
        <ele>78</ele>
        <time>2015-11-01T16:17:56.044Z</time>
      </trkpt>
      <trkpt lat="49.06545" lon="2.19012">
        <ele>79</ele>
        <time>2015-11-01T16:17:56.684Z</time>
      </trkpt>
      <trkpt lat="49.06537" lon="2.19009">
        <ele>80</ele>
        <time>2015-11-01T16:18:05.092Z</time>
      </trkpt>
      <trkpt lat="49.06536" lon="2.19008">
        <ele>80</ele>
        <time>2015-11-01T16:18:05.690Z</time>
      </trkpt>
      <trkpt lat="49.06529" lon="2.19016">
        <ele>93</ele>
        <time>2015-11-01T16:18:29.113Z</time>
      </trkpt>
      <trkpt lat="49.06529" lon="2.19016">
        <ele>93</ele>
        <time>2015-11-01T16:18:29.641Z</time>
      </trkpt>
      <trkpt lat="49.06521" lon="2.19022">
        <ele>92</ele>
        <time>2015-11-01T16:18:40.927Z</time>
      </trkpt>
      <trkpt lat="49.0652" lon="2.19022">
        <ele>92</ele>
        <time>2015-11-01T16:18:41.706Z</time>
      </trkpt>
      <trkpt lat="49.06512" lon="2.19028">
        <ele>92</ele>
        <time>2015-11-01T16:18:52.086Z</time>
      </trkpt>
      <trkpt lat="49.06511" lon="2.19028">
        <ele>92</ele>
        <time>2015-11-01T16:18:52.726Z</time>
      </trkpt>
      <trkpt lat="49.06502" lon="2.1903">
        <ele>93</ele>
        <time>2015-11-01T16:19:03.944Z</time>
      </trkpt>
      <trkpt lat="49.06502" lon="2.1903">
        <ele>93</ele>
        <time>2015-11-01T16:19:05.092Z</time>
      </trkpt>
      <trkpt lat="49.06493" lon="2.19033">
        <ele>94</ele>
        <time>2015-11-01T16:19:17.856Z</time>
      </trkpt>
      <trkpt lat="49.06492" lon="2.19033">
        <ele>95</ele>
        <time>2015-11-01T16:19:18.625Z</time>
      </trkpt>
      <trkpt lat="49.06487" lon="2.19043">
        <ele>111</ele>
        <time>2015-11-01T16:19:48.861Z</time>
      </trkpt>
      <trkpt lat="49.06486" lon="2.19044">
        <ele>111</ele>
        <time>2015-11-01T16:19:49.637Z</time>
      </trkpt>
      <trkpt lat="49.06479" lon="2.19049">
        <ele>110</ele>
        <time>2015-11-01T16:19:57.822Z</time>
      </trkpt>
      <trkpt lat="49.06477" lon="2.1905">
        <ele>110</ele>
        <time>2015-11-01T16:19:58.636Z</time>
      </trkpt>
      <trkpt lat="49.0647" lon="2.19056">
        <ele>114</ele>
        <time>2015-11-01T16:20:06.843Z</time>
      </trkpt>
      <trkpt lat="49.06469" lon="2.19057">
        <ele>112</ele>
        <time>2015-11-01T16:20:07.666Z</time>
      </trkpt>
      <trkpt lat="49.06461" lon="2.19062">
        <ele>107</ele>
        <time>2015-11-01T16:20:13.849Z</time>
      </trkpt>
      <trkpt lat="49.06459" lon="2.19063">
        <ele>107</ele>
        <time>2015-11-01T16:20:14.697Z</time>
      </trkpt>
      <trkpt lat="49.06451" lon="2.19067">
        <ele>108</ele>
        <time>2015-11-01T16:20:23.014Z</time>
      </trkpt>
      <trkpt lat="49.0645" lon="2.19068">
        <ele>108</ele>
        <time>2015-11-01T16:20:23.681Z</time>
      </trkpt>
      <trkpt lat="49.06444" lon="2.19078">
        <ele>105</ele>
        <time>2015-11-01T16:20:31.476Z</time>
      </trkpt>
      <trkpt lat="49.06443" lon="2.19079">
        <ele>105</ele>
        <time>2015-11-01T16:20:31.755Z</time>
      </trkpt>
      <trkpt lat="49.06437" lon="2.19087">
        <ele>105</ele>
        <time>2015-11-01T16:20:37.921Z</time>
      </trkpt>
      <trkpt lat="49.06437" lon="2.19089">
        <ele>104</ele>
        <time>2015-11-01T16:20:38.683Z</time>
      </trkpt>
      <trkpt lat="49.0643" lon="2.19097">
        <ele>105</ele>
        <time>2015-11-01T16:20:46.856Z</time>
      </trkpt>
      <trkpt lat="49.06429" lon="2.19097">
        <ele>105</ele>
        <time>2015-11-01T16:20:47.688Z</time>
      </trkpt>
      <trkpt lat="49.06422" lon="2.19104">
        <ele>105</ele>
        <time>2015-11-01T16:20:54.852Z</time>
      </trkpt>
      <trkpt lat="49.06421" lon="2.19106">
        <ele>105</ele>
        <time>2015-11-01T16:20:55.698Z</time>
      </trkpt>
      <trkpt lat="49.06413" lon="2.1911">
        <ele>106</ele>
        <time>2015-11-01T16:21:03.872Z</time>
      </trkpt>
      <trkpt lat="49.06413" lon="2.19111">
        <ele>106</ele>
        <time>2015-11-01T16:21:04.673Z</time>
      </trkpt>
      <trkpt lat="49.06405" lon="2.19118">
        <ele>106</ele>
        <time>2015-11-01T16:21:13.114Z</time>
      </trkpt>
      <trkpt lat="49.06404" lon="2.19119">
        <ele>106</ele>
        <time>2015-11-01T16:21:13.722Z</time>
      </trkpt>
      <trkpt lat="49.06399" lon="2.19129">
        <ele>106</ele>
        <time>2015-11-01T16:21:20.874Z</time>
      </trkpt>
      <trkpt lat="49.06398" lon="2.1913">
        <ele>106</ele>
        <time>2015-11-01T16:21:21.642Z</time>
      </trkpt>
      <trkpt lat="49.06391" lon="2.19139">
        <ele>107</ele>
        <time>2015-11-01T16:21:30.072Z</time>
      </trkpt>
      <trkpt lat="49.0639" lon="2.1914">
        <ele>107</ele>
        <time>2015-11-01T16:21:30.642Z</time>
      </trkpt>
      <trkpt lat="49.06383" lon="2.19145">
        <ele>106</ele>
        <time>2015-11-01T16:21:36.931Z</time>
      </trkpt>
      <trkpt lat="49.06382" lon="2.19146">
        <ele>106</ele>
        <time>2015-11-01T16:21:37.686Z</time>
      </trkpt>
      <trkpt lat="49.06375" lon="2.19154">
        <ele>106</ele>
        <time>2015-11-01T16:21:46.062Z</time>
      </trkpt>
      <trkpt lat="49.06374" lon="2.19155">
        <ele>106</ele>
        <time>2015-11-01T16:21:46.689Z</time>
      </trkpt>
      <trkpt lat="49.06369" lon="2.19165">
        <ele>105</ele>
        <time>2015-11-01T16:21:55.862Z</time>
      </trkpt>
      <trkpt lat="49.06368" lon="2.19167">
        <ele>104</ele>
        <time>2015-11-01T16:21:56.673Z</time>
      </trkpt>
      <trkpt lat="49.06361" lon="2.19174">
        <ele>104</ele>
        <time>2015-11-01T16:22:03.853Z</time>
      </trkpt>
      <trkpt lat="49.0636" lon="2.19176">
        <ele>104</ele>
        <time>2015-11-01T16:22:04.709Z</time>
      </trkpt>
      <trkpt lat="49.06353" lon="2.19182">
        <ele>106</ele>
        <time>2015-11-01T16:22:11.884Z</time>
      </trkpt>
      <trkpt lat="49.06352" lon="2.19183">
        <ele>105</ele>
        <time>2015-11-01T16:22:12.700Z</time>
      </trkpt>
      <trkpt lat="49.06345" lon="2.19191">
        <ele>103</ele>
        <time>2015-11-01T16:22:20.826Z</time>
      </trkpt>
      <trkpt lat="49.06344" lon="2.19192">
        <ele>103</ele>
        <time>2015-11-01T16:22:21.673Z</time>
      </trkpt>
      <trkpt lat="49.06337" lon="2.19198">
        <ele>105</ele>
        <time>2015-11-01T16:22:29.915Z</time>
      </trkpt>
      <trkpt lat="49.06336" lon="2.19199">
        <ele>105</ele>
        <time>2015-11-01T16:22:30.718Z</time>
      </trkpt>
      <trkpt lat="49.06329" lon="2.19203">
        <ele>105</ele>
        <time>2015-11-01T16:22:37.701Z</time>
      </trkpt>
      <trkpt lat="49.06328" lon="2.19203">
        <ele>104</ele>
        <time>2015-11-01T16:22:37.902Z</time>
      </trkpt>
      <trkpt lat="49.06321" lon="2.19211">
        <ele>106</ele>
        <time>2015-11-01T16:22:44.879Z</time>
      </trkpt>
      <trkpt lat="49.0632" lon="2.19212">
        <ele>106</ele>
        <time>2015-11-01T16:22:45.690Z</time>
      </trkpt>
      <trkpt lat="49.06313" lon="2.1922">
        <ele>106</ele>
        <time>2015-11-01T16:22:52.909Z</time>
      </trkpt>
      <trkpt lat="49.06312" lon="2.19221">
        <ele>106</ele>
        <time>2015-11-01T16:22:53.710Z</time>
      </trkpt>
      <trkpt lat="49.06304" lon="2.19228">
        <ele>104</ele>
        <time>2015-11-01T16:23:04.779Z</time>
      </trkpt>
      <trkpt lat="49.06304" lon="2.19228">
        <ele>104</ele>
        <time>2015-11-01T16:23:05.666Z</time>
      </trkpt>
      <trkpt lat="49.06297" lon="2.19235">
        <ele>102</ele>
        <time>2015-11-01T16:23:13.851Z</time>
      </trkpt>
      <trkpt lat="49.06296" lon="2.19237">
        <ele>103</ele>
        <time>2015-11-01T16:23:14.699Z</time>
      </trkpt>
      <trkpt lat="49.0629" lon="2.19245">
        <ele>105</ele>
        <time>2015-11-01T16:23:19.818Z</time>
      </trkpt>
      <trkpt lat="49.06288" lon="2.19247">
        <ele>106</ele>
        <time>2015-11-01T16:23:20.689Z</time>
      </trkpt>
      <trkpt lat="49.06282" lon="2.19253">
        <ele>107</ele>
        <time>2015-11-01T16:23:25.099Z</time>
      </trkpt>
      <trkpt lat="49.06281" lon="2.19255">
        <ele>108</ele>
        <time>2015-11-01T16:23:25.681Z</time>
      </trkpt>
      <trkpt lat="49.06274" lon="2.19261">
        <ele>108</ele>
        <time>2015-11-01T16:23:34.209Z</time>
      </trkpt>
      <trkpt lat="49.06273" lon="2.19262">
        <ele>107</ele>
        <time>2015-11-01T16:23:34.738Z</time>
      </trkpt>
      <trkpt lat="49.06265" lon="2.19268">
        <ele>108</ele>
        <time>2015-11-01T16:23:43.117Z</time>
      </trkpt>
      <trkpt lat="49.06264" lon="2.19269">
        <ele>108</ele>
        <time>2015-11-01T16:23:43.716Z</time>
      </trkpt>
      <trkpt lat="49.06256" lon="2.19275">
        <ele>112</ele>
        <time>2015-11-01T16:23:51.123Z</time>
      </trkpt>
      <trkpt lat="49.06255" lon="2.19276">
        <ele>112</ele>
        <time>2015-11-01T16:23:51.689Z</time>
      </trkpt>
      <trkpt lat="49.06248" lon="2.19285">
        <ele>111</ele>
        <time>2015-11-01T16:24:02.961Z</time>
      </trkpt>
      <trkpt lat="49.06247" lon="2.19286">
        <ele>109</ele>
        <time>2015-11-01T16:24:03.714Z</time>
      </trkpt>
      <trkpt lat="49.0624" lon="2.19293">
        <ele>111</ele>
        <time>2015-11-01T16:24:12.875Z</time>
      </trkpt>
      <trkpt lat="49.06239" lon="2.19295">
        <ele>112</ele>
        <time>2015-11-01T16:24:13.721Z</time>
      </trkpt>
      <trkpt lat="49.06232" lon="2.19301">
        <ele>106</ele>
        <time>2015-11-01T16:24:18.158Z</time>
      </trkpt>
      <trkpt lat="49.0623" lon="2.19302">
        <ele>107</ele>
        <time>2015-11-01T16:24:18.647Z</time>
      </trkpt>
      <trkpt lat="49.06223" lon="2.19309">
        <ele>109</ele>
        <time>2015-11-01T16:24:24.078Z</time>
      </trkpt>
      <trkpt lat="49.06222" lon="2.1931">
        <ele>109</ele>
        <time>2015-11-01T16:24:24.674Z</time>
      </trkpt>
      <trkpt lat="49.06215" lon="2.19317">
        <ele>110</ele>
        <time>2015-11-01T16:24:30.976Z</time>
      </trkpt>
      <trkpt lat="49.06214" lon="2.19317">
        <ele>108</ele>
        <time>2015-11-01T16:24:31.653Z</time>
      </trkpt>
      <trkpt lat="49.06207" lon="2.19323">
        <ele>109</ele>
        <time>2015-11-01T16:24:39.268Z</time>
      </trkpt>
      <trkpt lat="49.06205" lon="2.19324">
        <ele>109</ele>
        <time>2015-11-01T16:24:39.649Z</time>
      </trkpt>
      <trkpt lat="49.06197" lon="2.19328">
        <ele>110</ele>
        <time>2015-11-01T16:24:46.979Z</time>
      </trkpt>
      <trkpt lat="49.06196" lon="2.19328">
        <ele>110</ele>
        <time>2015-11-01T16:24:47.683Z</time>
      </trkpt>
      <trkpt lat="49.06188" lon="2.19332">
        <ele>110</ele>
        <time>2015-11-01T16:24:55.008Z</time>
      </trkpt>
      <trkpt lat="49.06187" lon="2.19332">
        <ele>110</ele>
        <time>2015-11-01T16:24:55.685Z</time>
      </trkpt>
      <trkpt lat="49.06181" lon="2.19342">
        <ele>111</ele>
        <time>2015-11-01T16:25:02.981Z</time>
      </trkpt>
      <trkpt lat="49.0618" lon="2.19343">
        <ele>111</ele>
        <time>2015-11-01T16:25:03.689Z</time>
      </trkpt>
      <trkpt lat="49.06176" lon="2.19355">
        <ele>111</ele>
        <time>2015-11-01T16:25:12.067Z</time>
      </trkpt>
      <trkpt lat="49.06176" lon="2.19356">
        <ele>111</ele>
        <time>2015-11-01T16:25:12.687Z</time>
      </trkpt>
      <trkpt lat="49.0617" lon="2.19365">
        <ele>111</ele>
        <time>2015-11-01T16:25:21.052Z</time>
      </trkpt>
      <trkpt lat="49.06169" lon="2.19367">
        <ele>112</ele>
        <time>2015-11-01T16:25:21.697Z</time>
      </trkpt>
      <trkpt lat="49.06164" lon="2.19377">
        <ele>111</ele>
        <time>2015-11-01T16:25:30.071Z</time>
      </trkpt>
      <trkpt lat="49.06164" lon="2.19378">
        <ele>111</ele>
        <time>2015-11-01T16:25:30.943Z</time>
      </trkpt>
      <trkpt lat="49.06156" lon="2.19384">
        <ele>109</ele>
        <time>2015-11-01T16:25:41.023Z</time>
      </trkpt>
      <trkpt lat="49.06155" lon="2.19384">
        <ele>109</ele>
        <time>2015-11-01T16:25:41.654Z</time>
      </trkpt>
      <trkpt lat="49.06146" lon="2.19385">
        <ele>110</ele>
        <time>2015-11-01T16:25:50.953Z</time>
      </trkpt>
      <trkpt lat="49.06145" lon="2.19386">
        <ele>110</ele>
        <time>2015-11-01T16:25:51.707Z</time>
      </trkpt>
      <trkpt lat="49.06138" lon="2.19389">
        <ele>110</ele>
        <time>2015-11-01T16:25:58.983Z</time>
      </trkpt>
      <trkpt lat="49.06137" lon="2.19389">
        <ele>110</ele>
        <time>2015-11-01T16:25:59.714Z</time>
      </trkpt>
      <trkpt lat="49.06129" lon="2.19391">
        <ele>111</ele>
        <time>2015-11-01T16:26:06.954Z</time>
      </trkpt>
      <trkpt lat="49.06127" lon="2.19391">
        <ele>111</ele>
        <time>2015-11-01T16:26:07.641Z</time>
      </trkpt>
      <trkpt lat="49.06119" lon="2.19394">
        <ele>111</ele>
        <time>2015-11-01T16:26:18.156Z</time>
      </trkpt>
      <trkpt lat="49.06118" lon="2.19395">
        <ele>110</ele>
        <time>2015-11-01T16:26:18.684Z</time>
      </trkpt>
      <trkpt lat="49.0611" lon="2.194">
        <ele>109</ele>
        <time>2015-11-01T16:26:25.878Z</time>
      </trkpt>
      <trkpt lat="49.06109" lon="2.194">
        <ele>109</ele>
        <time>2015-11-01T16:26:26.849Z</time>
      </trkpt>
      <trkpt lat="49.06101" lon="2.19404">
        <ele>111</ele>
        <time>2015-11-01T16:26:34.801Z</time>
      </trkpt>
      <trkpt lat="49.061" lon="2.19404">
        <ele>111</ele>
        <time>2015-11-01T16:26:35.658Z</time>
      </trkpt>
      <trkpt lat="49.06092" lon="2.19411">
        <ele>112</ele>
        <time>2015-11-01T16:26:43.882Z</time>
      </trkpt>
      <trkpt lat="49.06091" lon="2.19411">
        <ele>112</ele>
        <time>2015-11-01T16:26:44.635Z</time>
      </trkpt>
      <trkpt lat="49.06083" lon="2.19416">
        <ele>111</ele>
        <time>2015-11-01T16:26:51.801Z</time>
      </trkpt>
      <trkpt lat="49.06082" lon="2.19416">
        <ele>111</ele>
        <time>2015-11-01T16:26:52.636Z</time>
      </trkpt>
      <trkpt lat="49.06073" lon="2.19416">
        <ele>112</ele>
        <time>2015-11-01T16:26:59.837Z</time>
      </trkpt>
      <trkpt lat="49.06072" lon="2.19416">
        <ele>112</ele>
        <time>2015-11-01T16:27:00.711Z</time>
      </trkpt>
      <trkpt lat="49.06064" lon="2.19416">
        <ele>115</ele>
        <time>2015-11-01T16:27:07.794Z</time>
      </trkpt>
      <trkpt lat="49.06062" lon="2.19416">
        <ele>115</ele>
        <time>2015-11-01T16:27:08.647Z</time>
      </trkpt>
      <trkpt lat="49.06054" lon="2.19416">
        <ele>115</ele>
        <time>2015-11-01T16:27:16.829Z</time>
      </trkpt>
      <trkpt lat="49.06053" lon="2.19416">
        <ele>115</ele>
        <time>2015-11-01T16:27:17.675Z</time>
      </trkpt>
      <trkpt lat="49.06044" lon="2.19415">
        <ele>116</ele>
        <time>2015-11-01T16:27:24.862Z</time>
      </trkpt>
      <trkpt lat="49.06043" lon="2.19415">
        <ele>116</ele>
        <time>2015-11-01T16:27:25.683Z</time>
      </trkpt>
      <trkpt lat="49.06035" lon="2.19413">
        <ele>116</ele>
        <time>2015-11-01T16:27:32.907Z</time>
      </trkpt>
      <trkpt lat="49.06034" lon="2.19413">
        <ele>116</ele>
        <time>2015-11-01T16:27:33.673Z</time>
      </trkpt>
      <trkpt lat="49.06026" lon="2.19408">
        <ele>120</ele>
        <time>2015-11-01T16:27:43.039Z</time>
      </trkpt>
      <trkpt lat="49.06025" lon="2.19408">
        <ele>121</ele>
        <time>2015-11-01T16:27:43.625Z</time>
      </trkpt>
      <trkpt lat="49.06016" lon="2.19405">
        <ele>119</ele>
        <time>2015-11-01T16:27:51.905Z</time>
      </trkpt>
      <trkpt lat="49.06015" lon="2.19405">
        <ele>119</ele>
        <time>2015-11-01T16:27:52.698Z</time>
      </trkpt>
      <trkpt lat="49.06007" lon="2.19401">
        <ele>116</ele>
        <time>2015-11-01T16:27:58.887Z</time>
      </trkpt>
      <trkpt lat="49.06006" lon="2.194">
        <ele>116</ele>
        <time>2015-11-01T16:27:59.721Z</time>
      </trkpt>
      <trkpt lat="49.05998" lon="2.19395">
        <ele>116</ele>
        <time>2015-11-01T16:28:06.850Z</time>
      </trkpt>
      <trkpt lat="49.05997" lon="2.19395">
        <ele>117</ele>
        <time>2015-11-01T16:28:07.669Z</time>
      </trkpt>
      <trkpt lat="49.0599" lon="2.1939">
        <ele>119</ele>
        <time>2015-11-01T16:28:16.156Z</time>
      </trkpt>
      <trkpt lat="49.05989" lon="2.1939">
        <ele>119</ele>
        <time>2015-11-01T16:28:16.694Z</time>
      </trkpt>
      <trkpt lat="49.05982" lon="2.19384">
        <ele>119</ele>
        <time>2015-11-01T16:28:23.920Z</time>
      </trkpt>
      <trkpt lat="49.0598" lon="2.19383">
        <ele>118</ele>
        <time>2015-11-01T16:28:24.689Z</time>
      </trkpt>
      <trkpt lat="49.05973" lon="2.19378">
        <ele>120</ele>
        <time>2015-11-01T16:28:31.182Z</time>
      </trkpt>
      <trkpt lat="49.05972" lon="2.19378">
        <ele>120</ele>
        <time>2015-11-01T16:28:31.675Z</time>
      </trkpt>
      <trkpt lat="49.05967" lon="2.19367">
        <ele>121</ele>
        <time>2015-11-01T16:28:40.050Z</time>
      </trkpt>
      <trkpt lat="49.05967" lon="2.19365">
        <ele>121</ele>
        <time>2015-11-01T16:28:40.701Z</time>
      </trkpt>
      <trkpt lat="49.05964" lon="2.19354">
        <ele>122</ele>
        <time>2015-11-01T16:28:47.940Z</time>
      </trkpt>
      <trkpt lat="49.05964" lon="2.19352">
        <ele>123</ele>
        <time>2015-11-01T16:28:48.707Z</time>
      </trkpt>
      <trkpt lat="49.05961" lon="2.1934">
        <ele>123</ele>
        <time>2015-11-01T16:28:57.040Z</time>
      </trkpt>
      <trkpt lat="49.05961" lon="2.19338">
        <ele>123</ele>
        <time>2015-11-01T16:28:57.708Z</time>
      </trkpt>
      <trkpt lat="49.05956" lon="2.19329">
        <ele>124</ele>
        <time>2015-11-01T16:29:05.138Z</time>
      </trkpt>
      <trkpt lat="49.05955" lon="2.19327">
        <ele>125</ele>
        <time>2015-11-01T16:29:05.723Z</time>
      </trkpt>
      <trkpt lat="49.05949" lon="2.1932">
        <ele>125</ele>
        <time>2015-11-01T16:29:12.954Z</time>
      </trkpt>
      <trkpt lat="49.05948" lon="2.1932">
        <ele>126</ele>
        <time>2015-11-01T16:29:13.711Z</time>
      </trkpt>
      <trkpt lat="49.0594" lon="2.19315">
        <ele>126</ele>
        <time>2015-11-01T16:29:20.791Z</time>
      </trkpt>
      <trkpt lat="49.05939" lon="2.19314">
        <ele>126</ele>
        <time>2015-11-01T16:29:21.689Z</time>
      </trkpt>
      <trkpt lat="49.05931" lon="2.1931">
        <ele>126</ele>
        <time>2015-11-01T16:29:27.868Z</time>
      </trkpt>
      <trkpt lat="49.0593" lon="2.19309">
        <ele>126</ele>
        <time>2015-11-01T16:29:28.795Z</time>
      </trkpt>
      <trkpt lat="49.05922" lon="2.19302">
        <ele>129</ele>
        <time>2015-11-01T16:29:37.146Z</time>
      </trkpt>
      <trkpt lat="49.05921" lon="2.19302">
        <ele>129</ele>
        <time>2015-11-01T16:29:37.705Z</time>
      </trkpt>
      <trkpt lat="49.05913" lon="2.19296">
        <ele>127</ele>
        <time>2015-11-01T16:29:45.869Z</time>
      </trkpt>
      <trkpt lat="49.05912" lon="2.19295">
        <ele>126</ele>
        <time>2015-11-01T16:29:46.716Z</time>
      </trkpt>
      <trkpt lat="49.05904" lon="2.1929">
        <ele>123</ele>
        <time>2015-11-01T16:29:56.389Z</time>
      </trkpt>
      <trkpt lat="49.05903" lon="2.19289">
        <ele>123</ele>
        <time>2015-11-01T16:29:56.682Z</time>
      </trkpt>
      <trkpt lat="49.05896" lon="2.19284">
        <ele>122</ele>
        <time>2015-11-01T16:30:02.881Z</time>
      </trkpt>
      <trkpt lat="49.05895" lon="2.19283">
        <ele>122</ele>
        <time>2015-11-01T16:30:03.690Z</time>
      </trkpt>
      <trkpt lat="49.05887" lon="2.19276">
        <ele>122</ele>
        <time>2015-11-01T16:30:12.855Z</time>
      </trkpt>
      <trkpt lat="49.05886" lon="2.19276">
        <ele>122</ele>
        <time>2015-11-01T16:30:13.665Z</time>
      </trkpt>
      <trkpt lat="49.05878" lon="2.19269">
        <ele>121</ele>
        <time>2015-11-01T16:30:21.042Z</time>
      </trkpt>
      <trkpt lat="49.05877" lon="2.19268">
        <ele>121</ele>
        <time>2015-11-01T16:30:21.681Z</time>
      </trkpt>
      <trkpt lat="49.0587" lon="2.19264">
        <ele>123</ele>
        <time>2015-11-01T16:30:28.887Z</time>
      </trkpt>
      <trkpt lat="49.05869" lon="2.19263">
        <ele>124</ele>
        <time>2015-11-01T16:30:29.665Z</time>
      </trkpt>
      <trkpt lat="49.0586" lon="2.19257">
        <ele>125</ele>
        <time>2015-11-01T16:30:36.911Z</time>
      </trkpt>
      <trkpt lat="49.05859" lon="2.19257">
        <ele>125</ele>
        <time>2015-11-01T16:30:37.684Z</time>
      </trkpt>
      <trkpt lat="49.05852" lon="2.19251">
        <ele>124</ele>
        <time>2015-11-01T16:30:44.809Z</time>
      </trkpt>
      <trkpt lat="49.05851" lon="2.1925">
        <ele>123</ele>
        <time>2015-11-01T16:30:45.644Z</time>
      </trkpt>
      <trkpt lat="49.05843" lon="2.19245">
        <ele>124</ele>
        <time>2015-11-01T16:30:52.933Z</time>
      </trkpt>
      <trkpt lat="49.05842" lon="2.19244">
        <ele>124</ele>
        <time>2015-11-01T16:30:53.668Z</time>
      </trkpt>
      <trkpt lat="49.05834" lon="2.19238">
        <ele>125</ele>
        <time>2015-11-01T16:31:02.142Z</time>
      </trkpt>
      <trkpt lat="49.05833" lon="2.19238">
        <ele>126</ele>
        <time>2015-11-01T16:31:02.726Z</time>
      </trkpt>
      <trkpt lat="49.05826" lon="2.19232">
        <ele>126</ele>
        <time>2015-11-01T16:31:10.894Z</time>
      </trkpt>
      <trkpt lat="49.05825" lon="2.19231">
        <ele>125</ele>
        <time>2015-11-01T16:31:11.693Z</time>
      </trkpt>
      <trkpt lat="49.05817" lon="2.19226">
        <ele>127</ele>
        <time>2015-11-01T16:31:19.117Z</time>
      </trkpt>
      <trkpt lat="49.05816" lon="2.19225">
        <ele>127</ele>
        <time>2015-11-01T16:31:19.642Z</time>
      </trkpt>
      <trkpt lat="49.05809" lon="2.1922">
        <ele>127</ele>
        <time>2015-11-01T16:31:26.896Z</time>
      </trkpt>
      <trkpt lat="49.05808" lon="2.1922">
        <ele>126</ele>
        <time>2015-11-01T16:31:27.699Z</time>
      </trkpt>
      <trkpt lat="49.05801" lon="2.19214">
        <ele>126</ele>
        <time>2015-11-01T16:31:34.925Z</time>
      </trkpt>
      <trkpt lat="49.058" lon="2.19213">
        <ele>126</ele>
        <time>2015-11-01T16:31:35.888Z</time>
      </trkpt>
      <trkpt lat="49.05792" lon="2.19207">
        <ele>127</ele>
        <time>2015-11-01T16:31:44.169Z</time>
      </trkpt>
      <trkpt lat="49.0579" lon="2.19206">
        <ele>127</ele>
        <time>2015-11-01T16:31:44.630Z</time>
      </trkpt>
      <trkpt lat="49.05783" lon="2.192">
        <ele>127</ele>
        <time>2015-11-01T16:31:51.958Z</time>
      </trkpt>
      <trkpt lat="49.05782" lon="2.19199">
        <ele>127</ele>
        <time>2015-11-01T16:31:52.693Z</time>
      </trkpt>
      <trkpt lat="49.05775" lon="2.1919">
        <ele>127</ele>
        <time>2015-11-01T16:32:01.006Z</time>
      </trkpt>
      <trkpt lat="49.05775" lon="2.19189">
        <ele>127</ele>
        <time>2015-11-01T16:32:01.717Z</time>
      </trkpt>
      <trkpt lat="49.05768" lon="2.19182">
        <ele>128</ele>
        <time>2015-11-01T16:32:09.123Z</time>
      </trkpt>
      <trkpt lat="49.05767" lon="2.19181">
        <ele>128</ele>
        <time>2015-11-01T16:32:09.708Z</time>
      </trkpt>
      <trkpt lat="49.0576" lon="2.19172">
        <ele>131</ele>
        <time>2015-11-01T16:32:22.875Z</time>
      </trkpt>
      <trkpt lat="49.05759" lon="2.19171">
        <ele>130</ele>
        <time>2015-11-01T16:32:23.626Z</time>
      </trkpt>
      <trkpt lat="49.05752" lon="2.19162">
        <ele>128</ele>
        <time>2015-11-01T16:32:32.148Z</time>
      </trkpt>
      <trkpt lat="49.05751" lon="2.19162">
        <ele>128</ele>
        <time>2015-11-01T16:32:32.701Z</time>
      </trkpt>
      <trkpt lat="49.05744" lon="2.19155">
        <ele>128</ele>
        <time>2015-11-01T16:32:40.130Z</time>
      </trkpt>
      <trkpt lat="49.05743" lon="2.19154">
        <ele>128</ele>
        <time>2015-11-01T16:32:40.714Z</time>
      </trkpt>
      <trkpt lat="49.05736" lon="2.19145">
        <ele>128</ele>
        <time>2015-11-01T16:32:48.922Z</time>
      </trkpt>
      <trkpt lat="49.05736" lon="2.19144">
        <ele>128</ele>
        <time>2015-11-01T16:32:49.709Z</time>
      </trkpt>
      <trkpt lat="49.05729" lon="2.19139">
        <ele>129</ele>
        <time>2015-11-01T16:32:56.228Z</time>
      </trkpt>
      <trkpt lat="49.05728" lon="2.19138">
        <ele>129</ele>
        <time>2015-11-01T16:32:56.723Z</time>
      </trkpt>
      <trkpt lat="49.05721" lon="2.19131">
        <ele>127</ele>
        <time>2015-11-01T16:33:04.085Z</time>
      </trkpt>
      <trkpt lat="49.0572" lon="2.1913">
        <ele>126</ele>
        <time>2015-11-01T16:33:04.643Z</time>
      </trkpt>
      <trkpt lat="49.05714" lon="2.19121">
        <ele>126</ele>
        <time>2015-11-01T16:33:12.120Z</time>
      </trkpt>
      <trkpt lat="49.05713" lon="2.1912">
        <ele>126</ele>
        <time>2015-11-01T16:33:12.706Z</time>
      </trkpt>
      <trkpt lat="49.05706" lon="2.19113">
        <ele>126</ele>
        <time>2015-11-01T16:33:18.919Z</time>
      </trkpt>
      <trkpt lat="49.05705" lon="2.19112">
        <ele>126</ele>
        <time>2015-11-01T16:33:19.684Z</time>
      </trkpt>
      <trkpt lat="49.05699" lon="2.19104">
        <ele>125</ele>
        <time>2015-11-01T16:33:26.823Z</time>
      </trkpt>
      <trkpt lat="49.05698" lon="2.19103">
        <ele>125</ele>
        <time>2015-11-01T16:33:27.697Z</time>
      </trkpt>
      <trkpt lat="49.0569" lon="2.19096">
        <ele>125</ele>
        <time>2015-11-01T16:33:35.139Z</time>
      </trkpt>
      <trkpt lat="49.05689" lon="2.19095">
        <ele>126</ele>
        <time>2015-11-01T16:33:35.733Z</time>
      </trkpt>
      <trkpt lat="49.05683" lon="2.19087">
        <ele>123</ele>
        <time>2015-11-01T16:33:42.113Z</time>
      </trkpt>
      <trkpt lat="49.05683" lon="2.19086">
        <ele>122</ele>
        <time>2015-11-01T16:33:42.711Z</time>
      </trkpt>
      <trkpt lat="49.05684" lon="2.19073">
        <ele>120</ele>
        <time>2015-11-01T16:33:50.847Z</time>
      </trkpt>
      <trkpt lat="49.05685" lon="2.19072">
        <ele>119</ele>
        <time>2015-11-01T16:33:51.694Z</time>
      </trkpt>
      <trkpt lat="49.05691" lon="2.19064">
        <ele>118</ele>
        <time>2015-11-01T16:34:27.103Z</time>
      </trkpt>
      <trkpt lat="49.05692" lon="2.19063">
        <ele>118</ele>
        <time>2015-11-01T16:34:27.709Z</time>
      </trkpt>
      <trkpt lat="49.05699" lon="2.19055">
        <ele>120</ele>
        <time>2015-11-01T16:34:36.869Z</time>
      </trkpt>
      <trkpt lat="49.057" lon="2.19054">
        <ele>119</ele>
        <time>2015-11-01T16:34:37.705Z</time>
      </trkpt>
      <trkpt lat="49.05708" lon="2.19047">
        <ele>117</ele>
        <time>2015-11-01T16:34:58.894Z</time>
      </trkpt>
      <trkpt lat="49.05708" lon="2.19047">
        <ele>117</ele>
        <time>2015-11-01T16:34:59.699Z</time>
      </trkpt>
      <trkpt lat="49.05709" lon="2.19046">
        <ele>117</ele>
        <time>2015-11-01T16:35:02.133Z</time>
      </trkpt>
    </trkseg>
  </trk>
</gpx>